Wetterdaten: Mittwoch, 08.11.2017
Datum Zeit Temp. A. Temp. A. max Feuchte A. Luftdruck Regen Wind Richtung Richtung Sonnenschein ET UV Solar Taupunkt Windchill Windböen
08.11.2017 00:00 2,8 °C 2,8 °C 92 % 1014,3 hPa 0,0 mm 2,3 km/h (1 Bft) W 263 ° 0 min 0,000 mm 0,0 UV-I 0 W/m² 1,6 °C 2,8 °C 4,8 km/h (1 Bft)
08.11.2017 00:01 2,8 °C 2,8 °C 92 % 1014,4 hPa 0,0 mm 2,9 km/h (1 Bft) W-SW 257 ° 0 min 0,000 mm 0,0 UV-I 0 W/m² 1,6 °C 2,8 °C 4,8 km/h (1 Bft)
08.11.2017 00:02 2,8 °C 2,8 °C 93 % 1014,4 hPa 0,0 mm 2,0 km/h (1 Bft) W-SW 257 ° 0 min 0,000 mm 0,0 UV-I 0 W/m² 1,8 °C 2,8 °C 3,2 km/h (1 Bft)
08.11.2017 00:03 2,8 °C 2,8 °C 93 % 1014,4 hPa 0,0 mm 0,3 km/h (0 Bft) W-SW 257 ° 0 min 0,000 mm 0,0 UV-I 0 W/m² 1,8 °C 2,8 °C 1,6 km/h (1 Bft)
08.11.2017 00:04 2,8 °C 2,8 °C 93 % 1014,4 hPa 0,0 mm 2,2 km/h (1 Bft) W-SW 257 ° 0 min 0,000 mm 0,0 UV-I 0 W/m² 1,8 °C 2,8 °C 3,2 km/h (1 Bft)
08.11.2017 00:05 2,7 °C 2,8 °C 93 % 1014,4 hPa 0,0 mm 2,5 km/h (1 Bft) W-SW 257 ° 0 min 0,000 mm 0,0 UV-I 0 W/m² 1,7 °C 2,7 °C 4,8 km/h (1 Bft)
08.11.2017 00:06 2,8 °C 2,8 °C 93 % 1014,4 hPa 0,0 mm 1,0 km/h (0 Bft) W-SW 257 ° 0 min 0,000 mm 0,0 UV-I 0 W/m² 1,8 °C 2,8 °C 1,6 km/h (1 Bft)
08.11.2017 00:07 2,7 °C 2,8 °C 93 % 1014,4 hPa 0,0 mm 0,1 km/h (0 Bft) W-SW 257 ° 0 min 0,000 mm 0,0 UV-I 0 W/m² 1,7 °C 2,7 °C 1,6 km/h (1 Bft)
08.11.2017 00:08 2,7 °C 2,8 °C 93 % 1014,4 hPa 0,2 mm 0,1 km/h (0 Bft) W-SW 257 ° 0 min 0,000 mm 0,0 UV-I 0 W/m² 1,7 °C 2,7 °C 1,6 km/h (1 Bft)
08.11.2017 00:09 2,7 °C 2,7 °C 93 % 1014,4 hPa 0,0 mm 0,6 km/h (0 Bft) W-SW 257 ° 0 min 0,000 mm 0,0 UV-I 0 W/m² 1,7 °C 2,7 °C 3,2 km/h (1 Bft)
08.11.2017 00:10 2,7 °C 2,7 °C 93 % 1014,5 hPa 0,0 mm 1,5 km/h (1 Bft) W-SW 257 ° 0 min 0,000 mm 0,0 UV-I 0 W/m² 1,7 °C 2,7 °C 3,2 km/h (1 Bft)
08.11.2017 00:11 2,7 °C 2,7 °C 93 % 1014,5 hPa 0,0 mm 0,0 km/h (0 Bft) W-SW 257 ° 0 min 0,000 mm 0,0 UV-I 0 W/m² 1,7 °C 2,7 °C 0,0 km/h (0 Bft)
08.11.2017 00:12 2,7 °C 2,7 °C 93 % 1014,5 hPa 0,0 mm 0,0 km/h (0 Bft) W-SW 257 ° 0 min 0,000 mm 0,0 UV-I 0 W/m² 1,7 °C 2,7 °C 0,0 km/h (0 Bft)
08.11.2017 00:13 2,7 °C 2,7 °C 93 % 1014,6 hPa 0,0 mm 0,0 km/h (0 Bft) W-SW 257 ° 0 min 0,000 mm 0,0 UV-I 0 W/m² 1,7 °C 2,7 °C 0,0 km/h (0 Bft)
08.11.2017 00:14 2,7 °C 2,7 °C 93 % 1014,6 hPa 0,0 mm 0,0 km/h (0 Bft) W-SW 257 ° 0 min 0,000 mm 0,0 UV-I 0 W/m² 1,7 °C 2,7 °C 0,0 km/h (0 Bft)
08.11.2017 00:15 2,7 °C 2,7 °C 93 % 1014,6 hPa 0,0 mm 0,0 km/h (0 Bft) W-SW 257 ° 0 min 0,000 mm 0,0 UV-I 0 W/m² 1,7 °C 2,7 °C 0,0 km/h (0 Bft)
08.11.2017 00:16 2,7 °C 2,7 °C 93 % 1014,6 hPa 0,0 mm 0,0 km/h (0 Bft) W-SW 257 ° 0 min 0,000 mm 0,0 UV-I 0 W/m² 1,7 °C 2,7 °C 0,0 km/h (0 Bft)
08.11.2017 00:17 2,7 °C 2,7 °C 93 % 1014,7 hPa 0,0 mm 0,0 km/h (0 Bft) W-SW 257 ° 0 min 0,000 mm 0,0 UV-I 0 W/m² 1,7 °C 2,7 °C 0,0 km/h (0 Bft)
08.11.2017 00:18 2,7 °C 2,7 °C 93 % 1014,6 hPa 0,0 mm 0,0 km/h (0 Bft) W-SW 257 ° 0 min 0,000 mm 0,0 UV-I 0 W/m² 1,7 °C 2,7 °C 0,0 km/h (0 Bft)
08.11.2017 00:19 2,6 °C 2,7 °C 93 % 1014,6 hPa 0,0 mm 0,0 km/h (0 Bft) W-SW 257 ° 0 min 0,000 mm 0,0 UV-I 0 W/m² 1,6 °C 2,6 °C 0,0 km/h (0 Bft)
08.11.2017 00:20 2,7 °C 2,7 °C 93 % 1014,6 hPa 0,0 mm 1,9 km/h (1 Bft) W-SW 257 ° 0 min 0,000 mm 0,0 UV-I 0 W/m² 1,7 °C 2,7 °C 3,2 km/h (1 Bft)
08.11.2017 00:21 2,7 °C 2,7 °C 93 % 1014,6 hPa 0,0 mm 1,5 km/h (1 Bft) W-SW 252 ° 0 min 0,000 mm 0,0 UV-I 0 W/m² 1,7 °C 2,7 °C 3,2 km/h (1 Bft)
08.11.2017 00:22 2,7 °C 2,7 °C 93 % 1014,6 hPa 0,0 mm 0,0 km/h (0 Bft) W-SW 252 ° 0 min 0,000 mm 0,0 UV-I 0 W/m² 1,7 °C 2,7 °C 0,0 km/h (0 Bft)
08.11.2017 00:23 2,7 °C 2,7 °C 93 % 1014,7 hPa 0,0 mm 1,9 km/h (1 Bft) SW 217 ° 0 min 0,000 mm 0,0 UV-I 0 W/m² 1,7 °C 2,7 °C 4,8 km/h (1 Bft)
08.11.2017 00:24 2,6 °C 2,7 °C 93 % 1014,7 hPa 0,2 mm 2,7 km/h (1 Bft) SW 217 ° 0 min 0,000 mm 0,0 UV-I 0 W/m² 1,6 °C 2,6 °C 3,2 km/h (1 Bft)
08.11.2017 00:25 2,7 °C 2,7 °C 93 % 1014,7 hPa 0,0 mm 2,7 km/h (1 Bft) SW 217 ° 0 min 0,000 mm 0,0 UV-I 0 W/m² 1,7 °C 2,7 °C 4,8 km/h (1 Bft)
08.11.2017 00:26 2,6 °C 2,7 °C 93 % 1014,7 hPa 0,0 mm 1,2 km/h (1 Bft) SW 217 ° 0 min 0,000 mm 0,0 UV-I 0 W/m² 1,6 °C 2,6 °C 3,2 km/h (1 Bft)
08.11.2017 00:27 2,6 °C 2,7 °C 93 % 1014,8 hPa 0,0 mm 0,0 km/h (0 Bft) SW 217 ° 0 min 0,000 mm 0,0 UV-I 0 W/m² 1,6 °C 2,6 °C 0,0 km/h (0 Bft)
08.11.2017 00:28 2,7 °C 2,7 °C 93 % 1014,8 hPa 0,0 mm 0,0 km/h (0 Bft) SW 217 ° 0 min 0,000 mm 0,0 UV-I 0 W/m² 1,7 °C 2,7 °C 0,0 km/h (0 Bft)
08.11.2017 00:29 2,7 °C 2,7 °C 93 % 1014,8 hPa 0,0 mm 0,0 km/h (0 Bft) SW 217 ° 0 min 0,000 mm 0,0 UV-I 0 W/m² 1,7 °C 2,7 °C 0,0 km/h (0 Bft)
08.11.2017 00:30 2,7 °C 2,7 °C 93 % 1014,7 hPa 0,0 mm 0,0 km/h (0 Bft) SW 217 ° 0 min 0,000 mm 0,0 UV-I 0 W/m² 1,7 °C 2,7 °C 0,0 km/h (0 Bft)
08.11.2017 00:31 2,7 °C 2,7 °C 93 % 1014,8 hPa 0,0 mm 0,0 km/h (0 Bft) SW 217 ° 0 min 0,000 mm 0,0 UV-I 0 W/m² 1,7 °C 2,7 °C 0,0 km/h (0 Bft)
08.11.2017 00:32 2,7 °C 2,7 °C 93 % 1014,8 hPa 0,0 mm 0,0 km/h (0 Bft) SW 217 ° 0 min 0,000 mm 0,0 UV-I 0 W/m² 1,7 °C 2,7 °C 0,0 km/h (0 Bft)
08.11.2017 00:33 2,7 °C 2,7 °C 93 % 1014,7 hPa 0,0 mm 0,7 km/h (0 Bft) SW 217 ° 0 min 0,000 mm 0,0 UV-I 0 W/m² 1,7 °C 2,7 °C 1,6 km/h (1 Bft)
08.11.2017 00:34 2,7 °C 2,7 °C 93 % 1014,8 hPa 0,0 mm 1,6 km/h (1 Bft) SW 217 ° 0 min 0,000 mm 0,0 UV-I 0 W/m² 1,7 °C 2,7 °C 3,2 km/h (1 Bft)
08.11.2017 00:35 2,6 °C 2,7 °C 94 % 1014,7 hPa 0,0 mm 0,1 km/h (0 Bft) SW 217 ° 0 min 0,000 mm 0,0 UV-I 0 W/m² 1,7 °C 2,6 °C 1,6 km/h (1 Bft)
08.11.2017 00:36 2,6 °C 2,6 °C 94 % 1014,8 hPa 0,0 mm 1,7 km/h (1 Bft) SW 217 ° 0 min 0,000 mm 0,0 UV-I 0 W/m² 1,7 °C 2,6 °C 3,2 km/h (1 Bft)
08.11.2017 00:37 2,6 °C 2,6 °C 94 % 1014,8 hPa 0,0 mm 0,1 km/h (0 Bft) SW 217 ° 0 min 0,000 mm 0,0 UV-I 0 W/m² 1,7 °C 2,6 °C 1,6 km/h (1 Bft)
08.11.2017 00:38 2,6 °C 2,6 °C 94 % 1014,8 hPa 0,0 mm 0,0 km/h (0 Bft) SW 217 ° 0 min 0,000 mm 0,0 UV-I 0 W/m² 1,7 °C 2,6 °C 0,0 km/h (0 Bft)
08.11.2017 00:39 2,6 °C 2,6 °C 94 % 1014,8 hPa 0,2 mm 0,5 km/h (0 Bft) SW 217 ° 0 min 0,000 mm 0,0 UV-I 0 W/m² 1,7 °C 2,6 °C 1,6 km/h (1 Bft)
08.11.2017 00:40 2,6 °C 2,6 °C 94 % 1014,8 hPa 0,0 mm 0,0 km/h (0 Bft) SW 217 ° 0 min 0,000 mm 0,0 UV-I 0 W/m² 1,7 °C 2,6 °C 0,0 km/h (0 Bft)
08.11.2017 00:41 2,5 °C 2,6 °C 94 % 1014,8 hPa 0,0 mm 2,0 km/h (1 Bft) SW 217 ° 0 min 0,000 mm 0,0 UV-I 0 W/m² 1,6 °C 2,5 °C 4,8 km/h (1 Bft)
08.11.2017 00:42 2,5 °C 2,5 °C 94 % 1014,7 hPa 0,0 mm 1,4 km/h (1 Bft) SW 217 ° 0 min 0,000 mm 0,0 UV-I 0 W/m² 1,6 °C 2,5 °C 4,8 km/h (1 Bft)
08.11.2017 00:43 2,5 °C 2,5 °C 94 % 1014,7 hPa 0,0 mm 1,0 km/h (0 Bft) SW 217 ° 0 min 0,000 mm 0,0 UV-I 0 W/m² 1,6 °C 2,5 °C 3,2 km/h (1 Bft)
08.11.2017 00:44 2,4 °C 2,5 °C 94 % 1014,7 hPa 0,0 mm 1,5 km/h (1 Bft) SW 234 ° 0 min 0,000 mm 0,0 UV-I 0 W/m² 1,5 °C 2,4 °C 3,2 km/h (1 Bft)
08.11.2017 00:45 2,4 °C 2,5 °C 94 % 1014,7 hPa 0,0 mm 1,5 km/h (1 Bft) W-SW 249 ° 0 min 0,000 mm 0,0 UV-I 0 W/m² 1,5 °C 2,4 °C 3,2 km/h (1 Bft)
08.11.2017 00:46 2,4 °C 2,5 °C 93 % 1014,7 hPa 0,0 mm 1,5 km/h (1 Bft) SW 219 ° 0 min 0,000 mm 0,0 UV-I 0 W/m² 1,4 °C 2,4 °C 3,2 km/h (1 Bft)
08.11.2017 00:47 2,5 °C 2,5 °C 93 % 1014,6 hPa 0,0 mm 1,0 km/h (0 Bft) SW 221 ° 0 min 0,000 mm 0,0 UV-I 0 W/m² 1,5 °C 2,5 °C 3,2 km/h (1 Bft)
08.11.2017 00:48 2,4 °C 2,5 °C 93 % 1014,6 hPa 0,0 mm 0,1 km/h (0 Bft) SW 221 ° 0 min 0,000 mm 0,0 UV-I 0 W/m² 1,4 °C 2,4 °C 1,6 km/h (1 Bft)
08.11.2017 00:49 2,4 °C 2,5 °C 94 % 1014,7 hPa 0,0 mm 2,4 km/h (1 Bft) SW 227 ° 0 min 0,000 mm 0,0 UV-I 0 W/m² 1,5 °C 2,4 °C 4,8 km/h (1 Bft)
08.11.2017 00:50 2,4 °C 2,5 °C 94 % 1014,7 hPa 0,0 mm 1,1 km/h (1 Bft) SW 227 ° 0 min 0,000 mm 0,0 UV-I 0 W/m² 1,5 °C 2,4 °C 3,2 km/h (1 Bft)
08.11.2017 00:51 2,5 °C 2,5 °C 94 % 1014,6 hPa 0,0 mm 2,8 km/h (1 Bft) W-SW 246 ° 0 min 0,000 mm 0,0 UV-I 0 W/m² 1,6 °C 2,5 °C 4,8 km/h (1 Bft)
08.11.2017 00:52 2,4 °C 2,5 °C 94 % 1014,7 hPa 0,0 mm 0,1 km/h (0 Bft) W-SW 246 ° 0 min 0,000 mm 0,0 UV-I 0 W/m² 1,5 °C 2,4 °C 1,6 km/h (1 Bft)
08.11.2017 00:53 2,4 °C 2,5 °C 93 % 1014,7 hPa 0,0 mm 0,0 km/h (0 Bft) W-SW 246 ° 0 min 0,000 mm 0,0 UV-I 0 W/m² 1,4 °C 2,4 °C 0,0 km/h (0 Bft)
08.11.2017 00:54 2,4 °C 2,5 °C 93 % 1014,7 hPa 0,0 mm 0,0 km/h (0 Bft) W-SW 246 ° 0 min 0,000 mm 0,0 UV-I 0 W/m² 1,4 °C 2,4 °C 0,0 km/h (0 Bft)
08.11.2017 00:55 2,4 °C 2,4 °C 93 % 1014,7 hPa 0,0 mm 0,3 km/h (0 Bft) W-SW 246 ° 0 min 0,000 mm 0,0 UV-I 0 W/m² 1,4 °C 2,4 °C 1,6 km/h (1 Bft)
08.11.2017 00:56 2,4 °C 2,4 °C 93 % 1014,7 hPa 0,2 mm 2,3 km/h (1 Bft) W-SW 246 ° 0 min 0,000 mm 0,0 UV-I 0 W/m² 1,4 °C 2,4 °C 3,2 km/h (1 Bft)
08.11.2017 00:57 2,4 °C 2,4 °C 93 % 1014,7 hPa 0,0 mm 0,8 km/h (0 Bft) W-SW 246 ° 0 min 0,000 mm 0,0 UV-I 0 W/m² 1,4 °C 2,4 °C 1,6 km/h (1 Bft)
08.11.2017 00:58 2,4 °C 2,4 °C 93 % 1014,7 hPa 0,0 mm 0,1 km/h (0 Bft) W-SW 246 ° 0 min 0,000 mm 0,0 UV-I 0 W/m² 1,4 °C 2,4 °C 1,6 km/h (1 Bft)
08.11.2017 00:59 2,4 °C 2,4 °C 93 % 1014,7 hPa 0,0 mm 0,0 km/h (0 Bft) W-SW 246 ° 0 min 0,000 mm 0,0 UV-I 0 W/m² 1,4 °C 2,4 °C 0,0 km/h (0 Bft)
08.11.2017 01:00 2,4 °C 2,4 °C 93 % 1014,8 hPa 0,0 mm 0,0 km/h (0 Bft) W-SW 246 ° 0 min 0,000 mm 0,0 UV-I 0 W/m² 1,4 °C 2,4 °C 0,0 km/h (0 Bft)
08.11.2017 01:01 2,4 °C 2,4 °C 93 % 1014,7 hPa 0,0 mm 0,4 km/h (0 Bft) W-SW 246 ° 0 min 0,000 mm 0,0 UV-I 0 W/m² 1,4 °C 2,4 °C 1,6 km/h (1 Bft)
08.11.2017 01:02 2,4 °C 2,4 °C 93 % 1014,7 hPa 0,0 mm 0,1 km/h (0 Bft) W-SW 246 ° 0 min 0,000 mm 0,0 UV-I 0 W/m² 1,4 °C 2,4 °C 1,6 km/h (1 Bft)
08.11.2017 01:03 2,4 °C 2,4 °C 93 % 1014,8 hPa 0,0 mm 0,1 km/h (0 Bft) W-SW 246 ° 0 min 0,000 mm 0,0 UV-I 0 W/m² 1,4 °C 2,4 °C 1,6 km/h (1 Bft)
08.11.2017 01:04 2,4 °C 2,4 °C 93 % 1014,7 hPa 0,0 mm 0,0 km/h (0 Bft) W-SW 246 ° 0 min 0,000 mm 0,0 UV-I 0 W/m² 1,4 °C 2,4 °C 0,0 km/h (0 Bft)
08.11.2017 01:05 2,4 °C 2,4 °C 93 % 1014,7 hPa 0,0 mm 0,9 km/h (0 Bft) W-SW 246 ° 0 min 0,000 mm 0,0 UV-I 0 W/m² 1,4 °C 2,4 °C 1,6 km/h (1 Bft)
08.11.2017 01:06 2,4 °C 2,4 °C 93 % 1014,7 hPa 0,0 mm 1,3 km/h (1 Bft) W-SW 246 ° 0 min 0,000 mm 0,0 UV-I 0 W/m² 1,4 °C 2,4 °C 3,2 km/h (1 Bft)
08.11.2017 01:07 2,4 °C 2,4 °C 93 % 1014,7 hPa 0,0 mm 1,0 km/h (0 Bft) W-SW 246 ° 0 min 0,000 mm 0,0 UV-I 0 W/m² 1,4 °C 2,4 °C 1,6 km/h (1 Bft)
08.11.2017 01:08 2,4 °C 2,4 °C 93 % 1014,7 hPa 0,0 mm 0,1 km/h (0 Bft) W-SW 246 ° 0 min 0,000 mm 0,0 UV-I 0 W/m² 1,4 °C 2,4 °C 1,6 km/h (1 Bft)
08.11.2017 01:09 2,4 °C 2,4 °C 93 % 1014,7 hPa 0,0 mm 0,0 km/h (0 Bft) W-SW 246 ° 0 min 0,000 mm 0,0 UV-I 0 W/m² 1,4 °C 2,4 °C 0,0 km/h (0 Bft)
08.11.2017 01:10 2,4 °C 2,4 °C 93 % 1014,7 hPa 0,0 mm 0,6 km/h (0 Bft) W-SW 246 ° 0 min 0,000 mm 0,0 UV-I 0 W/m² 1,4 °C 2,4 °C 3,2 km/h (1 Bft)
08.11.2017 01:11 2,4 °C 2,4 °C 93 % 1014,7 hPa 0,0 mm 2,4 km/h (1 Bft) W-SW 246 ° 0 min 0,000 mm 0,0 UV-I 0 W/m² 1,4 °C 2,4 °C 4,8 km/h (1 Bft)
08.11.2017 01:12 2,4 °C 2,4 °C 93 % 1014,7 hPa 0,0 mm 1,1 km/h (1 Bft) W-SW 246 ° 0 min 0,000 mm 0,0 UV-I 0 W/m² 1,4 °C 2,4 °C 1,6 km/h (1 Bft)
08.11.2017 01:13 2,4 °C 2,4 °C 93 % 1014,7 hPa 0,0 mm 0,1 km/h (0 Bft) W-SW 246 ° 0 min 0,000 mm 0,0 UV-I 0 W/m² 1,4 °C 2,4 °C 1,6 km/h (1 Bft)
08.11.2017 01:14 2,4 °C 2,4 °C 93 % 1014,7 hPa 0,0 mm 1,7 km/h (1 Bft) W-SW 246 ° 0 min 0,000 mm 0,0 UV-I 0 W/m² 1,4 °C 2,4 °C 3,2 km/h (1 Bft)
08.11.2017 01:15 2,4 °C 2,4 °C 93 % 1014,7 hPa 0,0 mm 1,2 km/h (1 Bft) W-SW 246 ° 0 min 0,000 mm 0,0 UV-I 0 W/m² 1,4 °C 2,4 °C 3,2 km/h (1 Bft)
08.11.2017 01:16 2,4 °C 2,4 °C 93 % 1014,7 hPa 0,0 mm 0,0 km/h (0 Bft) W-SW 246 ° 0 min 0,000 mm 0,0 UV-I 0 W/m² 1,4 °C 2,4 °C 0,0 km/h (0 Bft)
08.11.2017 01:17 2,4 °C 2,4 °C 93 % 1014,7 hPa 0,0 mm 0,0 km/h (0 Bft) W-SW 246 ° 0 min 0,000 mm 0,0 UV-I 0 W/m² 1,4 °C 2,4 °C 0,0 km/h (0 Bft)
08.11.2017 01:18 2,3 °C 2,4 °C 93 % 1014,7 hPa 0,0 mm 0,1 km/h (0 Bft) W-SW 246 ° 0 min 0,000 mm 0,0 UV-I 0 W/m² 1,3 °C 2,3 °C 1,6 km/h (1 Bft)
08.11.2017 01:19 2,4 °C 2,4 °C 93 % 1014,7 hPa 0,0 mm 1,3 km/h (1 Bft) W-SW 246 ° 0 min 0,000 mm 0,0 UV-I 0 W/m² 1,4 °C 2,4 °C 3,2 km/h (1 Bft)
08.11.2017 01:20 2,4 °C 2,4 °C 93 % 1014,6 hPa 0,0 mm 1,7 km/h (1 Bft) W-SW 246 ° 0 min 0,000 mm 0,0 UV-I 0 W/m² 1,4 °C 2,4 °C 3,2 km/h (1 Bft)
08.11.2017 01:21 2,3 °C 2,4 °C 94 % 1014,6 hPa 0,0 mm 1,0 km/h (0 Bft) W-SW 246 ° 0 min 0,000 mm 0,0 UV-I 0 W/m² 1,4 °C 2,3 °C 3,2 km/h (1 Bft)
08.11.2017 01:22 2,4 °C 2,4 °C 93 % 1014,7 hPa 0,0 mm 0,0 km/h (0 Bft) W-SW 246 ° 0 min 0,000 mm 0,0 UV-I 0 W/m² 1,4 °C 2,4 °C 0,0 km/h (0 Bft)
08.11.2017 01:23 2,3 °C 2,4 °C 94 % 1014,7 hPa 0,0 mm 1,4 km/h (1 Bft) W-SW 246 ° 0 min 0,000 mm 0,0 UV-I 0 W/m² 1,4 °C 2,3 °C 3,2 km/h (1 Bft)
08.11.2017 01:24 2,4 °C 2,4 °C 93 % 1014,6 hPa 0,0 mm 0,6 km/h (0 Bft) W-SW 246 ° 0 min 0,000 mm 0,0 UV-I 0 W/m² 1,4 °C 2,4 °C 1,6 km/h (1 Bft)
08.11.2017 01:25 2,3 °C 2,4 °C 94 % 1014,6 hPa 0,0 mm 1,1 km/h (1 Bft) W-SW 246 ° 0 min 0,000 mm 0,0 UV-I 0 W/m² 1,4 °C 2,3 °C 3,2 km/h (1 Bft)
08.11.2017 01:26 2,3 °C 2,4 °C 94 % 1014,6 hPa 0,0 mm 1,4 km/h (1 Bft) W-SW 246 ° 0 min 0,000 mm 0,0 UV-I 0 W/m² 1,4 °C 2,3 °C 3,2 km/h (1 Bft)
08.11.2017 01:27 2,3 °C 2,4 °C 94 % 1014,6 hPa 0,0 mm 0,7 km/h (0 Bft) W-SW 246 ° 0 min 0,000 mm 0,0 UV-I 0 W/m² 1,4 °C 2,3 °C 1,6 km/h (1 Bft)
08.11.2017 01:28 2,4 °C 2,4 °C 94 % 1014,6 hPa 0,0 mm 0,2 km/h (0 Bft) W-SW 246 ° 0 min 0,000 mm 0,0 UV-I 0 W/m² 1,5 °C 2,4 °C 1,6 km/h (1 Bft)
08.11.2017 01:29 2,3 °C 2,4 °C 94 % 1014,6 hPa 0,0 mm 0,4 km/h (0 Bft) W-SW 246 ° 0 min 0,000 mm 0,0 UV-I 0 W/m² 1,4 °C 2,3 °C 1,6 km/h (1 Bft)
08.11.2017 01:30 2,4 °C 2,4 °C 94 % 1014,6 hPa 0,0 mm 0,0 km/h (0 Bft) W-SW 246 ° 0 min 0,000 mm 0,0 UV-I 0 W/m² 1,5 °C 2,4 °C 0,0 km/h (0 Bft)
08.11.2017 01:31 2,4 °C 2,4 °C 94 % 1014,6 hPa 0,0 mm 0,0 km/h (0 Bft) W-SW 246 ° 0 min 0,000 mm 0,0 UV-I 0 W/m² 1,5 °C 2,4 °C 0,0 km/h (0 Bft)
08.11.2017 01:32 2,3 °C 2,4 °C 94 % 1014,6 hPa 0,0 mm 0,4 km/h (0 Bft) W-SW 246 ° 0 min 0,000 mm 0,0 UV-I 0 W/m² 1,4 °C 2,3 °C 1,6 km/h (1 Bft)
08.11.2017 01:33 2,4 °C 2,4 °C 94 % 1014,6 hPa 0,0 mm 0,0 km/h (0 Bft) W-SW 246 ° 0 min 0,000 mm 0,0 UV-I 0 W/m² 1,5 °C 2,4 °C 0,0 km/h (0 Bft)
08.11.2017 01:34 2,3 °C 2,4 °C 94 % 1014,6 hPa 0,0 mm 0,5 km/h (0 Bft) W-SW 246 ° 0 min 0,000 mm 0,0 UV-I 0 W/m² 1,4 °C 2,3 °C 1,6 km/h (1 Bft)
08.11.2017 01:35 2,3 °C 2,4 °C 94 % 1014,6 hPa 0,0 mm 0,0 km/h (0 Bft) W-SW 246 ° 0 min 0,000 mm 0,0 UV-I 0 W/m² 1,4 °C 2,3 °C 0,0 km/h (0 Bft)
08.11.2017 01:36 2,3 °C 2,4 °C 94 % 1014,6 hPa 0,0 mm 1,1 km/h (1 Bft) W-SW 246 ° 0 min 0,000 mm 0,0 UV-I 0 W/m² 1,4 °C 2,3 °C 3,2 km/h (1 Bft)
08.11.2017 01:37 2,4 °C 2,4 °C 94 % 1014,6 hPa 0,0 mm 2,1 km/h (1 Bft) W-SW 247 ° 0 min 0,000 mm 0,0 UV-I 0 W/m² 1,5 °C 2,4 °C 4,8 km/h (1 Bft)
08.11.2017 01:38 2,3 °C 2,4 °C 94 % 1014,6 hPa 0,0 mm 0,0 km/h (0 Bft) W-SW 246 ° 0 min 0,000 mm 0,0 UV-I 0 W/m² 1,4 °C 2,3 °C 0,0 km/h (0 Bft)
08.11.2017 01:39 2,3 °C 2,4 °C 94 % 1014,6 hPa 0,0 mm 0,1 km/h (0 Bft) W-SW 239 ° 0 min 0,000 mm 0,0 UV-I 0 W/m² 1,4 °C 2,3 °C 1,6 km/h (1 Bft)
08.11.2017 01:40 2,3 °C 2,3 °C 94 % 1014,6 hPa 0,0 mm 1,7 km/h (1 Bft) SW 229 ° 0 min 0,000 mm 0,0 UV-I 0 W/m² 1,4 °C 2,3 °C 3,2 km/h (1 Bft)
08.11.2017 01:41 2,3 °C 2,3 °C 94 % 1014,6 hPa 0,0 mm 0,1 km/h (0 Bft) SW 229 ° 0 min 0,000 mm 0,0 UV-I 0 W/m² 1,4 °C 2,3 °C 1,6 km/h (1 Bft)
08.11.2017 01:42 2,3 °C 2,3 °C 94 % 1014,6 hPa 0,0 mm 0,6 km/h (0 Bft) SW 229 ° 0 min 0,000 mm 0,0 UV-I 0 W/m² 1,4 °C 2,3 °C 3,2 km/h (1 Bft)
08.11.2017 01:43 2,3 °C 2,4 °C 94 % 1014,6 hPa 0,0 mm 1,5 km/h (1 Bft) SW 229 ° 0 min 0,000 mm 0,0 UV-I 0 W/m² 1,4 °C 2,3 °C 3,2 km/h (1 Bft)
08.11.2017 01:44 2,3 °C 2,3 °C 94 % 1014,6 hPa 0,0 mm 1,7 km/h (1 Bft) S-SW 207 ° 0 min 0,000 mm 0,0 UV-I 0 W/m² 1,4 °C 2,3 °C 6,4 km/h (2 Bft)
08.11.2017 01:45 2,3 °C 2,3 °C 94 % 1014,5 hPa 0,0 mm 0,0 km/h (0 Bft) S-SW 207 ° 0 min 0,000 mm 0,0 UV-I 0 W/m² 1,4 °C 2,3 °C 0,0 km/h (0 Bft)
08.11.2017 01:46 2,3 °C 2,3 °C 94 % 1014,6 hPa 0,0 mm 0,6 km/h (0 Bft) S-SW 207 ° 0 min 0,000 mm 0,0 UV-I 0 W/m² 1,4 °C 2,3 °C 3,2 km/h (1 Bft)
08.11.2017 01:47 2,3 °C 2,3 °C 94 % 1014,6 hPa 0,0 mm 0,8 km/h (0 Bft) S-SW 207 ° 0 min 0,000 mm 0,0 UV-I 0 W/m² 1,4 °C 2,3 °C 1,6 km/h (1 Bft)
08.11.2017 01:48 2,3 °C 2,4 °C 94 % 1014,6 hPa 0,0 mm 0,9 km/h (0 Bft) S-SW 207 ° 0 min 0,000 mm 0,0 UV-I 0 W/m² 1,4 °C 2,3 °C 1,6 km/h (1 Bft)
08.11.2017 01:49 2,3 °C 2,4 °C 94 % 1014,6 hPa 0,0 mm 1,3 km/h (1 Bft) S-SW 207 ° 0 min 0,000 mm 0,0 UV-I 0 W/m² 1,4 °C 2,3 °C 3,2 km/h (1 Bft)
08.11.2017 01:50 2,3 °C 2,3 °C 94 % 1014,6 hPa 0,0 mm 0,9 km/h (0 Bft) S-SW 207 ° 0 min 0,000 mm 0,0 UV-I 0 W/m² 1,4 °C 2,3 °C 3,2 km/h (1 Bft)
08.11.2017 01:51 2,3 °C 2,4 °C 94 % 1014,5 hPa 0,0 mm 1,1 km/h (1 Bft) S-SW 207 ° 0 min 0,000 mm 0,0 UV-I 0 W/m² 1,4 °C 2,3 °C 3,2 km/h (1 Bft)
08.11.2017 01:52 2,4 °C 2,4 °C 94 % 1014,5 hPa 0,0 mm 3,0 km/h (1 Bft) SW 236 ° 0 min 0,000 mm 0,0 UV-I 0 W/m² 1,5 °C 2,4 °C 4,8 km/h (1 Bft)
08.11.2017 01:53 2,3 °C 2,4 °C 94 % 1014,6 hPa 0,0 mm 1,2 km/h (1 Bft) S-SW 211 ° 0 min 0,000 mm 0,0 UV-I 0 W/m² 1,4 °C 2,3 °C 3,2 km/h (1 Bft)
08.11.2017 01:54 2,4 °C 2,4 °C 94 % 1014,5 hPa 0,0 mm 0,1 km/h (0 Bft) S-SW 211 ° 0 min 0,000 mm 0,0 UV-I 0 W/m² 1,5 °C 2,4 °C 1,6 km/h (1 Bft)
08.11.2017 01:55 2,3 °C 2,4 °C 94 % 1014,5 hPa 0,0 mm 1,3 km/h (1 Bft) S-SW 211 ° 0 min 0,000 mm 0,0 UV-I 0 W/m² 1,4 °C 2,3 °C 3,2 km/h (1 Bft)
08.11.2017 01:56 2,4 °C 2,4 °C 94 % 1014,5 hPa 0,0 mm 2,1 km/h (1 Bft) S-SW 211 ° 0 min 0,000 mm 0,0 UV-I 0 W/m² 1,5 °C 2,4 °C 4,8 km/h (1 Bft)
08.11.2017 01:57 2,4 °C 2,4 °C 94 % 1014,5 hPa 0,0 mm 3,4 km/h (1 Bft) S-SW 207 ° 0 min 0,000 mm 0,0 UV-I 0 W/m² 1,5 °C 2,4 °C 6,4 km/h (2 Bft)
08.11.2017 01:58 2,4 °C 2,4 °C 94 % 1014,5 hPa 0,0 mm 3,0 km/h (1 Bft) S-SW 207 ° 0 min 0,000 mm 0,0 UV-I 0 W/m² 1,5 °C 2,4 °C 6,4 km/h (2 Bft)
08.11.2017 01:59 2,3 °C 2,4 °C 94 % 1014,4 hPa 0,0 mm 4,4 km/h (1 Bft) S-SW 211 ° 0 min 0,000 mm 0,0 UV-I 0 W/m² 1,4 °C 2,3 °C 6,4 km/h (2 Bft)
08.11.2017 02:00 2,4 °C 2,4 °C 94 % 1014,4 hPa 0,0 mm 1,9 km/h (1 Bft) S-SW 213 ° 0 min 0,000 mm 0,0 UV-I 0 W/m² 1,5 °C 2,4 °C 3,2 km/h (1 Bft)
08.11.2017 02:01 2,4 °C 2,4 °C 94 % 1014,4 hPa 0,0 mm 3,4 km/h (1 Bft) S-SW 199 ° 0 min 0,000 mm 0,0 UV-I 0 W/m² 1,5 °C 2,4 °C 8,0 km/h (2 Bft)
08.11.2017 02:02 2,4 °C 2,4 °C 94 % 1014,4 hPa 0,0 mm 2,0 km/h (1 Bft) S-SW 200 ° 0 min 0,000 mm 0,0 UV-I 0 W/m² 1,5 °C 2,4 °C 4,8 km/h (1 Bft)
08.11.2017 02:03 2,4 °C 2,4 °C 94 % 1014,4 hPa 0,2 mm 2,0 km/h (1 Bft) S-SW 200 ° 0 min 0,000 mm 0,0 UV-I 0 W/m² 1,5 °C 2,4 °C 3,2 km/h (1 Bft)
08.11.2017 02:04 2,4 °C 2,4 °C 94 % 1014,4 hPa 0,0 mm 0,5 km/h (0 Bft) S-SW 200 ° 0 min 0,000 mm 0,0 UV-I 0 W/m² 1,5 °C 2,4 °C 1,6 km/h (1 Bft)
08.11.2017 02:05 2,4 °C 2,4 °C 93 % 1014,4 hPa 0,0 mm 5,1 km/h (1 Bft) W-SW 242 ° 0 min 0,000 mm 0,0 UV-I 0 W/m² 1,4 °C 1,1 °C 9,7 km/h (2 Bft)
08.11.2017 02:06 2,4 °C 2,4 °C 93 % 1014,4 hPa 0,0 mm 3,4 km/h (1 Bft) S-SW 205 ° 0 min 0,000 mm 0,0 UV-I 0 W/m² 1,4 °C 2,4 °C 6,4 km/h (2 Bft)
08.11.2017 02:07 2,4 °C 2,4 °C 93 % 1014,4 hPa 0,0 mm 3,4 km/h (1 Bft) W 260 ° 0 min 0,000 mm 0,0 UV-I 0 W/m² 1,4 °C 2,4 °C 6,4 km/h (2 Bft)
08.11.2017 02:08 2,4 °C 2,4 °C 93 % 1014,4 hPa 0,0 mm 3,2 km/h (1 Bft) S-SW 205 ° 0 min 0,000 mm 0,0 UV-I 0 W/m² 1,4 °C 2,4 °C 6,4 km/h (2 Bft)
08.11.2017 02:09 2,4 °C 2,4 °C 93 % 1014,4 hPa 0,0 mm 3,4 km/h (1 Bft) SW 236 ° 0 min 0,000 mm 0,0 UV-I 0 W/m² 1,4 °C 2,4 °C 6,4 km/h (2 Bft)
08.11.2017 02:10 2,4 °C 2,4 °C 93 % 1014,4 hPa 0,0 mm 2,5 km/h (1 Bft) W-SW 238 ° 0 min 0,000 mm 0,0 UV-I 0 W/m² 1,4 °C 2,4 °C 4,8 km/h (1 Bft)
08.11.2017 02:11 2,4 °C 2,4 °C 93 % 1014,3 hPa 0,0 mm 1,7 km/h (1 Bft) W-SW 238 ° 0 min 0,000 mm 0,0 UV-I 0 W/m² 1,4 °C 2,4 °C 3,2 km/h (1 Bft)
08.11.2017 02:12 2,4 °C 2,4 °C 93 % 1014,4 hPa 0,0 mm 3,8 km/h (1 Bft) SW 225 ° 0 min 0,000 mm 0,0 UV-I 0 W/m² 1,4 °C 2,4 °C 9,7 km/h (2 Bft)
08.11.2017 02:13 2,4 °C 2,4 °C 93 % 1014,4 hPa 0,0 mm 4,7 km/h (1 Bft) SW 229 ° 0 min 0,000 mm 0,0 UV-I 0 W/m² 1,4 °C 1,3 °C 8,0 km/h (2 Bft)
08.11.2017 02:14 2,4 °C 2,4 °C 93 % 1014,3 hPa 0,0 mm 4,6 km/h (1 Bft) W-SW 258 ° 0 min 0,000 mm 0,0 UV-I 0 W/m² 1,4 °C 1,3 °C 9,7 km/h (2 Bft)
08.11.2017 02:15 2,4 °C 2,4 °C 93 % 1014,3 hPa 0,0 mm 3,0 km/h (1 Bft) SW 215 ° 0 min 0,000 mm 0,0 UV-I 0 W/m² 1,4 °C 2,4 °C 6,4 km/h (2 Bft)
08.11.2017 02:16 2,4 °C 2,4 °C 93 % 1014,3 hPa 0,0 mm 5,3 km/h (1 Bft) S-SW 209 ° 0 min 0,000 mm 0,0 UV-I 0 W/m² 1,4 °C 1,0 °C 9,7 km/h (2 Bft)
08.11.2017 02:17 2,4 °C 2,4 °C 93 % 1014,4 hPa 0,0 mm 4,4 km/h (1 Bft) S-SW 200 ° 0 min 0,000 mm 0,0 UV-I 0 W/m² 1,4 °C 2,4 °C 8,0 km/h (2 Bft)
08.11.2017 02:18 2,4 °C 2,4 °C 93 % 1014,3 hPa 0,0 mm 1,8 km/h (1 Bft) S 190 ° 0 min 0,000 mm 0,0 UV-I 0 W/m² 1,4 °C 2,4 °C 4,8 km/h (1 Bft)
08.11.2017 02:19 2,4 °C 2,4 °C 93 % 1014,3 hPa 0,0 mm 0,7 km/h (0 Bft) S-SW 200 ° 0 min 0,000 mm 0,0 UV-I 0 W/m² 1,4 °C 2,4 °C 1,6 km/h (1 Bft)
08.11.2017 02:20 2,4 °C 2,4 °C 93 % 1014,3 hPa 0,0 mm 3,1 km/h (1 Bft) SW 216 ° 0 min 0,000 mm 0,0 UV-I 0 W/m² 1,4 °C 2,4 °C 4,8 km/h (1 Bft)
08.11.2017 02:21 2,4 °C 2,4 °C 93 % 1014,5 hPa 0,0 mm 2,4 km/h (1 Bft) SW 218 ° 0 min 0,000 mm 0,0 UV-I 0 W/m² 1,4 °C 2,4 °C 3,2 km/h (1 Bft)
08.11.2017 02:22 2,4 °C 2,4 °C 93 % 1014,4 hPa 0,0 mm 1,8 km/h (1 Bft) SW 223 ° 0 min 0,000 mm 0,0 UV-I 0 W/m² 1,4 °C 2,4 °C 4,8 km/h (1 Bft)
08.11.2017 02:23 2,3 °C 2,4 °C 93 % 1014,4 hPa 0,0 mm 1,0 km/h (0 Bft) SW 223 ° 0 min 0,000 mm 0,0 UV-I 0 W/m² 1,3 °C 2,3 °C 4,8 km/h (1 Bft)
08.11.2017 02:24 2,4 °C 2,4 °C 93 % 1014,3 hPa 0,0 mm 0,0 km/h (0 Bft) SW 223 ° 0 min 0,000 mm 0,0 UV-I 0 W/m² 1,4 °C 2,4 °C 0,0 km/h (0 Bft)
08.11.2017 02:25 2,3 °C 2,4 °C 93 % 1014,4 hPa 0,0 mm 1,5 km/h (1 Bft) SW 223 ° 0 min 0,000 mm 0,0 UV-I 0 W/m² 1,3 °C 2,3 °C 3,2 km/h (1 Bft)
08.11.2017 02:26 2,3 °C 2,4 °C 93 % 1014,4 hPa 0,0 mm 1,5 km/h (1 Bft) W-SW 253 ° 0 min 0,000 mm 0,0 UV-I 0 W/m² 1,3 °C 2,3 °C 3,2 km/h (1 Bft)
08.11.2017 02:27 2,3 °C 2,3 °C 93 % 1014,4 hPa 0,0 mm 2,0 km/h (1 Bft) S 181 ° 0 min 0,000 mm 0,0 UV-I 0 W/m² 1,3 °C 2,3 °C 4,8 km/h (1 Bft)
08.11.2017 02:28 2,3 °C 2,3 °C 93 % 1014,3 hPa 0,0 mm 2,7 km/h (1 Bft) S-SW 200 ° 0 min 0,000 mm 0,0 UV-I 0 W/m² 1,3 °C 2,3 °C 6,4 km/h (2 Bft)
08.11.2017 02:29 2,3 °C 2,3 °C 93 % 1014,4 hPa 0,0 mm 3,8 km/h (1 Bft) W 259 ° 0 min 0,000 mm 0,0 UV-I 0 W/m² 1,3 °C 2,3 °C 6,4 km/h (2 Bft)
08.11.2017 02:30 2,3 °C 2,3 °C 93 % 1014,4 hPa 0,2 mm 4,4 km/h (1 Bft) SW 234 ° 0 min 0,000 mm 0,0 UV-I 0 W/m² 1,3 °C 2,3 °C 6,4 km/h (2 Bft)
08.11.2017 02:31 2,3 °C 2,3 °C 93 % 1014,4 hPa 0,0 mm 2,6 km/h (1 Bft) SW 234 ° 0 min 0,000 mm 0,0 UV-I 0 W/m² 1,3 °C 2,3 °C 3,2 km/h (1 Bft)
08.11.2017 02:32 2,3 °C 2,3 °C 93 % 1014,4 hPa 0,0 mm 2,0 km/h (1 Bft) SW 219 ° 0 min 0,000 mm 0,0 UV-I 0 W/m² 1,3 °C 2,3 °C 3,2 km/h (1 Bft)
08.11.2017 02:33 2,3 °C 2,3 °C 93 % 1014,4 hPa 0,0 mm 4,8 km/h (1 Bft) S-SW 209 ° 0 min 0,000 mm 0,0 UV-I 0 W/m² 1,3 °C 1,1 °C 9,7 km/h (2 Bft)
08.11.2017 02:34 2,3 °C 2,3 °C 93 % 1014,2 hPa 0,0 mm 7,3 km/h (2 Bft) S-SO 161 ° 0 min 0,000 mm 0,0 UV-I 0 W/m² 1,3 °C 0,2 °C 14,5 km/h (3 Bft)
08.11.2017 02:35 2,3 °C 2,3 °C 93 % 1014,3 hPa 0,0 mm 5,6 km/h (1 Bft) S-SW 208 ° 0 min 0,000 mm 0,0 UV-I 0 W/m² 1,3 °C 0,8 °C 9,7 km/h (2 Bft)
08.11.2017 02:36 2,4 °C 2,4 °C 93 % 1014,3 hPa 0,0 mm 7,7 km/h (2 Bft) SW 225 ° 0 min 0,000 mm 0,0 UV-I 0 W/m² 1,4 °C 0,2 °C 19,3 km/h (3 Bft)
08.11.2017 02:37 2,3 °C 2,4 °C 93 % 1014,3 hPa 0,0 mm 9,1 km/h (2 Bft) W-SW 251 ° 0 min 0,000 mm 0,0 UV-I 0 W/m² 1,3 °C -0,3 °C 14,5 km/h (3 Bft)
08.11.2017 02:38 2,4 °C 2,4 °C 93 % 1014,2 hPa 0,0 mm 7,6 km/h (2 Bft) W 259 ° 0 min 0,000 mm 0,0 UV-I 0 W/m² 1,4 °C 0,2 °C 11,3 km/h (2 Bft)
08.11.2017 02:39 2,4 °C 2,4 °C 93 % 1014,2 hPa 0,0 mm 8,1 km/h (2 Bft) W-SW 256 ° 0 min 0,000 mm 0,0 UV-I 0 W/m² 1,4 °C 0,1 °C 11,3 km/h (2 Bft)
08.11.2017 02:40 2,4 °C 2,4 °C 93 % 1014,2 hPa 0,0 mm 4,3 km/h (1 Bft) W-SW 240 ° 0 min 0,000 mm 0,0 UV-I 0 W/m² 1,4 °C 2,4 °C 9,7 km/h (2 Bft)
08.11.2017 02:41 2,4 °C 2,4 °C 93 % 1014,2 hPa 0,0 mm 3,1 km/h (1 Bft) W-SW 241 ° 0 min 0,000 mm 0,0 UV-I 0 W/m² 1,4 °C 2,4 °C 6,4 km/h (2 Bft)
08.11.2017 02:42 2,4 °C 2,4 °C 93 % 1014,2 hPa 0,0 mm 5,8 km/h (2 Bft) SW 236 ° 0 min 0,000 mm 0,0 UV-I 0 W/m² 1,4 °C 0,8 °C 9,7 km/h (2 Bft)
08.11.2017 02:43 2,4 °C 2,4 °C 93 % 1014,2 hPa 0,0 mm 3,4 km/h (1 Bft) SW 219 ° 0 min 0,000 mm 0,0 UV-I 0 W/m² 1,4 °C 2,4 °C 4,8 km/h (1 Bft)
08.11.2017 02:44 2,4 °C 2,4 °C 93 % 1014,2 hPa 0,0 mm 2,5 km/h (1 Bft) SW 229 ° 0 min 0,000 mm 0,0 UV-I 0 W/m² 1,4 °C 2,4 °C 3,2 km/h (1 Bft)
08.11.2017 02:45 2,4 °C 2,4 °C 93 % 1014,2 hPa 0,0 mm 0,6 km/h (0 Bft) SW 229 ° 0 min 0,000 mm 0,0 UV-I 0 W/m² 1,4 °C 2,4 °C 1,6 km/h (1 Bft)
08.11.2017 02:46 2,4 °C 2,4 °C 93 % 1014,2 hPa 0,0 mm 1,4 km/h (1 Bft) S-SW 211 ° 0 min 0,000 mm 0,0 UV-I 0 W/m² 1,4 °C 2,4 °C 3,2 km/h (1 Bft)
08.11.2017 02:47 2,4 °C 2,4 °C 93 % 1014,3 hPa 0,0 mm 5,0 km/h (1 Bft) S 173 ° 0 min 0,000 mm 0,0 UV-I 0 W/m² 1,4 °C 1,1 °C 11,3 km/h (2 Bft)
08.11.2017 02:48 2,4 °C 2,4 °C 93 % 1014,3 hPa 0,0 mm 4,1 km/h (1 Bft) SW 215 ° 0 min 0,000 mm 0,0 UV-I 0 W/m² 1,4 °C 2,4 °C 11,3 km/h (2 Bft)
08.11.2017 02:49 2,4 °C 2,4 °C 93 % 1014,3 hPa 0,0 mm 1,4 km/h (1 Bft) S-SW 209 ° 0 min 0,000 mm 0,0 UV-I 0 W/m² 1,4 °C 2,4 °C 4,8 km/h (1 Bft)
08.11.2017 02:50 2,4 °C 2,4 °C 93 % 1014,3 hPa 0,0 mm 2,8 km/h (1 Bft) S-SW 208 ° 0 min 0,000 mm 0,0 UV-I 0 W/m² 1,4 °C 2,4 °C 4,8 km/h (1 Bft)
08.11.2017 02:51 2,4 °C 2,4 °C 93 % 1014,3 hPa 0,0 mm 1,6 km/h (1 Bft) S-SW 211 ° 0 min 0,000 mm 0,0 UV-I 0 W/m² 1,4 °C 2,4 °C 3,2 km/h (1 Bft)
08.11.2017 02:52 2,4 °C 2,4 °C 93 % 1014,3 hPa 0,0 mm 3,9 km/h (1 Bft) S-SW 212 ° 0 min 0,000 mm 0,0 UV-I 0 W/m² 1,4 °C 2,4 °C 8,0 km/h (2 Bft)
08.11.2017 02:53 2,4 °C 2,4 °C 93 % 1014,3 hPa 0,0 mm 3,0 km/h (1 Bft) S-SW 197 ° 0 min 0,000 mm 0,0 UV-I 0 W/m² 1,4 °C 2,4 °C 4,8 km/h (1 Bft)
08.11.2017 02:54 2,4 °C 2,4 °C 93 % 1014,3 hPa 0,0 mm 1,1 km/h (1 Bft) S-SW 197 ° 0 min 0,000 mm 0,0 UV-I 0 W/m² 1,4 °C 2,4 °C 1,6 km/h (1 Bft)
08.11.2017 02:55 2,4 °C 2,4 °C 93 % 1014,4 hPa 0,0 mm 1,4 km/h (1 Bft) S-SW 197 ° 0 min 0,000 mm 0,0 UV-I 0 W/m² 1,4 °C 2,4 °C 3,2 km/h (1 Bft)
08.11.2017 02:56 2,4 °C 2,4 °C 93 % 1014,3 hPa 0,0 mm 3,8 km/h (1 Bft) SW 214 ° 0 min 0,000 mm 0,0 UV-I 0 W/m² 1,4 °C 2,4 °C 6,4 km/h (2 Bft)
08.11.2017 02:57 2,4 °C 2,4 °C 93 % 1014,3 hPa 0,0 mm 0,0 km/h (0 Bft) SW 214 ° 0 min 0,000 mm 0,0 UV-I 0 W/m² 1,4 °C 2,4 °C 0,0 km/h (0 Bft)
08.11.2017 02:58 2,4 °C 2,4 °C 93 % 1014,4 hPa 0,0 mm 0,7 km/h (0 Bft) SW 214 ° 0 min 0,000 mm 0,0 UV-I 0 W/m² 1,4 °C 2,4 °C 1,6 km/h (1 Bft)
08.11.2017 02:59 2,4 °C 2,4 °C 93 % 1014,4 hPa 0,0 mm 1,2 km/h (1 Bft) SW 232 ° 0 min 0,000 mm 0,0 UV-I 0 W/m² 1,4 °C 2,4 °C 3,2 km/h (1 Bft)
08.11.2017 03:00 2,3 °C 2,4 °C 93 % 1014,4 hPa 0,0 mm 1,1 km/h (1 Bft) SO 146 ° 0 min 0,000 mm 0,0 UV-I 0 W/m² 1,3 °C 2,3 °C 6,4 km/h (2 Bft)
08.11.2017 03:01 2,3 °C 2,4 °C 93 % 1014,4 hPa 0,0 mm 3,8 km/h (1 Bft) S-SW 212 ° 0 min 0,000 mm 0,0 UV-I 0 W/m² 1,3 °C 2,3 °C 6,4 km/h (2 Bft)
08.11.2017 03:02 2,3 °C 2,4 °C 93 % 1014,4 hPa 0,0 mm 1,1 km/h (1 Bft) S-SW 212 ° 0 min 0,000 mm 0,0 UV-I 0 W/m² 1,3 °C 2,3 °C 3,2 km/h (1 Bft)
08.11.2017 03:03 2,3 °C 2,3 °C 93 % 1014,4 hPa 0,0 mm 1,6 km/h (1 Bft) SO 137 ° 0 min 0,000 mm 0,0 UV-I 0 W/m² 1,3 °C 2,3 °C 3,2 km/h (1 Bft)
08.11.2017 03:04 2,3 °C 2,3 °C 93 % 1014,4 hPa 0,0 mm 1,7 km/h (1 Bft) SO 144 ° 0 min 0,000 mm 0,0 UV-I 0 W/m² 1,3 °C 2,3 °C 3,2 km/h (1 Bft)
08.11.2017 03:05 2,3 °C 2,3 °C 94 % 1014,4 hPa 0,0 mm 1,5 km/h (1 Bft) SO 144 ° 0 min 0,000 mm 0,0 UV-I 0 W/m² 1,4 °C 2,3 °C 3,2 km/h (1 Bft)
08.11.2017 03:06 2,3 °C 2,3 °C 94 % 1014,4 hPa 0,0 mm 0,1 km/h (0 Bft) SO 144 ° 0 min 0,000 mm 0,0 UV-I 0 W/m² 1,4 °C 2,3 °C 1,6 km/h (1 Bft)
08.11.2017 03:07 2,3 °C 2,3 °C 94 % 1014,4 hPa 0,0 mm 0,0 km/h (0 Bft) SO 144 ° 0 min 0,000 mm 0,0 UV-I 0 W/m² 1,4 °C 2,3 °C 0,0 km/h (0 Bft)
08.11.2017 03:08 2,3 °C 2,3 °C 94 % 1014,4 hPa 0,0 mm 0,0 km/h (0 Bft) SO 144 ° 0 min 0,000 mm 0,0 UV-I 0 W/m² 1,4 °C 2,3 °C 0,0 km/h (0 Bft)
08.11.2017 03:09 2,3 °C 2,3 °C 94 % 1014,5 hPa 0,0 mm 0,0 km/h (0 Bft) SO 144 ° 0 min 0,000 mm 0,0 UV-I 0 W/m² 1,4 °C 2,3 °C 0,0 km/h (0 Bft)
08.11.2017 03:10 2,3 °C 2,3 °C 94 % 1014,5 hPa 0,0 mm 0,0 km/h (0 Bft) SO 144 ° 0 min 0,000 mm 0,0 UV-I 0 W/m² 1,4 °C 2,3 °C 0,0 km/h (0 Bft)
08.11.2017 03:11 2,2 °C 2,3 °C 94 % 1014,5 hPa 0,0 mm 0,0 km/h (0 Bft) SO 144 ° 0 min 0,000 mm 0,0 UV-I 0 W/m² 1,3 °C 2,2 °C 0,0 km/h (0 Bft)
08.11.2017 03:12 2,2 °C 2,3 °C 94 % 1014,5 hPa 0,0 mm 0,0 km/h (0 Bft) SO 144 ° 0 min 0,000 mm 0,0 UV-I 0 W/m² 1,3 °C 2,2 °C 0,0 km/h (0 Bft)
08.11.2017 03:13 2,2 °C 2,3 °C 94 % 1014,5 hPa 0,0 mm 0,0 km/h (0 Bft) SO 144 ° 0 min 0,000 mm 0,0 UV-I 0 W/m² 1,3 °C 2,2 °C 0,0 km/h (0 Bft)
08.11.2017 03:14 2,3 °C 2,3 °C 94 % 1014,5 hPa 0,0 mm 0,0 km/h (0 Bft) SO 144 ° 0 min 0,000 mm 0,0 UV-I 0 W/m² 1,4 °C 2,3 °C 0,0 km/h (0 Bft)
08.11.2017 03:15 2,2 °C 2,3 °C 94 % 1014,5 hPa 0,0 mm 0,0 km/h (0 Bft) SO 144 ° 0 min 0,000 mm 0,0 UV-I 0 W/m² 1,3 °C 2,2 °C 0,0 km/h (0 Bft)
08.11.2017 03:16 2,3 °C 2,3 °C 94 % 1014,5 hPa 0,0 mm 0,0 km/h (0 Bft) SO 144 ° 0 min 0,000 mm 0,0 UV-I 0 W/m² 1,4 °C 2,3 °C 0,0 km/h (0 Bft)
08.11.2017 03:17 2,3 °C 2,3 °C 94 % 1014,6 hPa 0,0 mm 0,0 km/h (0 Bft) SO 144 ° 0 min 0,000 mm 0,0 UV-I 0 W/m² 1,4 °C 2,3 °C 0,0 km/h (0 Bft)
08.11.2017 03:18 2,3 °C 2,3 °C 94 % 1014,6 hPa 0,0 mm 0,0 km/h (0 Bft) SO 144 ° 0 min 0,000 mm 0,0 UV-I 0 W/m² 1,4 °C 2,3 °C 0,0 km/h (0 Bft)
08.11.2017 03:19 2,2 °C 2,3 °C 94 % 1014,6 hPa 0,0 mm 0,0 km/h (0 Bft) SO 144 ° 0 min 0,000 mm 0,0 UV-I 0 W/m² 1,3 °C 2,2 °C 0,0 km/h (0 Bft)
08.11.2017 03:20 2,2 °C 2,3 °C 94 % 1014,6 hPa 0,0 mm 0,0 km/h (0 Bft) SO 144 ° 0 min 0,000 mm 0,0 UV-I 0 W/m² 1,3 °C 2,2 °C 0,0 km/h (0 Bft)
08.11.2017 03:21 2,3 °C 2,3 °C 94 % 1014,6 hPa 0,0 mm 0,0 km/h (0 Bft) SO 144 ° 0 min 0,000 mm 0,0 UV-I 0 W/m² 1,4 °C 2,3 °C 0,0 km/h (0 Bft)
08.11.2017 03:22 2,3 °C 2,3 °C 94 % 1014,6 hPa 0,0 mm 0,0 km/h (0 Bft) SO 144 ° 0 min 0,000 mm 0,0 UV-I 0 W/m² 1,4 °C 2,3 °C 0,0 km/h (0 Bft)
08.11.2017 03:23 2,3 °C 2,3 °C 94 % 1014,6 hPa 0,0 mm 0,0 km/h (0 Bft) SO 144 ° 0 min 0,000 mm 0,0 UV-I 0 W/m² 1,4 °C 2,3 °C 0,0 km/h (0 Bft)
08.11.2017 03:24 2,3 °C 2,3 °C 94 % 1014,6 hPa 0,0 mm 0,0 km/h (0 Bft) SO 144 ° 0 min 0,000 mm 0,0 UV-I 0 W/m² 1,4 °C 2,3 °C 0,0 km/h (0 Bft)
08.11.2017 03:25 2,2 °C 2,3 °C 94 % 1014,6 hPa 0,0 mm 0,0 km/h (0 Bft) SO 144 ° 0 min 0,000 mm 0,0 UV-I 0 W/m² 1,3 °C 2,2 °C 0,0 km/h (0 Bft)
08.11.2017 03:26 2,2 °C 2,3 °C 94 % 1014,6 hPa 0,0 mm 0,0 km/h (0 Bft) SO 144 ° 0 min 0,000 mm 0,0 UV-I 0 W/m² 1,3 °C 2,2 °C 0,0 km/h (0 Bft)
08.11.2017 03:27 2,2 °C 2,3 °C 94 % 1014,7 hPa 0,0 mm 0,0 km/h (0 Bft) SO 144 ° 0 min 0,000 mm 0,0 UV-I 0 W/m² 1,3 °C 2,2 °C 0,0 km/h (0 Bft)
08.11.2017 03:28 2,2 °C 2,2 °C 94 % 1014,7 hPa 0,0 mm 0,0 km/h (0 Bft) SO 144 ° 0 min 0,000 mm 0,0 UV-I 0 W/m² 1,3 °C 2,2 °C 0,0 km/h (0 Bft)
08.11.2017 03:29 2,2 °C 2,2 °C 94 % 1014,6 hPa 0,0 mm 0,0 km/h (0 Bft) SO 144 ° 0 min 0,000 mm 0,0 UV-I 0 W/m² 1,3 °C 2,2 °C 0,0 km/h (0 Bft)
08.11.2017 03:30 2,2 °C 2,3 °C 94 % 1014,7 hPa 0,2 mm 0,0 km/h (0 Bft) SO 144 ° 0 min 0,000 mm 0,0 UV-I 0 W/m² 1,3 °C 2,2 °C 0,0 km/h (0 Bft)
08.11.2017 03:31 2,2 °C 2,2 °C 94 % 1014,6 hPa 0,0 mm 0,0 km/h (0 Bft) SO 144 ° 0 min 0,000 mm 0,0 UV-I 0 W/m² 1,3 °C 2,2 °C 0,0 km/h (0 Bft)
08.11.2017 03:32 2,2 °C 2,3 °C 94 % 1014,7 hPa 0,0 mm 0,0 km/h (0 Bft) SO 144 ° 0 min 0,000 mm 0,0 UV-I 0 W/m² 1,3 °C 2,2 °C 0,0 km/h (0 Bft)
08.11.2017 03:33 2,2 °C 2,2 °C 94 % 1014,7 hPa 0,0 mm 0,0 km/h (0 Bft) SO 144 ° 0 min 0,000 mm 0,0 UV-I 0 W/m² 1,3 °C 2,2 °C 0,0 km/h (0 Bft)
08.11.2017 03:34 2,2 °C 2,2 °C 95 % 1014,7 hPa 0,0 mm 0,0 km/h (0 Bft) SO 144 ° 0 min 0,000 mm 0,0 UV-I 0 W/m² 1,5 °C 2,2 °C 0,0 km/h (0 Bft)
08.11.2017 03:35 2,2 °C 2,2 °C 95 % 1014,7 hPa 0,0 mm 0,0 km/h (0 Bft) SO 144 ° 0 min 0,000 mm 0,0 UV-I 0 W/m² 1,5 °C 2,2 °C 0,0 km/h (0 Bft)
08.11.2017 03:36 2,2 °C 2,2 °C 95 % 1014,7 hPa 0,0 mm 0,0 km/h (0 Bft) SO 144 ° 0 min 0,000 mm 0,0 UV-I 0 W/m² 1,5 °C 2,2 °C 0,0 km/h (0 Bft)
08.11.2017 03:37 2,2 °C 2,2 °C 95 % 1014,7 hPa 0,0 mm 0,0 km/h (0 Bft) SO 144 ° 0 min 0,000 mm 0,0 UV-I 0 W/m² 1,5 °C 2,2 °C 0,0 km/h (0 Bft)
08.11.2017 03:38 2,2 °C 2,2 °C 95 % 1014,8 hPa 0,0 mm 0,0 km/h (0 Bft) SO 144 ° 0 min 0,000 mm 0,0 UV-I 0 W/m² 1,5 °C 2,2 °C 0,0 km/h (0 Bft)
08.11.2017 03:39 2,2 °C 2,2 °C 95 % 1014,8 hPa 0,0 mm 1,7 km/h (1 Bft) SO 144 ° 0 min 0,000 mm 0,0 UV-I 0 W/m² 1,5 °C 2,2 °C 3,2 km/h (1 Bft)
08.11.2017 03:40 2,3 °C 2,3 °C 95 % 1014,8 hPa 0,0 mm 2,3 km/h (1 Bft) SO 144 ° 0 min 0,000 mm 0,0 UV-I 0 W/m² 1,6 °C 2,3 °C 3,2 km/h (1 Bft)
08.11.2017 03:41 2,2 °C 2,3 °C 95 % 1014,8 hPa 0,0 mm 0,7 km/h (0 Bft) SO 144 ° 0 min 0,000 mm 0,0 UV-I 0 W/m² 1,5 °C 2,2 °C 1,6 km/h (1 Bft)
08.11.2017 03:42 2,2 °C 2,2 °C 95 % 1014,8 hPa 0,0 mm 0,0 km/h (0 Bft) SO 144 ° 0 min 0,000 mm 0,0 UV-I 0 W/m² 1,5 °C 2,2 °C 0,0 km/h (0 Bft)
08.11.2017 03:43 2,2 °C 2,2 °C 95 % 1014,8 hPa 0,0 mm 0,0 km/h (0 Bft) SO 144 ° 0 min 0,000 mm 0,0 UV-I 0 W/m² 1,5 °C 2,2 °C 0,0 km/h (0 Bft)
08.11.2017 03:44 2,2 °C 2,2 °C 95 % 1014,8 hPa 0,0 mm 0,0 km/h (0 Bft) SO 144 ° 0 min 0,000 mm 0,0 UV-I 0 W/m² 1,5 °C 2,2 °C 0,0 km/h (0 Bft)
08.11.2017 03:45 2,2 °C 2,2 °C 95 % 1014,8 hPa 0,0 mm 0,0 km/h (0 Bft) SO 144 ° 0 min 0,000 mm 0,0 UV-I 0 W/m² 1,5 °C 2,2 °C 0,0 km/h (0 Bft)
08.11.2017 03:46 2,2 °C 2,2 °C 95 % 1014,8 hPa 0,0 mm 0,0 km/h (0 Bft) SO 144 ° 0 min 0,000 mm 0,0 UV-I 0 W/m² 1,5 °C 2,2 °C 0,0 km/h (0 Bft)
08.11.2017 03:47 2,2 °C 2,2 °C 95 % 1014,8 hPa 0,0 mm 0,0 km/h (0 Bft) SO 144 ° 0 min 0,000 mm 0,0 UV-I 0 W/m² 1,5 °C 2,2 °C 0,0 km/h (0 Bft)
08.11.2017 03:48 2,2 °C 2,2 °C 95 % 1014,8 hPa 0,0 mm 0,0 km/h (0 Bft) SO 144 ° 0 min 0,000 mm 0,0 UV-I 0 W/m² 1,5 °C 2,2 °C 0,0 km/h (0 Bft)
08.11.2017 03:49 2,2 °C 2,2 °C 95 % 1014,8 hPa 0,0 mm 0,0 km/h (0 Bft) SO 144 ° 0 min 0,000 mm 0,0 UV-I 0 W/m² 1,5 °C 2,2 °C 0,0 km/h (0 Bft)
08.11.2017 03:50 2,2 °C 2,2 °C 95 % 1014,8 hPa 0,0 mm 0,0 km/h (0 Bft) SO 144 ° 0 min 0,000 mm 0,0 UV-I 0 W/m² 1,5 °C 2,2 °C 0,0 km/h (0 Bft)
08.11.2017 03:51 2,2 °C 2,2 °C 95 % 1014,8 hPa 0,0 mm 0,0 km/h (0 Bft) SO 144 ° 0 min 0,000 mm 0,0 UV-I 0 W/m² 1,5 °C 2,2 °C 0,0 km/h (0 Bft)
08.11.2017 03:52 2,2 °C 2,2 °C 95 % 1014,8 hPa 0,0 mm 0,0 km/h (0 Bft) SO 144 ° 0 min 0,000 mm 0,0 UV-I 0 W/m² 1,5 °C 2,2 °C 0,0 km/h (0 Bft)
08.11.2017 03:53 2,2 °C 2,2 °C 95 % 1014,8 hPa 0,0 mm 0,0 km/h (0 Bft) SO 144 ° 0 min 0,000 mm 0,0 UV-I 0 W/m² 1,5 °C 2,2 °C 0,0 km/h (0 Bft)
08.11.2017 03:54 2,2 °C 2,3 °C 95 % 1014,8 hPa 0,0 mm 0,0 km/h (0 Bft) SO 144 ° 0 min 0,000 mm 0,0 UV-I 0 W/m² 1,5 °C 2,2 °C 0,0 km/h (0 Bft)
08.11.2017 03:55 2,2 °C 2,2 °C 95 % 1014,8 hPa 0,0 mm 0,0 km/h (0 Bft) SO 144 ° 0 min 0,000 mm 0,0 UV-I 0 W/m² 1,5 °C 2,2 °C 0,0 km/h (0 Bft)
08.11.2017 03:56 2,2 °C 2,2 °C 95 % 1014,8 hPa 0,0 mm 0,0 km/h (0 Bft) SO 144 ° 0 min 0,000 mm 0,0 UV-I 0 W/m² 1,5 °C 2,2 °C 0,0 km/h (0 Bft)
08.11.2017 03:57 2,2 °C 2,2 °C 95 % 1014,8 hPa 0,0 mm 0,0 km/h (0 Bft) SO 144 ° 0 min 0,000 mm 0,0 UV-I 0 W/m² 1,5 °C 2,2 °C 0,0 km/h (0 Bft)
08.11.2017 03:58 2,2 °C 2,2 °C 95 % 1014,8 hPa 0,0 mm 0,0 km/h (0 Bft) SO 144 ° 0 min 0,000 mm 0,0 UV-I 0 W/m² 1,5 °C 2,2 °C 0,0 km/h (0 Bft)
08.11.2017 03:59 2,2 °C 2,2 °C 95 % 1014,8 hPa 0,0 mm 0,0 km/h (0 Bft) SO 144 ° 0 min 0,000 mm 0,0 UV-I 0 W/m² 1,5 °C 2,2 °C 0,0 km/h (0 Bft)
08.11.2017 04:00 2,2 °C 2,2 °C 95 % 1014,8 hPa 0,0 mm 0,1 km/h (0 Bft) SO 144 ° 0 min 0,000 mm 0,0 UV-I 0 W/m² 1,5 °C 2,2 °C 1,6 km/h (1 Bft)
08.11.2017 04:01 2,2 °C 2,2 °C 95 % 1014,8 hPa 0,0 mm 0,1 km/h (0 Bft) SO 144 ° 0 min 0,000 mm 0,0 UV-I 0 W/m² 1,5 °C 2,2 °C 1,6 km/h (1 Bft)
08.11.2017 04:02 2,2 °C 2,2 °C 95 % 1014,8 hPa 0,0 mm 0,0 km/h (0 Bft) SO 144 ° 0 min 0,000 mm 0,0 UV-I 0 W/m² 1,5 °C 2,2 °C 0,0 km/h (0 Bft)
08.11.2017 04:03 2,2 °C 2,2 °C 95 % 1014,8 hPa 0,0 mm 0,0 km/h (0 Bft) SO 144 ° 0 min 0,000 mm 0,0 UV-I 0 W/m² 1,5 °C 2,2 °C 0,0 km/h (0 Bft)
08.11.2017 04:04 2,2 °C 2,2 °C 95 % 1014,8 hPa 0,0 mm 0,0 km/h (0 Bft) SO 144 ° 0 min 0,000 mm 0,0 UV-I 0 W/m² 1,5 °C 2,2 °C 0,0 km/h (0 Bft)
08.11.2017 04:05 2,2 °C 2,2 °C 95 % 1014,8 hPa 0,0 mm 0,0 km/h (0 Bft) SO 144 ° 0 min 0,000 mm 0,0 UV-I 0 W/m² 1,5 °C 2,2 °C 0,0 km/h (0 Bft)
08.11.2017 04:06 2,2 °C 2,2 °C 95 % 1014,8 hPa 0,0 mm 0,0 km/h (0 Bft) SO 144 ° 0 min 0,000 mm 0,0 UV-I 0 W/m² 1,5 °C 2,2 °C 0,0 km/h (0 Bft)
08.11.2017 04:07 2,2 °C 2,2 °C 95 % 1014,8 hPa 0,0 mm 0,0 km/h (0 Bft) SO 144 ° 0 min 0,000 mm 0,0 UV-I 0 W/m² 1,5 °C 2,2 °C 0,0 km/h (0 Bft)
08.11.2017 04:08 2,2 °C 2,2 °C 95 % 1014,8 hPa 0,0 mm 0,0 km/h (0 Bft) SO 144 ° 0 min 0,000 mm 0,0 UV-I 0 W/m² 1,5 °C 2,2 °C 0,0 km/h (0 Bft)
08.11.2017 04:09 2,2 °C 2,2 °C 95 % 1014,8 hPa 0,0 mm 0,0 km/h (0 Bft) SO 144 ° 0 min 0,000 mm 0,0 UV-I 0 W/m² 1,5 °C 2,2 °C 0,0 km/h (0 Bft)
08.11.2017 04:10 2,2 °C 2,2 °C 95 % 1014,8 hPa 0,0 mm 0,0 km/h (0 Bft) SO 144 ° 0 min 0,000 mm 0,0 UV-I 0 W/m² 1,5 °C 2,2 °C 0,0 km/h (0 Bft)
08.11.2017 04:11 2,2 °C 2,2 °C 95 % 1014,8 hPa 0,0 mm 0,0 km/h (0 Bft) SO 144 ° 0 min 0,000 mm 0,0 UV-I 0 W/m² 1,5 °C 2,2 °C 0,0 km/h (0 Bft)
08.11.2017 04:12 2,2 °C 2,2 °C 95 % 1014,8 hPa 0,0 mm 0,0 km/h (0 Bft) SO 144 ° 0 min 0,000 mm 0,0 UV-I 0 W/m² 1,5 °C 2,2 °C 0,0 km/h (0 Bft)
08.11.2017 04:13 2,2 °C 2,2 °C 95 % 1014,8 hPa 0,0 mm 0,0 km/h (0 Bft) N 0 ° 0 min 0,000 mm 0,0 UV-I 0 W/m² 1,5 °C 2,2 °C 0,0 km/h (0 Bft)
08.11.2017 04:14 2,2 °C 2,2 °C 95 % 1014,8 hPa 0,0 mm 0,0 km/h (0 Bft) N 0 ° 0 min 0,000 mm 0,0 UV-I 0 W/m² 1,5 °C 2,2 °C 0,0 km/h (0 Bft)
08.11.2017 04:15 2,2 °C 2,2 °C 95 % 1014,8 hPa 0,0 mm 0,0 km/h (0 Bft) N 0 ° 0 min 0,000 mm 0,0 UV-I 0 W/m² 1,5 °C 2,2 °C 0,0 km/h (0 Bft)
08.11.2017 04:16 2,2 °C 2,2 °C 95 % 1014,8 hPa 0,0 mm 0,0 km/h (0 Bft) N 0 ° 0 min 0,000 mm 0,0 UV-I 0 W/m² 1,5 °C 2,2 °C 0,0 km/h (0 Bft)
08.11.2017 04:17 2,2 °C 2,2 °C 95 % 1014,8 hPa 0,0 mm 0,0 km/h (0 Bft) N 0 ° 0 min 0,000 mm 0,0 UV-I 0 W/m² 1,5 °C 2,2 °C 0,0 km/h (0 Bft)
08.11.2017 04:18 2,2 °C 2,2 °C 95 % 1014,8 hPa 0,0 mm 0,0 km/h (0 Bft) N 0 ° 0 min 0,000 mm 0,0 UV-I 0 W/m² 1,5 °C 2,2 °C 0,0 km/h (0 Bft)
08.11.2017 04:19 2,2 °C 2,2 °C 95 % 1014,8 hPa 0,0 mm 0,0 km/h (0 Bft) N 0 ° 0 min 0,000 mm 0,0 UV-I 0 W/m² 1,5 °C 2,2 °C 0,0 km/h (0 Bft)
08.11.2017 04:20 2,1 °C 2,2 °C 95 % 1014,8 hPa 0,0 mm 0,0 km/h (0 Bft) N 0 ° 0 min 0,000 mm 0,0 UV-I 0 W/m² 1,4 °C 2,1 °C 0,0 km/h (0 Bft)
08.11.2017 04:21 2,1 °C 2,1 °C 95 % 1014,8 hPa 0,0 mm 0,0 km/h (0 Bft) N 0 ° 0 min 0,000 mm 0,0 UV-I 0 W/m² 1,4 °C 2,1 °C 0,0 km/h (0 Bft)
08.11.2017 04:22 2,1 °C 2,1 °C 95 % 1014,8 hPa 0,0 mm 0,0 km/h (0 Bft) N 0 ° 0 min 0,000 mm 0,0 UV-I 0 W/m² 1,4 °C 2,1 °C 0,0 km/h (0 Bft)
08.11.2017 04:24 2,1 °C 2,1 °C 95 % 1014,9 hPa 0,0 mm 0,0 km/h (0 Bft) SO 144 ° 0 min 0,000 mm 0,0 UV-I 0 W/m² 1,4 °C 2,1 °C 0,0 km/h (0 Bft)
08.11.2017 04:25 2,1 °C 2,1 °C 95 % 1014,9 hPa 0,0 mm 0,0 km/h (0 Bft) SO 144 ° 0 min 0,000 mm 0,0 UV-I 0 W/m² 1,4 °C 2,1 °C 0,0 km/h (0 Bft)
08.11.2017 04:26 2,1 °C 2,1 °C 95 % 1014,9 hPa 0,0 mm 0,0 km/h (0 Bft) SO 144 ° 0 min 0,000 mm 0,0 UV-I 0 W/m² 1,4 °C 2,1 °C 0,0 km/h (0 Bft)
08.11.2017 04:27 2,1 °C 2,1 °C 95 % 1014,9 hPa 0,0 mm 0,0 km/h (0 Bft) SO 144 ° 0 min 0,000 mm 0,0 UV-I 0 W/m² 1,4 °C 2,1 °C 0,0 km/h (0 Bft)
08.11.2017 04:28 2,2 °C 2,2 °C 95 % 1014,9 hPa 0,0 mm 0,0 km/h (0 Bft) SO 144 ° 0 min 0,000 mm 0,0 UV-I 0 W/m² 1,5 °C 2,2 °C 0,0 km/h (0 Bft)
08.11.2017 04:29 2,1 °C 2,2 °C 95 % 1014,9 hPa 0,0 mm 0,0 km/h (0 Bft) SO 144 ° 0 min 0,000 mm 0,0 UV-I 0 W/m² 1,4 °C 2,1 °C 0,0 km/h (0 Bft)
08.11.2017 04:30 2,1 °C 2,2 °C 95 % 1014,9 hPa 0,0 mm 0,0 km/h (0 Bft) SO 144 ° 0 min 0,000 mm 0,0 UV-I 0 W/m² 1,4 °C 2,1 °C 0,0 km/h (0 Bft)
08.11.2017 04:31 2,1 °C 2,2 °C 95 % 1015,0 hPa 0,0 mm 0,0 km/h (0 Bft) SO 144 ° 0 min 0,000 mm 0,0 UV-I 0 W/m² 1,4 °C 2,1 °C 0,0 km/h (0 Bft)
08.11.2017 04:32 2,1 °C 2,1 °C 95 % 1015,0 hPa 0,0 mm 0,0 km/h (0 Bft) SO 144 ° 0 min 0,000 mm 0,0 UV-I 0 W/m² 1,4 °C 2,1 °C 0,0 km/h (0 Bft)
08.11.2017 04:33 2,1 °C 2,1 °C 95 % 1015,0 hPa 0,0 mm 0,0 km/h (0 Bft) SO 144 ° 0 min 0,000 mm 0,0 UV-I 0 W/m² 1,4 °C 2,1 °C 0,0 km/h (0 Bft)
08.11.2017 04:34 2,1 °C 2,2 °C 95 % 1015,1 hPa 0,0 mm 0,0 km/h (0 Bft) SO 144 ° 0 min 0,000 mm 0,0 UV-I 0 W/m² 1,4 °C 2,1 °C 0,0 km/h (0 Bft)
08.11.2017 04:35 2,1 °C 2,1 °C 95 % 1015,1 hPa 0,0 mm 0,0 km/h (0 Bft) SO 144 ° 0 min 0,000 mm 0,0 UV-I 0 W/m² 1,4 °C 2,1 °C 0,0 km/h (0 Bft)
08.11.2017 04:36 2,1 °C 2,1 °C 95 % 1015,0 hPa 0,0 mm 0,0 km/h (0 Bft) SO 144 ° 0 min 0,000 mm 0,0 UV-I 0 W/m² 1,4 °C 2,1 °C 0,0 km/h (0 Bft)
08.11.2017 04:37 2,1 °C 2,1 °C 95 % 1015,0 hPa 0,0 mm 0,0 km/h (0 Bft) SO 144 ° 0 min 0,000 mm 0,0 UV-I 0 W/m² 1,4 °C 2,1 °C 0,0 km/h (0 Bft)
08.11.2017 04:38 2,1 °C 2,1 °C 95 % 1014,9 hPa 0,0 mm 0,0 km/h (0 Bft) SO 144 ° 0 min 0,000 mm 0,0 UV-I 0 W/m² 1,4 °C 2,1 °C 0,0 km/h (0 Bft)
08.11.2017 04:39 2,1 °C 2,1 °C 95 % 1014,9 hPa 0,0 mm 0,0 km/h (0 Bft) SO 144 ° 0 min 0,000 mm 0,0 UV-I 0 W/m² 1,4 °C 2,1 °C 0,0 km/h (0 Bft)
08.11.2017 04:40 2,1 °C 2,1 °C 95 % 1014,9 hPa 0,0 mm 0,0 km/h (0 Bft) SO 144 ° 0 min 0,000 mm 0,0 UV-I 0 W/m² 1,4 °C 2,1 °C 0,0 km/h (0 Bft)
08.11.2017 04:41 2,0 °C 2,1 °C 95 % 1014,9 hPa 0,0 mm 0,0 km/h (0 Bft) SO 144 ° 0 min 0,000 mm 0,0 UV-I 0 W/m² 1,3 °C 2,0 °C 0,0 km/h (0 Bft)
08.11.2017 04:42 2,1 °C 2,1 °C 95 % 1014,9 hPa 0,0 mm 0,0 km/h (0 Bft) SO 144 ° 0 min 0,000 mm 0,0 UV-I 0 W/m² 1,4 °C 2,1 °C 0,0 km/h (0 Bft)
08.11.2017 04:43 2,0 °C 2,1 °C 95 % 1014,9 hPa 0,0 mm 0,0 km/h (0 Bft) SO 144 ° 0 min 0,000 mm 0,0 UV-I 0 W/m² 1,3 °C 2,0 °C 0,0 km/h (0 Bft)
08.11.2017 04:44 2,0 °C 2,1 °C 95 % 1014,9 hPa 0,0 mm 0,0 km/h (0 Bft) SO 144 ° 0 min 0,000 mm 0,0 UV-I 0 W/m² 1,3 °C 2,0 °C 0,0 km/h (0 Bft)
08.11.2017 04:45 2,0 °C 2,1 °C 95 % 1014,9 hPa 0,0 mm 0,0 km/h (0 Bft) SO 144 ° 0 min 0,000 mm 0,0 UV-I 0 W/m² 1,3 °C 2,0 °C 0,0 km/h (0 Bft)
08.11.2017 04:46 2,1 °C 2,1 °C 95 % 1014,9 hPa 0,0 mm 0,0 km/h (0 Bft) SO 144 ° 0 min 0,000 mm 0,0 UV-I 0 W/m² 1,4 °C 2,1 °C 0,0 km/h (0 Bft)
08.11.2017 04:47 2,1 °C 2,1 °C 95 % 1015,0 hPa 0,0 mm 0,0 km/h (0 Bft) SO 144 ° 0 min 0,000 mm 0,0 UV-I 0 W/m² 1,4 °C 2,1 °C 0,0 km/h (0 Bft)
08.11.2017 04:48 2,0 °C 2,1 °C 95 % 1015,0 hPa 0,0 mm 0,0 km/h (0 Bft) SO 144 ° 0 min 0,000 mm 0,0 UV-I 0 W/m² 1,3 °C 2,0 °C 0,0 km/h (0 Bft)
08.11.2017 04:49 2,1 °C 2,1 °C 95 % 1015,0 hPa 0,0 mm 0,0 km/h (0 Bft) SO 144 ° 0 min 0,000 mm 0,0 UV-I 0 W/m² 1,4 °C 2,1 °C 0,0 km/h (0 Bft)
08.11.2017 04:50 2,0 °C 2,1 °C 95 % 1015,0 hPa 0,0 mm 0,0 km/h (0 Bft) SO 144 ° 0 min 0,000 mm 0,0 UV-I 0 W/m² 1,3 °C 2,0 °C 0,0 km/h (0 Bft)
08.11.2017 04:51 2,0 °C 2,1 °C 95 % 1015,0 hPa 0,0 mm 0,0 km/h (0 Bft) SO 144 ° 0 min 0,000 mm 0,0 UV-I 0 W/m² 1,3 °C 2,0 °C 0,0 km/h (0 Bft)
08.11.2017 04:52 2,0 °C 2,0 °C 95 % 1015,0 hPa 0,0 mm 0,0 km/h (0 Bft) SO 144 ° 0 min 0,000 mm 0,0 UV-I 0 W/m² 1,3 °C 2,0 °C 0,0 km/h (0 Bft)
08.11.2017 04:53 2,0 °C 2,0 °C 95 % 1015,0 hPa 0,0 mm 0,0 km/h (0 Bft) SO 144 ° 0 min 0,000 mm 0,0 UV-I 0 W/m² 1,3 °C 2,0 °C 0,0 km/h (0 Bft)
08.11.2017 04:54 2,0 °C 2,0 °C 95 % 1015,0 hPa 0,0 mm 0,0 km/h (0 Bft) SO 144 ° 0 min 0,000 mm 0,0 UV-I 0 W/m² 1,3 °C 2,0 °C 0,0 km/h (0 Bft)
08.11.2017 04:55 2,0 °C 2,0 °C 95 % 1015,1 hPa 0,0 mm 0,0 km/h (0 Bft) SO 144 ° 0 min 0,000 mm 0,0 UV-I 0 W/m² 1,3 °C 2,0 °C 0,0 km/h (0 Bft)
08.11.2017 04:56 1,9 °C 2,0 °C 95 % 1015,1 hPa 0,0 mm 0,0 km/h (0 Bft) SO 144 ° 0 min 0,000 mm 0,0 UV-I 0 W/m² 1,2 °C 1,9 °C 0,0 km/h (0 Bft)
08.11.2017 04:57 1,9 °C 2,0 °C 95 % 1015,0 hPa 0,0 mm 0,0 km/h (0 Bft) SO 144 ° 0 min 0,000 mm 0,0 UV-I 0 W/m² 1,2 °C 1,9 °C 0,0 km/h (0 Bft)
08.11.2017 04:58 1,9 °C 2,0 °C 95 % 1015,0 hPa 0,0 mm 0,0 km/h (0 Bft) SO 144 ° 0 min 0,000 mm 0,0 UV-I 0 W/m² 1,2 °C 1,9 °C 0,0 km/h (0 Bft)
08.11.2017 04:59 1,9 °C 1,9 °C 95 % 1015,0 hPa 0,0 mm 0,0 km/h (0 Bft) SO 144 ° 0 min 0,000 mm 0,0 UV-I 0 W/m² 1,2 °C 1,9 °C 0,0 km/h (0 Bft)
08.11.2017 05:00 1,9 °C 1,9 °C 95 % 1015,0 hPa 0,0 mm 0,0 km/h (0 Bft) SO 144 ° 0 min 0,000 mm 0,0 UV-I 0 W/m² 1,2 °C 1,9 °C 0,0 km/h (0 Bft)
08.11.2017 05:01 1,8 °C 1,9 °C 95 % 1015,0 hPa 0,0 mm 0,0 km/h (0 Bft) SO 144 ° 0 min 0,000 mm 0,0 UV-I 0 W/m² 1,1 °C 1,8 °C 0,0 km/h (0 Bft)
08.11.2017 05:02 1,7 °C 1,8 °C 95 % 1014,9 hPa 0,0 mm 0,0 km/h (0 Bft) SO 144 ° 0 min 0,000 mm 0,0 UV-I 0 W/m² 1,0 °C 1,7 °C 0,0 km/h (0 Bft)
08.11.2017 05:03 1,7 °C 1,7 °C 95 % 1014,9 hPa 0,0 mm 0,0 km/h (0 Bft) SO 144 ° 0 min 0,000 mm 0,0 UV-I 0 W/m² 1,0 °C 1,7 °C 0,0 km/h (0 Bft)
08.11.2017 05:04 1,7 °C 1,7 °C 95 % 1014,9 hPa 0,0 mm 0,0 km/h (0 Bft) SO 144 ° 0 min 0,000 mm 0,0 UV-I 0 W/m² 1,0 °C 1,7 °C 0,0 km/h (0 Bft)
08.11.2017 05:05 1,7 °C 1,7 °C 95 % 1015,0 hPa 0,0 mm 0,0 km/h (0 Bft) SO 144 ° 0 min 0,000 mm 0,0 UV-I 0 W/m² 1,0 °C 1,7 °C 0,0 km/h (0 Bft)
08.11.2017 05:06 1,7 °C 1,7 °C 95 % 1014,9 hPa 0,0 mm 0,0 km/h (0 Bft) SO 144 ° 0 min 0,000 mm 0,0 UV-I 0 W/m² 1,0 °C 1,7 °C 0,0 km/h (0 Bft)
08.11.2017 05:07 1,7 °C 1,7 °C 95 % 1014,9 hPa 0,0 mm 0,0 km/h (0 Bft) SO 144 ° 0 min 0,000 mm 0,0 UV-I 0 W/m² 1,0 °C 1,7 °C 0,0 km/h (0 Bft)
08.11.2017 05:08 1,7 °C 1,7 °C 95 % 1014,9 hPa 0,0 mm 0,1 km/h (0 Bft) SO 144 ° 0 min 0,000 mm 0,0 UV-I 0 W/m² 1,0 °C 1,7 °C 1,6 km/h (1 Bft)
08.11.2017 05:09 1,7 °C 1,7 °C 95 % 1014,9 hPa 0,0 mm 0,0 km/h (0 Bft) SO 144 ° 0 min 0,000 mm 0,0 UV-I 0 W/m² 1,0 °C 1,7 °C 0,0 km/h (0 Bft)
08.11.2017 05:10 1,6 °C 1,7 °C 95 % 1014,9 hPa 0,0 mm 0,0 km/h (0 Bft) SO 144 ° 0 min 0,000 mm 0,0 UV-I 0 W/m² 0,9 °C 1,6 °C 0,0 km/h (0 Bft)
08.11.2017 05:11 1,6 °C 1,6 °C 95 % 1014,9 hPa 0,0 mm 0,0 km/h (0 Bft) SO 144 ° 0 min 0,000 mm 0,0 UV-I 0 W/m² 0,9 °C 1,6 °C 0,0 km/h (0 Bft)
08.11.2017 05:12 1,6 °C 1,6 °C 95 % 1014,9 hPa 0,0 mm 0,0 km/h (0 Bft) SO 144 ° 0 min 0,000 mm 0,0 UV-I 0 W/m² 0,9 °C 1,6 °C 0,0 km/h (0 Bft)
08.11.2017 05:13 1,6 °C 1,6 °C 95 % 1014,8 hPa 0,0 mm 0,0 km/h (0 Bft) SO 144 ° 0 min 0,000 mm 0,0 UV-I 0 W/m² 0,9 °C 1,6 °C 0,0 km/h (0 Bft)
08.11.2017 05:14 1,5 °C 1,6 °C 95 % 1014,8 hPa 0,0 mm 0,0 km/h (0 Bft) SO 144 ° 0 min 0,000 mm 0,0 UV-I 0 W/m² 0,8 °C 1,5 °C 0,0 km/h (0 Bft)
08.11.2017 05:15 1,4 °C 1,5 °C 95 % 1014,9 hPa 0,0 mm 0,0 km/h (0 Bft) SO 144 ° 0 min 0,000 mm 0,0 UV-I 0 W/m² 0,7 °C 1,4 °C 0,0 km/h (0 Bft)
08.11.2017 05:16 1,4 °C 1,4 °C 95 % 1014,8 hPa 0,0 mm 0,0 km/h (0 Bft) SO 144 ° 0 min 0,000 mm 0,0 UV-I 0 W/m² 0,7 °C 1,4 °C 0,0 km/h (0 Bft)
08.11.2017 05:17 1,3 °C 1,4 °C 95 % 1014,9 hPa 0,0 mm 0,0 km/h (0 Bft) SO 144 ° 0 min 0,000 mm 0,0 UV-I 0 W/m² 0,6 °C 1,3 °C 0,0 km/h (0 Bft)
08.11.2017 05:18 1,3 °C 1,3 °C 95 % 1014,9 hPa 0,0 mm 0,0 km/h (0 Bft) SO 144 ° 0 min 0,000 mm 0,0 UV-I 0 W/m² 0,6 °C 1,3 °C 0,0 km/h (0 Bft)
08.11.2017 05:19 1,3 °C 1,3 °C 95 % 1014,9 hPa 0,0 mm 0,0 km/h (0 Bft) SO 144 ° 0 min 0,000 mm 0,0 UV-I 0 W/m² 0,6 °C 1,3 °C 0,0 km/h (0 Bft)
08.11.2017 05:20 1,3 °C 1,3 °C 95 % 1014,9 hPa 0,0 mm 0,0 km/h (0 Bft) SO 144 ° 0 min 0,000 mm 0,0 UV-I 0 W/m² 0,6 °C 1,3 °C 0,0 km/h (0 Bft)
08.11.2017 05:21 1,3 °C 1,3 °C 95 % 1014,9 hPa 0,0 mm 0,0 km/h (0 Bft) SO 144 ° 0 min 0,000 mm 0,0 UV-I 0 W/m² 0,6 °C 1,3 °C 0,0 km/h (0 Bft)
08.11.2017 05:22 1,3 °C 1,3 °C 95 % 1014,9 hPa 0,0 mm 0,0 km/h (0 Bft) SO 144 ° 0 min 0,000 mm 0,0 UV-I 0 W/m² 0,6 °C 1,3 °C 0,0 km/h (0 Bft)
08.11.2017 05:23 1,3 °C 1,3 °C 95 % 1014,9 hPa 0,0 mm 0,0 km/h (0 Bft) SO 144 ° 0 min 0,000 mm 0,0 UV-I 0 W/m² 0,6 °C 1,3 °C 0,0 km/h (0 Bft)
08.11.2017 05:24 1,3 °C 1,3 °C 95 % 1014,9 hPa 0,0 mm 0,0 km/h (0 Bft) SO 144 ° 0 min 0,000 mm 0,0 UV-I 0 W/m² 0,6 °C 1,3 °C 0,0 km/h (0 Bft)
08.11.2017 05:25 1,3 °C 1,3 °C 95 % 1014,8 hPa 0,0 mm 0,0 km/h (0 Bft) SO 144 ° 0 min 0,000 mm 0,0 UV-I 0 W/m² 0,6 °C 1,3 °C 0,0 km/h (0 Bft)
08.11.2017 05:26 1,3 °C 1,3 °C 95 % 1014,8 hPa 0,0 mm 0,0 km/h (0 Bft) SO 144 ° 0 min 0,000 mm 0,0 UV-I 0 W/m² 0,6 °C 1,3 °C 0,0 km/h (0 Bft)
08.11.2017 05:27 1,3 °C 1,3 °C 95 % 1014,9 hPa 0,0 mm 0,0 km/h (0 Bft) SO 144 ° 0 min 0,000 mm 0,0 UV-I 0 W/m² 0,6 °C 1,3 °C 0,0 km/h (0 Bft)
08.11.2017 05:28 1,3 °C 1,3 °C 95 % 1014,8 hPa 0,0 mm 0,0 km/h (0 Bft) SO 144 ° 0 min 0,000 mm 0,0 UV-I 0 W/m² 0,6 °C 1,3 °C 0,0 km/h (0 Bft)
08.11.2017 05:29 1,3 °C 1,3 °C 95 % 1014,8 hPa 0,0 mm 0,0 km/h (0 Bft) SO 144 ° 0 min 0,000 mm 0,0 UV-I 0 W/m² 0,6 °C 1,3 °C 0,0 km/h (0 Bft)
08.11.2017 05:30 1,3 °C 1,3 °C 95 % 1014,8 hPa 0,0 mm 0,0 km/h (0 Bft) SO 144 ° 0 min 0,000 mm 0,0 UV-I 0 W/m² 0,6 °C 1,3 °C 0,0 km/h (0 Bft)
08.11.2017 05:31 1,3 °C 1,3 °C 95 % 1014,8 hPa 0,0 mm 0,0 km/h (0 Bft) SO 144 ° 0 min 0,000 mm 0,0 UV-I 0 W/m² 0,6 °C 1,3 °C 0,0 km/h (0 Bft)
08.11.2017 05:32 1,3 °C 1,3 °C 95 % 1014,8 hPa 0,0 mm 0,0 km/h (0 Bft) SO 144 ° 0 min 0,000 mm 0,0 UV-I 0 W/m² 0,6 °C 1,3 °C 0,0 km/h (0 Bft)
08.11.2017 05:33 1,3 °C 1,3 °C 95 % 1014,8 hPa 0,0 mm 0,0 km/h (0 Bft) SO 144 ° 0 min 0,000 mm 0,0 UV-I 0 W/m² 0,6 °C 1,3 °C 0,0 km/h (0 Bft)
08.11.2017 05:34 1,3 °C 1,3 °C 95 % 1014,8 hPa 0,0 mm 0,0 km/h (0 Bft) SO 144 ° 0 min 0,000 mm 0,0 UV-I 0 W/m² 0,6 °C 1,3 °C 0,0 km/h (0 Bft)
08.11.2017 05:35 1,2 °C 1,3 °C 95 % 1014,9 hPa 0,0 mm 0,0 km/h (0 Bft) SO 144 ° 0 min 0,000 mm 0,0 UV-I 0 W/m² 0,5 °C 1,2 °C 0,0 km/h (0 Bft)
08.11.2017 05:36 1,1 °C 1,2 °C 95 % 1014,9 hPa 0,0 mm 0,0 km/h (0 Bft) SO 144 ° 0 min 0,000 mm 0,0 UV-I 0 W/m² 0,4 °C 1,1 °C 0,0 km/h (0 Bft)
08.11.2017 05:37 1,1 °C 1,2 °C 95 % 1014,9 hPa 0,0 mm 1,0 km/h (0 Bft) SO 144 ° 0 min 0,000 mm 0,0 UV-I 0 W/m² 0,4 °C 1,1 °C 3,2 km/h (1 Bft)
08.11.2017 05:38 1,1 °C 1,1 °C 95 % 1014,9 hPa 0,0 mm 2,5 km/h (1 Bft) SO 144 ° 0 min 0,000 mm 0,0 UV-I 0 W/m² 0,4 °C 1,1 °C 3,2 km/h (1 Bft)
08.11.2017 05:39 1,1 °C 1,1 °C 95 % 1014,9 hPa 0,0 mm 1,7 km/h (1 Bft) SO 144 ° 0 min 0,000 mm 0,0 UV-I 0 W/m² 0,4 °C 1,1 °C 3,2 km/h (1 Bft)
08.11.2017 05:40 1,1 °C 1,1 °C 95 % 1014,9 hPa 0,0 mm 1,3 km/h (1 Bft) SO 144 ° 0 min 0,000 mm 0,0 UV-I 0 W/m² 0,4 °C 1,1 °C 1,6 km/h (1 Bft)
08.11.2017 05:41 1,1 °C 1,1 °C 95 % 1014,9 hPa 0,0 mm 0,3 km/h (0 Bft) SO 144 ° 0 min 0,000 mm 0,0 UV-I 0 W/m² 0,4 °C 1,1 °C 1,6 km/h (1 Bft)
08.11.2017 05:42 1,1 °C 1,1 °C 95 % 1014,9 hPa 0,0 mm 0,0 km/h (0 Bft) SO 144 ° 0 min 0,000 mm 0,0 UV-I 0 W/m² 0,4 °C 1,1 °C 0,0 km/h (0 Bft)
08.11.2017 05:43 1,1 °C 1,1 °C 95 % 1014,9 hPa 0,0 mm 0,0 km/h (0 Bft) SO 144 ° 0 min 0,000 mm 0,0 UV-I 0 W/m² 0,4 °C 1,1 °C 0,0 km/h (0 Bft)
08.11.2017 05:44 1,1 °C 1,1 °C 95 % 1014,9 hPa 0,0 mm 0,0 km/h (0 Bft) SO 144 ° 0 min 0,000 mm 0,0 UV-I 0 W/m² 0,4 °C 1,1 °C 0,0 km/h (0 Bft)
08.11.2017 05:45 1,0 °C 1,1 °C 95 % 1014,9 hPa 0,0 mm 0,0 km/h (0 Bft) SO 144 ° 0 min 0,000 mm 0,0 UV-I 0 W/m² 0,3 °C 1,0 °C 0,0 km/h (0 Bft)
08.11.2017 05:46 1,0 °C 1,1 °C 95 % 1014,9 hPa 0,0 mm 0,0 km/h (0 Bft) SO 144 ° 0 min 0,000 mm 0,0 UV-I 0 W/m² 0,3 °C 1,0 °C 0,0 km/h (0 Bft)
08.11.2017 05:47 1,1 °C 1,1 °C 95 % 1014,9 hPa 0,0 mm 0,0 km/h (0 Bft) SO 144 ° 0 min 0,000 mm 0,0 UV-I 0 W/m² 0,4 °C 1,1 °C 0,0 km/h (0 Bft)
08.11.2017 05:48 1,1 °C 1,1 °C 95 % 1014,9 hPa 0,0 mm 0,0 km/h (0 Bft) SO 144 ° 0 min 0,000 mm 0,0 UV-I 0 W/m² 0,4 °C 1,1 °C 0,0 km/h (0 Bft)
08.11.2017 05:49 1,1 °C 1,1 °C 95 % 1014,9 hPa 0,0 mm 0,0 km/h (0 Bft) SO 144 ° 0 min 0,000 mm 0,0 UV-I 0 W/m² 0,4 °C 1,1 °C 0,0 km/h (0 Bft)
08.11.2017 05:50 1,0 °C 1,1 °C 95 % 1014,9 hPa 0,0 mm 0,0 km/h (0 Bft) SO 144 ° 0 min 0,000 mm 0,0 UV-I 0 W/m² 0,3 °C 1,0 °C 0,0 km/h (0 Bft)
08.11.2017 05:51 0,9 °C 1,1 °C 95 % 1014,9 hPa 0,0 mm 0,0 km/h (0 Bft) SO 144 ° 0 min 0,000 mm 0,0 UV-I 0 W/m² 0,2 °C 0,9 °C 0,0 km/h (0 Bft)
08.11.2017 05:52 1,0 °C 1,0 °C 95 % 1015,0 hPa 0,0 mm 0,0 km/h (0 Bft) SO 144 ° 0 min 0,000 mm 0,0 UV-I 0 W/m² 0,3 °C 1,0 °C 0,0 km/h (0 Bft)
08.11.2017 05:53 1,0 °C 1,0 °C 95 % 1014,9 hPa 0,0 mm 0,0 km/h (0 Bft) SO 144 ° 0 min 0,000 mm 0,0 UV-I 0 W/m² 0,3 °C 1,0 °C 0,0 km/h (0 Bft)
08.11.2017 05:54 1,0 °C 1,0 °C 95 % 1014,9 hPa 0,0 mm 0,0 km/h (0 Bft) SO 144 ° 0 min 0,000 mm 0,0 UV-I 0 W/m² 0,3 °C 1,0 °C 0,0 km/h (0 Bft)
08.11.2017 05:55 1,0 °C 1,1 °C 95 % 1014,9 hPa 0,0 mm 0,0 km/h (0 Bft) SO 144 ° 0 min 0,000 mm 0,0 UV-I 0 W/m² 0,3 °C 1,0 °C 0,0 km/h (0 Bft)
08.11.2017 05:56 1,0 °C 1,0 °C 95 % 1014,9 hPa 0,0 mm 0,0 km/h (0 Bft) SO 144 ° 0 min 0,000 mm 0,0 UV-I 0 W/m² 0,3 °C 1,0 °C 0,0 km/h (0 Bft)
08.11.2017 05:57 0,9 °C 1,0 °C 95 % 1014,9 hPa 0,0 mm 0,0 km/h (0 Bft) SO 144 ° 0 min 0,000 mm 0,0 UV-I 0 W/m² 0,2 °C 0,9 °C 0,0 km/h (0 Bft)
08.11.2017 05:58 0,8 °C 0,9 °C 95 % 1015,0 hPa 0,0 mm 0,0 km/h (0 Bft) SO 144 ° 0 min 0,000 mm 0,0 UV-I 0 W/m² 0,1 °C 0,8 °C 0,0 km/h (0 Bft)
08.11.2017 05:59 0,8 °C 0,8 °C 95 % 1014,9 hPa 0,0 mm 0,0 km/h (0 Bft) SO 144 ° 0 min 0,000 mm 0,0 UV-I 0 W/m² 0,1 °C 0,8 °C 0,0 km/h (0 Bft)
08.11.2017 06:00 0,7 °C 0,8 °C 95 % 1015,0 hPa 0,0 mm 0,0 km/h (0 Bft) SO 144 ° 0 min 0,000 mm 0,0 UV-I 0 W/m² -0,0 °C 0,7 °C 0,0 km/h (0 Bft)
08.11.2017 06:01 0,7 °C 0,7 °C 95 % 1015,0 hPa 0,0 mm 0,0 km/h (0 Bft) SO 144 ° 0 min 0,000 mm 0,0 UV-I 0 W/m² -0,0 °C 0,7 °C 0,0 km/h (0 Bft)
08.11.2017 06:02 0,7 °C 0,7 °C 95 % 1015,0 hPa 0,0 mm 0,0 km/h (0 Bft) SO 144 ° 0 min 0,000 mm 0,0 UV-I 0 W/m² -0,0 °C 0,7 °C 0,0 km/h (0 Bft)
08.11.2017 06:03 0,7 °C 0,7 °C 95 % 1015,0 hPa 0,0 mm 0,0 km/h (0 Bft) SO 144 ° 0 min 0,000 mm 0,0 UV-I 0 W/m² -0,0 °C 0,7 °C 0,0 km/h (0 Bft)
08.11.2017 06:04 0,7 °C 0,7 °C 95 % 1015,0 hPa 0,0 mm 0,0 km/h (0 Bft) SO 144 ° 0 min 0,000 mm 0,0 UV-I 0 W/m² -0,0 °C 0,7 °C 0,0 km/h (0 Bft)
08.11.2017 06:05 0,7 °C 0,7 °C 95 % 1015,0 hPa 0,0 mm 0,0 km/h (0 Bft) SO 144 ° 0 min 0,000 mm 0,0 UV-I 0 W/m² -0,0 °C 0,7 °C 0,0 km/h (0 Bft)
08.11.2017 06:06 0,8 °C 0,8 °C 95 % 1015,0 hPa 0,0 mm 0,0 km/h (0 Bft) SO 144 ° 0 min 0,000 mm 0,0 UV-I 0 W/m² 0,1 °C 0,8 °C 0,0 km/h (0 Bft)
08.11.2017 06:07 0,8 °C 0,8 °C 95 % 1015,0 hPa 0,0 mm 0,0 km/h (0 Bft) SO 144 ° 0 min 0,000 mm 0,0 UV-I 0 W/m² 0,1 °C 0,8 °C 0,0 km/h (0 Bft)
08.11.2017 06:08 0,8 °C 0,8 °C 95 % 1015,1 hPa 0,0 mm 0,0 km/h (0 Bft) SO 144 ° 0 min 0,000 mm 0,0 UV-I 0 W/m² 0,1 °C 0,8 °C 0,0 km/h (0 Bft)
08.11.2017 06:09 0,8 °C 0,8 °C 95 % 1015,1 hPa 0,0 mm 0,0 km/h (0 Bft) SO 144 ° 0 min 0,000 mm 0,0 UV-I 0 W/m² 0,1 °C 0,8 °C 0,0 km/h (0 Bft)
08.11.2017 06:10 0,7 °C 0,8 °C 95 % 1015,1 hPa 0,0 mm 0,0 km/h (0 Bft) SO 144 ° 0 min 0,000 mm 0,0 UV-I 0 W/m² -0,0 °C 0,7 °C 0,0 km/h (0 Bft)
08.11.2017 06:11 0,6 °C 0,7 °C 95 % 1015,1 hPa 0,0 mm 0,0 km/h (0 Bft) SO 144 ° 0 min 0,000 mm 0,0 UV-I 0 W/m² -0,1 °C 0,6 °C 0,0 km/h (0 Bft)
08.11.2017 06:12 0,4 °C 0,6 °C 95 % 1015,1 hPa 0,0 mm 0,0 km/h (0 Bft) SO 144 ° 0 min 0,000 mm 0,0 UV-I 0 W/m² -0,3 °C 0,4 °C 0,0 km/h (0 Bft)
08.11.2017 06:13 0,4 °C 0,4 °C 95 % 1015,1 hPa 0,0 mm 0,0 km/h (0 Bft) SO 144 ° 0 min 0,000 mm 0,0 UV-I 0 W/m² -0,3 °C 0,4 °C 0,0 km/h (0 Bft)
08.11.2017 06:14 0,4 °C 0,4 °C 95 % 1015,1 hPa 0,0 mm 0,0 km/h (0 Bft) SO 144 ° 0 min 0,000 mm 0,0 UV-I 0 W/m² -0,3 °C 0,4 °C 0,0 km/h (0 Bft)
08.11.2017 06:15 0,4 °C 0,4 °C 95 % 1015,1 hPa 0,0 mm 0,0 km/h (0 Bft) SO 144 ° 0 min 0,000 mm 0,0 UV-I 0 W/m² -0,3 °C 0,4 °C 0,0 km/h (0 Bft)
08.11.2017 06:16 0,4 °C 0,4 °C 95 % 1015,1 hPa 0,0 mm 0,0 km/h (0 Bft) SO 144 ° 0 min 0,000 mm 0,0 UV-I 0 W/m² -0,3 °C 0,4 °C 0,0 km/h (0 Bft)
08.11.2017 06:17 0,4 °C 0,4 °C 95 % 1015,2 hPa 0,0 mm 0,0 km/h (0 Bft) SO 144 ° 0 min 0,000 mm 0,0 UV-I 0 W/m² -0,3 °C 0,4 °C 0,0 km/h (0 Bft)
08.11.2017 06:18 0,5 °C 0,5 °C 95 % 1015,1 hPa 0,0 mm 0,0 km/h (0 Bft) SO 144 ° 0 min 0,000 mm 0,0 UV-I 0 W/m² -0,2 °C 0,5 °C 0,0 km/h (0 Bft)
08.11.2017 06:19 0,6 °C 0,6 °C 96 % 1015,1 hPa 0,0 mm 0,0 km/h (0 Bft) SO 144 ° 0 min 0,000 mm 0,0 UV-I 0 W/m² 0,0 °C 0,6 °C 0,0 km/h (0 Bft)
08.11.2017 06:20 0,6 °C 0,6 °C 96 % 1015,2 hPa 0,0 mm 0,0 km/h (0 Bft) SO 144 ° 0 min 0,000 mm 0,0 UV-I 0 W/m² 0,0 °C 0,6 °C 0,0 km/h (0 Bft)
08.11.2017 06:21 0,7 °C 0,7 °C 96 % 1015,2 hPa 0,0 mm 0,0 km/h (0 Bft) SO 144 ° 0 min 0,000 mm 0,0 UV-I 0 W/m² 0,1 °C 0,7 °C 0,0 km/h (0 Bft)
08.11.2017 06:22 0,6 °C 0,7 °C 96 % 1015,2 hPa 0,0 mm 0,0 km/h (0 Bft) SO 144 ° 0 min 0,000 mm 0,0 UV-I 0 W/m² 0,0 °C 0,6 °C 0,0 km/h (0 Bft)
08.11.2017 06:23 0,5 °C 0,6 °C 95 % 1015,2 hPa 0,0 mm 0,0 km/h (0 Bft) SO 144 ° 0 min 0,000 mm 0,0 UV-I 0 W/m² -0,2 °C 0,5 °C 0,0 km/h (0 Bft)
08.11.2017 06:24 0,4 °C 0,5 °C 95 % 1015,2 hPa 0,0 mm 0,0 km/h (0 Bft) SO 144 ° 0 min 0,000 mm 0,0 UV-I 0 W/m² -0,3 °C 0,4 °C 0,0 km/h (0 Bft)
08.11.2017 06:25 0,4 °C 0,4 °C 95 % 1015,2 hPa 0,0 mm 0,0 km/h (0 Bft) SO 144 ° 0 min 0,000 mm 0,0 UV-I 0 W/m² -0,3 °C 0,4 °C 0,0 km/h (0 Bft)
08.11.2017 06:26 0,3 °C 0,4 °C 95 % 1015,1 hPa 0,0 mm 0,0 km/h (0 Bft) SO 144 ° 0 min 0,000 mm 0,0 UV-I 0 W/m² -0,4 °C 0,3 °C 0,0 km/h (0 Bft)
08.11.2017 06:27 0,3 °C 0,3 °C 95 % 1015,1 hPa 0,0 mm 0,0 km/h (0 Bft) SO 144 ° 0 min 0,000 mm 0,0 UV-I 0 W/m² -0,4 °C 0,3 °C 0,0 km/h (0 Bft)
08.11.2017 06:28 0,3 °C 0,3 °C 95 % 1015,2 hPa 0,0 mm 0,0 km/h (0 Bft) SO 144 ° 0 min 0,000 mm 0,0 UV-I 0 W/m² -0,4 °C 0,3 °C 0,0 km/h (0 Bft)
08.11.2017 06:29 0,3 °C 0,3 °C 95 % 1015,2 hPa 0,0 mm 0,0 km/h (0 Bft) SO 144 ° 0 min 0,000 mm 0,0 UV-I 0 W/m² -0,4 °C 0,3 °C 0,0 km/h (0 Bft)
08.11.2017 06:30 0,3 °C 0,3 °C 95 % 1015,2 hPa 0,0 mm 0,0 km/h (0 Bft) SO 144 ° 0 min 0,000 mm 0,0 UV-I 0 W/m² -0,4 °C 0,3 °C 0,0 km/h (0 Bft)
08.11.2017 06:31 0,3 °C 0,3 °C 95 % 1015,2 hPa 0,0 mm 0,0 km/h (0 Bft) SO 144 ° 0 min 0,000 mm 0,0 UV-I 0 W/m² -0,4 °C 0,3 °C 0,0 km/h (0 Bft)
08.11.2017 06:32 0,3 °C 0,4 °C 95 % 1015,2 hPa 0,0 mm 0,0 km/h (0 Bft) SO 144 ° 0 min 0,000 mm 0,0 UV-I 0 W/m² -0,4 °C 0,3 °C 0,0 km/h (0 Bft)
08.11.2017 06:33 0,3 °C 0,4 °C 95 % 1015,2 hPa 0,0 mm 0,0 km/h (0 Bft) SO 144 ° 0 min 0,000 mm 0,0 UV-I 0 W/m² -0,4 °C 0,3 °C 0,0 km/h (0 Bft)
08.11.2017 06:34 0,4 °C 0,4 °C 95 % 1015,2 hPa 0,0 mm 0,0 km/h (0 Bft) SO 144 ° 0 min 0,000 mm 0,0 UV-I 0 W/m² -0,3 °C 0,4 °C 0,0 km/h (0 Bft)
08.11.2017 06:35 0,4 °C 0,4 °C 95 % 1015,2 hPa 0,0 mm 0,0 km/h (0 Bft) SO 144 ° 0 min 0,000 mm 0,0 UV-I 0 W/m² -0,3 °C 0,4 °C 0,0 km/h (0 Bft)
08.11.2017 06:36 0,4 °C 0,4 °C 95 % 1015,2 hPa 0,0 mm 0,0 km/h (0 Bft) SO 144 ° 0 min 0,000 mm 0,0 UV-I 0 W/m² -0,3 °C 0,4 °C 0,0 km/h (0 Bft)
08.11.2017 06:37 0,4 °C 0,4 °C 95 % 1015,2 hPa 0,0 mm 0,0 km/h (0 Bft) SO 144 ° 0 min 0,000 mm 0,0 UV-I 0 W/m² -0,3 °C 0,4 °C 0,0 km/h (0 Bft)
08.11.2017 06:38 0,4 °C 0,4 °C 95 % 1015,2 hPa 0,0 mm 0,0 km/h (0 Bft) SO 144 ° 0 min 0,000 mm 0,0 UV-I 0 W/m² -0,3 °C 0,4 °C 0,0 km/h (0 Bft)
08.11.2017 06:39 0,4 °C 0,4 °C 95 % 1015,2 hPa 0,0 mm 0,0 km/h (0 Bft) SO 144 ° 0 min 0,000 mm 0,0 UV-I 0 W/m² -0,3 °C 0,4 °C 0,0 km/h (0 Bft)
08.11.2017 06:40 0,5 °C 0,5 °C 95 % 1015,3 hPa 0,0 mm 0,0 km/h (0 Bft) SO 144 ° 0 min 0,000 mm 0,0 UV-I 0 W/m² -0,2 °C 0,5 °C 0,0 km/h (0 Bft)
08.11.2017 06:41 0,5 °C 0,5 °C 95 % 1015,3 hPa 0,0 mm 0,0 km/h (0 Bft) SO 144 ° 0 min 0,000 mm 0,0 UV-I 0 W/m² -0,2 °C 0,5 °C 0,0 km/h (0 Bft)
08.11.2017 06:42 0,6 °C 0,6 °C 95 % 1015,3 hPa 0,0 mm 0,0 km/h (0 Bft) SO 144 ° 0 min 0,000 mm 0,0 UV-I 0 W/m² -0,1 °C 0,6 °C 0,0 km/h (0 Bft)
08.11.2017 06:43 0,5 °C 0,6 °C 95 % 1015,3 hPa 0,0 mm 0,0 km/h (0 Bft) SO 144 ° 0 min 0,000 mm 0,0 UV-I 0 W/m² -0,2 °C 0,5 °C 0,0 km/h (0 Bft)
08.11.2017 06:44 0,5 °C 0,5 °C 95 % 1015,3 hPa 0,0 mm 0,0 km/h (0 Bft) SO 144 ° 0 min 0,000 mm 0,0 UV-I 0 W/m² -0,2 °C 0,5 °C 0,0 km/h (0 Bft)
08.11.2017 06:45 0,5 °C 0,5 °C 95 % 1015,3 hPa 0,0 mm 0,0 km/h (0 Bft) SO 144 ° 0 min 0,000 mm 0,0 UV-I 0 W/m² -0,2 °C 0,5 °C 0,0 km/h (0 Bft)
08.11.2017 06:46 0,5 °C 0,5 °C 95 % 1015,3 hPa 0,0 mm 0,0 km/h (0 Bft) SO 144 ° 0 min 0,000 mm 0,0 UV-I 0 W/m² -0,2 °C 0,5 °C 0,0 km/h (0 Bft)
08.11.2017 06:47 0,5 °C 0,5 °C 95 % 1015,3 hPa 0,0 mm 0,0 km/h (0 Bft) SO 144 ° 0 min 0,000 mm 0,0 UV-I 0 W/m² -0,2 °C 0,5 °C 0,0 km/h (0 Bft)
08.11.2017 06:48 0,5 °C 0,5 °C 95 % 1015,2 hPa 0,0 mm 0,0 km/h (0 Bft) SO 144 ° 0 min 0,000 mm 0,0 UV-I 0 W/m² -0,2 °C 0,5 °C 0,0 km/h (0 Bft)
08.11.2017 06:49 0,6 °C 0,6 °C 95 % 1015,2 hPa 0,0 mm 0,0 km/h (0 Bft) SO 144 ° 0 min 0,000 mm 0,0 UV-I 0 W/m² -0,1 °C 0,6 °C 0,0 km/h (0 Bft)
08.11.2017 06:50 0,5 °C 0,6 °C 95 % 1015,3 hPa 0,0 mm 0,0 km/h (0 Bft) SO 144 ° 0 min 0,000 mm 0,0 UV-I 0 W/m² -0,2 °C 0,5 °C 0,0 km/h (0 Bft)
08.11.2017 06:51 0,5 °C 0,5 °C 95 % 1015,3 hPa 0,0 mm 0,0 km/h (0 Bft) SO 144 ° 0 min 0,000 mm 0,0 UV-I 0 W/m² -0,2 °C 0,5 °C 0,0 km/h (0 Bft)
08.11.2017 06:52 0,4 °C 0,5 °C 95 % 1015,2 hPa 0,0 mm 0,0 km/h (0 Bft) SO 144 ° 0 min 0,000 mm 0,0 UV-I 0 W/m² -0,3 °C 0,4 °C 0,0 km/h (0 Bft)
08.11.2017 06:53 0,4 °C 0,4 °C 95 % 1015,2 hPa 0,0 mm 0,0 km/h (0 Bft) SO 144 ° 0 min 0,000 mm 0,0 UV-I 0 W/m² -0,3 °C 0,4 °C 0,0 km/h (0 Bft)
08.11.2017 06:54 0,3 °C 0,4 °C 95 % 1015,3 hPa 0,0 mm 0,0 km/h (0 Bft) SO 144 ° 0 min 0,000 mm 0,0 UV-I 0 W/m² -0,4 °C 0,3 °C 0,0 km/h (0 Bft)
08.11.2017 06:55 0,3 °C 0,3 °C 95 % 1015,3 hPa 0,0 mm 0,0 km/h (0 Bft) SO 144 ° 0 min 0,000 mm 0,0 UV-I 0 W/m² -0,4 °C 0,3 °C 0,0 km/h (0 Bft)
08.11.2017 06:56 0,2 °C 0,3 °C 95 % 1015,2 hPa 0,0 mm 0,0 km/h (0 Bft) SO 144 ° 0 min 0,000 mm 0,0 UV-I 0 W/m² -0,5 °C 0,2 °C 0,0 km/h (0 Bft)
08.11.2017 06:57 0,2 °C 0,2 °C 95 % 1015,3 hPa 0,0 mm 0,0 km/h (0 Bft) SO 144 ° 0 min 0,000 mm 0,0 UV-I 0 W/m² -0,5 °C 0,2 °C 0,0 km/h (0 Bft)
08.11.2017 06:58 0,2 °C 0,2 °C 95 % 1015,3 hPa 0,0 mm 0,0 km/h (0 Bft) SO 144 ° 0 min 0,000 mm 0,0 UV-I 0 W/m² -0,5 °C 0,2 °C 0,0 km/h (0 Bft)
08.11.2017 06:59 0,2 °C 0,2 °C 95 % 1015,2 hPa 0,0 mm 0,0 km/h (0 Bft) SO 144 ° 0 min 0,000 mm 0,0 UV-I 0 W/m² -0,5 °C 0,2 °C 0,0 km/h (0 Bft)
08.11.2017 07:00 0,2 °C 0,2 °C 95 % 1015,2 hPa 0,0 mm 0,0 km/h (0 Bft) SO 144 ° 0 min 0,000 mm 0,0 UV-I 0 W/m² -0,5 °C 0,2 °C 0,0 km/h (0 Bft)
08.11.2017 07:01 0,2 °C 0,2 °C 95 % 1015,3 hPa 0,0 mm 0,0 km/h (0 Bft) SO 144 ° 0 min 0,000 mm 0,0 UV-I 0 W/m² -0,5 °C 0,2 °C 0,0 km/h (0 Bft)
08.11.2017 07:02 0,2 °C 0,2 °C 95 % 1015,3 hPa 0,0 mm 0,0 km/h (0 Bft) SO 144 ° 0 min 0,000 mm 0,0 UV-I 0 W/m² -0,5 °C 0,2 °C 0,0 km/h (0 Bft)
08.11.2017 07:03 0,2 °C 0,2 °C 95 % 1015,3 hPa 0,0 mm 0,0 km/h (0 Bft) SO 144 ° 0 min 0,000 mm 0,0 UV-I 0 W/m² -0,5 °C 0,2 °C 0,0 km/h (0 Bft)
08.11.2017 07:04 0,2 °C 0,2 °C 95 % 1015,3 hPa 0,0 mm 0,0 km/h (0 Bft) SO 144 ° 0 min 0,000 mm 0,0 UV-I 0 W/m² -0,5 °C 0,2 °C 0,0 km/h (0 Bft)
08.11.2017 07:05 0,2 °C 0,2 °C 95 % 1015,4 hPa 0,0 mm 0,0 km/h (0 Bft) SO 144 ° 0 min 0,000 mm 0,0 UV-I 0 W/m² -0,5 °C 0,2 °C 0,0 km/h (0 Bft)
08.11.2017 07:06 0,2 °C 0,2 °C 96 % 1015,4 hPa 0,0 mm 0,6 km/h (0 Bft) SO 146 ° 0 min 0,000 mm 0,0 UV-I 0 W/m² -0,4 °C 0,2 °C 3,2 km/h (1 Bft)
08.11.2017 07:07 0,2 °C 0,2 °C 95 % 1015,4 hPa 0,0 mm 1,8 km/h (1 Bft) S-SO 157 ° 0 min 0,000 mm 0,0 UV-I 0 W/m² -0,5 °C 0,2 °C 3,2 km/h (1 Bft)
08.11.2017 07:08 0,2 °C 0,2 °C 95 % 1015,4 hPa 0,0 mm 1,7 km/h (1 Bft) S-SO 159 ° 0 min 0,000 mm 0,0 UV-I 0 W/m² -0,5 °C 0,2 °C 3,2 km/h (1 Bft)
08.11.2017 07:09 0,2 °C 0,2 °C 96 % 1015,4 hPa 0,0 mm 0,6 km/h (0 Bft) S-SO 159 ° 0 min 0,000 mm 0,0 UV-I 0 W/m² -0,4 °C 0,2 °C 1,6 km/h (1 Bft)
08.11.2017 07:10 0,2 °C 0,2 °C 96 % 1015,4 hPa 0,0 mm 0,1 km/h (0 Bft) S-SO 159 ° 0 min 0,000 mm 0,0 UV-I 0 W/m² -0,4 °C 0,2 °C 1,6 km/h (1 Bft)
08.11.2017 07:11 0,2 °C 0,2 °C 96 % 1015,5 hPa 0,0 mm 0,0 km/h (0 Bft) S-SO 159 ° 0 min 0,000 mm 0,0 UV-I 0 W/m² -0,4 °C 0,2 °C 0,0 km/h (0 Bft)
08.11.2017 07:12 0,2 °C 0,2 °C 95 % 1015,5 hPa 0,0 mm 0,0 km/h (0 Bft) S-SO 159 ° 0 min 0,000 mm 0,0 UV-I 0 W/m² -0,5 °C 0,2 °C 0,0 km/h (0 Bft)
08.11.2017 07:13 0,2 °C 0,2 °C 95 % 1015,5 hPa 0,0 mm 0,0 km/h (0 Bft) S-SO 159 ° 0 min 0,000 mm 0,0 UV-I 0 W/m² -0,5 °C 0,2 °C 0,0 km/h (0 Bft)
08.11.2017 07:14 0,2 °C 0,2 °C 96 % 1015,5 hPa 0,0 mm 0,0 km/h (0 Bft) S-SO 159 ° 0 min 0,000 mm 0,0 UV-I 0 W/m² -0,4 °C 0,2 °C 0,0 km/h (0 Bft)
08.11.2017 07:15 0,2 °C 0,2 °C 96 % 1015,6 hPa 0,0 mm 0,0 km/h (0 Bft) S-SO 159 ° 0 min 0,000 mm 0,0 UV-I 0 W/m² -0,4 °C 0,2 °C 0,0 km/h (0 Bft)
08.11.2017 07:16 0,2 °C 0,2 °C 95 % 1015,6 hPa 0,0 mm 0,0 km/h (0 Bft) S-SO 159 ° 0 min 0,000 mm 0,0 UV-I 5 W/m² -0,5 °C 0,2 °C 0,0 km/h (0 Bft)
08.11.2017 07:17 0,3 °C 0,3 °C 96 % 1015,6 hPa 0,0 mm 0,0 km/h (0 Bft) S-SO 159 ° 0 min 0,000 mm 0,0 UV-I 5 W/m² -0,3 °C 0,3 °C 0,0 km/h (0 Bft)
08.11.2017 07:18 0,3 °C 0,3 °C 96 % 1015,6 hPa 0,0 mm 1,0 km/h (0 Bft) S-SO 159 ° 0 min 0,000 mm 0,0 UV-I 7 W/m² -0,3 °C 0,3 °C 3,2 km/h (1 Bft)
08.11.2017 07:19 0,4 °C 0,4 °C 96 % 1015,6 hPa 0,0 mm 2,6 km/h (1 Bft) S-SO 159 ° 0 min 0,000 mm 0,0 UV-I 9 W/m² -0,2 °C 0,4 °C 3,2 km/h (1 Bft)
08.11.2017 07:20 0,4 °C 0,4 °C 96 % 1015,6 hPa 0,0 mm 1,1 km/h (1 Bft) S-SO 159 ° 0 min 0,000 mm 0,0 UV-I 14 W/m² -0,2 °C 0,4 °C 3,2 km/h (1 Bft)
08.11.2017 07:21 0,4 °C 0,4 °C 96 % 1015,6 hPa 0,0 mm 0,7 km/h (0 Bft) S-SO 159 ° 0 min 0,000 mm 0,0 UV-I 16 W/m² -0,2 °C 0,4 °C 1,6 km/h (1 Bft)
08.11.2017 07:22 0,5 °C 0,6 °C 96 % 1015,6 hPa 0,0 mm 0,8 km/h (0 Bft) S-SO 159 ° 0 min 0,000 mm 0,0 UV-I 19 W/m² -0,1 °C 0,5 °C 1,6 km/h (1 Bft)
08.11.2017 07:23 0,6 °C 0,6 °C 96 % 1015,7 hPa 0,0 mm 0,0 km/h (0 Bft) S-SO 159 ° 0 min 0,000 mm 0,0 UV-I 21 W/m² 0,0 °C 0,6 °C 0,0 km/h (0 Bft)
08.11.2017 07:24 0,6 °C 0,6 °C 96 % 1015,7 hPa 0,0 mm 0,3 km/h (0 Bft) S-SO 159 ° 0 min 0,000 mm 0,0 UV-I 23 W/m² 0,0 °C 0,6 °C 1,6 km/h (1 Bft)
08.11.2017 07:25 0,7 °C 0,7 °C 96 % 1015,6 hPa 0,0 mm 1,7 km/h (1 Bft) S-SO 159 ° 0 min 0,000 mm 0,0 UV-I 25 W/m² 0,1 °C 0,7 °C 3,2 km/h (1 Bft)
08.11.2017 07:26 0,8 °C 0,8 °C 96 % 1015,7 hPa 0,0 mm 0,6 km/h (0 Bft) S-SO 161 ° 0 min 0,000 mm 0,0 UV-I 26 W/m² 0,2 °C 0,8 °C 3,2 km/h (1 Bft)
08.11.2017 07:27 0,9 °C 0,9 °C 96 % 1015,7 hPa 0,0 mm 1,6 km/h (1 Bft) S-SO 161 ° 0 min 0,000 mm 0,0 UV-I 26 W/m² 0,3 °C 0,9 °C 3,2 km/h (1 Bft)
08.11.2017 07:28 1,0 °C 1,0 °C 96 % 1015,7 hPa 0,0 mm 2,8 km/h (1 Bft) S 178 ° 0 min 0,000 mm 0,0 UV-I 28 W/m² 0,4 °C 1,0 °C 6,4 km/h (2 Bft)
08.11.2017 07:29 1,1 °C 1,1 °C 96 % 1015,7 hPa 0,0 mm 4,2 km/h (1 Bft) S-SW 204 ° 0 min 0,000 mm 0,0 UV-I 28 W/m² 0,5 °C 1,1 °C 6,4 km/h (2 Bft)
08.11.2017 07:30 1,1 °C 1,1 °C 96 % 1015,7 hPa 0,0 mm 2,0 km/h (1 Bft) S-SW 204 ° 0 min 0,000 mm 0,0 UV-I 30 W/m² 0,5 °C 1,1 °C 3,2 km/h (1 Bft)
08.11.2017 07:31 1,1 °C 1,1 °C 96 % 1015,7 hPa 0,0 mm 6,3 km/h (2 Bft) S-SW 198 ° 0 min 0,000 mm 0,0 UV-I 30 W/m² 0,5 °C -0,9 °C 8,0 km/h (2 Bft)
08.11.2017 07:32 1,1 °C 1,1 °C 96 % 1015,7 hPa 0,0 mm 3,5 km/h (1 Bft) S-SW 193 ° 0 min 0,000 mm 0,0 UV-I 32 W/m² 0,5 °C 1,1 °C 6,4 km/h (2 Bft)
08.11.2017 07:33 1,1 °C 1,2 °C 96 % 1015,7 hPa 0,0 mm 2,8 km/h (1 Bft) S 184 ° 0 min 0,000 mm 0,0 UV-I 33 W/m² 0,5 °C 1,1 °C 4,8 km/h (1 Bft)
08.11.2017 07:34 1,1 °C 1,2 °C 96 % 1015,7 hPa 0,0 mm 3,5 km/h (1 Bft) S-SW 197 ° 0 min 0,000 mm 0,0 UV-I 33 W/m² 0,5 °C 1,1 °C 6,4 km/h (2 Bft)
08.11.2017 07:35 1,2 °C 1,2 °C 96 % 1015,7 hPa 0,0 mm 2,5 km/h (1 Bft) S-SW 197 ° 0 min 0,000 mm 0,0 UV-I 33 W/m² 0,6 °C 1,2 °C 3,2 km/h (1 Bft)
08.11.2017 07:36 1,2 °C 1,2 °C 96 % 1015,7 hPa 0,0 mm 3,0 km/h (1 Bft) S-SW 197 ° 0 min 0,000 mm 0,0 UV-I 35 W/m² 0,6 °C 1,2 °C 3,2 km/h (1 Bft)
08.11.2017 07:37 1,2 °C 1,2 °C 96 % 1015,7 hPa 0,0 mm 2,7 km/h (1 Bft) S-SW 197 ° 0 min 0,000 mm 0,0 UV-I 35 W/m² 0,6 °C 1,2 °C 4,8 km/h (1 Bft)
08.11.2017 07:38 1,2 °C 1,2 °C 96 % 1015,7 hPa 0,0 mm 1,5 km/h (1 Bft) S-SW 197 ° 0 min 0,000 mm 0,0 UV-I 37 W/m² 0,6 °C 1,2 °C 3,2 km/h (1 Bft)
08.11.2017 07:39 1,2 °C 1,2 °C 96 % 1015,8 hPa 0,0 mm 2,1 km/h (1 Bft) S-SW 195 ° 0 min 0,000 mm 0,0 UV-I 37 W/m² 0,6 °C 1,2 °C 4,8 km/h (1 Bft)
08.11.2017 07:40 1,2 °C 1,2 °C 96 % 1015,8 hPa 0,0 mm 1,1 km/h (1 Bft) S-SW 195 ° 0 min 0,000 mm 0,0 UV-I 39 W/m² 0,6 °C 1,2 °C 3,2 km/h (1 Bft)
08.11.2017 07:41 1,3 °C 1,3 °C 96 % 1015,8 hPa 0,0 mm 3,1 km/h (1 Bft) S 175 ° 0 min 0,000 mm 0,0 UV-I 40 W/m² 0,7 °C 1,3 °C 4,8 km/h (1 Bft)
08.11.2017 07:42 1,3 °C 1,3 °C 96 % 1015,8 hPa 0,0 mm 2,1 km/h (1 Bft) S 175 ° 0 min 0,000 mm 0,0 UV-I 42 W/m² 0,7 °C 1,3 °C 3,2 km/h (1 Bft)
08.11.2017 07:43 1,3 °C 1,3 °C 96 % 1015,8 hPa 0,0 mm 1,7 km/h (1 Bft) S 175 ° 0 min 0,000 mm 0,0 UV-I 42 W/m² 0,7 °C 1,3 °C 3,2 km/h (1 Bft)
08.11.2017 07:44 1,3 °C 1,3 °C 96 % 1015,8 hPa 0,0 mm 2,3 km/h (1 Bft) S 175 ° 0 min 0,000 mm 0,0 UV-I 46 W/m² 0,7 °C 1,3 °C 3,2 km/h (1 Bft)
08.11.2017 07:45 1,4 °C 1,4 °C 96 % 1015,8 hPa 0,0 mm 1,0 km/h (0 Bft) S 175 ° 0 min 0,000 mm 0,0 UV-I 47 W/m² 0,8 °C 1,4 °C 1,6 km/h (1 Bft)
08.11.2017 07:46 1,4 °C 1,4 °C 96 % 1015,8 hPa 0,0 mm 1,3 km/h (1 Bft) S 175 ° 0 min 0,000 mm 0,0 UV-I 47 W/m² 0,8 °C 1,4 °C 3,2 km/h (1 Bft)
08.11.2017 07:47 1,4 °C 1,4 °C 96 % 1015,9 hPa 0,0 mm 2,9 km/h (1 Bft) S-SW 197 ° 0 min 0,000 mm 0,0 UV-I 49 W/m² 0,8 °C 1,4 °C 4,8 km/h (1 Bft)
08.11.2017 07:48 1,5 °C 1,5 °C 96 % 1015,9 hPa 0,0 mm 2,5 km/h (1 Bft) S-SW 197 ° 0 min 0,000 mm 0,0 UV-I 49 W/m² 0,9 °C 1,5 °C 3,2 km/h (1 Bft)
08.11.2017 07:49 1,6 °C 1,6 °C 96 % 1015,9 hPa 0,0 mm 0,0 km/h (0 Bft) S-SW 197 ° 0 min 0,000 mm 0,0 UV-I 51 W/m² 1,0 °C 1,6 °C 0,0 km/h (0 Bft)
08.11.2017 07:50 1,6 °C 1,6 °C 96 % 1015,9 hPa 0,0 mm 2,8 km/h (1 Bft) S-SW 193 ° 0 min 0,000 mm 0,0 UV-I 51 W/m² 1,0 °C 1,6 °C 6,4 km/h (2 Bft)
08.11.2017 07:51 1,6 °C 1,6 °C 96 % 1015,9 hPa 0,0 mm 2,4 km/h (1 Bft) S-SW 193 ° 0 min 0,000 mm 0,0 UV-I 53 W/m² 1,0 °C 1,6 °C 3,2 km/h (1 Bft)
08.11.2017 07:52 1,6 °C 1,6 °C 96 % 1015,9 hPa 0,0 mm 0,9 km/h (0 Bft) S-SW 193 ° 0 min 0,000 mm 0,0 UV-I 53 W/m² 1,0 °C 1,6 °C 3,2 km/h (1 Bft)
08.11.2017 07:53 1,7 °C 1,7 °C 96 % 1015,9 hPa 0,0 mm 0,9 km/h (0 Bft) S-SW 193 ° 0 min 0,000 mm 0,0 UV-I 54 W/m² 1,1 °C 1,7 °C 3,2 km/h (1 Bft)
08.11.2017 07:54 1,6 °C 1,7 °C 96 % 1015,8 hPa 0,0 mm 0,2 km/h (0 Bft) S-SW 193 ° 0 min 0,000 mm 0,0 UV-I 56 W/m² 1,0 °C 1,6 °C 1,6 km/h (1 Bft)
08.11.2017 07:55 1,7 °C 1,7 °C 96 % 1015,9 hPa 0,0 mm 0,0 km/h (0 Bft) S-SW 193 ° 0 min 0,000 mm 0,0 UV-I 58 W/m² 1,1 °C 1,7 °C 0,0 km/h (0 Bft)
08.11.2017 07:56 1,6 °C 1,7 °C 96 % 1015,9 hPa 0,0 mm 0,0 km/h (0 Bft) S-SW 193 ° 0 min 0,000 mm 0,0 UV-I 60 W/m² 1,0 °C 1,6 °C 0,0 km/h (0 Bft)
08.11.2017 07:57 1,6 °C 1,6 °C 96 % 1015,9 hPa 0,0 mm 0,0 km/h (0 Bft) S-SW 193 ° 0 min 0,000 mm 0,0 UV-I 62 W/m² 1,0 °C 1,6 °C 0,0 km/h (0 Bft)
08.11.2017 07:58 1,6 °C 1,6 °C 96 % 1015,9 hPa 0,0 mm 0,0 km/h (0 Bft) S-SW 193 ° 0 min 0,000 mm 0,0 UV-I 62 W/m² 1,0 °C 1,6 °C 0,0 km/h (0 Bft)
08.11.2017 07:59 1,4 °C 1,6 °C 95 % 1015,9 hPa 0,0 mm 0,0 km/h (0 Bft) S-SW 193 ° 0 min 0,000 mm 0,0 UV-I 62 W/m² 0,7 °C 1,4 °C 0,0 km/h (0 Bft)
08.11.2017 08:00 1,4 °C 1,4 °C 95 % 1015,9 hPa 0,0 mm 0,0 km/h (0 Bft) S-SW 193 ° 0 min 0,000 mm 0,0 UV-I 62 W/m² 0,7 °C 1,4 °C 0,0 km/h (0 Bft)
08.11.2017 08:01 1,4 °C 1,4 °C 95 % 1015,9 hPa 0,0 mm 0,0 km/h (0 Bft) S-SW 193 ° 0 min 0,000 mm 0,0 UV-I 62 W/m² 0,7 °C 1,4 °C 0,0 km/h (0 Bft)
08.11.2017 08:02 1,4 °C 1,4 °C 95 % 1015,9 hPa 0,0 mm 0,0 km/h (0 Bft) S-SW 193 ° 0 min 0,000 mm 0,0 UV-I 62 W/m² 0,7 °C 1,4 °C 0,0 km/h (0 Bft)
08.11.2017 08:03 1,4 °C 1,4 °C 95 % 1015,9 hPa 0,0 mm 0,0 km/h (0 Bft) S-SW 193 ° 0 min 0,000 mm 0,0 UV-I 62 W/m² 0,7 °C 1,4 °C 0,0 km/h (0 Bft)
08.11.2017 08:04 1,4 °C 1,4 °C 95 % 1015,9 hPa 0,0 mm 0,0 km/h (0 Bft) S-SW 193 ° 0 min 0,000 mm 0,0 UV-I 62 W/m² 0,7 °C 1,4 °C 0,0 km/h (0 Bft)
08.11.2017 08:05 1,4 °C 1,4 °C 95 % 1015,9 hPa 0,0 mm 0,0 km/h (0 Bft) S-SW 193 ° 0 min 0,000 mm 0,0 UV-I 62 W/m² 0,7 °C 1,4 °C 0,0 km/h (0 Bft)
08.11.2017 08:06 1,5 °C 1,5 °C 95 % 1015,9 hPa 0,0 mm 0,0 km/h (0 Bft) S-SW 193 ° 0 min 0,000 mm 0,0 UV-I 62 W/m² 0,8 °C 1,5 °C 0,0 km/h (0 Bft)
08.11.2017 08:07 1,5 °C 1,5 °C 95 % 1015,9 hPa 0,0 mm 0,0 km/h (0 Bft) S-SW 193 ° 0 min 0,000 mm 0,0 UV-I 63 W/m² 0,8 °C 1,5 °C 0,0 km/h (0 Bft)
08.11.2017 08:08 1,5 °C 1,5 °C 95 % 1015,9 hPa 0,0 mm 0,0 km/h (0 Bft) S-SW 193 ° 0 min 0,000 mm 0,0 UV-I 63 W/m² 0,8 °C 1,5 °C 0,0 km/h (0 Bft)
08.11.2017 08:09 1,6 °C 1,6 °C 96 % 1015,9 hPa 0,0 mm 0,0 km/h (0 Bft) S-SW 193 ° 0 min 0,000 mm 0,0 UV-I 65 W/m² 1,0 °C 1,6 °C 0,0 km/h (0 Bft)
08.11.2017 08:10 1,6 °C 1,6 °C 96 % 1015,9 hPa 0,0 mm 0,0 km/h (0 Bft) S-SW 193 ° 0 min 0,000 mm 0,0 UV-I 65 W/m² 1,0 °C 1,6 °C 0,0 km/h (0 Bft)
08.11.2017 08:11 1,6 °C 1,6 °C 96 % 1016,0 hPa 0,0 mm 0,0 km/h (0 Bft) S-SW 193 ° 0 min 0,000 mm 0,0 UV-I 67 W/m² 1,0 °C 1,6 °C 0,0 km/h (0 Bft)
08.11.2017 08:12 1,5 °C 1,6 °C 96 % 1016,0 hPa 0,0 mm 0,0 km/h (0 Bft) S-SW 193 ° 0 min 0,000 mm 0,0 UV-I 67 W/m² 0,9 °C 1,5 °C 0,0 km/h (0 Bft)
08.11.2017 08:13 1,6 °C 1,6 °C 96 % 1016,0 hPa 0,0 mm 0,0 km/h (0 Bft) S-SW 193 ° 0 min 0,000 mm 0,0 UV-I 67 W/m² 1,0 °C 1,6 °C 0,0 km/h (0 Bft)
08.11.2017 08:14 1,6 °C 1,6 °C 96 % 1016,0 hPa 0,0 mm 0,0 km/h (0 Bft) S-SW 193 ° 0 min 0,000 mm 0,0 UV-I 67 W/m² 1,0 °C 1,6 °C 0,0 km/h (0 Bft)
08.11.2017 08:15 1,6 °C 1,6 °C 96 % 1016,0 hPa 0,0 mm 0,0 km/h (0 Bft) S-SW 193 ° 0 min 0,000 mm 0,0 UV-I 65 W/m² 1,0 °C 1,6 °C 0,0 km/h (0 Bft)
08.11.2017 08:16 1,6 °C 1,7 °C 96 % 1016,0 hPa 0,0 mm 0,6 km/h (0 Bft) S-SW 193 ° 0 min 0,000 mm 0,0 UV-I 65 W/m² 1,0 °C 1,6 °C 1,6 km/h (1 Bft)
08.11.2017 08:17 1,7 °C 1,7 °C 96 % 1016,0 hPa 0,0 mm 0,0 km/h (0 Bft) S-SW 193 ° 0 min 0,000 mm 0,0 UV-I 63 W/m² 1,1 °C 1,7 °C 0,0 km/h (0 Bft)
08.11.2017 08:18 1,7 °C 1,7 °C 96 % 1016,1 hPa 0,0 mm 0,0 km/h (0 Bft) S-SW 193 ° 0 min 0,000 mm 0,0 UV-I 62 W/m² 1,1 °C 1,7 °C 0,0 km/h (0 Bft)
08.11.2017 08:19 1,7 °C 1,7 °C 96 % 1016,0 hPa 0,0 mm 2,1 km/h (1 Bft) S-SW 210 ° 0 min 0,000 mm 0,0 UV-I 62 W/m² 1,1 °C 1,7 °C 4,8 km/h (1 Bft)
08.11.2017 08:20 1,7 °C 1,7 °C 96 % 1016,1 hPa 0,0 mm 1,1 km/h (1 Bft) S-SW 210 ° 0 min 0,000 mm 0,0 UV-I 60 W/m² 1,1 °C 1,7 °C 3,2 km/h (1 Bft)
08.11.2017 08:21 1,8 °C 1,8 °C 96 % 1016,1 hPa 0,0 mm 0,5 km/h (0 Bft) S-SW 210 ° 0 min 0,000 mm 0,0 UV-I 58 W/m² 1,2 °C 1,8 °C 1,6 km/h (1 Bft)
08.11.2017 08:22 1,9 °C 1,9 °C 96 % 1016,1 hPa 0,0 mm 0,0 km/h (0 Bft) S-SW 210 ° 0 min 0,000 mm 0,0 UV-I 56 W/m² 1,3 °C 1,9 °C 0,0 km/h (0 Bft)
08.11.2017 08:23 1,9 °C 1,9 °C 96 % 1016,2 hPa 0,0 mm 0,0 km/h (0 Bft) S-SW 210 ° 0 min 0,000 mm 0,0 UV-I 56 W/m² 1,3 °C 1,9 °C 0,0 km/h (0 Bft)
08.11.2017 08:24 1,9 °C 1,9 °C 96 % 1016,2 hPa 0,0 mm 0,0 km/h (0 Bft) S-SW 210 ° 0 min 0,000 mm 0,0 UV-I 53 W/m² 1,3 °C 1,9 °C 0,0 km/h (0 Bft)
08.11.2017 08:25 1,9 °C 1,9 °C 96 % 1016,2 hPa 0,0 mm 0,0 km/h (0 Bft) S-SW 210 ° 0 min 0,000 mm 0,0 UV-I 49 W/m² 1,3 °C 1,9 °C 0,0 km/h (0 Bft)
08.11.2017 08:26 1,9 °C 1,9 °C 96 % 1016,2 hPa 0,0 mm 0,0 km/h (0 Bft) S-SW 210 ° 0 min 0,000 mm 0,0 UV-I 47 W/m² 1,3 °C 1,9 °C 0,0 km/h (0 Bft)
08.11.2017 08:27 1,9 °C 1,9 °C 96 % 1016,2 hPa 0,0 mm 0,0 km/h (0 Bft) S-SW 210 ° 0 min 0,000 mm 0,0 UV-I 46 W/m² 1,3 °C 1,9 °C 0,0 km/h (0 Bft)
08.11.2017 08:28 1,9 °C 1,9 °C 96 % 1016,3 hPa 0,0 mm 0,0 km/h (0 Bft) S-SW 210 ° 0 min 0,000 mm 0,0 UV-I 44 W/m² 1,3 °C 1,9 °C 0,0 km/h (0 Bft)
08.11.2017 08:29 2,0 °C 2,0 °C 96 % 1016,2 hPa 0,0 mm 0,0 km/h (0 Bft) S-SW 210 ° 0 min 0,000 mm 0,0 UV-I 42 W/m² 1,4 °C 2,0 °C 0,0 km/h (0 Bft)
08.11.2017 08:30 2,0 °C 2,0 °C 96 % 1016,2 hPa 0,0 mm 0,0 km/h (0 Bft) S-SW 210 ° 0 min 0,000 mm 0,0 UV-I 40 W/m² 1,4 °C 2,0 °C 0,0 km/h (0 Bft)
08.11.2017 08:31 2,0 °C 2,0 °C 96 % 1016,2 hPa 0,0 mm 0,0 km/h (0 Bft) S-SW 210 ° 0 min 0,000 mm 0,0 UV-I 39 W/m² 1,4 °C 2,0 °C 0,0 km/h (0 Bft)
08.11.2017 08:32 2,1 °C 2,1 °C 96 % 1016,3 hPa 0,0 mm 0,0 km/h (0 Bft) S-SW 210 ° 0 min 0,000 mm 0,0 UV-I 37 W/m² 1,5 °C 2,1 °C 0,0 km/h (0 Bft)
08.11.2017 08:33 2,1 °C 2,1 °C 96 % 1016,3 hPa 0,0 mm 0,0 km/h (0 Bft) S-SW 210 ° 0 min 0,000 mm 0,0 UV-I 37 W/m² 1,5 °C 2,1 °C 0,0 km/h (0 Bft)
08.11.2017 08:34 2,1 °C 2,2 °C 96 % 1016,3 hPa 0,0 mm 0,0 km/h (0 Bft) S-SW 210 ° 0 min 0,000 mm 0,0 UV-I 35 W/m² 1,5 °C 2,1 °C 0,0 km/h (0 Bft)
08.11.2017 08:35 2,2 °C 2,2 °C 96 % 1016,3 hPa 0,0 mm 0,0 km/h (0 Bft) S-SW 210 ° 0 min 0,000 mm 0,0 UV-I 35 W/m² 1,6 °C 2,2 °C 0,0 km/h (0 Bft)
08.11.2017 08:36 2,2 °C 2,2 °C 96 % 1016,3 hPa 0,0 mm 0,0 km/h (0 Bft) S-SW 210 ° 0 min 0,000 mm 0,0 UV-I 35 W/m² 1,6 °C 2,2 °C 0,0 km/h (0 Bft)
08.11.2017 08:37 2,2 °C 2,2 °C 96 % 1016,3 hPa 0,0 mm 0,0 km/h (0 Bft) S-SW 210 ° 0 min 0,000 mm 0,0 UV-I 35 W/m² 1,6 °C 2,2 °C 0,0 km/h (0 Bft)
08.11.2017 08:38 2,2 °C 2,2 °C 96 % 1016,3 hPa 0,0 mm 0,0 km/h (0 Bft) S-SW 210 ° 0 min 0,000 mm 0,0 UV-I 35 W/m² 1,6 °C 2,2 °C 0,0 km/h (0 Bft)
08.11.2017 08:39 2,2 °C 2,2 °C 96 % 1016,3 hPa 0,0 mm 0,0 km/h (0 Bft) S-SW 210 ° 0 min 0,000 mm 0,0 UV-I 35 W/m² 1,6 °C 2,2 °C 0,0 km/h (0 Bft)
08.11.2017 08:40 2,2 °C 2,2 °C 96 % 1016,3 hPa 0,0 mm 0,0 km/h (0 Bft) S-SW 210 ° 0 min 0,000 mm 0,0 UV-I 35 W/m² 1,6 °C 2,2 °C 0,0 km/h (0 Bft)
08.11.2017 08:41 2,2 °C 2,2 °C 96 % 1016,3 hPa 0,0 mm 0,0 km/h (0 Bft) S-SW 210 ° 0 min 0,000 mm 0,0 UV-I 35 W/m² 1,6 °C 2,2 °C 0,0 km/h (0 Bft)
08.11.2017 08:42 2,3 °C 2,3 °C 96 % 1016,2 hPa 0,0 mm 0,0 km/h (0 Bft) S-SW 210 ° 0 min 0,000 mm 0,0 UV-I 37 W/m² 1,7 °C 2,3 °C 0,0 km/h (0 Bft)
08.11.2017 08:43 2,2 °C 2,3 °C 96 % 1016,3 hPa 0,0 mm 0,0 km/h (0 Bft) S-SW 210 ° 0 min 0,000 mm 0,0 UV-I 37 W/m² 1,6 °C 2,2 °C 0,0 km/h (0 Bft)
08.11.2017 08:44 2,3 °C 2,3 °C 96 % 1016,2 hPa 0,0 mm 0,0 km/h (0 Bft) S-SW 210 ° 0 min 0,000 mm 0,0 UV-I 39 W/m² 1,7 °C 2,3 °C 0,0 km/h (0 Bft)
08.11.2017 08:45 2,3 °C 2,3 °C 96 % 1016,2 hPa 0,0 mm 0,0 km/h (0 Bft) S-SW 210 ° 0 min 0,000 mm 0,0 UV-I 39 W/m² 1,7 °C 2,3 °C 0,0 km/h (0 Bft)
08.11.2017 08:46 2,3 °C 2,3 °C 96 % 1016,2 hPa 0,0 mm 0,0 km/h (0 Bft) S-SW 210 ° 0 min 0,000 mm 0,0 UV-I 40 W/m² 1,7 °C 2,3 °C 0,0 km/h (0 Bft)
08.11.2017 08:47 2,3 °C 2,3 °C 96 % 1016,3 hPa 0,0 mm 0,0 km/h (0 Bft) S-SW 210 ° 0 min 0,000 mm 0,0 UV-I 40 W/m² 1,7 °C 2,3 °C 0,0 km/h (0 Bft)
08.11.2017 08:48 2,3 °C 2,3 °C 96 % 1016,3 hPa 0,0 mm 0,0 km/h (0 Bft) S-SW 210 ° 0 min 0,000 mm 0,0 UV-I 37 W/m² 1,7 °C 2,3 °C 0,0 km/h (0 Bft)
08.11.2017 08:49 2,3 °C 2,3 °C 96 % 1016,3 hPa 0,0 mm 0,0 km/h (0 Bft) S-SW 210 ° 0 min 0,000 mm 0,0 UV-I 37 W/m² 1,7 °C 2,3 °C 0,0 km/h (0 Bft)
08.11.2017 08:50 2,3 °C 2,3 °C 95 % 1016,3 hPa 0,0 mm 0,0 km/h (0 Bft) S-SW 210 ° 0 min 0,000 mm 0,0 UV-I 37 W/m² 1,6 °C 2,3 °C 0,0 km/h (0 Bft)
08.11.2017 08:51 2,3 °C 2,3 °C 95 % 1016,3 hPa 0,0 mm 0,0 km/h (0 Bft) S-SW 210 ° 0 min 0,000 mm 0,0 UV-I 37 W/m² 1,6 °C 2,3 °C 0,0 km/h (0 Bft)
08.11.2017 08:52 2,3 °C 2,4 °C 95 % 1016,3 hPa 0,0 mm 0,0 km/h (0 Bft) S-SW 210 ° 0 min 0,000 mm 0,0 UV-I 37 W/m² 1,6 °C 2,3 °C 0,0 km/h (0 Bft)
08.11.2017 08:53 2,4 °C 2,4 °C 95 % 1016,3 hPa 0,0 mm 0,0 km/h (0 Bft) S-SW 210 ° 0 min 0,000 mm 0,0 UV-I 37 W/m² 1,7 °C 2,4 °C 0,0 km/h (0 Bft)
08.11.2017 08:54 2,4 °C 2,4 °C 95 % 1016,3 hPa 0,0 mm 0,0 km/h (0 Bft) S-SW 210 ° 0 min 0,000 mm 0,0 UV-I 33 W/m² 1,7 °C 2,4 °C 0,0 km/h (0 Bft)
08.11.2017 08:55 2,4 °C 2,4 °C 95 % 1016,3 hPa 0,0 mm 0,0 km/h (0 Bft) S-SW 210 ° 0 min 0,000 mm 0,0 UV-I 32 W/m² 1,7 °C 2,4 °C 0,0 km/h (0 Bft)
08.11.2017 08:56 2,4 °C 2,4 °C 95 % 1016,2 hPa 0,0 mm 0,3 km/h (0 Bft) S-SW 210 ° 0 min 0,000 mm 0,0 UV-I 32 W/m² 1,7 °C 2,4 °C 3,2 km/h (1 Bft)
08.11.2017 08:57 2,4 °C 2,4 °C 95 % 1016,2 hPa 0,0 mm 1,5 km/h (1 Bft) S-SW 210 ° 0 min 0,000 mm 0,0 UV-I 30 W/m² 1,7 °C 2,4 °C 1,6 km/h (1 Bft)
08.11.2017 08:58 2,4 °C 2,4 °C 95 % 1016,2 hPa 0,0 mm 0,0 km/h (0 Bft) S-SW 210 ° 0 min 0,000 mm 0,0 UV-I 30 W/m² 1,7 °C 2,4 °C 0,0 km/h (0 Bft)
08.11.2017 08:59 2,4 °C 2,4 °C 95 % 1016,2 hPa 0,0 mm 1,0 km/h (0 Bft) S-SW 210 ° 0 min 0,000 mm 0,0 UV-I 30 W/m² 1,7 °C 2,4 °C 3,2 km/h (1 Bft)
08.11.2017 09:00 2,5 °C 2,5 °C 95 % 1016,2 hPa 0,0 mm 1,8 km/h (1 Bft) S-SW 212 ° 0 min 0,000 mm 0,0 UV-I 28 W/m² 1,8 °C 2,5 °C 3,2 km/h (1 Bft)
08.11.2017 09:01 2,5 °C 2,6 °C 95 % 1016,2 hPa 0,0 mm 1,0 km/h (0 Bft) S-SW 212 ° 0 min 0,025 mm 0,0 UV-I 28 W/m² 1,8 °C 2,5 °C 1,6 km/h (1 Bft)
08.11.2017 09:02 2,6 °C 2,6 °C 95 % 1016,2 hPa 0,0 mm 0,7 km/h (0 Bft) S-SW 212 ° 0 min 0,000 mm 0,0 UV-I 30 W/m² 1,9 °C 2,6 °C 3,2 km/h (1 Bft)
08.11.2017 09:04 2,6 °C 2,6 °C 95 % 1016,2 hPa 0,0 mm 0,9 km/h (0 Bft) S-SW 212 ° 0 min 0,000 mm 0,0 UV-I 30 W/m² 1,9 °C 2,6 °C 3,2 km/h (1 Bft)
08.11.2017 09:05 2,6 °C 2,6 °C 95 % 1016,2 hPa 0,0 mm 0,8 km/h (0 Bft) SW 226 ° 0 min 0,000 mm 0,0 UV-I 32 W/m² 1,9 °C 2,6 °C 3,2 km/h (1 Bft)
08.11.2017 09:06 2,6 °C 2,6 °C 95 % 1016,2 hPa 0,0 mm 2,4 km/h (1 Bft) N-NW 342 ° 0 min 0,000 mm 0,0 UV-I 30 W/m² 1,9 °C 2,6 °C 4,8 km/h (1 Bft)
08.11.2017 09:07 2,7 °C 2,7 °C 95 % 1016,1 hPa 0,0 mm 2,2 km/h (1 Bft) W-NW 288 ° 0 min 0,000 mm 0,0 UV-I 30 W/m² 2,0 °C 2,7 °C 4,8 km/h (1 Bft)
08.11.2017 09:09 2,7 °C 2,7 °C 95 % 1016,2 hPa 0,0 mm 1,2 km/h (1 Bft) NW 304 ° 0 min 0,000 mm 0,0 UV-I 30 W/m² 2,0 °C 2,7 °C 3,2 km/h (1 Bft)
08.11.2017 09:10 2,8 °C 2,8 °C 95 % 1016,2 hPa 0,0 mm 2,2 km/h (1 Bft) W 280 ° 0 min 0,000 mm 0,0 UV-I 30 W/m² 2,1 °C 2,8 °C 3,2 km/h (1 Bft)
08.11.2017 09:11 2,7 °C 2,8 °C 95 % 1016,2 hPa 0,0 mm 2,4 km/h (1 Bft) W-NW 298 ° 0 min 0,000 mm 0,0 UV-I 30 W/m² 2,0 °C 2,7 °C 4,8 km/h (1 Bft)
08.11.2017 09:12 2,8 °C 2,8 °C 94 % 1016,2 hPa 0,0 mm 1,9 km/h (1 Bft) W 277 ° 0 min 0,000 mm 0,0 UV-I 30 W/m² 1,9 °C 2,8 °C 3,2 km/h (1 Bft)
08.11.2017 09:13 2,8 °C 2,8 °C 95 % 1016,2 hPa 0,0 mm 1,1 km/h (1 Bft) W 277 ° 0 min 0,000 mm 0,0 UV-I 30 W/m² 2,1 °C 2,8 °C 1,6 km/h (1 Bft)
08.11.2017 09:14 2,8 °C 2,8 °C 94 % 1016,2 hPa 0,0 mm 0,5 km/h (0 Bft) W 277 ° 0 min 0,000 mm 0,0 UV-I 30 W/m² 1,9 °C 2,8 °C 1,6 km/h (1 Bft)
08.11.2017 09:15 2,8 °C 2,9 °C 95 % 1016,1 hPa 0,0 mm 3,1 km/h (1 Bft) W-SW 252 ° 0 min 0,000 mm 0,0 UV-I 33 W/m² 2,1 °C 2,8 °C 4,8 km/h (1 Bft)
08.11.2017 09:16 2,9 °C 2,9 °C 94 % 1016,1 hPa 0,0 mm 2,6 km/h (1 Bft) W-SW 252 ° 0 min 0,000 mm 0,0 UV-I 37 W/m² 2,0 °C 2,9 °C 3,2 km/h (1 Bft)
08.11.2017 09:17 2,9 °C 2,9 °C 94 % 1016,1 hPa 0,0 mm 2,2 km/h (1 Bft) W-SW 252 ° 0 min 0,000 mm 0,0 UV-I 49 W/m² 2,0 °C 2,9 °C 3,2 km/h (1 Bft)
08.11.2017 09:19 2,9 °C 2,9 °C 94 % 1016,1 hPa 0,0 mm 5,3 km/h (1 Bft) W-SW 243 ° 0 min 0,000 mm 0,0 UV-I 60 W/m² 2,0 °C 1,6 °C 9,7 km/h (2 Bft)
08.11.2017 09:20 3,0 °C 3,0 °C 94 % 1016,1 hPa 0,0 mm 7,3 km/h (2 Bft) W-NW 292 ° 0 min 0,000 mm 0,7 UV-I 62 W/m² 2,1 °C 1,0 °C 12,9 km/h (3 Bft)
08.11.2017 09:21 3,0 °C 3,0 °C 94 % 1016,1 hPa 0,0 mm 6,6 km/h (2 Bft) W 264 ° 0 min 0,000 mm 0,8 UV-I 72 W/m² 2,1 °C 1,2 °C 11,3 km/h (2 Bft)
08.11.2017 09:22 3,0 °C 3,1 °C 94 % 1016,1 hPa 0,0 mm 6,2 km/h (2 Bft) W 269 ° 0 min 0,000 mm 0,8 UV-I 83 W/m² 2,1 °C 1,4 °C 11,3 km/h (2 Bft)
08.11.2017 09:24 3,2 °C 3,2 °C 94 % 1016,2 hPa 0,0 mm 3,4 km/h (1 Bft) W-NW 294 ° 0 min 0,000 mm 0,8 UV-I 102 W/m² 2,3 °C 3,2 °C 6,4 km/h (2 Bft)
08.11.2017 09:25 3,2 °C 3,2 °C 94 % 1016,2 hPa 0,0 mm 8,0 km/h (2 Bft) W 272 ° 0 min 0,000 mm 0,8 UV-I 97 W/m² 2,3 °C 1,0 °C 11,3 km/h (2 Bft)
08.11.2017 09:26 3,3 °C 3,3 °C 94 % 1016,1 hPa 0,0 mm 4,7 km/h (1 Bft) W-NW 289 ° 0 min 0,000 mm 0,8 UV-I 104 W/m² 2,4 °C 2,3 °C 6,4 km/h (2 Bft)
08.11.2017 09:27 3,3 °C 3,3 °C 93 % 1016,2 hPa 0,0 mm 3,6 km/h (1 Bft) W-NW 290 ° 0 min 0,000 mm 0,8 UV-I 107 W/m² 2,3 °C 3,3 °C 6,4 km/h (2 Bft)
08.11.2017 09:29 3,5 °C 3,5 °C 93 % 1016,2 hPa 0,0 mm 3,5 km/h (1 Bft) W 268 ° 0 min 0,000 mm 0,9 UV-I 134 W/m² 2,5 °C 3,5 °C 6,4 km/h (2 Bft)
08.11.2017 09:30 3,5 °C 3,5 °C 93 % 1016,2 hPa 0,0 mm 3,3 km/h (1 Bft) W 268 ° 0 min 0,000 mm 0,9 UV-I 130 W/m² 2,5 °C 3,5 °C 4,8 km/h (1 Bft)
08.11.2017 09:31 3,6 °C 3,6 °C 93 % 1016,2 hPa 0,0 mm 2,1 km/h (1 Bft) W 260 ° 0 min 0,000 mm 0,9 UV-I 125 W/m² 2,6 °C 3,6 °C 4,8 km/h (1 Bft)
08.11.2017 09:32 3,6 °C 3,6 °C 93 % 1016,3 hPa 0,0 mm 6,7 km/h (2 Bft) W 261 ° 0 min 0,000 mm 0,9 UV-I 121 W/m² 2,6 °C 1,9 °C 9,7 km/h (2 Bft)
08.11.2017 09:33 3,6 °C 3,7 °C 93 % 1016,3 hPa 0,0 mm 5,4 km/h (1 Bft) W-SW 239 ° 0 min 0,000 mm 0,9 UV-I 120 W/m² 2,6 °C 2,3 °C 6,4 km/h (2 Bft)
08.11.2017 09:34 3,7 °C 3,7 °C 93 % 1016,3 hPa 0,0 mm 6,4 km/h (2 Bft) W 266 ° 0 min 0,000 mm 0,9 UV-I 120 W/m² 2,7 °C 2,1 °C 9,7 km/h (2 Bft)
08.11.2017 09:35 3,7 °C 3,7 °C 93 % 1016,3 hPa 0,0 mm 8,2 km/h (2 Bft) SW 223 ° 0 min 0,000 mm 0,9 UV-I 135 W/m² 2,7 °C 1,6 °C 9,7 km/h (2 Bft)
08.11.2017 09:36 3,7 °C 3,7 °C 93 % 1016,3 hPa 0,0 mm 2,0 km/h (1 Bft) W-SW 242 ° 0 min 0,000 mm 0,9 UV-I 141 W/m² 2,7 °C 3,7 °C 6,4 km/h (2 Bft)
08.11.2017 09:37 3,7 °C 3,7 °C 92 % 1016,3 hPa 0,0 mm 3,1 km/h (1 Bft) SW 227 ° 0 min 0,000 mm 0,9 UV-I 144 W/m² 2,5 °C 3,7 °C 6,4 km/h (2 Bft)
08.11.2017 09:38 3,7 °C 3,7 °C 92 % 1016,3 hPa 0,0 mm 4,1 km/h (1 Bft) W-SW 252 ° 0 min 0,000 mm 0,9 UV-I 142 W/m² 2,5 °C 3,7 °C 8,0 km/h (2 Bft)
08.11.2017 09:39 3,7 °C 3,7 °C 92 % 1016,3 hPa 0,0 mm 1,9 km/h (1 Bft) W-SW 244 ° 0 min 0,000 mm 0,9 UV-I 134 W/m² 2,5 °C 3,7 °C 3,2 km/h (1 Bft)
08.11.2017 09:40 3,7 °C 3,7 °C 92 % 1016,3 hPa 0,0 mm 1,6 km/h (1 Bft) W-NW 292 ° 0 min 0,000 mm 0,9 UV-I 127 W/m² 2,5 °C 3,7 °C 4,8 km/h (1 Bft)
08.11.2017 09:41 3,8 °C 3,8 °C 92 % 1016,3 hPa 0,0 mm 4,5 km/h (1 Bft) W-SW 248 ° 0 min 0,000 mm 0,9 UV-I 125 W/m² 2,6 °C 3,8 °C 9,7 km/h (2 Bft)
08.11.2017 09:42 3,8 °C 3,8 °C 92 % 1016,3 hPa 0,0 mm 2,2 km/h (1 Bft) W-SW 244 ° 0 min 0,000 mm 0,9 UV-I 118 W/m² 2,6 °C 3,8 °C 6,4 km/h (2 Bft)
08.11.2017 09:43 3,8 °C 3,8 °C 92 % 1016,3 hPa 0,0 mm 4,6 km/h (1 Bft) S 185 ° 0 min 0,000 mm 0,9 UV-I 114 W/m² 2,6 °C 2,9 °C 8,0 km/h (2 Bft)
08.11.2017 09:44 3,8 °C 3,8 °C 91 % 1016,3 hPa 0,0 mm 6,5 km/h (2 Bft) W-SW 243 ° 0 min 0,000 mm 0,9 UV-I 109 W/m² 2,5 °C 2,2 °C 11,3 km/h (2 Bft)
08.11.2017 09:45 3,8 °C 3,8 °C 91 % 1016,4 hPa 0,0 mm 5,2 km/h (1 Bft) W-SW 248 ° 0 min 0,000 mm 0,9 UV-I 98 W/m² 2,5 °C 2,6 °C 8,0 km/h (2 Bft)
08.11.2017 09:46 3,8 °C 3,8 °C 91 % 1016,3 hPa 0,0 mm 5,4 km/h (1 Bft) S-SW 194 ° 0 min 0,000 mm 0,9 UV-I 100 W/m² 2,5 °C 2,6 °C 8,0 km/h (2 Bft)
08.11.2017 09:47 3,8 °C 3,8 °C 91 % 1016,4 hPa 0,0 mm 5,3 km/h (1 Bft) W-SW 248 ° 0 min 0,000 mm 0,9 UV-I 105 W/m² 2,5 °C 2,6 °C 8,0 km/h (2 Bft)
08.11.2017 09:48 3,8 °C 3,8 °C 91 % 1016,4 hPa 0,0 mm 3,7 km/h (1 Bft) W-SW 245 ° 0 min 0,000 mm 0,9 UV-I 104 W/m² 2,5 °C 3,8 °C 8,0 km/h (2 Bft)
08.11.2017 09:49 3,7 °C 3,8 °C 91 % 1016,4 hPa 0,0 mm 3,4 km/h (1 Bft) W-SW 238 ° 0 min 0,000 mm 0,9 UV-I 102 W/m² 2,4 °C 3,7 °C 6,4 km/h (2 Bft)
08.11.2017 09:50 3,7 °C 3,7 °C 91 % 1016,4 hPa 0,0 mm 3,5 km/h (1 Bft) W-SW 253 ° 0 min 0,000 mm 0,9 UV-I 102 W/m² 2,4 °C 3,7 °C 6,4 km/h (2 Bft)
08.11.2017 09:51 3,7 °C 3,7 °C 91 % 1016,4 hPa 0,0 mm 6,0 km/h (2 Bft) W 261 ° 0 min 0,000 mm 0,9 UV-I 104 W/m² 2,4 °C 2,2 °C 9,7 km/h (2 Bft)
08.11.2017 09:52 3,7 °C 3,7 °C 91 % 1016,4 hPa 0,0 mm 6,7 km/h (2 Bft) W 266 ° 0 min 0,000 mm 0,9 UV-I 98 W/m² 2,4 °C 2,0 °C 11,3 km/h (2 Bft)
08.11.2017 09:53 3,7 °C 3,7 °C 91 % 1016,4 hPa 0,0 mm 4,2 km/h (1 Bft) W 266 ° 0 min 0,000 mm 0,9 UV-I 90 W/m² 2,4 °C 3,7 °C 6,4 km/h (2 Bft)
08.11.2017 09:54 3,7 °C 3,7 °C 91 % 1016,4 hPa 0,0 mm 2,2 km/h (1 Bft) W 263 ° 0 min 0,000 mm 0,9 UV-I 86 W/m² 2,4 °C 3,7 °C 6,4 km/h (2 Bft)
08.11.2017 09:55 3,7 °C 3,7 °C 91 % 1016,4 hPa 0,0 mm 6,2 km/h (2 Bft) SW 236 ° 0 min 0,000 mm 0,9 UV-I 84 W/m² 2,4 °C 2,2 °C 8,0 km/h (2 Bft)
08.11.2017 09:56 3,7 °C 3,7 °C 91 % 1016,5 hPa 0,0 mm 6,1 km/h (2 Bft) W 280 ° 0 min 0,000 mm 0,9 UV-I 86 W/m² 2,4 °C 2,2 °C 9,7 km/h (2 Bft)
08.11.2017 09:57 3,7 °C 3,7 °C 91 % 1016,5 hPa 0,0 mm 5,7 km/h (1 Bft) W-SW 246 ° 0 min 0,000 mm 0,9 UV-I 86 W/m² 2,4 °C 2,3 °C 11,3 km/h (2 Bft)
08.11.2017 09:58 3,7 °C 3,7 °C 91 % 1016,5 hPa 0,0 mm 6,2 km/h (2 Bft) W-SW 256 ° 0 min 0,000 mm 0,9 UV-I 91 W/m² 2,4 °C 2,2 °C 9,7 km/h (2 Bft)
08.11.2017 09:59 3,7 °C 3,7 °C 91 % 1016,5 hPa 0,0 mm 5,6 km/h (1 Bft) W 266 ° 0 min 0,000 mm 0,9 UV-I 95 W/m² 2,4 °C 2,4 °C 9,7 km/h (2 Bft)
08.11.2017 10:00 3,7 °C 3,7 °C 91 % 1016,5 hPa 0,0 mm 4,3 km/h (1 Bft) W 265 ° 0 min 0,000 mm 0,9 UV-I 100 W/m² 2,4 °C 3,7 °C 6,4 km/h (2 Bft)
08.11.2017 10:01 3,7 °C 3,7 °C 91 % 1016,5 hPa 0,0 mm 4,7 km/h (1 Bft) W 260 ° 0 min 0,026 mm 0,9 UV-I 104 W/m² 2,4 °C 2,7 °C 6,4 km/h (2 Bft)
08.11.2017 10:02 3,7 °C 3,7 °C 91 % 1016,5 hPa 0,0 mm 3,5 km/h (1 Bft) W-SW 251 ° 0 min 0,000 mm 0,9 UV-I 111 W/m² 2,4 °C 3,7 °C 4,8 km/h (1 Bft)
08.11.2017 10:03 3,7 °C 3,7 °C 91 % 1016,6 hPa 0,0 mm 4,7 km/h (1 Bft) W 265 ° 0 min 0,000 mm 0,9 UV-I 135 W/m² 2,4 °C 2,7 °C 9,7 km/h (2 Bft)
08.11.2017 10:04 3,7 °C 3,7 °C 92 % 1016,6 hPa 0,0 mm 8,1 km/h (2 Bft) W 269 ° 0 min 0,000 mm 0,9 UV-I 142 W/m² 2,5 °C 1,6 °C 11,3 km/h (2 Bft)
08.11.2017 10:05 3,7 °C 3,8 °C 92 % 1016,6 hPa 0,0 mm 7,5 km/h (2 Bft) W-NW 284 ° 0 min 0,000 mm 0,9 UV-I 153 W/m² 2,5 °C 1,7 °C 9,7 km/h (2 Bft)
08.11.2017 10:06 3,7 °C 3,8 °C 91 % 1016,6 hPa 0,0 mm 4,8 km/h (1 Bft) W 263 ° 0 min 0,000 mm 0,9 UV-I 163 W/m² 2,4 °C 2,7 °C 6,4 km/h (2 Bft)
08.11.2017 10:07 3,8 °C 3,8 °C 92 % 1016,6 hPa 0,0 mm 3,6 km/h (1 Bft) W-SW 252 ° 0 min 0,000 mm 1,0 UV-I 171 W/m² 2,6 °C 3,8 °C 6,4 km/h (2 Bft)
08.11.2017 10:08 3,8 °C 3,8 °C 91 % 1016,6 hPa 0,0 mm 2,3 km/h (1 Bft) W-SW 253 ° 0 min 0,000 mm 0,9 UV-I 174 W/m² 2,5 °C 3,8 °C 4,8 km/h (1 Bft)
08.11.2017 10:09 3,8 °C 3,8 °C 91 % 1016,6 hPa 0,0 mm 3,1 km/h (1 Bft) W 260 ° 0 min 0,000 mm 0,9 UV-I 174 W/m² 2,5 °C 3,8 °C 6,4 km/h (2 Bft)
08.11.2017 10:10 3,8 °C 3,8 °C 91 % 1016,6 hPa 0,0 mm 3,9 km/h (1 Bft) W 273 ° 0 min 0,000 mm 0,9 UV-I 167 W/m² 2,5 °C 3,8 °C 6,4 km/h (2 Bft)
08.11.2017 10:11 3,9 °C 3,9 °C 91 % 1016,6 hPa 0,0 mm 5,5 km/h (1 Bft) SW 228 ° 0 min 0,000 mm 0,9 UV-I 163 W/m² 2,6 °C 2,6 °C 8,0 km/h (2 Bft)
08.11.2017 10:12 3,8 °C 3,9 °C 91 % 1016,6 hPa 0,0 mm 4,7 km/h (1 Bft) SW 214 ° 0 min 0,000 mm 0,9 UV-I 162 W/m² 2,5 °C 2,8 °C 6,4 km/h (2 Bft)
08.11.2017 10:13 3,9 °C 3,9 °C 91 % 1016,6 hPa 0,0 mm 4,0 km/h (1 Bft) W 261 ° 0 min 0,000 mm 0,9 UV-I 162 W/m² 2,6 °C 3,9 °C 6,4 km/h (2 Bft)
08.11.2017 10:14 3,9 °C 3,9 °C 91 % 1016,6 hPa 0,0 mm 2,5 km/h (1 Bft) W 259 ° 0 min 0,000 mm 0,9 UV-I 158 W/m² 2,6 °C 3,9 °C 3,2 km/h (1 Bft)
08.11.2017 10:15 3,9 °C 3,9 °C 91 % 1016,6 hPa 0,0 mm 4,5 km/h (1 Bft) W-SW 252 ° 0 min 0,000 mm 0,9 UV-I 156 W/m² 2,6 °C 3,9 °C 6,4 km/h (2 Bft)
08.11.2017 10:16 4,0 °C 4,0 °C 91 % 1016,6 hPa 0,0 mm 5,5 km/h (1 Bft) W 265 ° 0 min 0,000 mm 0,9 UV-I 156 W/m² 2,7 °C 2,8 °C 9,7 km/h (2 Bft)
08.11.2017 10:17 4,1 °C 4,1 °C 92 % 1016,6 hPa 0,0 mm 4,9 km/h (1 Bft) W 264 ° 0 min 0,000 mm 0,9 UV-I 155 W/m² 2,9 °C 3,1 °C 9,7 km/h (2 Bft)
08.11.2017 10:18 4,1 °C 4,1 °C 91 % 1016,6 hPa 0,0 mm 4,5 km/h (1 Bft) W-SW 247 ° 0 min 0,000 mm 0,9 UV-I 151 W/m² 2,8 °C 4,1 °C 6,4 km/h (2 Bft)
08.11.2017 10:19 4,1 °C 4,1 °C 91 % 1016,6 hPa 0,0 mm 6,9 km/h (2 Bft) W 261 ° 0 min 0,000 mm 0,9 UV-I 148 W/m² 2,8 °C 2,4 °C 9,7 km/h (2 Bft)
08.11.2017 10:20 4,1 °C 4,1 °C 91 % 1016,6 hPa 0,0 mm 6,1 km/h (2 Bft) W-SW 246 ° 0 min 0,000 mm 0,9 UV-I 141 W/m² 2,8 °C 2,7 °C 9,7 km/h (2 Bft)
08.11.2017 10:21 4,2 °C 4,2 °C 91 % 1016,6 hPa 0,0 mm 4,1 km/h (1 Bft) SW 234 ° 0 min 0,000 mm 0,9 UV-I 132 W/m² 2,9 °C 4,2 °C 8,0 km/h (2 Bft)
08.11.2017 10:22 4,2 °C 4,2 °C 91 % 1016,6 hPa 0,0 mm 4,2 km/h (1 Bft) W-SW 248 ° 0 min 0,000 mm 0,9 UV-I 125 W/m² 2,9 °C 4,2 °C 6,4 km/h (2 Bft)
08.11.2017 10:23 4,2 °C 4,2 °C 91 % 1016,7 hPa 0,0 mm 3,3 km/h (1 Bft) W-SW 254 ° 0 min 0,000 mm 0,9 UV-I 120 W/m² 2,9 °C 4,2 °C 4,8 km/h (1 Bft)
08.11.2017 10:24 4,2 °C 4,2 °C 91 % 1016,7 hPa 0,0 mm 3,4 km/h (1 Bft) W-NW 288 ° 0 min 0,000 mm 0,9 UV-I 118 W/m² 2,9 °C 4,2 °C 4,8 km/h (1 Bft)
08.11.2017 10:25 4,2 °C 4,2 °C 91 % 1016,7 hPa 0,0 mm 2,7 km/h (1 Bft) W-NW 288 ° 0 min 0,000 mm 0,9 UV-I 114 W/m² 2,9 °C 4,2 °C 3,2 km/h (1 Bft)
08.11.2017 10:26 4,2 °C 4,2 °C 90 % 1016,6 hPa 0,0 mm 3,8 km/h (1 Bft) W 259 ° 0 min 0,000 mm 0,9 UV-I 111 W/m² 2,7 °C 4,2 °C 6,4 km/h (2 Bft)
08.11.2017 10:27 4,2 °C 4,2 °C 90 % 1016,6 hPa 0,0 mm 5,2 km/h (1 Bft) W 272 ° 0 min 0,000 mm 0,9 UV-I 113 W/m² 2,7 °C 3,1 °C 9,7 km/h (2 Bft)
08.11.2017 10:28 4,2 °C 4,2 °C 90 % 1016,6 hPa 0,0 mm 2,8 km/h (1 Bft) W-NW 283 ° 0 min 0,000 mm 1,0 UV-I 120 W/m² 2,7 °C 4,2 °C 6,4 km/h (2 Bft)
08.11.2017 10:29 4,1 °C 4,2 °C 91 % 1016,7 hPa 0,0 mm 4,2 km/h (1 Bft) W 265 ° 0 min 0,000 mm 1,0 UV-I 132 W/m² 2,8 °C 4,1 °C 6,4 km/h (2 Bft)
08.11.2017 10:30 4,1 °C 4,2 °C 90 % 1016,6 hPa 0,0 mm 6,0 km/h (2 Bft) W 263 ° 0 min 0,000 mm 1,0 UV-I 144 W/m² 2,6 °C 2,7 °C 8,0 km/h (2 Bft)
08.11.2017 10:31 4,1 °C 4,1 °C 90 % 1016,6 hPa 0,0 mm 3,3 km/h (1 Bft) W 281 ° 0 min 0,000 mm 1,0 UV-I 151 W/m² 2,6 °C 4,1 °C 4,8 km/h (1 Bft)
08.11.2017 10:32 4,0 °C 4,1 °C 90 % 1016,7 hPa 0,0 mm 2,5 km/h (1 Bft) W 281 ° 0 min 0,000 mm 1,0 UV-I 148 W/m² 2,5 °C 4,0 °C 4,8 km/h (1 Bft)
08.11.2017 10:33 4,0 °C 4,0 °C 89 % 1016,7 hPa 0,0 mm 2,4 km/h (1 Bft) W 281 ° 0 min 0,000 mm 0,9 UV-I 134 W/m² 2,4 °C 4,0 °C 3,2 km/h (1 Bft)
08.11.2017 10:34 4,0 °C 4,0 °C 90 % 1016,7 hPa 0,0 mm 2,3 km/h (1 Bft) NW 309 ° 0 min 0,000 mm 0,9 UV-I 130 W/m² 2,5 °C 4,0 °C 3,2 km/h (1 Bft)
08.11.2017 10:35 4,1 °C 4,1 °C 90 % 1016,7 hPa 0,0 mm 2,0 km/h (1 Bft) NW 309 ° 0 min 0,000 mm 0,9 UV-I 128 W/m² 2,6 °C 4,1 °C 4,8 km/h (1 Bft)
08.11.2017 10:36 4,1 °C 4,1 °C 90 % 1016,7 hPa 0,0 mm 2,7 km/h (1 Bft) NW 309 ° 0 min 0,000 mm 0,9 UV-I 128 W/m² 2,6 °C 4,1 °C 3,2 km/h (1 Bft)
08.11.2017 10:37 4,1 °C 4,1 °C 90 % 1016,7 hPa 0,0 mm 2,9 km/h (1 Bft) NW 309 ° 0 min 0,000 mm 0,9 UV-I 130 W/m² 2,6 °C 4,1 °C 4,8 km/h (1 Bft)
08.11.2017 10:38 4,1 °C 4,2 °C 89 % 1016,7 hPa 0,0 mm 3,4 km/h (1 Bft) NW 310 ° 0 min 0,000 mm 0,9 UV-I 130 W/m² 2,5 °C 4,1 °C 6,4 km/h (2 Bft)
08.11.2017 10:39 4,1 °C 4,1 °C 90 % 1016,7 hPa 0,0 mm 5,6 km/h (1 Bft) NW 319 ° 0 min 0,000 mm 0,9 UV-I 120 W/m² 2,6 °C 2,8 °C 8,0 km/h (2 Bft)
08.11.2017 10:40 4,1 °C 4,2 °C 90 % 1016,7 hPa 0,0 mm 3,6 km/h (1 Bft) NW 311 ° 0 min 0,000 mm 0,9 UV-I 114 W/m² 2,6 °C 4,1 °C 6,4 km/h (2 Bft)
08.11.2017 10:41 4,2 °C 4,2 °C 90 % 1016,7 hPa 0,0 mm 4,8 km/h (1 Bft) W-NW 301 ° 0 min 0,000 mm 0,9 UV-I 111 W/m² 2,7 °C 3,3 °C 6,4 km/h (2 Bft)
08.11.2017 10:42 4,2 °C 4,2 °C 90 % 1016,7 hPa 0,0 mm 3,4 km/h (1 Bft) NW 308 ° 0 min 0,000 mm 0,9 UV-I 109 W/m² 2,7 °C 4,2 °C 4,8 km/h (1 Bft)
08.11.2017 10:43 4,2 °C 4,2 °C 90 % 1016,7 hPa 0,0 mm 5,1 km/h (1 Bft) NW 306 ° 0 min 0,000 mm 0,9 UV-I 107 W/m² 2,7 °C 3,1 °C 6,4 km/h (2 Bft)
08.11.2017 10:44 4,2 °C 4,2 °C 90 % 1016,7 hPa 0,0 mm 2,7 km/h (1 Bft) NW 306 ° 0 min 0,000 mm 0,9 UV-I 104 W/m² 2,7 °C 4,2 °C 4,8 km/h (1 Bft)
08.11.2017 10:45 4,2 °C 4,2 °C 89 % 1016,7 hPa 0,0 mm 0,8 km/h (0 Bft) NW 306 ° 0 min 0,000 mm 0,9 UV-I 97 W/m² 2,6 °C 4,2 °C 1,6 km/h (1 Bft)
08.11.2017 10:46 4,2 °C 4,2 °C 89 % 1016,8 hPa 0,0 mm 3,0 km/h (1 Bft) NW 323 ° 0 min 0,000 mm 0,8 UV-I 93 W/m² 2,6 °C 4,2 °C 6,4 km/h (2 Bft)
08.11.2017 10:47 4,2 °C 4,2 °C 90 % 1016,7 hPa 0,0 mm 2,8 km/h (1 Bft) NW 323 ° 0 min 0,000 mm 0,8 UV-I 88 W/m² 2,7 °C 4,2 °C 4,8 km/h (1 Bft)
08.11.2017 10:48 4,2 °C 4,2 °C 90 % 1016,8 hPa 0,0 mm 3,2 km/h (1 Bft) NW 314 ° 0 min 0,000 mm 0,8 UV-I 81 W/m² 2,7 °C 4,2 °C 4,8 km/h (1 Bft)
08.11.2017 10:49 4,2 °C 4,2 °C 90 % 1016,8 hPa 0,0 mm 4,7 km/h (1 Bft) W-NW 286 ° 0 min 0,000 mm 0,8 UV-I 77 W/m² 2,7 °C 3,3 °C 6,4 km/h (2 Bft)
08.11.2017 10:50 4,1 °C 4,2 °C 89 % 1016,8 hPa 0,0 mm 3,4 km/h (1 Bft) NW 317 ° 0 min 0,000 mm 0,8 UV-I 79 W/m² 2,5 °C 4,1 °C 6,4 km/h (2 Bft)
08.11.2017 10:51 4,1 °C 4,1 °C 89 % 1016,9 hPa 0,0 mm 3,7 km/h (1 Bft) NW 317 ° 0 min 0,000 mm 0,8 UV-I 90 W/m² 2,5 °C 4,1 °C 4,8 km/h (1 Bft)
08.11.2017 10:52 4,1 °C 4,1 °C 89 % 1016,8 hPa 0,0 mm 2,7 km/h (1 Bft) NW 314 ° 0 min 0,000 mm 0,9 UV-I 97 W/m² 2,5 °C 4,1 °C 4,8 km/h (1 Bft)
08.11.2017 10:53 4,1 °C 4,1 °C 89 % 1016,8 hPa 0,0 mm 2,1 km/h (1 Bft) NW 314 ° 0 min 0,000 mm 0,9 UV-I 104 W/m² 2,5 °C 4,1 °C 4,8 km/h (1 Bft)
08.11.2017 10:54 4,1 °C 4,1 °C 89 % 1016,8 hPa 0,0 mm 4,4 km/h (1 Bft) W-NW 303 ° 0 min 0,000 mm 0,9 UV-I 111 W/m² 2,5 °C 4,1 °C 6,4 km/h (2 Bft)
08.11.2017 10:55 4,1 °C 4,1 °C 89 % 1016,8 hPa 0,0 mm 3,6 km/h (1 Bft) W-NW 300 ° 0 min 0,000 mm 1,0 UV-I 114 W/m² 2,5 °C 4,1 °C 6,4 km/h (2 Bft)
08.11.2017 10:56 4,2 °C 4,2 °C 89 % 1016,8 hPa 0,0 mm 4,5 km/h (1 Bft) W-NW 300 ° 0 min 0,000 mm 1,0 UV-I 116 W/m² 2,6 °C 4,2 °C 6,4 km/h (2 Bft)
08.11.2017 10:57 4,1 °C 4,2 °C 89 % 1016,8 hPa 0,0 mm 3,5 km/h (1 Bft) W 279 ° 0 min 0,000 mm 1,0 UV-I 116 W/m² 2,5 °C 4,1 °C 6,4 km/h (2 Bft)
08.11.2017 10:58 4,2 °C 4,2 °C 88 % 1016,8 hPa 0,0 mm 3,8 km/h (1 Bft) W-NW 298 ° 0 min 0,000 mm 1,0 UV-I 118 W/m² 2,4 °C 4,2 °C 4,8 km/h (1 Bft)
08.11.2017 10:59 4,2 °C 4,2 °C 89 % 1016,8 hPa 0,0 mm 2,5 km/h (1 Bft) W-NW 298 ° 0 min 0,000 mm 1,0 UV-I 118 W/m² 2,6 °C 4,2 °C 4,8 km/h (1 Bft)
08.11.2017 11:00 4,2 °C 4,2 °C 89 % 1016,8 hPa 0,0 mm 3,0 km/h (1 Bft) W-NW 298 ° 0 min 0,051 mm 0,9 UV-I 118 W/m² 2,6 °C 4,2 °C 4,8 km/h (1 Bft)
08.11.2017 11:01 4,2 °C 4,2 °C 89 % 1016,8 hPa 0,0 mm 3,8 km/h (1 Bft) W-NW 298 ° 0 min 0,000 mm 0,9 UV-I 116 W/m² 2,6 °C 4,2 °C 4,8 km/h (1 Bft)
08.11.2017 11:02 4,2 °C 4,2 °C 89 % 1016,8 hPa 0,0 mm 3,9 km/h (1 Bft) NW 304 ° 0 min 0,000 mm 0,9 UV-I 116 W/m² 2,6 °C 4,2 °C 6,4 km/h (2 Bft)
08.11.2017 11:03 4,2 °C 4,2 °C 89 % 1016,8 hPa 0,0 mm 2,5 km/h (1 Bft) NW 304 ° 0 min 0,000 mm 0,9 UV-I 120 W/m² 2,6 °C 4,2 °C 4,8 km/h (1 Bft)
08.11.2017 11:04 4,2 °C 4,2 °C 89 % 1016,8 hPa 0,0 mm 3,5 km/h (1 Bft) NW 304 ° 0 min 0,000 mm 0,9 UV-I 121 W/m² 2,6 °C 4,2 °C 4,8 km/h (1 Bft)
08.11.2017 11:05 4,2 °C 4,3 °C 89 % 1016,8 hPa 0,0 mm 3,0 km/h (1 Bft) NW 304 ° 0 min 0,000 mm 0,8 UV-I 120 W/m² 2,6 °C 4,2 °C 4,8 km/h (1 Bft)
08.11.2017 11:06 4,3 °C 4,3 °C 89 % 1016,8 hPa 0,0 mm 1,4 km/h (1 Bft) NW 304 ° 0 min 0,000 mm 0,8 UV-I 116 W/m² 2,7 °C 4,3 °C 3,2 km/h (1 Bft)
08.11.2017 11:07 4,2 °C 4,3 °C 88 % 1016,8 hPa 0,0 mm 1,3 km/h (1 Bft) NW 304 ° 0 min 0,000 mm 0,8 UV-I 114 W/m² 2,4 °C 4,2 °C 3,2 km/h (1 Bft)
08.11.2017 11:08 4,2 °C 4,2 °C 88 % 1016,8 hPa 0,0 mm 4,0 km/h (1 Bft) W-NW 298 ° 0 min 0,000 mm 0,8 UV-I 113 W/m² 2,4 °C 4,2 °C 4,8 km/h (1 Bft)
08.11.2017 11:09 4,2 °C 4,3 °C 89 % 1016,8 hPa 0,0 mm 3,2 km/h (1 Bft) W-NW 286 ° 0 min 0,000 mm 0,8 UV-I 109 W/m² 2,6 °C 4,2 °C 4,8 km/h (1 Bft)
08.11.2017 11:10 4,3 °C 4,3 °C 89 % 1016,8 hPa 0,0 mm 4,0 km/h (1 Bft) W-NW 286 ° 0 min 0,000 mm 0,7 UV-I 104 W/m² 2,7 °C 4,3 °C 4,8 km/h (1 Bft)
08.11.2017 11:11 4,3 °C 4,3 °C 89 % 1016,8 hPa 0,0 mm 2,8 km/h (1 Bft) W-NW 302 ° 0 min 0,000 mm 0,7 UV-I 100 W/m² 2,7 °C 4,3 °C 4,8 km/h (1 Bft)
08.11.2017 11:12 4,3 °C 4,3 °C 89 % 1016,8 hPa 0,0 mm 2,9 km/h (1 Bft) NW 308 ° 0 min 0,000 mm 0,7 UV-I 98 W/m² 2,7 °C 4,3 °C 4,8 km/h (1 Bft)
08.11.2017 11:13 4,3 °C 4,3 °C 89 % 1016,8 hPa 0,0 mm 3,1 km/h (1 Bft) NW 308 ° 0 min 0,000 mm 0,7 UV-I 98 W/m² 2,7 °C 4,3 °C 4,8 km/h (1 Bft)
08.11.2017 11:14 4,3 °C 4,3 °C 88 % 1016,7 hPa 0,0 mm 2,7 km/h (1 Bft) NW 308 ° 0 min 0,000 mm 0,7 UV-I 95 W/m² 2,5 °C 4,3 °C 4,8 km/h (1 Bft)
08.11.2017 11:15 4,3 °C 4,3 °C 88 % 1016,7 hPa 0,0 mm 1,5 km/h (1 Bft) NW 308 ° 0 min 0,000 mm 0,7 UV-I 93 W/m² 2,5 °C 4,3 °C 3,2 km/h (1 Bft)
08.11.2017 11:16 4,3 °C 4,3 °C 88 % 1016,7 hPa 0,0 mm 1,1 km/h (1 Bft) NW 308 ° 0 min 0,000 mm 0,7 UV-I 91 W/m² 2,5 °C 4,3 °C 1,6 km/h (1 Bft)
08.11.2017 11:17 4,3 °C 4,3 °C 87 % 1016,7 hPa 0,0 mm 0,2 km/h (0 Bft) NW 308 ° 0 min 0,000 mm 0,7 UV-I 93 W/m² 2,3 °C 4,3 °C 1,6 km/h (1 Bft)
08.11.2017 11:18 4,3 °C 4,3 °C 88 % 1016,7 hPa 0,0 mm 1,6 km/h (1 Bft) NW 308 ° 0 min 0,000 mm 0,7 UV-I 97 W/m² 2,5 °C 4,3 °C 3,2 km/h (1 Bft)
08.11.2017 11:19 4,3 °C 4,3 °C 88 % 1016,7 hPa 0,0 mm 0,5 km/h (0 Bft) NW 308 ° 0 min 0,000 mm 0,7 UV-I 102 W/m² 2,5 °C 4,3 °C 1,6 km/h (1 Bft)
08.11.2017 11:20 4,3 °C 4,3 °C 88 % 1016,7 hPa 0,0 mm 0,2 km/h (0 Bft) NW 308 ° 0 min 0,000 mm 0,7 UV-I 113 W/m² 2,5 °C 4,3 °C 1,6 km/h (1 Bft)
08.11.2017 11:21 4,3 °C 4,3 °C 87 % 1016,7 hPa 0,2 mm 0,3 km/h (0 Bft) NW 308 ° 0 min 0,000 mm 0,8 UV-I 116 W/m² 2,3 °C 4,3 °C 1,6 km/h (1 Bft)
08.11.2017 11:22 4,3 °C 4,3 °C 88 % 1016,7 hPa 0,0 mm 0,7 km/h (0 Bft) NW 308 ° 0 min 0,000 mm 0,8 UV-I 118 W/m² 2,5 °C 4,3 °C 3,2 km/h (1 Bft)
08.11.2017 11:23 4,4 °C 4,4 °C 87 % 1016,7 hPa 0,0 mm 2,2 km/h (1 Bft) NW 308 ° 0 min 0,000 mm 0,8 UV-I 120 W/m² 2,4 °C 4,4 °C 4,8 km/h (1 Bft)
08.11.2017 11:24 4,4 °C 4,4 °C 88 % 1016,7 hPa 0,0 mm 0,9 km/h (0 Bft) NW 308 ° 0 min 0,000 mm 0,8 UV-I 120 W/m² 2,6 °C 4,4 °C 3,2 km/h (1 Bft)
08.11.2017 11:25 4,4 °C 4,5 °C 87 % 1016,7 hPa 0,0 mm 1,5 km/h (1 Bft) NW 308 ° 0 min 0,000 mm 0,8 UV-I 121 W/m² 2,4 °C 4,4 °C 3,2 km/h (1 Bft)
08.11.2017 11:26 4,5 °C 4,5 °C 87 % 1016,7 hPa 0,0 mm 2,7 km/h (1 Bft) NW 308 ° 0 min 0,000 mm 0,8 UV-I 125 W/m² 2,5 °C 4,5 °C 3,2 km/h (1 Bft)
08.11.2017 11:27 4,5 °C 4,5 °C 87 % 1016,7 hPa 0,0 mm 2,6 km/h (1 Bft) W-NW 302 ° 0 min 0,000 mm 0,8 UV-I 123 W/m² 2,5 °C 4,5 °C 4,8 km/h (1 Bft)
08.11.2017 11:28 4,6 °C 4,6 °C 87 % 1016,7 hPa 0,0 mm 3,6 km/h (1 Bft) W-NW 301 ° 0 min 0,000 mm 0,8 UV-I 121 W/m² 2,6 °C 4,6 °C 4,8 km/h (1 Bft)
08.11.2017 11:29 4,6 °C 4,6 °C 88 % 1016,7 hPa 0,0 mm 3,5 km/h (1 Bft) W-NW 297 ° 0 min 0,000 mm 0,8 UV-I 121 W/m² 2,8 °C 4,6 °C 4,8 km/h (1 Bft)
08.11.2017 11:30 4,6 °C 4,6 °C 88 % 1016,7 hPa 0,0 mm 3,2 km/h (1 Bft) W-NW 295 ° 0 min 0,000 mm 0,9 UV-I 121 W/m² 2,8 °C 4,6 °C 4,8 km/h (1 Bft)
08.11.2017 11:31 4,6 °C 4,6 °C 88 % 1016,7 hPa 0,0 mm 4,2 km/h (1 Bft) W-NW 285 ° 0 min 0,000 mm 0,9 UV-I 123 W/m² 2,8 °C 4,6 °C 6,4 km/h (2 Bft)
08.11.2017 11:32 4,6 °C 4,6 °C 88 % 1016,7 hPa 0,0 mm 3,2 km/h (1 Bft) W 267 ° 0 min 0,000 mm 0,9 UV-I 130 W/m² 2,8 °C 4,6 °C 4,8 km/h (1 Bft)
08.11.2017 11:33 4,6 °C 4,6 °C 88 % 1016,7 hPa 0,0 mm 5,9 km/h (2 Bft) W-NW 282 ° 0 min 0,000 mm 0,9 UV-I 134 W/m² 2,8 °C 3,3 °C 11,3 km/h (2 Bft)
08.11.2017 11:34 4,7 °C 4,7 °C 87 % 1016,7 hPa 0,0 mm 2,3 km/h (1 Bft) W-NW 282 ° 0 min 0,000 mm 0,9 UV-I 135 W/m² 2,7 °C 4,7 °C 3,2 km/h (1 Bft)
08.11.2017 11:35 4,7 °C 4,7 °C 87 % 1016,7 hPa 0,0 mm 2,8 km/h (1 Bft) W-NW 294 ° 0 min 0,000 mm 0,9 UV-I 134 W/m² 2,7 °C 4,7 °C 6,4 km/h (2 Bft)
08.11.2017 11:36 4,7 °C 4,7 °C 87 % 1016,6 hPa 0,0 mm 4,0 km/h (1 Bft) W-NW 296 ° 0 min 0,000 mm 0,9 UV-I 132 W/m² 2,7 °C 4,7 °C 6,4 km/h (2 Bft)
08.11.2017 11:37 4,7 °C 4,7 °C 87 % 1016,6 hPa 0,0 mm 2,2 km/h (1 Bft) W-NW 296 ° 0 min 0,000 mm 0,9 UV-I 128 W/m² 2,7 °C 4,7 °C 4,8 km/h (1 Bft)
08.11.2017 11:38 4,7 °C 4,7 °C 87 % 1016,6 hPa 0,0 mm 4,7 km/h (1 Bft) N-NW 327 ° 0 min 0,000 mm 0,9 UV-I 121 W/m² 2,7 °C 3,9 °C 8,0 km/h (2 Bft)
08.11.2017 11:39 4,7 °C 4,8 °C 88 % 1016,6 hPa 0,0 mm 3,3 km/h (1 Bft) W-NW 299 ° 0 min 0,000 mm 0,8 UV-I 114 W/m² 2,9 °C 4,7 °C 4,8 km/h (1 Bft)
08.11.2017 11:40 4,7 °C 4,8 °C 87 % 1016,6 hPa 0,0 mm 3,1 km/h (1 Bft) NW 317 ° 0 min 0,000 mm 0,7 UV-I 107 W/m² 2,7 °C 4,7 °C 6,4 km/h (2 Bft)
08.11.2017 11:41 4,7 °C 4,8 °C 88 % 1016,6 hPa 0,0 mm 3,6 km/h (1 Bft) NW 317 ° 0 min 0,000 mm 0,7 UV-I 100 W/m² 2,9 °C 4,7 °C 6,4 km/h (2 Bft)
08.11.2017 11:42 4,7 °C 4,7 °C 87 % 1016,6 hPa 0,0 mm 1,2 km/h (1 Bft) NW 317 ° 0 min 0,000 mm 0,7 UV-I 95 W/m² 2,7 °C 4,7 °C 3,2 km/h (1 Bft)
08.11.2017 11:43 4,7 °C 4,7 °C 88 % 1016,6 hPa 0,0 mm 4,0 km/h (1 Bft) NW 318 ° 0 min 0,000 mm 0,6 UV-I 91 W/m² 2,9 °C 4,7 °C 6,4 km/h (2 Bft)
08.11.2017 11:44 4,7 °C 4,7 °C 88 % 1016,6 hPa 0,0 mm 4,0 km/h (1 Bft) NW 311 ° 0 min 0,000 mm 0,6 UV-I 88 W/m² 2,9 °C 4,7 °C 6,4 km/h (2 Bft)
08.11.2017 11:45 4,7 °C 4,7 °C 88 % 1016,6 hPa 0,0 mm 2,3 km/h (1 Bft) N-NW 327 ° 0 min 0,000 mm 0,6 UV-I 88 W/m² 2,9 °C 4,7 °C 4,8 km/h (1 Bft)
08.11.2017 11:46 4,7 °C 4,7 °C 87 % 1016,7 hPa 0,0 mm 3,8 km/h (1 Bft) W-NW 302 ° 0 min 0,000 mm 0,6 UV-I 88 W/m² 2,7 °C 4,7 °C 6,4 km/h (2 Bft)
08.11.2017 11:47 4,6 °C 4,7 °C 88 % 1016,7 hPa 0,0 mm 2,3 km/h (1 Bft) W-NW 302 ° 0 min 0,000 mm 0,6 UV-I 90 W/m² 2,8 °C 4,6 °C 3,2 km/h (1 Bft)
08.11.2017 11:48 4,6 °C 4,6 °C 88 % 1016,7 hPa 0,0 mm 5,6 km/h (1 Bft) W-NW 300 ° 0 min 0,000 mm 0,7 UV-I 91 W/m² 2,8 °C 3,4 °C 8,0 km/h (2 Bft)
08.11.2017 11:49 4,6 °C 4,6 °C 88 % 1016,7 hPa 0,0 mm 3,4 km/h (1 Bft) NW 311 ° 0 min 0,000 mm 0,7 UV-I 95 W/m² 2,8 °C 4,6 °C 8,0 km/h (2 Bft)
08.11.2017 11:50 4,6 °C 4,6 °C 88 % 1016,7 hPa 0,0 mm 3,4 km/h (1 Bft) NW 321 ° 0 min 0,000 mm 0,7 UV-I 93 W/m² 2,8 °C 4,6 °C 6,4 km/h (2 Bft)
08.11.2017 11:51 4,6 °C 4,6 °C 88 % 1016,7 hPa 0,0 mm 5,3 km/h (1 Bft) NW 323 ° 0 min 0,000 mm 0,7 UV-I 91 W/m² 2,8 °C 3,5 °C 8,0 km/h (2 Bft)
08.11.2017 11:52 4,6 °C 4,6 °C 89 % 1016,7 hPa 0,0 mm 3,6 km/h (1 Bft) NW 322 ° 0 min 0,000 mm 0,6 UV-I 86 W/m² 2,9 °C 4,6 °C 6,4 km/h (2 Bft)
08.11.2017 11:53 4,6 °C 4,6 °C 89 % 1016,7 hPa 0,0 mm 5,2 km/h (1 Bft) NW 319 ° 0 min 0,000 mm 0,6 UV-I 83 W/m² 2,9 °C 3,6 °C 8,0 km/h (2 Bft)
08.11.2017 11:54 4,6 °C 4,6 °C 89 % 1016,7 hPa 0,0 mm 5,0 km/h (1 Bft) NW 324 ° 0 min 0,000 mm 0,6 UV-I 79 W/m² 2,9 °C 3,6 °C 6,4 km/h (2 Bft)
08.11.2017 11:55 4,6 °C 4,6 °C 89 % 1016,8 hPa 0,0 mm 4,5 km/h (1 Bft) NW 323 ° 0 min 0,000 mm 0,5 UV-I 72 W/m² 2,9 °C 4,6 °C 6,4 km/h (2 Bft)
08.11.2017 11:56 4,6 °C 4,6 °C 90 % 1016,8 hPa 0,0 mm 2,4 km/h (1 Bft) NW 304 ° 0 min 0,000 mm 0,5 UV-I 67 W/m² 3,1 °C 4,6 °C 4,8 km/h (1 Bft)
08.11.2017 11:57 4,5 °C 4,6 °C 89 % 1016,7 hPa 0,0 mm 3,6 km/h (1 Bft) W 269 ° 0 min 0,000 mm 0,0 UV-I 62 W/m² 2,8 °C 4,5 °C 6,4 km/h (2 Bft)
08.11.2017 11:58 4,5 °C 4,5 °C 89 % 1016,7 hPa 0,0 mm 5,2 km/h (1 Bft) NW 315 ° 0 min 0,000 mm 0,0 UV-I 58 W/m² 2,8 °C 3,4 °C 8,0 km/h (2 Bft)
08.11.2017 11:59 4,4 °C 4,5 °C 89 % 1016,7 hPa 0,0 mm 6,3 km/h (2 Bft) N-NW 327 ° 0 min 0,000 mm 0,0 UV-I 56 W/m² 2,7 °C 2,9 °C 8,0 km/h (2 Bft)
08.11.2017 12:00 4,4 °C 4,4 °C 89 % 1016,8 hPa 0,0 mm 4,7 km/h (1 Bft) NW 318 ° 0 min 0,000 mm 0,0 UV-I 54 W/m² 2,7 °C 3,5 °C 6,4 km/h (2 Bft)
08.11.2017 12:01 4,4 °C 4,4 °C 90 % 1016,7 hPa 0,0 mm 4,3 km/h (1 Bft) NW 321 ° 0 min 0,050 mm 0,0 UV-I 56 W/m² 2,9 °C 4,4 °C 6,4 km/h (2 Bft)
08.11.2017 12:02 4,3 °C 4,4 °C 89 % 1016,8 hPa 0,0 mm 4,2 km/h (1 Bft) NW 323 ° 0 min 0,000 mm 0,0 UV-I 58 W/m² 2,7 °C 4,3 °C 6,4 km/h (2 Bft)
08.11.2017 12:03 4,3 °C 4,4 °C 89 % 1016,7 hPa 0,0 mm 1,7 km/h (1 Bft) NW 323 ° 0 min 0,000 mm 0,0 UV-I 60 W/m² 2,7 °C 4,3 °C 4,8 km/h (1 Bft)
08.11.2017 12:04 4,3 °C 4,4 °C 89 % 1016,7 hPa 0,0 mm 0,9 km/h (0 Bft) NW 323 ° 0 min 0,000 mm 0,5 UV-I 63 W/m² 2,7 °C 4,3 °C 3,2 km/h (1 Bft)
08.11.2017 12:05 4,3 °C 4,3 °C 89 % 1016,7 hPa 0,0 mm 0,9 km/h (0 Bft) NW 323 ° 0 min 0,000 mm 0,5 UV-I 65 W/m² 2,7 °C 4,3 °C 3,2 km/h (1 Bft)
08.11.2017 12:06 4,3 °C 4,3 °C 89 % 1016,7 hPa 0,0 mm 1,7 km/h (1 Bft) NW 323 ° 0 min 0,000 mm 0,5 UV-I 67 W/m² 2,7 °C 4,3 °C 4,8 km/h (1 Bft)
08.11.2017 12:07 4,3 °C 4,3 °C 90 % 1016,6 hPa 0,0 mm 2,0 km/h (1 Bft) NW 323 ° 0 min 0,000 mm 0,5 UV-I 70 W/m² 2,8 °C 4,3 °C 3,2 km/h (1 Bft)
08.11.2017 12:08 4,3 °C 4,3 °C 89 % 1016,6 hPa 0,0 mm 2,5 km/h (1 Bft) W-NW 303 ° 0 min 0,000 mm 0,5 UV-I 72 W/m² 2,7 °C 4,3 °C 4,8 km/h (1 Bft)
08.11.2017 12:09 4,3 °C 4,3 °C 89 % 1016,6 hPa 0,0 mm 2,2 km/h (1 Bft) W-NW 303 ° 0 min 0,000 mm 0,5 UV-I 72 W/m² 2,7 °C 4,3 °C 4,8 km/h (1 Bft)
08.11.2017 12:10 4,3 °C 4,3 °C 90 % 1016,6 hPa 0,0 mm 3,0 km/h (1 Bft) W-NW 291 ° 0 min 0,000 mm 0,5 UV-I 72 W/m² 2,8 °C 4,3 °C 4,8 km/h (1 Bft)
08.11.2017 12:11 4,3 °C 4,3 °C 89 % 1016,6 hPa 0,0 mm 5,6 km/h (1 Bft) W-NW 294 ° 0 min 0,000 mm 0,5 UV-I 70 W/m² 2,7 °C 3,1 °C 6,4 km/h (2 Bft)
08.11.2017 12:12 4,3 °C 4,3 °C 89 % 1016,6 hPa 0,0 mm 3,7 km/h (1 Bft) W-NW 294 ° 0 min 0,000 mm 0,5 UV-I 69 W/m² 2,7 °C 4,3 °C 4,8 km/h (1 Bft)
08.11.2017 12:13 4,3 °C 4,3 °C 89 % 1016,6 hPa 0,0 mm 3,5 km/h (1 Bft) W-NW 294 ° 0 min 0,000 mm 0,5 UV-I 63 W/m² 2,7 °C 4,3 °C 4,8 km/h (1 Bft)
08.11.2017 12:14 4,3 °C 4,3 °C 89 % 1016,6 hPa 0,0 mm 2,1 km/h (1 Bft) W-NW 294 ° 0 min 0,000 mm 0,0 UV-I 63 W/m² 2,7 °C 4,3 °C 4,8 km/h (1 Bft)
08.11.2017 12:15 4,3 °C 4,3 °C 89 % 1016,6 hPa 0,0 mm 1,6 km/h (1 Bft) W-NW 294 ° 0 min 0,000 mm 0,0 UV-I 62 W/m² 2,7 °C 4,3 °C 3,2 km/h (1 Bft)
08.11.2017 12:16 4,3 °C 4,3 °C 89 % 1016,6 hPa 0,0 mm 1,6 km/h (1 Bft) W-NW 294 ° 0 min 0,000 mm 0,0 UV-I 63 W/m² 2,7 °C 4,3 °C 4,8 km/h (1 Bft)
08.11.2017 12:17 4,3 °C 4,3 °C 89 % 1016,6 hPa 0,0 mm 3,2 km/h (1 Bft) W-NW 290 ° 0 min 0,000 mm 0,0 UV-I 63 W/m² 2,7 °C 4,3 °C 4,8 km/h (1 Bft)
08.11.2017 12:18 4,3 °C 4,3 °C 90 % 1016,6 hPa 0,0 mm 2,5 km/h (1 Bft) W-NW 290 ° 0 min 0,000 mm 0,5 UV-I 63 W/m² 2,8 °C 4,3 °C 4,8 km/h (1 Bft)
08.11.2017 12:19 4,3 °C 4,3 °C 90 % 1016,6 hPa 0,0 mm 2,2 km/h (1 Bft) W-NW 290 ° 0 min 0,000 mm 0,0 UV-I 62 W/m² 2,8 °C 4,3 °C 4,8 km/h (1 Bft)
08.11.2017 12:20 4,3 °C 4,3 °C 90 % 1016,7 hPa 0,0 mm 2,1 km/h (1 Bft) W-NW 293 ° 0 min 0,000 mm 0,0 UV-I 58 W/m² 2,8 °C 4,3 °C 3,2 km/h (1 Bft)
08.11.2017 12:21 4,3 °C 4,3 °C 90 % 1016,7 hPa 0,0 mm 1,5 km/h (1 Bft) W-NW 296 ° 0 min 0,000 mm 0,0 UV-I 54 W/m² 2,8 °C 4,3 °C 4,8 km/h (1 Bft)
08.11.2017 12:22 4,3 °C 4,3 °C 90 % 1016,7 hPa 0,0 mm 3,8 km/h (1 Bft) W-NW 292 ° 0 min 0,000 mm 0,0 UV-I 54 W/m² 2,8 °C 4,3 °C 4,8 km/h (1 Bft)
08.11.2017 12:23 4,3 °C 4,3 °C 90 % 1016,7 hPa 0,0 mm 4,6 km/h (1 Bft) W-NW 292 ° 0 min 0,000 mm 0,0 UV-I 56 W/m² 2,8 °C 3,5 °C 6,4 km/h (2 Bft)
08.11.2017 12:24 4,3 °C 4,3 °C 90 % 1016,7 hPa 0,0 mm 1,4 km/h (1 Bft) W-NW 292 ° 0 min 0,000 mm 0,0 UV-I 62 W/m² 2,8 °C 4,3 °C 4,8 km/h (1 Bft)
08.11.2017 12:25 4,3 °C 4,3 °C 90 % 1016,7 hPa 0,0 mm 1,2 km/h (1 Bft) W-NW 292 ° 0 min 0,000 mm 0,5 UV-I 69 W/m² 2,8 °C 4,3 °C 1,6 km/h (1 Bft)
08.11.2017 12:26 4,3 °C 4,3 °C 90 % 1016,7 hPa 0,0 mm 0,1 km/h (0 Bft) W-NW 292 ° 0 min 0,000 mm 0,5 UV-I 70 W/m² 2,8 °C 4,3 °C 1,6 km/h (1 Bft)
08.11.2017 12:27 4,3 °C 4,3 °C 90 % 1016,7 hPa 0,0 mm 0,7 km/h (0 Bft) W-NW 292 ° 0 min 0,000 mm 0,5 UV-I 72 W/m² 2,8 °C 4,3 °C 3,2 km/h (1 Bft)
08.11.2017 12:28 4,3 °C 4,3 °C 90 % 1016,7 hPa 0,0 mm 1,8 km/h (1 Bft) W-NW 292 ° 0 min 0,000 mm 0,5 UV-I 76 W/m² 2,8 °C 4,3 °C 3,2 km/h (1 Bft)
08.11.2017 12:29 4,4 °C 4,4 °C 90 % 1016,8 hPa 0,0 mm 0,7 km/h (0 Bft) W-NW 292 ° 0 min 0,000 mm 0,5 UV-I 81 W/m² 2,9 °C 4,4 °C 1,6 km/h (1 Bft)
08.11.2017 12:30 4,4 °C 4,4 °C 90 % 1016,8 hPa 0,0 mm 3,3 km/h (1 Bft) NW 306 ° 0 min 0,000 mm 0,6 UV-I 86 W/m² 2,9 °C 4,4 °C 6,4 km/h (2 Bft)
08.11.2017 12:31 4,4 °C 4,4 °C 91 % 1016,7 hPa 0,0 mm 2,9 km/h (1 Bft) NW 306 ° 0 min 0,000 mm 0,6 UV-I 90 W/m² 3,1 °C 4,4 °C 4,8 km/h (1 Bft)
08.11.2017 12:32 4,4 °C 4,4 °C 90 % 1016,8 hPa 0,0 mm 3,0 km/h (1 Bft) NW 306 ° 0 min 0,000 mm 0,6 UV-I 86 W/m² 2,9 °C 4,4 °C 4,8 km/h (1 Bft)
08.11.2017 12:33 4,4 °C 4,4 °C 90 % 1016,8 hPa 0,0 mm 2,5 km/h (1 Bft) NW 306 ° 0 min 0,000 mm 0,6 UV-I 81 W/m² 2,9 °C 4,4 °C 4,8 km/h (1 Bft)
08.11.2017 12:34 4,4 °C 4,4 °C 89 % 1016,8 hPa 0,0 mm 1,2 km/h (1 Bft) NW 306 ° 0 min 0,000 mm 0,6 UV-I 77 W/m² 2,7 °C 4,4 °C 3,2 km/h (1 Bft)
08.11.2017 12:35 4,4 °C 4,4 °C 89 % 1016,8 hPa 0,0 mm 3,6 km/h (1 Bft) NW 306 ° 0 min 0,000 mm 0,6 UV-I 74 W/m² 2,7 °C 4,4 °C 4,8 km/h (1 Bft)
08.11.2017 12:36 4,4 °C 4,4 °C 90 % 1016,8 hPa 0,0 mm 3,2 km/h (1 Bft) NW 306 ° 0 min 0,000 mm 0,5 UV-I 72 W/m² 2,9 °C 4,4 °C 4,8 km/h (1 Bft)
08.11.2017 12:37 4,4 °C 4,4 °C 90 % 1016,8 hPa 0,0 mm 3,4 km/h (1 Bft) NW 306 ° 0 min 0,000 mm 0,5 UV-I 70 W/m² 2,9 °C 4,4 °C 4,8 km/h (1 Bft)
08.11.2017 12:38 4,4 °C 4,5 °C 90 % 1016,8 hPa 0,0 mm 3,4 km/h (1 Bft) NW 306 ° 0 min 0,000 mm 0,5 UV-I 69 W/m² 2,9 °C 4,4 °C 6,4 km/h (2 Bft)
08.11.2017 12:39 4,5 °C 4,5 °C 90 % 1016,8 hPa 0,0 mm 3,8 km/h (1 Bft) NW 306 ° 0 min 0,000 mm 0,5 UV-I 67 W/m² 3,0 °C 4,5 °C 4,8 km/h (1 Bft)
08.11.2017 12:40 4,5 °C 4,5 °C 90 % 1016,8 hPa 0,0 mm 3,4 km/h (1 Bft) NW 315 ° 0 min 0,000 mm 0,5 UV-I 63 W/m² 3,0 °C 4,5 °C 6,4 km/h (2 Bft)
08.11.2017 12:41 4,5 °C 4,5 °C 90 % 1016,8 hPa 0,0 mm 3,6 km/h (1 Bft) NW 315 ° 0 min 0,000 mm 0,0 UV-I 62 W/m² 3,0 °C 4,5 °C 4,8 km/h (1 Bft)
08.11.2017 12:42 4,5 °C 4,6 °C 90 % 1016,8 hPa 0,0 mm 5,1 km/h (1 Bft) NW 304 ° 0 min 0,000 mm 0,0 UV-I 62 W/m² 3,0 °C 3,5 °C 9,7 km/h (2 Bft)
08.11.2017 12:43 4,4 °C 4,5 °C 90 % 1016,8 hPa 0,0 mm 4,1 km/h (1 Bft) W-NW 296 ° 0 min 0,000 mm 0,0 UV-I 63 W/m² 2,9 °C 4,4 °C 6,4 km/h (2 Bft)
08.11.2017 12:44 4,4 °C 4,5 °C 90 % 1016,8 hPa 0,0 mm 4,5 km/h (1 Bft) NW 311 ° 0 min 0,000 mm 0,5 UV-I 65 W/m² 2,9 °C 4,4 °C 8,0 km/h (2 Bft)
08.11.2017 12:45 4,4 °C 4,4 °C 90 % 1016,8 hPa 0,0 mm 4,4 km/h (1 Bft) NW 307 ° 0 min 0,000 mm 0,5 UV-I 65 W/m² 2,9 °C 4,4 °C 6,4 km/h (2 Bft)
08.11.2017 12:46 4,4 °C 4,5 °C 89 % 1016,8 hPa 0,0 mm 4,2 km/h (1 Bft) W 278 ° 0 min 0,000 mm 0,0 UV-I 63 W/m² 2,7 °C 4,4 °C 6,4 km/h (2 Bft)
08.11.2017 12:47 4,4 °C 4,4 °C 89 % 1016,8 hPa 0,0 mm 5,4 km/h (1 Bft) W-NW 296 ° 0 min 0,000 mm 0,0 UV-I 62 W/m² 2,7 °C 3,2 °C 9,7 km/h (2 Bft)
08.11.2017 12:48 4,4 °C 4,4 °C 89 % 1016,8 hPa 0,0 mm 5,1 km/h (1 Bft) NW 318 ° 0 min 0,000 mm 0,0 UV-I 54 W/m² 2,7 °C 3,4 °C 9,7 km/h (2 Bft)
08.11.2017 12:49 4,3 °C 4,4 °C 90 % 1016,8 hPa 0,0 mm 3,8 km/h (1 Bft) NW 312 ° 0 min 0,000 mm 0,0 UV-I 53 W/m² 2,8 °C 4,3 °C 6,4 km/h (2 Bft)
08.11.2017 12:50 4,4 °C 4,4 °C 90 % 1016,8 hPa 0,0 mm 3,9 km/h (1 Bft) NW 311 ° 0 min 0,000 mm 0,0 UV-I 54 W/m² 2,9 °C 4,4 °C 6,4 km/h (2 Bft)
08.11.2017 12:51 4,3 °C 4,4 °C 90 % 1016,8 hPa 0,0 mm 4,3 km/h (1 Bft) NW 311 ° 0 min 0,000 mm 0,0 UV-I 56 W/m² 2,8 °C 4,3 °C 6,4 km/h (2 Bft)
08.11.2017 12:52 4,3 °C 4,4 °C 90 % 1016,8 hPa 0,0 mm 4,3 km/h (1 Bft) NW 313 ° 0 min 0,000 mm 0,0 UV-I 54 W/m² 2,8 °C 4,3 °C 6,4 km/h (2 Bft)
08.11.2017 12:53 4,3 °C 4,3 °C 90 % 1016,8 hPa 0,0 mm 4,5 km/h (1 Bft) W-NW 302 ° 0 min 0,000 mm 0,0 UV-I 53 W/m² 2,8 °C 4,3 °C 6,4 km/h (2 Bft)
08.11.2017 12:54 4,3 °C 4,3 °C 90 % 1016,8 hPa 0,0 mm 2,3 km/h (1 Bft) W-NW 302 ° 0 min 0,000 mm 0,0 UV-I 51 W/m² 2,8 °C 4,3 °C 4,8 km/h (1 Bft)
08.11.2017 12:55 4,3 °C 4,3 °C 90 % 1016,8 hPa 0,0 mm 0,9 km/h (0 Bft) W-NW 302 ° 0 min 0,000 mm 0,0 UV-I 51 W/m² 2,8 °C 4,3 °C 4,8 km/h (1 Bft)
08.11.2017 12:56 4,3 °C 4,3 °C 90 % 1016,8 hPa 0,0 mm 3,8 km/h (1 Bft) NW 307 ° 0 min 0,000 mm 0,0 UV-I 51 W/m² 2,8 °C 4,3 °C 4,8 km/h (1 Bft)
08.11.2017 12:57 4,3 °C 4,3 °C 90 % 1016,9 hPa 0,0 mm 5,0 km/h (1 Bft) NW 307 ° 0 min 0,000 mm 0,0 UV-I 53 W/m² 2,8 °C 3,3 °C 6,4 km/h (2 Bft)
08.11.2017 12:58 4,3 °C 4,3 °C 90 % 1016,8 hPa 0,0 mm 3,8 km/h (1 Bft) NW 307 ° 0 min 0,000 mm 0,0 UV-I 54 W/m² 2,8 °C 4,3 °C 4,8 km/h (1 Bft)
08.11.2017 12:59 4,3 °C 4,3 °C 90 % 1016,9 hPa 0,0 mm 3,2 km/h (1 Bft) NW 307 ° 0 min 0,000 mm 0,0 UV-I 56 W/m² 2,8 °C 4,3 °C 4,8 km/h (1 Bft)
08.11.2017 13:00 4,3 °C 4,3 °C 90 % 1016,9 hPa 0,0 mm 2,8 km/h (1 Bft) NW 311 ° 0 min 0,000 mm 0,0 UV-I 60 W/m² 2,8 °C 4,3 °C 6,4 km/h (2 Bft)
08.11.2017 13:01 4,3 °C 4,3 °C 90 % 1016,8 hPa 0,0 mm 4,6 km/h (1 Bft) W-NW 292 ° 0 min 0,026 mm 0,5 UV-I 62 W/m² 2,8 °C 3,5 °C 6,4 km/h (2 Bft)
08.11.2017 13:02 4,3 °C 4,3 °C 90 % 1016,8 hPa 0,0 mm 4,0 km/h (1 Bft) W-NW 292 ° 0 min 0,000 mm 0,5 UV-I 65 W/m² 2,8 °C 4,3 °C 6,4 km/h (2 Bft)
08.11.2017 13:03 4,3 °C 4,3 °C 89 % 1016,9 hPa 0,0 mm 5,1 km/h (1 Bft) W-SW 257 ° 0 min 0,000 mm 0,5 UV-I 67 W/m² 2,7 °C 3,2 °C 8,0 km/h (2 Bft)
08.11.2017 13:04 4,3 °C 4,3 °C 89 % 1016,9 hPa 0,0 mm 6,5 km/h (2 Bft) W-NW 288 ° 0 min 0,000 mm 0,5 UV-I 70 W/m² 2,7 °C 2,8 °C 11,3 km/h (2 Bft)
08.11.2017 13:05 4,2 °C 4,3 °C 89 % 1016,9 hPa 0,0 mm 3,3 km/h (1 Bft) W-NW 296 ° 0 min 0,000 mm 0,5 UV-I 72 W/m² 2,6 °C 4,2 °C 6,4 km/h (2 Bft)
08.11.2017 13:06 4,3 °C 4,3 °C 89 % 1016,9 hPa 0,0 mm 4,1 km/h (1 Bft) W 281 ° 0 min 0,000 mm 0,5 UV-I 70 W/m² 2,7 °C 4,3 °C 4,8 km/h (1 Bft)
08.11.2017 13:07 4,3 °C 4,3 °C 89 % 1016,9 hPa 0,0 mm 4,8 km/h (1 Bft) W 279 ° 0 min 0,000 mm 0,5 UV-I 69 W/m² 2,7 °C 3,4 °C 9,7 km/h (2 Bft)
08.11.2017 13:08 4,3 °C 4,3 °C 89 % 1016,9 hPa 0,0 mm 1,8 km/h (1 Bft) W 279 ° 0 min 0,000 mm 0,5 UV-I 67 W/m² 2,7 °C 4,3 °C 3,2 km/h (1 Bft)
08.11.2017 13:09 4,3 °C 4,3 °C 90 % 1016,9 hPa 0,0 mm 2,9 km/h (1 Bft) NW 304 ° 0 min 0,000 mm 0,5 UV-I 67 W/m² 2,8 °C 4,3 °C 6,4 km/h (2 Bft)
08.11.2017 13:10 4,3 °C 4,3 °C 90 % 1016,9 hPa 0,0 mm 3,7 km/h (1 Bft) W 279 ° 0 min 0,000 mm 0,5 UV-I 65 W/m² 2,8 °C 4,3 °C 6,4 km/h (2 Bft)
08.11.2017 13:11 4,3 °C 4,3 °C 89 % 1016,9 hPa 0,0 mm 4,6 km/h (1 Bft) W-NW 284 ° 0 min 0,000 mm 0,5 UV-I 63 W/m² 2,7 °C 3,5 °C 6,4 km/h (2 Bft)
08.11.2017 13:12 4,3 °C 4,3 °C 89 % 1016,9 hPa 0,0 mm 3,8 km/h (1 Bft) W-NW 291 ° 0 min 0,000 mm 0,5 UV-I 62 W/m² 2,7 °C 4,3 °C 4,8 km/h (1 Bft)
08.11.2017 13:13 4,3 °C 4,3 °C 89 % 1016,9 hPa 0,0 mm 2,4 km/h (1 Bft) W-NW 291 ° 0 min 0,000 mm 0,5 UV-I 62 W/m² 2,7 °C 4,3 °C 4,8 km/h (1 Bft)
08.11.2017 13:14 4,3 °C 4,3 °C 89 % 1016,9 hPa 0,0 mm 4,8 km/h (1 Bft) W 264 ° 0 min 0,000 mm 0,5 UV-I 60 W/m² 2,7 °C 3,4 °C 6,4 km/h (2 Bft)
08.11.2017 13:15 4,3 °C 4,3 °C 89 % 1016,9 hPa 0,0 mm 4,9 km/h (1 Bft) W 259 ° 0 min 0,000 mm 0,0 UV-I 62 W/m² 2,7 °C 3,3 °C 6,4 km/h (2 Bft)
08.11.2017 13:16 4,3 °C 4,3 °C 89 % 1016,9 hPa 0,0 mm 5,9 km/h (2 Bft) W 281 ° 0 min 0,000 mm 0,0 UV-I 62 W/m² 2,7 °C 3,0 °C 9,7 km/h (2 Bft)
08.11.2017 13:17 4,3 °C 4,3 °C 89 % 1016,9 hPa 0,0 mm 6,2 km/h (2 Bft) W-NW 289 ° 0 min 0,000 mm 0,0 UV-I 62 W/m² 2,7 °C 2,9 °C 9,7 km/h (2 Bft)
08.11.2017 13:18 4,3 °C 4,3 °C 88 % 1016,9 hPa 0,0 mm 6,4 km/h (2 Bft) NW 309 ° 0 min 0,000 mm 0,0 UV-I 62 W/m² 2,5 °C 2,8 °C 9,7 km/h (2 Bft)
08.11.2017 13:19 4,3 °C 4,3 °C 88 % 1016,9 hPa 0,0 mm 5,4 km/h (1 Bft) W 262 ° 0 min 0,000 mm 0,0 UV-I 62 W/m² 2,5 °C 3,1 °C 9,7 km/h (2 Bft)
08.11.2017 13:20 4,3 °C 4,3 °C 88 % 1016,9 hPa 0,0 mm 6,6 km/h (2 Bft) W-NW 287 ° 0 min 0,000 mm 0,0 UV-I 62 W/m² 2,5 °C 2,7 °C 11,3 km/h (2 Bft)
08.11.2017 13:21 4,3 °C 4,3 °C 88 % 1016,9 hPa 0,0 mm 3,0 km/h (1 Bft) W-NW 290 ° 0 min 0,000 mm 0,0 UV-I 62 W/m² 2,5 °C 4,3 °C 6,4 km/h (2 Bft)
08.11.2017 13:22 4,3 °C 4,3 °C 88 % 1016,9 hPa 0,0 mm 1,6 km/h (1 Bft) W-NW 290 ° 0 min 0,000 mm 0,0 UV-I 60 W/m² 2,5 °C 4,3 °C 3,2 km/h (1 Bft)
08.11.2017 13:23 4,3 °C 4,3 °C 88 % 1016,9 hPa 0,0 mm 2,3 km/h (1 Bft) W-NW 290 ° 0 min 0,000 mm 0,0 UV-I 60 W/m² 2,5 °C 4,3 °C 3,2 km/h (1 Bft)
08.11.2017 13:24 4,3 °C 4,3 °C 88 % 1016,9 hPa 0,0 mm 4,8 km/h (1 Bft) W 263 ° 0 min 0,000 mm 0,0 UV-I 60 W/m² 2,5 °C 3,4 °C 6,4 km/h (2 Bft)
08.11.2017 13:25 4,3 °C 4,3 °C 88 % 1016,9 hPa 0,0 mm 4,7 km/h (1 Bft) W-SW 242 ° 0 min 0,000 mm 0,0 UV-I 60 W/m² 2,5 °C 3,4 °C 6,4 km/h (2 Bft)
08.11.2017 13:26 4,3 °C 4,3 °C 88 % 1016,9 hPa 0,0 mm 2,7 km/h (1 Bft) W-NW 283 ° 0 min 0,000 mm 0,0 UV-I 62 W/m² 2,5 °C 4,3 °C 6,4 km/h (2 Bft)
08.11.2017 13:27 4,3 °C 4,3 °C 88 % 1017,0 hPa 0,0 mm 2,5 km/h (1 Bft) W-NW 285 ° 0 min 0,000 mm 0,0 UV-I 62 W/m² 2,5 °C 4,3 °C 4,8 km/h (1 Bft)
08.11.2017 13:28 4,3 °C 4,3 °C 89 % 1016,9 hPa 0,0 mm 1,9 km/h (1 Bft) W-NW 285 ° 0 min 0,000 mm 0,0 UV-I 62 W/m² 2,7 °C 4,3 °C 3,2 km/h (1 Bft)
08.11.2017 13:29 4,3 °C 4,3 °C 88 % 1016,9 hPa 0,0 mm 1,6 km/h (1 Bft) W-NW 285 ° 0 min 0,000 mm 0,0 UV-I 60 W/m² 2,5 °C 4,3 °C 3,2 km/h (1 Bft)
08.11.2017 13:30 4,3 °C 4,3 °C 88 % 1016,9 hPa 0,0 mm 2,5 km/h (1 Bft) W-NW 285 ° 0 min 0,000 mm 0,0 UV-I 60 W/m² 2,5 °C 4,3 °C 3,2 km/h (1 Bft)
08.11.2017 13:31 4,3 °C 4,3 °C 88 % 1016,9 hPa 0,0 mm 2,0 km/h (1 Bft) W-NW 285 ° 0 min 0,000 mm 0,0 UV-I 60 W/m² 2,5 °C 4,3 °C 3,2 km/h (1 Bft)
08.11.2017 13:32 4,3 °C 4,3 °C 88 % 1016,9 hPa 0,0 mm 3,1 km/h (1 Bft) W-NW 285 ° 0 min 0,000 mm 0,0 UV-I 60 W/m² 2,5 °C 4,3 °C 4,8 km/h (1 Bft)
08.11.2017 13:33 4,3 °C 4,3 °C 88 % 1016,9 hPa 0,0 mm 3,1 km/h (1 Bft) W-NW 286 ° 0 min 0,000 mm 0,0 UV-I 62 W/m² 2,5 °C 4,3 °C 4,8 km/h (1 Bft)
08.11.2017 13:34 4,3 °C 4,3 °C 88 % 1016,9 hPa 0,0 mm 4,0 km/h (1 Bft) W-NW 286 ° 0 min 0,000 mm 0,0 UV-I 62 W/m² 2,5 °C 4,3 °C 4,8 km/h (1 Bft)
08.11.2017 13:35 4,4 °C 4,4 °C 88 % 1016,9 hPa 0,0 mm 2,9 km/h (1 Bft) W-NW 286 ° 0 min 0,000 mm 0,0 UV-I 62 W/m² 2,6 °C 4,4 °C 4,8 km/h (1 Bft)
08.11.2017 13:36 4,3 °C 4,4 °C 88 % 1017,0 hPa 0,0 mm 1,8 km/h (1 Bft) W-NW 286 ° 0 min 0,000 mm 0,0 UV-I 60 W/m² 2,5 °C 4,3 °C 3,2 km/h (1 Bft)
08.11.2017 13:37 4,3 °C 4,4 °C 88 % 1016,9 hPa 0,0 mm 2,8 km/h (1 Bft) W 277 ° 0 min 0,000 mm 0,0 UV-I 60 W/m² 2,5 °C 4,3 °C 4,8 km/h (1 Bft)
08.11.2017 13:38 4,4 °C 4,4 °C 88 % 1016,9 hPa 0,0 mm 3,2 km/h (1 Bft) W 279 ° 0 min 0,000 mm 0,0 UV-I 60 W/m² 2,6 °C 4,4 °C 4,8 km/h (1 Bft)
08.11.2017 13:39 4,4 °C 4,4 °C 88 % 1017,0 hPa 0,0 mm 1,7 km/h (1 Bft) W 280 ° 0 min 0,000 mm 0,0 UV-I 60 W/m² 2,6 °C 4,4 °C 3,2 km/h (1 Bft)
08.11.2017 13:40 4,3 °C 4,4 °C 88 % 1017,0 hPa 0,0 mm 2,5 km/h (1 Bft) W 279 ° 0 min 0,000 mm 0,0 UV-I 60 W/m² 2,5 °C 4,3 °C 4,8 km/h (1 Bft)
08.11.2017 13:41 4,3 °C 4,4 °C 88 % 1017,0 hPa 0,0 mm 2,3 km/h (1 Bft) W 277 ° 0 min 0,000 mm 0,0 UV-I 60 W/m² 2,5 °C 4,3 °C 6,4 km/h (2 Bft)
08.11.2017 13:42 4,3 °C 4,3 °C 88 % 1017,0 hPa 0,0 mm 1,5 km/h (1 Bft) W 277 ° 0 min 0,000 mm 0,0 UV-I 62 W/m² 2,5 °C 4,3 °C 3,2 km/h (1 Bft)
08.11.2017 13:43 4,3 °C 4,3 °C 88 % 1017,0 hPa 0,0 mm 1,0 km/h (0 Bft) W 277 ° 0 min 0,000 mm 0,0 UV-I 62 W/m² 2,5 °C 4,3 °C 3,2 km/h (1 Bft)
08.11.2017 13:44 4,3 °C 4,3 °C 88 % 1017,0 hPa 0,0 mm 0,0 km/h (0 Bft) W 277 ° 0 min 0,000 mm 0,5 UV-I 65 W/m² 2,5 °C 4,3 °C 0,0 km/h (0 Bft)
08.11.2017 13:45 4,3 °C 4,3 °C 88 % 1017,0 hPa 0,0 mm 3,1 km/h (1 Bft) W 273 ° 0 min 0,000 mm 0,5 UV-I 67 W/m² 2,5 °C 4,3 °C 6,4 km/h (2 Bft)
08.11.2017 13:46 4,3 °C 4,3 °C 87 % 1016,9 hPa 0,0 mm 4,9 km/h (1 Bft) W 273 ° 0 min 0,000 mm 0,5 UV-I 72 W/m² 2,3 °C 3,3 °C 6,4 km/h (2 Bft)
08.11.2017 13:47 4,3 °C 4,3 °C 87 % 1016,9 hPa 0,0 mm 3,1 km/h (1 Bft) W 271 ° 0 min 0,000 mm 0,5 UV-I 74 W/m² 2,3 °C 4,3 °C 4,8 km/h (1 Bft)
08.11.2017 13:48 4,3 °C 4,3 °C 88 % 1017,0 hPa 0,0 mm 3,8 km/h (1 Bft) W 278 ° 0 min 0,000 mm 0,5 UV-I 74 W/m² 2,5 °C 4,3 °C 4,8 km/h (1 Bft)
08.11.2017 13:49 4,3 °C 4,3 °C 88 % 1016,9 hPa 0,0 mm 3,3 km/h (1 Bft) W 278 ° 0 min 0,000 mm 0,5 UV-I 76 W/m² 2,5 °C 4,3 °C 6,4 km/h (2 Bft)
08.11.2017 13:50 4,3 °C 4,4 °C 88 % 1016,9 hPa 0,0 mm 4,6 km/h (1 Bft) W 279 ° 0 min 0,000 mm 0,5 UV-I 77 W/m² 2,5 °C 3,5 °C 6,4 km/h (2 Bft)
08.11.2017 13:51 4,4 °C 4,4 °C 88 % 1017,0 hPa 0,0 mm 5,0 km/h (1 Bft) W-NW 282 ° 0 min 0,000 mm 0,5 UV-I 77 W/m² 2,6 °C 3,4 °C 6,4 km/h (2 Bft)
08.11.2017 13:52 4,4 °C 4,4 °C 88 % 1017,0 hPa 0,0 mm 4,9 km/h (1 Bft) W-NW 283 ° 0 min 0,000 mm 0,5 UV-I 77 W/m² 2,6 °C 3,4 °C 6,4 km/h (2 Bft)
08.11.2017 13:53 4,4 °C 4,4 °C 88 % 1017,0 hPa 0,0 mm 1,5 km/h (1 Bft) W-NW 283 ° 0 min 0,000 mm 0,5 UV-I 74 W/m² 2,6 °C 4,4 °C 3,2 km/h (1 Bft)
08.11.2017 13:54 4,4 °C 4,4 °C 88 % 1017,0 hPa 0,0 mm 1,5 km/h (1 Bft) W-NW 283 ° 0 min 0,000 mm 0,5 UV-I 72 W/m² 2,6 °C 4,4 °C 3,2 km/h (1 Bft)
08.11.2017 13:55 4,4 °C 4,4 °C 89 % 1017,0 hPa 0,0 mm 1,1 km/h (1 Bft) W-NW 283 ° 0 min 0,000 mm 0,5 UV-I 69 W/m² 2,7 °C 4,4 °C 1,6 km/h (1 Bft)
08.11.2017 13:56 4,4 °C 4,5 °C 88 % 1017,0 hPa 0,0 mm 0,5 km/h (0 Bft) W-NW 283 ° 0 min 0,000 mm 0,5 UV-I 69 W/m² 2,6 °C 4,4 °C 1,6 km/h (1 Bft)
08.11.2017 13:57 4,4 °C 4,5 °C 88 % 1017,1 hPa 0,0 mm 3,3 km/h (1 Bft) W 281 ° 0 min 0,000 mm 0,0 UV-I 63 W/m² 2,6 °C 4,4 °C 4,8 km/h (1 Bft)
08.11.2017 13:58 4,5 °C 4,5 °C 89 % 1017,0 hPa 0,0 mm 4,6 km/h (1 Bft) W 266 ° 0 min 0,000 mm 0,0 UV-I 62 W/m² 2,8 °C 3,7 °C 6,4 km/h (2 Bft)
08.11.2017 13:59 4,5 °C 4,5 °C 89 % 1017,0 hPa 0,0 mm 5,3 km/h (1 Bft) W 262 ° 0 min 0,000 mm 0,0 UV-I 62 W/m² 2,8 °C 3,4 °C 9,7 km/h (2 Bft)
08.11.2017 14:00 4,5 °C 4,5 °C 88 % 1017,0 hPa 0,0 mm 5,6 km/h (1 Bft) W 272 ° 0 min 0,000 mm 0,0 UV-I 62 W/m² 2,7 °C 3,3 °C 9,7 km/h (2 Bft)
08.11.2017 14:01 4,4 °C 4,5 °C 88 % 1017,1 hPa 0,0 mm 3,9 km/h (1 Bft) W 263 ° 0 min 0,025 mm 0,0 UV-I 62 W/m² 2,6 °C 4,4 °C 9,7 km/h (2 Bft)
08.11.2017 14:02 4,4 °C 4,4 °C 88 % 1017,0 hPa 0,0 mm 4,6 km/h (1 Bft) W-SW 254 ° 0 min 0,000 mm 0,0 UV-I 60 W/m² 2,6 °C 3,6 °C 9,7 km/h (2 Bft)
08.11.2017 14:03 4,4 °C 4,4 °C 88 % 1017,1 hPa 0,0 mm 6,7 km/h (2 Bft) W 260 ° 0 min 0,000 mm 0,0 UV-I 58 W/m² 2,6 °C 2,8 °C 11,3 km/h (2 Bft)
08.11.2017 14:04 4,4 °C 4,4 °C 88 % 1017,1 hPa 0,0 mm 3,9 km/h (1 Bft) W 271 ° 0 min 0,000 mm 0,0 UV-I 54 W/m² 2,6 °C 4,4 °C 4,8 km/h (1 Bft)
08.11.2017 14:05 4,4 °C 4,4 °C 88 % 1017,1 hPa 0,0 mm 4,9 km/h (1 Bft) W-NW 283 ° 0 min 0,000 mm 0,0 UV-I 53 W/m² 2,6 °C 3,4 °C 6,4 km/h (2 Bft)
08.11.2017 14:06 4,4 °C 4,4 °C 88 % 1017,1 hPa 0,0 mm 4,6 km/h (1 Bft) W-NW 283 ° 0 min 0,000 mm 0,0 UV-I 49 W/m² 2,6 °C 3,6 °C 6,4 km/h (2 Bft)
08.11.2017 14:07 4,4 °C 4,4 °C 88 % 1017,1 hPa 0,0 mm 2,7 km/h (1 Bft) W-NW 283 ° 0 min 0,000 mm 0,0 UV-I 47 W/m² 2,6 °C 4,4 °C 3,2 km/h (1 Bft)
08.11.2017 14:08 4,3 °C 4,4 °C 88 % 1017,2 hPa 0,0 mm 3,6 km/h (1 Bft) W-NW 291 ° 0 min 0,000 mm 0,0 UV-I 44 W/m² 2,5 °C 4,3 °C 6,4 km/h (2 Bft)
08.11.2017 14:09 4,3 °C 4,3 °C 88 % 1017,2 hPa 0,0 mm 5,7 km/h (1 Bft) NW 309 ° 0 min 0,000 mm 0,0 UV-I 42 W/m² 2,5 °C 3,0 °C 8,0 km/h (2 Bft)
08.11.2017 14:10 4,3 °C 4,3 °C 88 % 1017,2 hPa 0,0 mm 4,1 km/h (1 Bft) W-SW 252 ° 0 min 0,000 mm 0,0 UV-I 40 W/m² 2,5 °C 4,3 °C 8,0 km/h (2 Bft)
08.11.2017 14:11 4,3 °C 4,3 °C 88 % 1017,2 hPa 0,0 mm 3,7 km/h (1 Bft) W-NW 294 ° 0 min 0,000 mm 0,0 UV-I 40 W/m² 2,5 °C 4,3 °C 4,8 km/h (1 Bft)
08.11.2017 14:12 4,3 °C 4,3 °C 88 % 1017,2 hPa 0,0 mm 3,1 km/h (1 Bft) W-NW 295 ° 0 min 0,000 mm 0,0 UV-I 42 W/m² 2,5 °C 4,3 °C 6,4 km/h (2 Bft)
08.11.2017 14:13 4,3 °C 4,3 °C 88 % 1017,2 hPa 0,0 mm 3,3 km/h (1 Bft) W-NW 295 ° 0 min 0,000 mm 0,0 UV-I 44 W/m² 2,5 °C 4,3 °C 4,8 km/h (1 Bft)
08.11.2017 14:14 4,3 °C 4,3 °C 88 % 1017,2 hPa 0,0 mm 0,9 km/h (0 Bft) W-NW 295 ° 0 min 0,000 mm 0,0 UV-I 46 W/m² 2,5 °C 4,3 °C 3,2 km/h (1 Bft)
08.11.2017 14:15 4,3 °C 4,3 °C 88 % 1017,2 hPa 0,0 mm 2,9 km/h (1 Bft) W-NW 295 ° 0 min 0,000 mm 0,0 UV-I 47 W/m² 2,5 °C 4,3 °C 4,8 km/h (1 Bft)
08.11.2017 14:16 4,3 °C 4,3 °C 88 % 1017,2 hPa 0,0 mm 4,0 km/h (1 Bft) W-NW 303 ° 0 min 0,000 mm 0,0 UV-I 51 W/m² 2,5 °C 4,3 °C 6,4 km/h (2 Bft)
08.11.2017 14:17 4,3 °C 4,3 °C 89 % 1017,2 hPa 0,0 mm 0,6 km/h (0 Bft) W-NW 303 ° 0 min 0,000 mm 0,0 UV-I 53 W/m² 2,7 °C 4,3 °C 1,6 km/h (1 Bft)
08.11.2017 14:18 4,3 °C 4,3 °C 89 % 1017,3 hPa 0,0 mm 0,9 km/h (0 Bft) W-NW 303 ° 0 min 0,000 mm 0,0 UV-I 53 W/m² 2,7 °C 4,3 °C 3,2 km/h (1 Bft)
08.11.2017 14:19 4,3 °C 4,3 °C 89 % 1017,3 hPa 0,0 mm 0,7 km/h (0 Bft) W-NW 303 ° 0 min 0,000 mm 0,0 UV-I 53 W/m² 2,7 °C 4,3 °C 1,6 km/h (1 Bft)
08.11.2017 14:20 4,3 °C 4,3 °C 89 % 1017,3 hPa 0,0 mm 1,1 km/h (1 Bft) W-NW 303 ° 0 min 0,000 mm 0,0 UV-I 53 W/m² 2,7 °C 4,3 °C 1,6 km/h (1 Bft)
08.11.2017 14:21 4,3 °C 4,3 °C 90 % 1017,3 hPa 0,0 mm 0,1 km/h (0 Bft) W-NW 303 ° 0 min 0,000 mm 0,0 UV-I 54 W/m² 2,8 °C 4,3 °C 1,6 km/h (1 Bft)
08.11.2017 14:22 4,3 °C 4,3 °C 90 % 1017,3 hPa 0,0 mm 0,0 km/h (0 Bft) W-NW 303 ° 0 min 0,000 mm 0,0 UV-I 56 W/m² 2,8 °C 4,3 °C 0,0 km/h (0 Bft)
08.11.2017 14:23 4,3 °C 4,3 °C 90 % 1017,3 hPa 0,0 mm 2,7 km/h (1 Bft) W-NW 297 ° 0 min 0,000 mm 0,0 UV-I 58 W/m² 2,8 °C 4,3 °C 4,8 km/h (1 Bft)
08.11.2017 14:24 4,3 °C 4,3 °C 90 % 1017,3 hPa 0,0 mm 3,9 km/h (1 Bft) W-NW 297 ° 0 min 0,000 mm 0,0 UV-I 60 W/m² 2,8 °C 4,3 °C 4,8 km/h (1 Bft)
08.11.2017 14:25 4,2 °C 4,3 °C 90 % 1017,3 hPa 0,0 mm 2,7 km/h (1 Bft) W-NW 297 ° 0 min 0,000 mm 0,0 UV-I 60 W/m² 2,7 °C 4,2 °C 4,8 km/h (1 Bft)
08.11.2017 14:26 4,2 °C 4,2 °C 90 % 1017,3 hPa 0,0 mm 4,5 km/h (1 Bft) W-NW 294 ° 0 min 0,000 mm 0,0 UV-I 60 W/m² 2,7 °C 4,2 °C 6,4 km/h (2 Bft)
08.11.2017 14:27 4,3 °C 4,3 °C 90 % 1017,3 hPa 0,0 mm 3,6 km/h (1 Bft) W-NW 286 ° 0 min 0,000 mm 0,0 UV-I 60 W/m² 2,8 °C 4,3 °C 6,4 km/h (2 Bft)
08.11.2017 14:28 4,2 °C 4,3 °C 89 % 1017,3 hPa 0,0 mm 3,9 km/h (1 Bft) W-NW 301 ° 0 min 0,000 mm 0,0 UV-I 60 W/m² 2,6 °C 4,2 °C 6,4 km/h (2 Bft)
08.11.2017 14:29 4,2 °C 4,2 °C 89 % 1017,4 hPa 0,0 mm 5,2 km/h (1 Bft) W 281 ° 0 min 0,000 mm 0,0 UV-I 62 W/m² 2,6 °C 3,1 °C 8,0 km/h (2 Bft)
08.11.2017 14:30 4,2 °C 4,2 °C 89 % 1017,3 hPa 0,0 mm 5,0 km/h (1 Bft) W 279 ° 0 min 0,000 mm 0,0 UV-I 62 W/m² 2,6 °C 3,2 °C 6,4 km/h (2 Bft)
08.11.2017 14:31 4,2 °C 4,2 °C 88 % 1017,4 hPa 0,0 mm 4,8 km/h (1 Bft) W-NW 296 ° 0 min 0,000 mm 0,0 UV-I 60 W/m² 2,4 °C 3,3 °C 4,8 km/h (1 Bft)
08.11.2017 14:32 4,1 °C 4,2 °C 88 % 1017,3 hPa 0,0 mm 3,9 km/h (1 Bft) W-NW 303 ° 0 min 0,000 mm 0,0 UV-I 58 W/m² 2,3 °C 4,1 °C 4,8 km/h (1 Bft)
08.11.2017 14:33 4,1 °C 4,2 °C 88 % 1017,4 hPa 0,0 mm 2,5 km/h (1 Bft) W-NW 297 ° 0 min 0,000 mm 0,0 UV-I 56 W/m² 2,3 °C 4,1 °C 4,8 km/h (1 Bft)
08.11.2017 14:34 4,1 °C 4,2 °C 88 % 1017,4 hPa 0,0 mm 1,1 km/h (1 Bft) W-NW 297 ° 0 min 0,000 mm 0,0 UV-I 53 W/m² 2,3 °C 4,1 °C 3,2 km/h (1 Bft)
08.11.2017 14:35 4,2 °C 4,2 °C 89 % 1017,3 hPa 0,0 mm 1,5 km/h (1 Bft) W-NW 297 ° 0 min 0,000 mm 0,0 UV-I 51 W/m² 2,6 °C 4,2 °C 3,2 km/h (1 Bft)
08.11.2017 14:36 4,2 °C 4,2 °C 89 % 1017,3 hPa 0,0 mm 1,2 km/h (1 Bft) W-NW 297 ° 0 min 0,000 mm 0,0 UV-I 49 W/m² 2,6 °C 4,2 °C 3,2 km/h (1 Bft)
08.11.2017 14:37 4,2 °C 4,2 °C 89 % 1017,3 hPa 0,0 mm 3,0 km/h (1 Bft) W-NW 296 ° 0 min 0,000 mm 0,0 UV-I 49 W/m² 2,6 °C 4,2 °C 6,4 km/h (2 Bft)
08.11.2017 14:38 4,2 °C 4,2 °C 89 % 1017,4 hPa 0,0 mm 4,0 km/h (1 Bft) W-NW 296 ° 0 min 0,000 mm 0,0 UV-I 51 W/m² 2,6 °C 4,2 °C 4,8 km/h (1 Bft)
08.11.2017 14:39 4,2 °C 4,2 °C 89 % 1017,4 hPa 0,0 mm 4,2 km/h (1 Bft) NW 317 ° 0 min 0,000 mm 0,0 UV-I 53 W/m² 2,6 °C 4,2 °C 6,4 km/h (2 Bft)
08.11.2017 14:40 4,2 °C 4,2 °C 89 % 1017,4 hPa 0,0 mm 6,9 km/h (2 Bft) NW 315 ° 0 min 0,000 mm 0,0 UV-I 56 W/m² 2,6 °C 2,5 °C 9,7 km/h (2 Bft)
08.11.2017 14:41 4,2 °C 4,2 °C 89 % 1017,3 hPa 0,0 mm 4,2 km/h (1 Bft) NW 315 ° 0 min 0,000 mm 0,0 UV-I 56 W/m² 2,6 °C 4,2 °C 6,4 km/h (2 Bft)
08.11.2017 14:42 4,1 °C 4,2 °C 89 % 1017,3 hPa 0,0 mm 1,2 km/h (1 Bft) NW 315 ° 0 min 0,000 mm 0,0 UV-I 54 W/m² 2,5 °C 4,1 °C 3,2 km/h (1 Bft)
08.11.2017 14:43 4,1 °C 4,2 °C 89 % 1017,4 hPa 0,0 mm 2,7 km/h (1 Bft) NW 315 ° 0 min 0,000 mm 0,0 UV-I 53 W/m² 2,5 °C 4,1 °C 3,2 km/h (1 Bft)
08.11.2017 14:44 4,2 °C 4,2 °C 89 % 1017,4 hPa 0,0 mm 1,0 km/h (0 Bft) NW 315 ° 0 min 0,000 mm 0,0 UV-I 49 W/m² 2,6 °C 4,2 °C 1,6 km/h (1 Bft)
08.11.2017 14:45 4,2 °C 4,2 °C 89 % 1017,4 hPa 0,0 mm 1,0 km/h (0 Bft) NW 315 ° 0 min 0,000 mm 0,0 UV-I 42 W/m² 2,6 °C 4,2 °C 1,6 km/h (1 Bft)
08.11.2017 14:46 4,1 °C 4,2 °C 89 % 1017,4 hPa 0,0 mm 1,5 km/h (1 Bft) NW 315 ° 0 min 0,000 mm 0,0 UV-I 39 W/m² 2,5 °C 4,1 °C 3,2 km/h (1 Bft)
08.11.2017 14:47 4,1 °C 4,1 °C 90 % 1017,4 hPa 0,0 mm 1,0 km/h (0 Bft) NW 315 ° 0 min 0,000 mm 0,0 UV-I 35 W/m² 2,6 °C 4,1 °C 1,6 km/h (1 Bft)
08.11.2017 14:48 4,1 °C 4,1 °C 90 % 1017,4 hPa 0,0 mm 0,0 km/h (0 Bft) NW 315 ° 0 min 0,000 mm 0,0 UV-I 35 W/m² 2,6 °C 4,1 °C 0,0 km/h (0 Bft)
08.11.2017 14:49 4,1 °C 4,1 °C 90 % 1017,4 hPa 0,0 mm 0,0 km/h (0 Bft) NW 314 ° 0 min 0,000 mm 0,0 UV-I 35 W/m² 2,6 °C 4,1 °C 0,0 km/h (0 Bft)
08.11.2017 14:50 4,1 °C 4,1 °C 90 % 1017,4 hPa 0,0 mm 0,0 km/h (0 Bft) NW 314 ° 0 min 0,000 mm 0,0 UV-I 37 W/m² 2,6 °C 4,1 °C 0,0 km/h (0 Bft)
08.11.2017 14:51 4,1 °C 4,1 °C 90 % 1017,3 hPa 0,0 mm 0,0 km/h (0 Bft) NW 314 ° 0 min 0,000 mm 0,0 UV-I 40 W/m² 2,6 °C 4,1 °C 0,0 km/h (0 Bft)
08.11.2017 14:52 4,0 °C 4,1 °C 90 % 1017,4 hPa 0,0 mm 0,0 km/h (0 Bft) NW 314 ° 0 min 0,000 mm 0,0 UV-I 42 W/m² 2,5 °C 4,0 °C 0,0 km/h (0 Bft)
08.11.2017 14:53 4,0 °C 4,1 °C 91 % 1017,4 hPa 0,0 mm 0,0 km/h (0 Bft) NW 314 ° 0 min 0,000 mm 0,0 UV-I 44 W/m² 2,7 °C 4,0 °C 0,0 km/h (0 Bft)
08.11.2017 14:54 4,0 °C 4,0 °C 91 % 1017,4 hPa 0,0 mm 0,0 km/h (0 Bft) NW 314 ° 0 min 0,000 mm 0,0 UV-I 47 W/m² 2,7 °C 4,0 °C 0,0 km/h (0 Bft)
08.11.2017 14:55 4,0 °C 4,0 °C 91 % 1017,4 hPa 0,0 mm 0,0 km/h (0 Bft) NW 314 ° 0 min 0,000 mm 0,0 UV-I 51 W/m² 2,7 °C 4,0 °C 0,0 km/h (0 Bft)
08.11.2017 14:56 4,1 °C 4,1 °C 91 % 1017,4 hPa 0,0 mm 0,0 km/h (0 Bft) NW 314 ° 0 min 0,000 mm 0,0 UV-I 58 W/m² 2,8 °C 4,1 °C 0,0 km/h (0 Bft)
08.11.2017 14:57 4,0 °C 4,1 °C 91 % 1017,4 hPa 0,0 mm 0,0 km/h (0 Bft) NW 314 ° 0 min 0,000 mm 0,0 UV-I 67 W/m² 2,7 °C 4,0 °C 0,0 km/h (0 Bft)
08.11.2017 14:58 4,0 °C 4,0 °C 91 % 1017,4 hPa 0,0 mm 0,0 km/h (0 Bft) NW 314 ° 0 min 0,000 mm 0,0 UV-I 67 W/m² 2,7 °C 4,0 °C 0,0 km/h (0 Bft)
08.11.2017 14:59 3,9 °C 4,0 °C 91 % 1017,4 hPa 0,0 mm 0,0 km/h (0 Bft) NW 314 ° 0 min 0,000 mm 0,0 UV-I 65 W/m² 2,6 °C 3,9 °C 0,0 km/h (0 Bft)
08.11.2017 15:00 4,0 °C 4,0 °C 91 % 1017,4 hPa 0,0 mm 0,0 km/h (0 Bft) NW 314 ° 0 min 0,000 mm 0,0 UV-I 65 W/m² 2,7 °C 4,0 °C 0,0 km/h (0 Bft)
08.11.2017 15:01 3,9 °C 4,0 °C 91 % 1017,4 hPa 0,0 mm 0,0 km/h (0 Bft) NW 314 ° 0 min 0,026 mm 0,0 UV-I 65 W/m² 2,6 °C 3,9 °C 0,0 km/h (0 Bft)
08.11.2017 15:02 3,9 °C 3,9 °C 90 % 1017,4 hPa 0,0 mm 0,0 km/h (0 Bft) NW 314 ° 0 min 0,000 mm 0,0 UV-I 65 W/m² 2,4 °C 3,9 °C 0,0 km/h (0 Bft)
08.11.2017 15:03 4,0 °C 4,0 °C 91 % 1017,4 hPa 0,0 mm 0,0 km/h (0 Bft) NW 314 ° 0 min 0,000 mm 0,0 UV-I 69 W/m² 2,7 °C 4,0 °C 0,0 km/h (0 Bft)
08.11.2017 15:04 4,1 °C 4,1 °C 91 % 1017,4 hPa 0,0 mm 0,0 km/h (0 Bft) NW 314 ° 0 min 0,000 mm 0,0 UV-I 72 W/m² 2,8 °C 4,1 °C 0,0 km/h (0 Bft)
08.11.2017 15:05 4,1 °C 4,1 °C 91 % 1017,4 hPa 0,0 mm 0,0 km/h (0 Bft) NW 314 ° 0 min 0,000 mm 0,0 UV-I 74 W/m² 2,8 °C 4,1 °C 0,0 km/h (0 Bft)
08.11.2017 15:06 4,1 °C 4,1 °C 91 % 1017,3 hPa 0,0 mm 0,0 km/h (0 Bft) NW 314 ° 0 min 0,000 mm 0,0 UV-I 76 W/m² 2,8 °C 4,1 °C 0,0 km/h (0 Bft)
08.11.2017 15:07 4,1 °C 4,2 °C 91 % 1017,3 hPa 0,0 mm 0,0 km/h (0 Bft) NW 314 ° 0 min 0,000 mm 0,0 UV-I 77 W/m² 2,8 °C 4,1 °C 0,0 km/h (0 Bft)
08.11.2017 15:08 4,2 °C 4,2 °C 91 % 1017,4 hPa 0,0 mm 0,0 km/h (0 Bft) NW 314 ° 0 min 0,000 mm 0,0 UV-I 79 W/m² 2,9 °C 4,2 °C 0,0 km/h (0 Bft)
08.11.2017 15:09 4,2 °C 4,2 °C 91 % 1017,3 hPa 0,0 mm 0,0 km/h (0 Bft) NW 314 ° 0 min 0,000 mm 0,0 UV-I 83 W/m² 2,9 °C 4,2 °C 0,0 km/h (0 Bft)
08.11.2017 15:10 4,2 °C 4,2 °C 91 % 1017,3 hPa 0,0 mm 0,0 km/h (0 Bft) NW 314 ° 0 min 0,000 mm 0,0 UV-I 83 W/m² 2,9 °C 4,2 °C 0,0 km/h (0 Bft)
08.11.2017 15:11 4,2 °C 4,2 °C 91 % 1017,3 hPa 0,0 mm 1,5 km/h (1 Bft) NW 314 ° 0 min 0,000 mm 0,0 UV-I 84 W/m² 2,9 °C 4,2 °C 3,2 km/h (1 Bft)
08.11.2017 15:12 4,2 °C 4,2 °C 90 % 1017,3 hPa 0,0 mm 0,0 km/h (0 Bft) NW 314 ° 0 min 0,000 mm 0,0 UV-I 84 W/m² 2,7 °C 4,2 °C 0,0 km/h (0 Bft)
08.11.2017 15:13 4,2 °C 4,2 °C 90 % 1017,3 hPa 0,0 mm 0,1 km/h (0 Bft) NW 314 ° 0 min 0,000 mm 0,0 UV-I 83 W/m² 2,7 °C 4,2 °C 1,6 km/h (1 Bft)
08.11.2017 15:14 4,2 °C 4,2 °C 90 % 1017,4 hPa 0,0 mm 3,0 km/h (1 Bft) NW 313 ° 0 min 0,000 mm 0,0 UV-I 81 W/m² 2,7 °C 4,2 °C 4,8 km/h (1 Bft)
08.11.2017 15:15 4,2 °C 4,2 °C 90 % 1017,4 hPa 0,0 mm 2,4 km/h (1 Bft) NW 313 ° 0 min 0,000 mm 0,0 UV-I 79 W/m² 2,7 °C 4,2 °C 3,2 km/h (1 Bft)
08.11.2017 15:16 4,2 °C 4,3 °C 90 % 1017,4 hPa 0,0 mm 0,9 km/h (0 Bft) NW 313 ° 0 min 0,000 mm 0,0 UV-I 79 W/m² 2,7 °C 4,2 °C 3,2 km/h (1 Bft)
08.11.2017 15:17 4,2 °C 4,3 °C 90 % 1017,4 hPa 0,0 mm 0,0 km/h (0 Bft) NW 313 ° 0 min 0,000 mm 0,0 UV-I 79 W/m² 2,7 °C 4,2 °C 0,0 km/h (0 Bft)
08.11.2017 15:18 4,2 °C 4,3 °C 89 % 1017,4 hPa 0,0 mm 0,0 km/h (0 Bft) NW 313 ° 0 min 0,000 mm 0,0 UV-I 77 W/m² 2,6 °C 4,2 °C 0,0 km/h (0 Bft)
08.11.2017 15:19 4,2 °C 4,3 °C 90 % 1017,4 hPa 0,0 mm 0,0 km/h (0 Bft) NW 313 ° 0 min 0,000 mm 0,0 UV-I 77 W/m² 2,7 °C 4,2 °C 0,0 km/h (0 Bft)
08.11.2017 15:20 4,3 °C 4,3 °C 90 % 1017,4 hPa 0,0 mm 0,5 km/h (0 Bft) NW 313 ° 0 min 0,000 mm 0,0 UV-I 72 W/m² 2,8 °C 4,3 °C 3,2 km/h (1 Bft)
08.11.2017 15:21 4,3 °C 4,3 °C 90 % 1017,4 hPa 0,0 mm 0,6 km/h (0 Bft) NW 313 ° 0 min 0,000 mm 0,0 UV-I 70 W/m² 2,8 °C 4,3 °C 3,2 km/h (1 Bft)
08.11.2017 15:22 4,3 °C 4,3 °C 90 % 1017,4 hPa 0,0 mm 0,6 km/h (0 Bft) NW 313 ° 0 min 0,000 mm 0,0 UV-I 67 W/m² 2,8 °C 4,3 °C 1,6 km/h (1 Bft)
08.11.2017 15:23 4,3 °C 4,3 °C 90 % 1017,4 hPa 0,0 mm 0,0 km/h (0 Bft) NW 313 ° 0 min 0,000 mm 0,0 UV-I 62 W/m² 2,8 °C 4,3 °C 0,0 km/h (0 Bft)
08.11.2017 15:24 4,3 °C 4,3 °C 90 % 1017,5 hPa 0,0 mm 0,0 km/h (0 Bft) NW 313 ° 0 min 0,000 mm 0,0 UV-I 58 W/m² 2,8 °C 4,3 °C 0,0 km/h (0 Bft)
08.11.2017 15:25 4,3 °C 4,3 °C 90 % 1017,5 hPa 0,0 mm 0,7 km/h (0 Bft) NW 313 ° 0 min 0,000 mm 0,0 UV-I 56 W/m² 2,8 °C 4,3 °C 1,6 km/h (1 Bft)
08.11.2017 15:26 4,3 °C 4,3 °C 89 % 1017,5 hPa 0,0 mm 0,0 km/h (0 Bft) NW 313 ° 0 min 0,000 mm 0,0 UV-I 51 W/m² 2,7 °C 4,3 °C 0,0 km/h (0 Bft)
08.11.2017 15:27 4,3 °C 4,3 °C 89 % 1017,5 hPa 0,0 mm 0,0 km/h (0 Bft) NW 313 ° 0 min 0,000 mm 0,0 UV-I 49 W/m² 2,7 °C 4,3 °C 0,0 km/h (0 Bft)
08.11.2017 15:28 4,3 °C 4,3 °C 89 % 1017,5 hPa 0,0 mm 0,1 km/h (0 Bft) NW 313 ° 0 min 0,000 mm 0,0 UV-I 49 W/m² 2,7 °C 4,3 °C 1,6 km/h (1 Bft)
08.11.2017 15:29 4,2 °C 4,3 °C 88 % 1017,5 hPa 0,0 mm 0,0 km/h (0 Bft) NW 313 ° 0 min 0,000 mm 0,0 UV-I 47 W/m² 2,4 °C 4,2 °C 0,0 km/h (0 Bft)
08.11.2017 15:30 4,2 °C 4,3 °C 89 % 1017,5 hPa 0,0 mm 0,0 km/h (0 Bft) NW 313 ° 0 min 0,000 mm 0,0 UV-I 47 W/m² 2,6 °C 4,2 °C 0,0 km/h (0 Bft)
08.11.2017 15:31 4,2 °C 4,2 °C 89 % 1017,5 hPa 0,0 mm 0,0 km/h (0 Bft) NW 313 ° 0 min 0,000 mm 0,0 UV-I 42 W/m² 2,6 °C 4,2 °C 0,0 km/h (0 Bft)
08.11.2017 15:32 4,2 °C 4,2 °C 89 % 1017,6 hPa 0,0 mm 0,0 km/h (0 Bft) NW 313 ° 0 min 0,000 mm 0,0 UV-I 39 W/m² 2,6 °C 4,2 °C 0,0 km/h (0 Bft)
08.11.2017 15:33 4,2 °C 4,2 °C 89 % 1017,6 hPa 0,0 mm 0,0 km/h (0 Bft) NW 313 ° 0 min 0,000 mm 0,0 UV-I 37 W/m² 2,6 °C 4,2 °C 0,0 km/h (0 Bft)
08.11.2017 15:34 4,2 °C 4,2 °C 89 % 1017,6 hPa 0,0 mm 0,0 km/h (0 Bft) NW 313 ° 0 min 0,000 mm 0,0 UV-I 35 W/m² 2,6 °C 4,2 °C 0,0 km/h (0 Bft)
08.11.2017 15:35 4,2 °C 4,2 °C 90 % 1017,5 hPa 0,0 mm 0,0 km/h (0 Bft) NW 313 ° 0 min 0,000 mm 0,0 UV-I 35 W/m² 2,7 °C 4,2 °C 0,0 km/h (0 Bft)
08.11.2017 15:36 4,2 °C 4,2 °C 90 % 1017,6 hPa 0,0 mm 0,0 km/h (0 Bft) NW 313 ° 0 min 0,000 mm 0,0 UV-I 33 W/m² 2,7 °C 4,2 °C 0,0 km/h (0 Bft)
08.11.2017 15:37 4,2 °C 4,2 °C 89 % 1017,6 hPa 0,0 mm 0,0 km/h (0 Bft) NW 313 ° 0 min 0,000 mm 0,0 UV-I 33 W/m² 2,6 °C 4,2 °C 0,0 km/h (0 Bft)
08.11.2017 15:38 4,2 °C 4,2 °C 90 % 1017,6 hPa 0,0 mm 0,0 km/h (0 Bft) NW 313 ° 0 min 0,000 mm 0,0 UV-I 33 W/m² 2,7 °C 4,2 °C 0,0 km/h (0 Bft)
08.11.2017 15:39 4,2 °C 4,2 °C 90 % 1017,5 hPa 0,0 mm 0,0 km/h (0 Bft) NW 313 ° 0 min 0,000 mm 0,0 UV-I 33 W/m² 2,7 °C 4,2 °C 0,0 km/h (0 Bft)
08.11.2017 15:40 4,2 °C 4,2 °C 90 % 1017,5 hPa 0,0 mm 0,0 km/h (0 Bft) NW 313 ° 0 min 0,000 mm 0,0 UV-I 33 W/m² 2,7 °C 4,2 °C 0,0 km/h (0 Bft)
08.11.2017 15:41 4,2 °C 4,2 °C 90 % 1017,5 hPa 0,0 mm 0,0 km/h (0 Bft) NW 313 ° 0 min 0,000 mm 0,0 UV-I 33 W/m² 2,7 °C 4,2 °C 0,0 km/h (0 Bft)
08.11.2017 15:42 4,2 °C 4,2 °C 90 % 1017,5 hPa 0,0 mm 0,0 km/h (0 Bft) NW 313 ° 0 min 0,000 mm 0,0 UV-I 33 W/m² 2,7 °C 4,2 °C 0,0 km/h (0 Bft)
08.11.2017 15:43 4,2 °C 4,2 °C 90 % 1017,5 hPa 0,0 mm 0,0 km/h (0 Bft) NW 313 ° 0 min 0,000 mm 0,0 UV-I 33 W/m² 2,7 °C 4,2 °C 0,0 km/h (0 Bft)
08.11.2017 15:44 4,2 °C 4,2 °C 90 % 1017,5 hPa 0,0 mm 0,0 km/h (0 Bft) NW 313 ° 0 min 0,000 mm 0,0 UV-I 35 W/m² 2,7 °C 4,2 °C 0,0 km/h (0 Bft)
08.11.2017 15:45 4,2 °C 4,2 °C 91 % 1017,5 hPa 0,0 mm 0,0 km/h (0 Bft) NW 313 ° 0 min 0,000 mm 0,0 UV-I 37 W/m² 2,9 °C 4,2 °C 0,0 km/h (0 Bft)
08.11.2017 15:46 4,2 °C 4,2 °C 91 % 1017,6 hPa 0,0 mm 0,0 km/h (0 Bft) NW 313 ° 0 min 0,000 mm 0,0 UV-I 39 W/m² 2,9 °C 4,2 °C 0,0 km/h (0 Bft)
08.11.2017 15:47 4,2 °C 4,2 °C 91 % 1017,5 hPa 0,0 mm 0,0 km/h (0 Bft) NW 313 ° 0 min 0,000 mm 0,0 UV-I 39 W/m² 2,9 °C 4,2 °C 0,0 km/h (0 Bft)
08.11.2017 15:48 4,2 °C 4,2 °C 91 % 1017,6 hPa 0,0 mm 0,0 km/h (0 Bft) NW 313 ° 0 min 0,000 mm 0,0 UV-I 40 W/m² 2,9 °C 4,2 °C 0,0 km/h (0 Bft)
08.11.2017 15:49 4,2 °C 4,2 °C 91 % 1017,5 hPa 0,0 mm 0,1 km/h (0 Bft) NW 313 ° 0 min 0,000 mm 0,0 UV-I 40 W/m² 2,9 °C 4,2 °C 1,6 km/h (1 Bft)
08.11.2017 15:50 4,2 °C 4,2 °C 91 % 1017,5 hPa 0,0 mm 0,1 km/h (0 Bft) NW 313 ° 0 min 0,000 mm 0,0 UV-I 39 W/m² 2,9 °C 4,2 °C 1,6 km/h (1 Bft)
08.11.2017 15:51 4,1 °C 4,2 °C 91 % 1017,6 hPa 0,0 mm 0,0 km/h (0 Bft) NW 313 ° 0 min 0,000 mm 0,0 UV-I 37 W/m² 2,8 °C 4,1 °C 0,0 km/h (0 Bft)
08.11.2017 15:52 4,1 °C 4,2 °C 91 % 1017,5 hPa 0,0 mm 1,0 km/h (0 Bft) NW 313 ° 0 min 0,000 mm 0,0 UV-I 37 W/m² 2,8 °C 4,1 °C 3,2 km/h (1 Bft)
08.11.2017 15:53 4,1 °C 4,2 °C 91 % 1017,5 hPa 0,0 mm 1,5 km/h (1 Bft) NW 313 ° 0 min 0,000 mm 0,0 UV-I 37 W/m² 2,8 °C 4,1 °C 3,2 km/h (1 Bft)
08.11.2017 15:54 4,2 °C 4,2 °C 91 % 1017,5 hPa 0,0 mm 2,4 km/h (1 Bft) NW 313 ° 0 min 0,000 mm 0,0 UV-I 39 W/m² 2,9 °C 4,2 °C 4,8 km/h (1 Bft)
08.11.2017 15:55 4,2 °C 4,2 °C 91 % 1017,5 hPa 0,0 mm 1,4 km/h (1 Bft) NW 313 ° 0 min 0,000 mm 0,0 UV-I 39 W/m² 2,9 °C 4,2 °C 3,2 km/h (1 Bft)
08.11.2017 15:56 4,2 °C 4,2 °C 91 % 1017,5 hPa 0,0 mm 1,7 km/h (1 Bft) NW 313 ° 0 min 0,000 mm 0,0 UV-I 39 W/m² 2,9 °C 4,2 °C 3,2 km/h (1 Bft)
08.11.2017 15:57 4,2 °C 4,2 °C 91 % 1017,5 hPa 0,0 mm 0,7 km/h (0 Bft) NW 313 ° 0 min 0,000 mm 0,0 UV-I 37 W/m² 2,9 °C 4,2 °C 3,2 km/h (1 Bft)
08.11.2017 15:58 4,2 °C 4,2 °C 91 % 1017,5 hPa 0,0 mm 0,7 km/h (0 Bft) NW 313 ° 0 min 0,000 mm 0,0 UV-I 37 W/m² 2,9 °C 4,2 °C 1,6 km/h (1 Bft)
08.11.2017 15:59 4,2 °C 4,2 °C 91 % 1017,5 hPa 0,0 mm 0,6 km/h (0 Bft) NW 313 ° 0 min 0,000 mm 0,0 UV-I 35 W/m² 2,9 °C 4,2 °C 1,6 km/h (1 Bft)
08.11.2017 16:00 4,2 °C 4,2 °C 91 % 1017,6 hPa 0,0 mm 0,1 km/h (0 Bft) NW 313 ° 0 min 0,000 mm 0,0 UV-I 35 W/m² 2,9 °C 4,2 °C 1,6 km/h (1 Bft)
08.11.2017 16:01 4,2 °C 4,2 °C 91 % 1017,6 hPa 0,0 mm 0,0 km/h (0 Bft) NW 313 ° 0 min 0,025 mm 0,0 UV-I 35 W/m² 2,9 °C 4,2 °C 0,0 km/h (0 Bft)
08.11.2017 16:02 4,2 °C 4,2 °C 91 % 1017,6 hPa 0,0 mm 0,0 km/h (0 Bft) NW 313 ° 0 min 0,000 mm 0,0 UV-I 35 W/m² 2,9 °C 4,2 °C 0,0 km/h (0 Bft)
08.11.2017 16:03 4,1 °C 4,2 °C 91 % 1017,6 hPa 0,0 mm 0,0 km/h (0 Bft) NW 313 ° 0 min 0,000 mm 0,0 UV-I 35 W/m² 2,8 °C 4,1 °C 0,0 km/h (0 Bft)
08.11.2017 16:04 4,1 °C 4,1 °C 91 % 1017,6 hPa 0,0 mm 0,0 km/h (0 Bft) NW 313 ° 0 min 0,000 mm 0,0 UV-I 33 W/m² 2,8 °C 4,1 °C 0,0 km/h (0 Bft)
08.11.2017 16:05 4,2 °C 4,2 °C 92 % 1017,6 hPa 0,0 mm 0,0 km/h (0 Bft) NW 313 ° 0 min 0,000 mm 0,0 UV-I 33 W/m² 3,0 °C 4,2 °C 0,0 km/h (0 Bft)
08.11.2017 16:06 4,2 °C 4,2 °C 92 % 1017,6 hPa 0,0 mm 0,0 km/h (0 Bft) NW 313 ° 0 min 0,000 mm 0,0 UV-I 32 W/m² 3,0 °C 4,2 °C 0,0 km/h (0 Bft)
08.11.2017 16:07 4,1 °C 4,2 °C 92 % 1017,6 hPa 0,0 mm 0,0 km/h (0 Bft) NW 313 ° 0 min 0,000 mm 0,0 UV-I 25 W/m² 2,9 °C 4,1 °C 0,0 km/h (0 Bft)
08.11.2017 16:09 4,1 °C 4,2 °C 92 % 1017,7 hPa 0,0 mm 0,0 km/h (0 Bft) NW 313 ° 0 min 0,000 mm 0,0 UV-I 21 W/m² 2,9 °C 4,1 °C 0,0 km/h (0 Bft)
08.11.2017 16:10 4,1 °C 4,1 °C 92 % 1017,7 hPa 0,0 mm 0,0 km/h (0 Bft) NW 313 ° 0 min 0,000 mm 0,0 UV-I 21 W/m² 2,9 °C 4,1 °C 0,0 km/h (0 Bft)
08.11.2017 16:11 4,1 °C 4,1 °C 92 % 1017,7 hPa 0,0 mm 0,0 km/h (0 Bft) NW 313 ° 0 min 0,000 mm 0,0 UV-I 19 W/m² 2,9 °C 4,1 °C 0,0 km/h (0 Bft)
08.11.2017 16:12 4,1 °C 4,1 °C 92 % 1017,7 hPa 0,0 mm 0,0 km/h (0 Bft) NW 313 ° 0 min 0,000 mm 0,0 UV-I 19 W/m² 2,9 °C 4,1 °C 0,0 km/h (0 Bft)
08.11.2017 16:13 4,1 °C 4,1 °C 92 % 1017,7 hPa 0,0 mm 0,4 km/h (0 Bft) NW 313 ° 0 min 0,000 mm 0,0 UV-I 18 W/m² 2,9 °C 4,1 °C 1,6 km/h (1 Bft)
08.11.2017 16:14 4,1 °C 4,1 °C 92 % 1017,8 hPa 0,0 mm 0,3 km/h (0 Bft) NW 313 ° 0 min 0,000 mm 0,0 UV-I 18 W/m² 2,9 °C 4,1 °C 1,6 km/h (1 Bft)
08.11.2017 16:15 4,1 °C 4,1 °C 92 % 1017,8 hPa 0,0 mm 0,0 km/h (0 Bft) NW 313 ° 0 min 0,000 mm 0,0 UV-I 16 W/m² 2,9 °C 4,1 °C 0,0 km/h (0 Bft)
08.11.2017 16:16 4,1 °C 4,1 °C 92 % 1017,7 hPa 0,0 mm 0,0 km/h (0 Bft) NW 313 ° 0 min 0,000 mm 0,0 UV-I 16 W/m² 2,9 °C 4,1 °C 0,0 km/h (0 Bft)
08.11.2017 16:17 4,1 °C 4,1 °C 92 % 1017,8 hPa 0,0 mm 0,0 km/h (0 Bft) NW 313 ° 0 min 0,000 mm 0,0 UV-I 16 W/m² 2,9 °C 4,1 °C 0,0 km/h (0 Bft)
08.11.2017 16:18 4,1 °C 4,1 °C 92 % 1017,8 hPa 0,0 mm 0,0 km/h (0 Bft) NW 313 ° 0 min 0,000 mm 0,0 UV-I 16 W/m² 2,9 °C 4,1 °C 0,0 km/h (0 Bft)
08.11.2017 16:19 4,1 °C 4,1 °C 92 % 1017,8 hPa 0,0 mm 0,0 km/h (0 Bft) NW 313 ° 0 min 0,000 mm 0,0 UV-I 14 W/m² 2,9 °C 4,1 °C 0,0 km/h (0 Bft)
08.11.2017 16:20 4,0 °C 4,1 °C 92 % 1017,8 hPa 0,0 mm 0,0 km/h (0 Bft) NW 313 ° 0 min 0,000 mm 0,0 UV-I 14 W/m² 2,8 °C 4,0 °C 0,0 km/h (0 Bft)
08.11.2017 16:21 4,0 °C 4,0 °C 92 % 1017,8 hPa 0,0 mm 0,0 km/h (0 Bft) NW 313 ° 0 min 0,000 mm 0,0 UV-I 14 W/m² 2,8 °C 4,0 °C 0,0 km/h (0 Bft)
08.11.2017 16:22 4,0 °C 4,0 °C 92 % 1017,8 hPa 0,0 mm 0,0 km/h (0 Bft) NW 313 ° 0 min 0,000 mm 0,0 UV-I 14 W/m² 2,8 °C 4,0 °C 0,0 km/h (0 Bft)
08.11.2017 16:24 4,0 °C 4,0 °C 92 % 1017,8 hPa 0,0 mm 0,0 km/h (0 Bft) NW 313 ° 0 min 0,000 mm 0,0 UV-I 12 W/m² 2,8 °C 4,0 °C 0,0 km/h (0 Bft)
08.11.2017 16:25 4,0 °C 4,0 °C 92 % 1017,8 hPa 0,0 mm 0,0 km/h (0 Bft) NW 313 ° 0 min 0,000 mm 0,0 UV-I 12 W/m² 2,8 °C 4,0 °C 0,0 km/h (0 Bft)
08.11.2017 16:26 4,0 °C 4,0 °C 92 % 1017,8 hPa 0,0 mm 0,0 km/h (0 Bft) NW 313 ° 0 min 0,000 mm 0,0 UV-I 12 W/m² 2,8 °C 4,0 °C 0,0 km/h (0 Bft)
08.11.2017 16:27 4,0 °C 4,0 °C 92 % 1017,7 hPa 0,0 mm 0,6 km/h (0 Bft) NW 313 ° 0 min 0,000 mm 0,0 UV-I 12 W/m² 2,8 °C 4,0 °C 3,2 km/h (1 Bft)
08.11.2017 16:28 4,0 °C 4,0 °C 92 % 1017,7 hPa 0,0 mm 0,5 km/h (0 Bft) NW 313 ° 0 min 0,000 mm 0,0 UV-I 12 W/m² 2,8 °C 4,0 °C 1,6 km/h (1 Bft)
08.11.2017 16:29 4,0 °C 4,0 °C 92 % 1017,7 hPa 0,0 mm 0,0 km/h (0 Bft) NW 313 ° 0 min 0,000 mm 0,0 UV-I 12 W/m² 2,8 °C 4,0 °C 0,0 km/h (0 Bft)
08.11.2017 16:30 4,0 °C 4,0 °C 92 % 1017,7 hPa 0,0 mm 0,0 km/h (0 Bft) NW 313 ° 0 min 0,000 mm 0,0 UV-I 11 W/m² 2,8 °C 4,0 °C 0,0 km/h (0 Bft)
08.11.2017 16:31 4,0 °C 4,0 °C 92 % 1017,8 hPa 0,0 mm 0,0 km/h (0 Bft) NW 313 ° 0 min 0,000 mm 0,0 UV-I 11 W/m² 2,8 °C 4,0 °C 0,0 km/h (0 Bft)
08.11.2017 16:32 4,0 °C 4,0 °C 92 % 1017,7 hPa 0,0 mm 0,0 km/h (0 Bft) NW 313 ° 0 min 0,000 mm 0,0 UV-I 11 W/m² 2,8 °C 4,0 °C 0,0 km/h (0 Bft)
08.11.2017 16:33 4,0 °C 4,0 °C 92 % 1017,8 hPa 0,0 mm 0,0 km/h (0 Bft) NW 313 ° 0 min 0,000 mm 0,0 UV-I 11 W/m² 2,8 °C 4,0 °C 0,0 km/h (0 Bft)
08.11.2017 16:34 4,0 °C 4,0 °C 92 % 1017,7 hPa 0,0 mm 0,6 km/h (0 Bft) NW 313 ° 0 min 0,000 mm 0,0 UV-I 11 W/m² 2,8 °C 4,0 °C 1,6 km/h (1 Bft)
08.11.2017 16:35 4,0 °C 4,0 °C 92 % 1017,8 hPa 0,0 mm 0,7 km/h (0 Bft) NW 313 ° 0 min 0,000 mm 0,0 UV-I 11 W/m² 2,8 °C 4,0 °C 3,2 km/h (1 Bft)
08.11.2017 16:36 3,9 °C 4,0 °C 92 % 1017,8 hPa 0,0 mm 1,0 km/h (0 Bft) NW 313 ° 0 min 0,000 mm 0,0 UV-I 9 W/m² 2,7 °C 3,9 °C 1,6 km/h (1 Bft)
08.11.2017 16:37 4,0 °C 4,0 °C 92 % 1017,7 hPa 0,0 mm 1,5 km/h (1 Bft) NW 313 ° 0 min 0,000 mm 0,0 UV-I 9 W/m² 2,8 °C 4,0 °C 3,2 km/h (1 Bft)
08.11.2017 16:39 4,0 °C 4,0 °C 92 % 1017,7 hPa 0,0 mm 1,1 km/h (1 Bft) NW 313 ° 0 min 0,000 mm 0,0 UV-I 9 W/m² 2,8 °C 4,0 °C 3,2 km/h (1 Bft)
08.11.2017 16:40 3,9 °C 4,0 °C 92 % 1017,7 hPa 0,0 mm 3,7 km/h (1 Bft) NW 304 ° 0 min 0,000 mm 0,0 UV-I 9 W/m² 2,7 °C 3,9 °C 4,8 km/h (1 Bft)
08.11.2017 16:41 3,9 °C 4,0 °C 92 % 1017,7 hPa 0,0 mm 1,7 km/h (1 Bft) NW 304 ° 0 min 0,000 mm 0,0 UV-I 9 W/m² 2,7 °C 3,9 °C 3,2 km/h (1 Bft)
08.11.2017 16:42 3,9 °C 3,9 °C 92 % 1017,7 hPa 0,0 mm 1,3 km/h (1 Bft) NW 304 ° 0 min 0,000 mm 0,0 UV-I 9 W/m² 2,7 °C 3,9 °C 3,2 km/h (1 Bft)
08.11.2017 16:43 3,9 °C 3,9 °C 92 % 1017,7 hPa 0,0 mm 1,3 km/h (1 Bft) NW 304 ° 0 min 0,000 mm 0,0 UV-I 9 W/m² 2,7 °C 3,9 °C 3,2 km/h (1 Bft)
08.11.2017 16:44 3,9 °C 3,9 °C 92 % 1017,7 hPa 0,0 mm 0,0 km/h (0 Bft) NW 304 ° 0 min 0,000 mm 0,0 UV-I 9 W/m² 2,7 °C 3,9 °C 0,0 km/h (0 Bft)
08.11.2017 16:45 3,9 °C 3,9 °C 92 % 1017,7 hPa 0,0 mm 0,0 km/h (0 Bft) NW 304 ° 0 min 0,000 mm 0,0 UV-I 9 W/m² 2,7 °C 3,9 °C 0,0 km/h (0 Bft)
08.11.2017 16:46 3,9 °C 3,9 °C 92 % 1017,7 hPa 0,0 mm 0,0 km/h (0 Bft) NW 304 ° 0 min 0,000 mm 0,0 UV-I 7 W/m² 2,7 °C 3,9 °C 0,0 km/h (0 Bft)
08.11.2017 16:47 3,9 °C 3,9 °C 92 % 1017,7 hPa 0,0 mm 0,0 km/h (0 Bft) NW 304 ° 0 min 0,000 mm 0,0 UV-I 7 W/m² 2,7 °C 3,9 °C 0,0 km/h (0 Bft)
08.11.2017 16:48 3,9 °C 3,9 °C 93 % 1017,7 hPa 0,0 mm 0,0 km/h (0 Bft) NW 304 ° 0 min 0,000 mm 0,0 UV-I 7 W/m² 2,9 °C 3,9 °C 0,0 km/h (0 Bft)
08.11.2017 16:49 3,9 °C 3,9 °C 92 % 1017,7 hPa 0,0 mm 0,0 km/h (0 Bft) NW 304 ° 0 min 0,000 mm 0,0 UV-I 5 W/m² 2,7 °C 3,9 °C 0,0 km/h (0 Bft)
08.11.2017 16:50 3,9 °C 3,9 °C 93 % 1017,7 hPa 0,0 mm 0,0 km/h (0 Bft) NW 304 ° 0 min 0,000 mm 0,0 UV-I 0 W/m² 2,9 °C 3,9 °C 0,0 km/h (0 Bft)
08.11.2017 16:51 3,9 °C 3,9 °C 93 % 1017,8 hPa 0,0 mm 0,0 km/h (0 Bft) NW 304 ° 0 min 0,000 mm 0,0 UV-I 0 W/m² 2,9 °C 3,9 °C 0,0 km/h (0 Bft)
08.11.2017 16:52 3,9 °C 3,9 °C 93 % 1017,8 hPa 0,0 mm 0,0 km/h (0 Bft) NW 304 ° 0 min 0,000 mm 0,0 UV-I 0 W/m² 2,9 °C 3,9 °C 0,0 km/h (0 Bft)
08.11.2017 16:53 3,9 °C 3,9 °C 93 % 1017,8 hPa 0,0 mm 0,3 km/h (0 Bft) NW 304 ° 0 min 0,000 mm 0,0 UV-I 0 W/m² 2,9 °C 3,9 °C 1,6 km/h (1 Bft)
08.11.2017 16:54 3,8 °C 3,9 °C 93 % 1017,8 hPa 0,0 mm 0,0 km/h (0 Bft) NW 304 ° 0 min 0,000 mm 0,0 UV-I 0 W/m² 2,8 °C 3,8 °C 0,0 km/h (0 Bft)
08.11.2017 16:55 3,8 °C 3,8 °C 93 % 1017,8 hPa 0,0 mm 0,0 km/h (0 Bft) NW 304 ° 0 min 0,000 mm 0,0 UV-I 0 W/m² 2,8 °C 3,8 °C 0,0 km/h (0 Bft)
08.11.2017 16:56 3,8 °C 3,8 °C 93 % 1017,8 hPa 0,0 mm 0,0 km/h (0 Bft) NW 304 ° 0 min 0,000 mm 0,0 UV-I 0 W/m² 2,8 °C 3,8 °C 0,0 km/h (0 Bft)
08.11.2017 16:57 3,8 °C 3,8 °C 93 % 1017,8 hPa 0,0 mm 0,0 km/h (0 Bft) NW 304 ° 0 min 0,000 mm 0,0 UV-I 0 W/m² 2,8 °C 3,8 °C 0,0 km/h (0 Bft)
08.11.2017 16:58 3,8 °C 3,8 °C 93 % 1017,8 hPa 0,0 mm 0,0 km/h (0 Bft) NW 304 ° 0 min 0,000 mm 0,0 UV-I 0 W/m² 2,8 °C 3,8 °C 0,0 km/h (0 Bft)
08.11.2017 16:59 3,8 °C 3,8 °C 93 % 1017,8 hPa 0,0 mm 0,0 km/h (0 Bft) NW 304 ° 0 min 0,000 mm 0,0 UV-I 0 W/m² 2,8 °C 3,8 °C 0,0 km/h (0 Bft)
08.11.2017 17:00 3,8 °C 3,8 °C 93 % 1017,8 hPa 0,0 mm 0,7 km/h (0 Bft) NW 304 ° 0 min 0,000 mm 0,0 UV-I 0 W/m² 2,8 °C 3,8 °C 3,2 km/h (1 Bft)
08.11.2017 17:01 3,8 °C 3,8 °C 93 % 1017,8 hPa 0,0 mm 0,9 km/h (0 Bft) NW 304 ° 0 min 0,000 mm 0,0 UV-I 0 W/m² 2,8 °C 3,8 °C 1,6 km/h (1 Bft)
08.11.2017 17:02 3,8 °C 3,8 °C 93 % 1017,8 hPa 0,0 mm 0,0 km/h (0 Bft) NW 304 ° 0 min 0,000 mm 0,0 UV-I 0 W/m² 2,8 °C 3,8 °C 0,0 km/h (0 Bft)
08.11.2017 17:04 3,7 °C 3,8 °C 93 % 1017,8 hPa 0,0 mm 0,9 km/h (0 Bft) NW 304 ° 0 min 0,000 mm 0,0 UV-I 0 W/m² 2,7 °C 3,7 °C 3,2 km/h (1 Bft)
08.11.2017 17:05 3,7 °C 3,7 °C 93 % 1017,8 hPa 0,0 mm 1,8 km/h (1 Bft) NW 304 ° 0 min 0,000 mm 0,0 UV-I 0 W/m² 2,7 °C 3,7 °C 3,2 km/h (1 Bft)
08.11.2017 17:06 3,7 °C 3,7 °C 93 % 1017,9 hPa 0,0 mm 1,1 km/h (1 Bft) NW 304 ° 0 min 0,000 mm 0,0 UV-I 0 W/m² 2,7 °C 3,7 °C 1,6 km/h (1 Bft)
08.11.2017 17:07 3,7 °C 3,7 °C 93 % 1017,8 hPa 0,0 mm 1,2 km/h (1 Bft) NW 304 ° 0 min 0,000 mm 0,0 UV-I 0 W/m² 2,7 °C 3,7 °C 1,6 km/h (1 Bft)
08.11.2017 17:08 3,7 °C 3,7 °C 93 % 1017,9 hPa 0,0 mm 0,3 km/h (0 Bft) NW 304 ° 0 min 0,000 mm 0,0 UV-I 0 W/m² 2,7 °C 3,7 °C 1,6 km/h (1 Bft)
08.11.2017 17:09 3,7 °C 3,7 °C 93 % 1017,9 hPa 0,0 mm 0,1 km/h (0 Bft) NW 304 ° 0 min 0,000 mm 0,0 UV-I 0 W/m² 2,7 °C 3,7 °C 1,6 km/h (1 Bft)
08.11.2017 17:10 3,7 °C 3,7 °C 93 % 1017,9 hPa 0,0 mm 0,0 km/h (0 Bft) NW 304 ° 0 min 0,000 mm 0,0 UV-I 0 W/m² 2,7 °C 3,7 °C 0,0 km/h (0 Bft)
08.11.2017 17:11 3,7 °C 3,7 °C 93 % 1017,9 hPa 0,0 mm 0,0 km/h (0 Bft) NW 304 ° 0 min 0,000 mm 0,0 UV-I 0 W/m² 2,7 °C 3,7 °C 0,0 km/h (0 Bft)
08.11.2017 17:12 3,7 °C 3,7 °C 93 % 1017,9 hPa 0,0 mm 0,0 km/h (0 Bft) NW 304 ° 0 min 0,000 mm 0,0 UV-I 0 W/m² 2,7 °C 3,7 °C 0,0 km/h (0 Bft)
08.11.2017 17:13 3,7 °C 3,7 °C 93 % 1017,9 hPa 0,0 mm 0,0 km/h (0 Bft) NW 304 ° 0 min 0,000 mm 0,0 UV-I 0 W/m² 2,7 °C 3,7 °C 0,0 km/h (0 Bft)
08.11.2017 17:14 3,7 °C 3,7 °C 93 % 1017,9 hPa 0,0 mm 0,0 km/h (0 Bft) NW 304 ° 0 min 0,000 mm 0,0 UV-I 0 W/m² 2,7 °C 3,7 °C 0,0 km/h (0 Bft)
08.11.2017 17:15 3,7 °C 3,7 °C 93 % 1017,9 hPa 0,0 mm 0,0 km/h (0 Bft) NW 304 ° 0 min 0,000 mm 0,0 UV-I 0 W/m² 2,7 °C 3,7 °C 0,0 km/h (0 Bft)
08.11.2017 17:16 3,7 °C 3,7 °C 93 % 1017,9 hPa 0,0 mm 0,0 km/h (0 Bft) NW 304 ° 0 min 0,000 mm 0,0 UV-I 0 W/m² 2,7 °C 3,7 °C 0,0 km/h (0 Bft)
08.11.2017 17:17 3,7 °C 3,7 °C 93 % 1017,9 hPa 0,0 mm 0,0 km/h (0 Bft) NW 304 ° 0 min 0,000 mm 0,0 UV-I 0 W/m² 2,7 °C 3,7 °C 0,0 km/h (0 Bft)
08.11.2017 17:18 3,7 °C 3,7 °C 93 % 1018,0 hPa 0,0 mm 0,0 km/h (0 Bft) NW 304 ° 0 min 0,000 mm 0,0 UV-I 0 W/m² 2,7 °C 3,7 °C 0,0 km/h (0 Bft)
08.11.2017 17:19 3,7 °C 3,7 °C 93 % 1018,0 hPa 0,0 mm 0,0 km/h (0 Bft) NW 304 ° 0 min 0,000 mm 0,0 UV-I 0 W/m² 2,7 °C 3,7 °C 0,0 km/h (0 Bft)
08.11.2017 17:20 3,7 °C 3,7 °C 93 % 1018,0 hPa 0,0 mm 0,0 km/h (0 Bft) NW 304 ° 0 min 0,000 mm 0,0 UV-I 0 W/m² 2,7 °C 3,7 °C 0,0 km/h (0 Bft)
08.11.2017 17:21 3,7 °C 3,7 °C 93 % 1018,0 hPa 0,0 mm 0,0 km/h (0 Bft) NW 304 ° 0 min 0,000 mm 0,0 UV-I 0 W/m² 2,7 °C 3,7 °C 0,0 km/h (0 Bft)
08.11.2017 17:22 3,7 °C 3,7 °C 93 % 1018,0 hPa 0,0 mm 0,0 km/h (0 Bft) NW 304 ° 0 min 0,000 mm 0,0 UV-I 0 W/m² 2,7 °C 3,7 °C 0,0 km/h (0 Bft)
08.11.2017 17:23 3,7 °C 3,7 °C 93 % 1018,0 hPa 0,0 mm 0,0 km/h (0 Bft) NW 304 ° 0 min 0,000 mm 0,0 UV-I 0 W/m² 2,7 °C 3,7 °C 0,0 km/h (0 Bft)
08.11.2017 17:24 3,7 °C 3,7 °C 93 % 1018,0 hPa 0,0 mm 0,0 km/h (0 Bft) NW 304 ° 0 min 0,000 mm 0,0 UV-I 0 W/m² 2,7 °C 3,7 °C 0,0 km/h (0 Bft)
08.11.2017 17:25 3,7 °C 3,7 °C 93 % 1018,1 hPa 0,0 mm 0,0 km/h (0 Bft) NW 304 ° 0 min 0,000 mm 0,0 UV-I 0 W/m² 2,7 °C 3,7 °C 0,0 km/h (0 Bft)
08.11.2017 17:26 3,7 °C 3,7 °C 93 % 1018,1 hPa 0,0 mm 0,0 km/h (0 Bft) NW 304 ° 0 min 0,000 mm 0,0 UV-I 0 W/m² 2,7 °C 3,7 °C 0,0 km/h (0 Bft)
08.11.2017 17:27 3,7 °C 3,7 °C 93 % 1018,0 hPa 0,0 mm 0,0 km/h (0 Bft) NW 304 ° 0 min 0,000 mm 0,0 UV-I 0 W/m² 2,7 °C 3,7 °C 0,0 km/h (0 Bft)
08.11.2017 17:28 3,7 °C 3,7 °C 93 % 1018,1 hPa 0,0 mm 0,0 km/h (0 Bft) NW 304 ° 0 min 0,000 mm 0,0 UV-I 0 W/m² 2,7 °C 3,7 °C 0,0 km/h (0 Bft)
08.11.2017 17:29 3,7 °C 3,7 °C 93 % 1018,0 hPa 0,0 mm 0,0 km/h (0 Bft) NW 304 ° 0 min 0,000 mm 0,0 UV-I 0 W/m² 2,7 °C 3,7 °C 0,0 km/h (0 Bft)
08.11.2017 17:30 3,7 °C 3,7 °C 93 % 1018,0 hPa 0,0 mm 0,0 km/h (0 Bft) NW 304 ° 0 min 0,000 mm 0,0 UV-I 0 W/m² 2,7 °C 3,7 °C 0,0 km/h (0 Bft)
08.11.2017 17:31 3,6 °C 3,7 °C 93 % 1018,1 hPa 0,0 mm 0,0 km/h (0 Bft) NW 304 ° 0 min 0,000 mm 0,0 UV-I 0 W/m² 2,6 °C 3,6 °C 0,0 km/h (0 Bft)
08.11.2017 17:32 3,6 °C 3,7 °C 93 % 1018,1 hPa 0,0 mm 0,0 km/h (0 Bft) NW 304 ° 0 min 0,000 mm 0,0 UV-I 0 W/m² 2,6 °C 3,6 °C 0,0 km/h (0 Bft)
08.11.2017 17:33 3,6 °C 3,7 °C 93 % 1018,1 hPa 0,0 mm 0,0 km/h (0 Bft) NW 304 ° 0 min 0,000 mm 0,0 UV-I 0 W/m² 2,6 °C 3,6 °C 0,0 km/h (0 Bft)
08.11.2017 17:34 3,7 °C 3,7 °C 94 % 1018,1 hPa 0,0 mm 0,0 km/h (0 Bft) NW 304 ° 0 min 0,000 mm 0,0 UV-I 0 W/m² 2,8 °C 3,7 °C 0,0 km/h (0 Bft)
08.11.2017 17:35 3,7 °C 3,7 °C 94 % 1018,1 hPa 0,0 mm 0,0 km/h (0 Bft) NW 304 ° 0 min 0,000 mm 0,0 UV-I 0 W/m² 2,8 °C 3,7 °C 0,0 km/h (0 Bft)
08.11.2017 17:36 3,7 °C 3,7 °C 94 % 1018,1 hPa 0,0 mm 0,0 km/h (0 Bft) NW 304 ° 0 min 0,000 mm 0,0 UV-I 0 W/m² 2,8 °C 3,7 °C 0,0 km/h (0 Bft)
08.11.2017 17:37 3,7 °C 3,7 °C 94 % 1018,1 hPa 0,0 mm 0,0 km/h (0 Bft) NW 304 ° 0 min 0,000 mm 0,0 UV-I 0 W/m² 2,8 °C 3,7 °C 0,0 km/h (0 Bft)
08.11.2017 17:38 3,6 °C 3,7 °C 94 % 1018,1 hPa 0,0 mm 0,0 km/h (0 Bft) NW 304 ° 0 min 0,000 mm 0,0 UV-I 0 W/m² 2,7 °C 3,6 °C 0,0 km/h (0 Bft)
08.11.2017 17:39 3,6 °C 3,6 °C 94 % 1018,1 hPa 0,0 mm 0,0 km/h (0 Bft) NW 304 ° 0 min 0,000 mm 0,0 UV-I 0 W/m² 2,7 °C 3,6 °C 0,0 km/h (0 Bft)
08.11.2017 17:40 3,6 °C 3,6 °C 94 % 1018,1 hPa 0,0 mm 0,0 km/h (0 Bft) NW 304 ° 0 min 0,000 mm 0,0 UV-I 0 W/m² 2,7 °C 3,6 °C 0,0 km/h (0 Bft)
08.11.2017 17:41 3,6 °C 3,7 °C 94 % 1018,1 hPa 0,0 mm 0,5 km/h (0 Bft) NW 304 ° 0 min 0,000 mm 0,0 UV-I 0 W/m² 2,7 °C 3,6 °C 1,6 km/h (1 Bft)
08.11.2017 17:42 3,7 °C 3,7 °C 94 % 1018,1 hPa 0,0 mm 1,4 km/h (1 Bft) NW 304 ° 0 min 0,000 mm 0,0 UV-I 0 W/m² 2,8 °C 3,7 °C 3,2 km/h (1 Bft)
08.11.2017 17:43 3,6 °C 3,7 °C 94 % 1018,2 hPa 0,0 mm 1,1 km/h (1 Bft) NW 304 ° 0 min 0,000 mm 0,0 UV-I 0 W/m² 2,7 °C 3,6 °C 1,6 km/h (1 Bft)
08.11.2017 17:44 3,6 °C 3,6 °C 94 % 1018,2 hPa 0,0 mm 0,6 km/h (0 Bft) NW 304 ° 0 min 0,000 mm 0,0 UV-I 0 W/m² 2,7 °C 3,6 °C 1,6 km/h (1 Bft)
08.11.2017 17:45 3,6 °C 3,6 °C 94 % 1018,2 hPa 0,0 mm 1,1 km/h (1 Bft) NW 304 ° 0 min 0,000 mm 0,0 UV-I 0 W/m² 2,7 °C 3,6 °C 1,6 km/h (1 Bft)
08.11.2017 17:46 3,6 °C 3,7 °C 94 % 1018,3 hPa 0,0 mm 0,6 km/h (0 Bft) NW 304 ° 0 min 0,000 mm 0,0 UV-I 0 W/m² 2,7 °C 3,6 °C 1,6 km/h (1 Bft)
08.11.2017 17:47 3,6 °C 3,7 °C 94 % 1018,3 hPa 0,0 mm 1,2 km/h (1 Bft) NW 304 ° 0 min 0,000 mm 0,0 UV-I 0 W/m² 2,7 °C 3,6 °C 1,6 km/h (1 Bft)
08.11.2017 17:48 3,6 °C 3,7 °C 94 % 1018,3 hPa 0,0 mm 0,8 km/h (0 Bft) NW 304 ° 0 min 0,000 mm 0,0 UV-I 0 W/m² 2,7 °C 3,6 °C 1,6 km/h (1 Bft)
08.11.2017 17:49 3,6 °C 3,6 °C 94 % 1018,2 hPa 0,0 mm 0,9 km/h (0 Bft) NW 304 ° 0 min 0,000 mm 0,0 UV-I 0 W/m² 2,7 °C 3,6 °C 1,6 km/h (1 Bft)
08.11.2017 17:50 3,6 °C 3,6 °C 94 % 1018,3 hPa 0,0 mm 1,0 km/h (0 Bft) NW 304 ° 0 min 0,000 mm 0,0 UV-I 0 W/m² 2,7 °C 3,6 °C 1,6 km/h (1 Bft)
08.11.2017 17:51 3,6 °C 3,6 °C 94 % 1018,3 hPa 0,0 mm 1,3 km/h (1 Bft) NW 304 ° 0 min 0,000 mm 0,0 UV-I 0 W/m² 2,7 °C 3,6 °C 1,6 km/h (1 Bft)
08.11.2017 17:52 3,6 °C 3,6 °C 94 % 1018,3 hPa 0,0 mm 0,9 km/h (0 Bft) NW 304 ° 0 min 0,000 mm 0,0 UV-I 0 W/m² 2,7 °C 3,6 °C 1,6 km/h (1 Bft)
08.11.2017 17:53 3,6 °C 3,6 °C 94 % 1018,3 hPa 0,0 mm 0,9 km/h (0 Bft) NW 304 ° 0 min 0,000 mm 0,0 UV-I 0 W/m² 2,7 °C 3,6 °C 1,6 km/h (1 Bft)
08.11.2017 17:54 3,6 °C 3,6 °C 94 % 1018,3 hPa 0,0 mm 0,0 km/h (0 Bft) NW 304 ° 0 min 0,000 mm 0,0 UV-I 0 W/m² 2,7 °C 3,6 °C 0,0 km/h (0 Bft)
08.11.2017 17:55 3,6 °C 3,6 °C 94 % 1018,3 hPa 0,0 mm 0,0 km/h (0 Bft) NW 304 ° 0 min 0,000 mm 0,0 UV-I 0 W/m² 2,7 °C 3,6 °C 0,0 km/h (0 Bft)
08.11.2017 17:56 3,6 °C 3,6 °C 94 % 1018,3 hPa 0,0 mm 0,0 km/h (0 Bft) NW 304 ° 0 min 0,000 mm 0,0 UV-I 0 W/m² 2,7 °C 3,6 °C 0,0 km/h (0 Bft)
08.11.2017 17:57 3,6 °C 3,6 °C 94 % 1018,3 hPa 0,0 mm 0,0 km/h (0 Bft) NW 304 ° 0 min 0,000 mm 0,0 UV-I 0 W/m² 2,7 °C 3,6 °C 0,0 km/h (0 Bft)
08.11.2017 17:58 3,6 °C 3,6 °C 94 % 1018,3 hPa 0,0 mm 0,0 km/h (0 Bft) NW 304 ° 0 min 0,000 mm 0,0 UV-I 0 W/m² 2,7 °C 3,6 °C 0,0 km/h (0 Bft)
08.11.2017 17:59 3,6 °C 3,6 °C 94 % 1018,3 hPa 0,0 mm 0,0 km/h (0 Bft) NW 304 ° 0 min 0,000 mm 0,0 UV-I 0 W/m² 2,7 °C 3,6 °C 0,0 km/h (0 Bft)
08.11.2017 18:00 3,6 °C 3,6 °C 94 % 1018,3 hPa 0,0 mm 0,0 km/h (0 Bft) NW 304 ° 0 min 0,000 mm 0,0 UV-I 0 W/m² 2,7 °C 3,6 °C 0,0 km/h (0 Bft)
08.11.2017 18:01 3,6 °C 3,6 °C 94 % 1018,3 hPa 0,0 mm 0,0 km/h (0 Bft) NW 304 ° 0 min 0,000 mm 0,0 UV-I 0 W/m² 2,7 °C 3,6 °C 0,0 km/h (0 Bft)
08.11.2017 18:02 3,6 °C 3,6 °C 94 % 1018,3 hPa 0,0 mm 0,0 km/h (0 Bft) NW 304 ° 0 min 0,000 mm 0,0 UV-I 0 W/m² 2,7 °C 3,6 °C 0,0 km/h (0 Bft)
08.11.2017 18:03 3,6 °C 3,6 °C 94 % 1018,3 hPa 0,0 mm 0,0 km/h (0 Bft) NW 304 ° 0 min 0,000 mm 0,0 UV-I 0 W/m² 2,7 °C 3,6 °C 0,0 km/h (0 Bft)
08.11.2017 18:04 3,6 °C 3,6 °C 94 % 1018,3 hPa 0,0 mm 0,0 km/h (0 Bft) NW 304 ° 0 min 0,000 mm 0,0 UV-I 0 W/m² 2,7 °C 3,6 °C 0,0 km/h (0 Bft)
08.11.2017 18:05 3,6 °C 3,6 °C 94 % 1018,4 hPa 0,0 mm 0,0 km/h (0 Bft) NW 304 ° 0 min 0,000 mm 0,0 UV-I 0 W/m² 2,7 °C 3,6 °C 0,0 km/h (0 Bft)
08.11.2017 18:06 3,6 °C 3,6 °C 94 % 1018,3 hPa 0,0 mm 0,0 km/h (0 Bft) NW 304 ° 0 min 0,000 mm 0,0 UV-I 0 W/m² 2,7 °C 3,6 °C 0,0 km/h (0 Bft)
08.11.2017 18:07 3,5 °C 3,6 °C 94 % 1018,3 hPa 0,0 mm 0,0 km/h (0 Bft) NW 304 ° 0 min 0,000 mm 0,0 UV-I 0 W/m² 2,6 °C 3,5 °C 0,0 km/h (0 Bft)
08.11.2017 18:08 3,6 °C 3,6 °C 94 % 1018,3 hPa 0,0 mm 0,0 km/h (0 Bft) NW 304 ° 0 min 0,000 mm 0,0 UV-I 0 W/m² 2,7 °C 3,6 °C 0,0 km/h (0 Bft)
08.11.2017 18:09 3,5 °C 3,6 °C 94 % 1018,3 hPa 0,0 mm 0,0 km/h (0 Bft) NW 304 ° 0 min 0,000 mm 0,0 UV-I 0 W/m² 2,6 °C 3,5 °C 0,0 km/h (0 Bft)
08.11.2017 18:10 3,5 °C 3,6 °C 94 % 1018,3 hPa 0,0 mm 0,0 km/h (0 Bft) NW 304 ° 0 min 0,000 mm 0,0 UV-I 0 W/m² 2,6 °C 3,5 °C 0,0 km/h (0 Bft)
08.11.2017 18:11 3,6 °C 3,6 °C 94 % 1018,3 hPa 0,0 mm 0,0 km/h (0 Bft) NW 304 ° 0 min 0,000 mm 0,0 UV-I 0 W/m² 2,7 °C 3,6 °C 0,0 km/h (0 Bft)
08.11.2017 18:12 3,6 °C 3,6 °C 94 % 1018,3 hPa 0,0 mm 0,0 km/h (0 Bft) NW 304 ° 0 min 0,000 mm 0,0 UV-I 0 W/m² 2,7 °C 3,6 °C 0,0 km/h (0 Bft)
08.11.2017 18:13 3,6 °C 3,6 °C 94 % 1018,4 hPa 0,0 mm 0,0 km/h (0 Bft) NW 304 ° 0 min 0,000 mm 0,0 UV-I 0 W/m² 2,7 °C 3,6 °C 0,0 km/h (0 Bft)
08.11.2017 18:14 3,6 °C 3,6 °C 94 % 1018,3 hPa 0,0 mm 0,0 km/h (0 Bft) NW 304 ° 0 min 0,000 mm 0,0 UV-I 0 W/m² 2,7 °C 3,6 °C 0,0 km/h (0 Bft)
08.11.2017 18:15 3,5 °C 3,6 °C 94 % 1018,3 hPa 0,0 mm 0,0 km/h (0 Bft) NW 304 ° 0 min 0,000 mm 0,0 UV-I 0 W/m² 2,6 °C 3,5 °C 0,0 km/h (0 Bft)
08.11.2017 18:16 3,5 °C 3,6 °C 94 % 1018,3 hPa 0,0 mm 0,0 km/h (0 Bft) NW 304 ° 0 min 0,000 mm 0,0 UV-I 0 W/m² 2,6 °C 3,5 °C 0,0 km/h (0 Bft)
08.11.2017 18:17 3,5 °C 3,5 °C 94 % 1018,4 hPa 0,0 mm 0,0 km/h (0 Bft) NW 304 ° 0 min 0,000 mm 0,0 UV-I 0 W/m² 2,6 °C 3,5 °C 0,0 km/h (0 Bft)
08.11.2017 18:18 3,5 °C 3,5 °C 94 % 1018,4 hPa 0,0 mm 0,0 km/h (0 Bft) NW 304 ° 0 min 0,000 mm 0,0 UV-I 0 W/m² 2,6 °C 3,5 °C 0,0 km/h (0 Bft)
08.11.2017 18:19 3,5 °C 3,5 °C 94 % 1018,4 hPa 0,0 mm 0,0 km/h (0 Bft) NW 304 ° 0 min 0,000 mm 0,0 UV-I 0 W/m² 2,6 °C 3,5 °C 0,0 km/h (0 Bft)
08.11.2017 18:20 3,5 °C 3,6 °C 94 % 1018,4 hPa 0,0 mm 0,0 km/h (0 Bft) NW 304 ° 0 min 0,000 mm 0,0 UV-I 0 W/m² 2,6 °C 3,5 °C 0,0 km/h (0 Bft)
08.11.2017 18:21 3,5 °C 3,5 °C 94 % 1018,4 hPa 0,0 mm 0,0 km/h (0 Bft) NW 304 ° 0 min 0,000 mm 0,0 UV-I 0 W/m² 2,6 °C 3,5 °C 0,0 km/h (0 Bft)
08.11.2017 18:22 3,5 °C 3,5 °C 94 % 1018,4 hPa 0,0 mm 0,0 km/h (0 Bft) NW 304 ° 0 min 0,000 mm 0,0 UV-I 0 W/m² 2,6 °C 3,5 °C 0,0 km/h (0 Bft)
08.11.2017 18:23 3,5 °C 3,6 °C 94 % 1018,4 hPa 0,0 mm 0,0 km/h (0 Bft) NW 304 ° 0 min 0,000 mm 0,0 UV-I 0 W/m² 2,6 °C 3,5 °C 0,0 km/h (0 Bft)
08.11.2017 18:24 3,5 °C 3,5 °C 94 % 1018,5 hPa 0,0 mm 0,0 km/h (0 Bft) NW 304 ° 0 min 0,000 mm 0,0 UV-I 0 W/m² 2,6 °C 3,5 °C 0,0 km/h (0 Bft)
08.11.2017 18:25 3,5 °C 3,5 °C 94 % 1018,5 hPa 0,0 mm 0,0 km/h (0 Bft) NW 304 ° 0 min 0,000 mm 0,0 UV-I 0 W/m² 2,6 °C 3,5 °C 0,0 km/h (0 Bft)
08.11.2017 18:26 3,5 °C 3,6 °C 94 % 1018,5 hPa 0,0 mm 0,0 km/h (0 Bft) NW 304 ° 0 min 0,000 mm 0,0 UV-I 0 W/m² 2,6 °C 3,5 °C 0,0 km/h (0 Bft)
08.11.2017 18:27 3,5 °C 3,5 °C 94 % 1018,5 hPa 0,0 mm 0,0 km/h (0 Bft) NW 304 ° 0 min 0,000 mm 0,0 UV-I 0 W/m² 2,6 °C 3,5 °C 0,0 km/h (0 Bft)
08.11.2017 18:28 3,5 °C 3,5 °C 94 % 1018,5 hPa 0,0 mm 0,0 km/h (0 Bft) NW 304 ° 0 min 0,000 mm 0,0 UV-I 0 W/m² 2,6 °C 3,5 °C 0,0 km/h (0 Bft)
08.11.2017 18:29 3,5 °C 3,5 °C 94 % 1018,5 hPa 0,0 mm 0,0 km/h (0 Bft) NW 304 ° 0 min 0,000 mm 0,0 UV-I 0 W/m² 2,6 °C 3,5 °C 0,0 km/h (0 Bft)
08.11.2017 18:30 3,5 °C 3,5 °C 94 % 1018,5 hPa 0,0 mm 0,0 km/h (0 Bft) NW 304 ° 0 min 0,000 mm 0,0 UV-I 0 W/m² 2,6 °C 3,5 °C 0,0 km/h (0 Bft)
08.11.2017 18:31 3,5 °C 3,5 °C 94 % 1018,5 hPa 0,0 mm 0,0 km/h (0 Bft) NW 304 ° 0 min 0,000 mm 0,0 UV-I 0 W/m² 2,6 °C 3,5 °C 0,0 km/h (0 Bft)
08.11.2017 18:32 3,5 °C 3,5 °C 94 % 1018,5 hPa 0,0 mm 0,0 km/h (0 Bft) NW 304 ° 0 min 0,000 mm 0,0 UV-I 0 W/m² 2,6 °C 3,5 °C 0,0 km/h (0 Bft)
08.11.2017 18:33 3,4 °C 3,5 °C 94 % 1018,5 hPa 0,0 mm 0,0 km/h (0 Bft) NW 304 ° 0 min 0,000 mm 0,0 UV-I 0 W/m² 2,5 °C 3,4 °C 0,0 km/h (0 Bft)
08.11.2017 18:34 3,4 °C 3,5 °C 94 % 1018,5 hPa 0,0 mm 0,0 km/h (0 Bft) NW 304 ° 0 min 0,000 mm 0,0 UV-I 0 W/m² 2,5 °C 3,4 °C 0,0 km/h (0 Bft)
08.11.2017 18:35 3,4 °C 3,5 °C 94 % 1018,5 hPa 0,0 mm 0,0 km/h (0 Bft) NW 304 ° 0 min 0,000 mm 0,0 UV-I 0 W/m² 2,5 °C 3,4 °C 0,0 km/h (0 Bft)
08.11.2017 18:36 3,4 °C 3,5 °C 94 % 1018,5 hPa 0,0 mm 0,0 km/h (0 Bft) NW 304 ° 0 min 0,000 mm 0,0 UV-I 0 W/m² 2,5 °C 3,4 °C 0,0 km/h (0 Bft)
08.11.2017 18:37 3,4 °C 3,5 °C 94 % 1018,6 hPa 0,0 mm 0,0 km/h (0 Bft) NW 304 ° 0 min 0,000 mm 0,0 UV-I 0 W/m² 2,5 °C 3,4 °C 0,0 km/h (0 Bft)
08.11.2017 18:38 3,4 °C 3,4 °C 94 % 1018,5 hPa 0,0 mm 0,0 km/h (0 Bft) NW 304 ° 0 min 0,000 mm 0,0 UV-I 0 W/m² 2,5 °C 3,4 °C 0,0 km/h (0 Bft)
08.11.2017 18:39 3,4 °C 3,4 °C 94 % 1018,6 hPa 0,0 mm 0,0 km/h (0 Bft) NW 304 ° 0 min 0,000 mm 0,0 UV-I 0 W/m² 2,5 °C 3,4 °C 0,0 km/h (0 Bft)
08.11.2017 18:40 3,4 °C 3,4 °C 94 % 1018,6 hPa 0,0 mm 0,0 km/h (0 Bft) NW 304 ° 0 min 0,000 mm 0,0 UV-I 0 W/m² 2,5 °C 3,4 °C 0,0 km/h (0 Bft)
08.11.2017 18:41 3,4 °C 3,4 °C 94 % 1018,6 hPa 0,0 mm 0,0 km/h (0 Bft) NW 304 ° 0 min 0,000 mm 0,0 UV-I 0 W/m² 2,5 °C 3,4 °C 0,0 km/h (0 Bft)
08.11.2017 18:42 3,4 °C 3,4 °C 94 % 1018,6 hPa 0,0 mm 0,0 km/h (0 Bft) NW 304 ° 0 min 0,000 mm 0,0 UV-I 0 W/m² 2,5 °C 3,4 °C 0,0 km/h (0 Bft)
08.11.2017 18:43 3,4 °C 3,4 °C 94 % 1018,6 hPa 0,0 mm 0,0 km/h (0 Bft) NW 304 ° 0 min 0,000 mm 0,0 UV-I 0 W/m² 2,5 °C 3,4 °C 0,0 km/h (0 Bft)
08.11.2017 18:44 3,4 °C 3,4 °C 94 % 1018,6 hPa 0,0 mm 0,0 km/h (0 Bft) NW 304 ° 0 min 0,000 mm 0,0 UV-I 0 W/m² 2,5 °C 3,4 °C 0,0 km/h (0 Bft)
08.11.2017 18:45 3,4 °C 3,4 °C 94 % 1018,6 hPa 0,0 mm 0,0 km/h (0 Bft) NW 304 ° 0 min 0,000 mm 0,0 UV-I 0 W/m² 2,5 °C 3,4 °C 0,0 km/h (0 Bft)
08.11.2017 18:46 3,4 °C 3,4 °C 94 % 1018,5 hPa 0,0 mm 0,0 km/h (0 Bft) NW 304 ° 0 min 0,000 mm 0,0 UV-I 0 W/m² 2,5 °C 3,4 °C 0,0 km/h (0 Bft)
08.11.2017 18:47 3,4 °C 3,4 °C 94 % 1018,6 hPa 0,0 mm 0,0 km/h (0 Bft) NW 304 ° 0 min 0,000 mm 0,0 UV-I 0 W/m² 2,5 °C 3,4 °C 0,0 km/h (0 Bft)
08.11.2017 18:48 3,4 °C 3,4 °C 94 % 1018,6 hPa 0,0 mm 0,0 km/h (0 Bft) NW 304 ° 0 min 0,000 mm 0,0 UV-I 0 W/m² 2,5 °C 3,4 °C 0,0 km/h (0 Bft)
08.11.2017 18:49 3,4 °C 3,4 °C 94 % 1018,7 hPa 0,0 mm 0,0 km/h (0 Bft) NW 304 ° 0 min 0,000 mm 0,0 UV-I 0 W/m² 2,5 °C 3,4 °C 0,0 km/h (0 Bft)
08.11.2017 18:50 3,4 °C 3,4 °C 94 % 1018,7 hPa 0,0 mm 0,0 km/h (0 Bft) NW 304 ° 0 min 0,000 mm 0,0 UV-I 0 W/m² 2,5 °C 3,4 °C 0,0 km/h (0 Bft)
08.11.2017 18:51 3,4 °C 3,4 °C 94 % 1018,7 hPa 0,0 mm 0,0 km/h (0 Bft) NW 304 ° 0 min 0,000 mm 0,0 UV-I 0 W/m² 2,5 °C 3,4 °C 0,0 km/h (0 Bft)
08.11.2017 18:52 3,4 °C 3,4 °C 94 % 1018,7 hPa 0,0 mm 0,0 km/h (0 Bft) NW 304 ° 0 min 0,000 mm 0,0 UV-I 0 W/m² 2,5 °C 3,4 °C 0,0 km/h (0 Bft)
08.11.2017 18:53 3,4 °C 3,4 °C 94 % 1018,7 hPa 0,0 mm 0,0 km/h (0 Bft) NW 304 ° 0 min 0,000 mm 0,0 UV-I 0 W/m² 2,5 °C 3,4 °C 0,0 km/h (0 Bft)
08.11.2017 18:54 3,4 °C 3,4 °C 94 % 1018,7 hPa 0,0 mm 0,0 km/h (0 Bft) NW 304 ° 0 min 0,000 mm 0,0 UV-I 0 W/m² 2,5 °C 3,4 °C 0,0 km/h (0 Bft)
08.11.2017 18:55 3,4 °C 3,4 °C 94 % 1018,7 hPa 0,0 mm 0,0 km/h (0 Bft) NW 304 ° 0 min 0,000 mm 0,0 UV-I 0 W/m² 2,5 °C 3,4 °C 0,0 km/h (0 Bft)
08.11.2017 18:56 3,4 °C 3,4 °C 94 % 1018,7 hPa 0,0 mm 0,0 km/h (0 Bft) NW 304 ° 0 min 0,000 mm 0,0 UV-I 0 W/m² 2,5 °C 3,4 °C 0,0 km/h (0 Bft)
08.11.2017 18:57 3,4 °C 3,4 °C 94 % 1018,7 hPa 0,0 mm 0,0 km/h (0 Bft) NW 304 ° 0 min 0,000 mm 0,0 UV-I 0 W/m² 2,5 °C 3,4 °C 0,0 km/h (0 Bft)
08.11.2017 18:58 3,4 °C 3,4 °C 94 % 1018,7 hPa 0,0 mm 0,0 km/h (0 Bft) NW 304 ° 0 min 0,000 mm 0,0 UV-I 0 W/m² 2,5 °C 3,4 °C 0,0 km/h (0 Bft)
08.11.2017 18:59 3,4 °C 3,4 °C 94 % 1018,7 hPa 0,0 mm 0,0 km/h (0 Bft) NW 304 ° 0 min 0,000 mm 0,0 UV-I 0 W/m² 2,5 °C 3,4 °C 0,0 km/h (0 Bft)
08.11.2017 19:00 3,4 °C 3,4 °C 94 % 1018,7 hPa 0,0 mm 0,0 km/h (0 Bft) NW 304 ° 0 min 0,000 mm 0,0 UV-I 0 W/m² 2,5 °C 3,4 °C 0,0 km/h (0 Bft)
08.11.2017 19:01 3,4 °C 3,4 °C 94 % 1018,7 hPa 0,0 mm 0,0 km/h (0 Bft) NW 304 ° 0 min 0,000 mm 0,0 UV-I 0 W/m² 2,5 °C 3,4 °C 0,0 km/h (0 Bft)
08.11.2017 19:02 3,4 °C 3,4 °C 94 % 1018,7 hPa 0,0 mm 0,0 km/h (0 Bft) NW 304 ° 0 min 0,000 mm 0,0 UV-I 0 W/m² 2,5 °C 3,4 °C 0,0 km/h (0 Bft)
08.11.2017 19:03 3,4 °C 3,4 °C 94 % 1018,7 hPa 0,0 mm 0,0 km/h (0 Bft) NW 304 ° 0 min 0,000 mm 0,0 UV-I 0 W/m² 2,5 °C 3,4 °C 0,0 km/h (0 Bft)
08.11.2017 19:04 3,3 °C 3,4 °C 94 % 1018,7 hPa 0,0 mm 0,0 km/h (0 Bft) NW 304 ° 0 min 0,000 mm 0,0 UV-I 0 W/m² 2,4 °C 3,3 °C 0,0 km/h (0 Bft)
08.11.2017 19:05 3,4 °C 3,4 °C 94 % 1018,7 hPa 0,0 mm 0,0 km/h (0 Bft) NW 304 ° 0 min 0,000 mm 0,0 UV-I 0 W/m² 2,5 °C 3,4 °C 0,0 km/h (0 Bft)
08.11.2017 19:06 3,4 °C 3,4 °C 94 % 1018,8 hPa 0,0 mm 0,0 km/h (0 Bft) NW 304 ° 0 min 0,000 mm 0,0 UV-I 0 W/m² 2,5 °C 3,4 °C 0,0 km/h (0 Bft)
08.11.2017 19:07 3,3 °C 3,4 °C 94 % 1018,7 hPa 0,0 mm 0,0 km/h (0 Bft) NW 304 ° 0 min 0,000 mm 0,0 UV-I 0 W/m² 2,4 °C 3,3 °C 0,0 km/h (0 Bft)
08.11.2017 19:08 3,4 °C 3,4 °C 94 % 1018,7 hPa 0,0 mm 0,0 km/h (0 Bft) NW 304 ° 0 min 0,000 mm 0,0 UV-I 0 W/m² 2,5 °C 3,4 °C 0,0 km/h (0 Bft)
08.11.2017 19:09 3,3 °C 3,4 °C 94 % 1018,8 hPa 0,0 mm 0,0 km/h (0 Bft) NW 304 ° 0 min 0,000 mm 0,0 UV-I 0 W/m² 2,4 °C 3,3 °C 0,0 km/h (0 Bft)
08.11.2017 19:10 3,3 °C 3,4 °C 94 % 1018,7 hPa 0,0 mm 0,0 km/h (0 Bft) NW 304 ° 0 min 0,000 mm 0,0 UV-I 0 W/m² 2,4 °C 3,3 °C 0,0 km/h (0 Bft)
08.11.2017 19:11 3,3 °C 3,3 °C 94 % 1018,8 hPa 0,0 mm 0,0 km/h (0 Bft) NW 304 ° 0 min 0,000 mm 0,0 UV-I 0 W/m² 2,4 °C 3,3 °C 0,0 km/h (0 Bft)
08.11.2017 19:12 3,3 °C 3,4 °C 94 % 1018,8 hPa 0,0 mm 0,0 km/h (0 Bft) NW 304 ° 0 min 0,000 mm 0,0 UV-I 0 W/m² 2,4 °C 3,3 °C 0,0 km/h (0 Bft)
08.11.2017 19:13 3,3 °C 3,3 °C 94 % 1018,7 hPa 0,0 mm 0,0 km/h (0 Bft) NW 304 ° 0 min 0,000 mm 0,0 UV-I 0 W/m² 2,4 °C 3,3 °C 0,0 km/h (0 Bft)
08.11.2017 19:14 3,3 °C 3,3 °C 94 % 1018,8 hPa 0,0 mm 0,0 km/h (0 Bft) NW 304 ° 0 min 0,000 mm 0,0 UV-I 0 W/m² 2,4 °C 3,3 °C 0,0 km/h (0 Bft)
08.11.2017 19:15 3,4 °C 3,4 °C 94 % 1018,7 hPa 0,0 mm 0,0 km/h (0 Bft) NW 304 ° 0 min 0,000 mm 0,0 UV-I 0 W/m² 2,5 °C 3,4 °C 0,0 km/h (0 Bft)
08.11.2017 19:16 3,3 °C 3,4 °C 94 % 1018,8 hPa 0,0 mm 0,0 km/h (0 Bft) NW 304 ° 0 min 0,000 mm 0,0 UV-I 0 W/m² 2,4 °C 3,3 °C 0,0 km/h (0 Bft)
08.11.2017 19:17 3,3 °C 3,4 °C 94 % 1018,8 hPa 0,0 mm 0,0 km/h (0 Bft) NW 304 ° 0 min 0,000 mm 0,0 UV-I 0 W/m² 2,4 °C 3,3 °C 0,0 km/h (0 Bft)
08.11.2017 19:18 3,4 °C 3,4 °C 94 % 1018,8 hPa 0,0 mm 0,0 km/h (0 Bft) NW 304 ° 0 min 0,000 mm 0,0 UV-I 0 W/m² 2,5 °C 3,4 °C 0,0 km/h (0 Bft)
08.11.2017 19:19 3,3 °C 3,4 °C 94 % 1018,8 hPa 0,0 mm 0,0 km/h (0 Bft) NW 304 ° 0 min 0,000 mm 0,0 UV-I 0 W/m² 2,4 °C 3,3 °C 0,0 km/h (0 Bft)
08.11.2017 19:20 3,4 °C 3,4 °C 94 % 1018,8 hPa 0,0 mm 2,5 km/h (1 Bft) NW 304 ° 0 min 0,000 mm 0,0 UV-I 0 W/m² 2,5 °C 3,4 °C 3,2 km/h (1 Bft)
08.11.2017 19:21 3,3 °C 3,4 °C 94 % 1018,8 hPa 0,0 mm 2,0 km/h (1 Bft) NW 304 ° 0 min 0,000 mm 0,0 UV-I 0 W/m² 2,4 °C 3,3 °C 3,2 km/h (1 Bft)
08.11.2017 19:22 3,3 °C 3,4 °C 94 % 1018,8 hPa 0,0 mm 1,4 km/h (1 Bft) NW 304 ° 0 min 0,000 mm 0,0 UV-I 0 W/m² 2,4 °C 3,3 °C 1,6 km/h (1 Bft)
08.11.2017 19:23 3,4 °C 3,4 °C 94 % 1018,8 hPa 0,0 mm 0,1 km/h (0 Bft) NW 304 ° 0 min 0,000 mm 0,0 UV-I 0 W/m² 2,5 °C 3,4 °C 1,6 km/h (1 Bft)
08.11.2017 19:24 3,4 °C 3,4 °C 94 % 1018,8 hPa 0,0 mm 0,0 km/h (0 Bft) NW 304 ° 0 min 0,000 mm 0,0 UV-I 0 W/m² 2,5 °C 3,4 °C 0,0 km/h (0 Bft)
08.11.2017 19:25 3,4 °C 3,4 °C 94 % 1018,9 hPa 0,0 mm 0,6 km/h (0 Bft) NW 304 ° 0 min 0,000 mm 0,0 UV-I 0 W/m² 2,5 °C 3,4 °C 1,6 km/h (1 Bft)
08.11.2017 19:26 3,4 °C 3,4 °C 94 % 1018,8 hPa 0,0 mm 0,6 km/h (0 Bft) NW 304 ° 0 min 0,000 mm 0,0 UV-I 0 W/m² 2,5 °C 3,4 °C 1,6 km/h (1 Bft)
08.11.2017 19:27 3,4 °C 3,4 °C 94 % 1018,8 hPa 0,0 mm 0,0 km/h (0 Bft) NW 304 ° 0 min 0,000 mm 0,0 UV-I 0 W/m² 2,5 °C 3,4 °C 0,0 km/h (0 Bft)
08.11.2017 19:28 3,4 °C 3,4 °C 94 % 1018,8 hPa 0,0 mm 0,0 km/h (0 Bft) NW 304 ° 0 min 0,000 mm 0,0 UV-I 0 W/m² 2,5 °C 3,4 °C 0,0 km/h (0 Bft)
08.11.2017 19:29 3,4 °C 3,4 °C 94 % 1018,8 hPa 0,0 mm 0,0 km/h (0 Bft) NW 304 ° 0 min 0,000 mm 0,0 UV-I 0 W/m² 2,5 °C 3,4 °C 0,0 km/h (0 Bft)
08.11.2017 19:30 3,4 °C 3,4 °C 94 % 1018,8 hPa 0,0 mm 0,0 km/h (0 Bft) NW 304 ° 0 min 0,000 mm 0,0 UV-I 0 W/m² 2,5 °C 3,4 °C 0,0 km/h (0 Bft)
08.11.2017 19:31 3,4 °C 3,4 °C 94 % 1018,8 hPa 0,0 mm 0,0 km/h (0 Bft) NW 304 ° 0 min 0,000 mm 0,0 UV-I 0 W/m² 2,5 °C 3,4 °C 0,0 km/h (0 Bft)
08.11.2017 19:32 3,4 °C 3,4 °C 94 % 1018,8 hPa 0,0 mm 0,0 km/h (0 Bft) NW 304 ° 0 min 0,000 mm 0,0 UV-I 0 W/m² 2,5 °C 3,4 °C 0,0 km/h (0 Bft)
08.11.2017 19:33 3,4 °C 3,4 °C 94 % 1018,8 hPa 0,0 mm 0,0 km/h (0 Bft) NW 304 ° 0 min 0,000 mm 0,0 UV-I 0 W/m² 2,5 °C 3,4 °C 0,0 km/h (0 Bft)
08.11.2017 19:34 3,4 °C 3,4 °C 94 % 1018,8 hPa 0,0 mm 0,0 km/h (0 Bft) NW 304 ° 0 min 0,000 mm 0,0 UV-I 0 W/m² 2,5 °C 3,4 °C 0,0 km/h (0 Bft)
08.11.2017 19:35 3,4 °C 3,4 °C 94 % 1018,8 hPa 0,0 mm 0,0 km/h (0 Bft) NW 304 ° 0 min 0,000 mm 0,0 UV-I 0 W/m² 2,5 °C 3,4 °C 0,0 km/h (0 Bft)
08.11.2017 19:36 3,4 °C 3,4 °C 94 % 1018,8 hPa 0,0 mm 0,0 km/h (0 Bft) NW 304 ° 0 min 0,000 mm 0,0 UV-I 0 W/m² 2,5 °C 3,4 °C 0,0 km/h (0 Bft)
08.11.2017 19:37 3,4 °C 3,4 °C 94 % 1018,8 hPa 0,0 mm 0,0 km/h (0 Bft) NW 304 ° 0 min 0,000 mm 0,0 UV-I 0 W/m² 2,5 °C 3,4 °C 0,0 km/h (0 Bft)
08.11.2017 19:38 3,4 °C 3,4 °C 94 % 1018,8 hPa 0,0 mm 0,0 km/h (0 Bft) NW 304 ° 0 min 0,000 mm 0,0 UV-I 0 W/m² 2,5 °C 3,4 °C 0,0 km/h (0 Bft)
08.11.2017 19:39 3,4 °C 3,4 °C 94 % 1018,8 hPa 0,0 mm 0,0 km/h (0 Bft) NW 304 ° 0 min 0,000 mm 0,0 UV-I 0 W/m² 2,5 °C 3,4 °C 0,0 km/h (0 Bft)
08.11.2017 19:40 3,4 °C 3,4 °C 94 % 1018,8 hPa 0,0 mm 0,0 km/h (0 Bft) NW 304 ° 0 min 0,000 mm 0,0 UV-I 0 W/m² 2,5 °C 3,4 °C 0,0 km/h (0 Bft)
08.11.2017 19:41 3,4 °C 3,4 °C 94 % 1018,8 hPa 0,0 mm 0,0 km/h (0 Bft) NW 304 ° 0 min 0,000 mm 0,0 UV-I 0 W/m² 2,5 °C 3,4 °C 0,0 km/h (0 Bft)
08.11.2017 19:42 3,3 °C 3,4 °C 94 % 1018,8 hPa 0,0 mm 0,0 km/h (0 Bft) NW 304 ° 0 min 0,000 mm 0,0 UV-I 0 W/m² 2,4 °C 3,3 °C 0,0 km/h (0 Bft)
08.11.2017 19:43 3,3 °C 3,4 °C 94 % 1018,8 hPa 0,0 mm 0,0 km/h (0 Bft) NW 304 ° 0 min 0,000 mm 0,0 UV-I 0 W/m² 2,4 °C 3,3 °C 0,0 km/h (0 Bft)
08.11.2017 19:44 3,3 °C 3,3 °C 94 % 1018,8 hPa 0,0 mm 0,0 km/h (0 Bft) NW 304 ° 0 min 0,000 mm 0,0 UV-I 0 W/m² 2,4 °C 3,3 °C 0,0 km/h (0 Bft)
08.11.2017 19:45 3,3 °C 3,4 °C 94 % 1018,8 hPa 0,0 mm 0,0 km/h (0 Bft) NW 304 ° 0 min 0,000 mm 0,0 UV-I 0 W/m² 2,4 °C 3,3 °C 0,0 km/h (0 Bft)
08.11.2017 19:46 3,3 °C 3,3 °C 94 % 1018,8 hPa 0,0 mm 0,0 km/h (0 Bft) NW 304 ° 0 min 0,000 mm 0,0 UV-I 0 W/m² 2,4 °C 3,3 °C 0,0 km/h (0 Bft)
08.11.2017 19:47 3,3 °C 3,3 °C 94 % 1018,8 hPa 0,0 mm 0,0 km/h (0 Bft) NW 304 ° 0 min 0,000 mm 0,0 UV-I 0 W/m² 2,4 °C 3,3 °C 0,0 km/h (0 Bft)
08.11.2017 19:48 3,3 °C 3,3 °C 94 % 1018,8 hPa 0,0 mm 0,0 km/h (0 Bft) NW 304 ° 0 min 0,000 mm 0,0 UV-I 0 W/m² 2,4 °C 3,3 °C 0,0 km/h (0 Bft)
08.11.2017 19:49 3,3 °C 3,3 °C 94 % 1018,9 hPa 0,0 mm 0,0 km/h (0 Bft) NW 304 ° 0 min 0,000 mm 0,0 UV-I 0 W/m² 2,4 °C 3,3 °C 0,0 km/h (0 Bft)
08.11.2017 19:50 3,3 °C 3,3 °C 94 % 1018,9 hPa 0,0 mm 0,0 km/h (0 Bft) NW 304 ° 0 min 0,000 mm 0,0 UV-I 0 W/m² 2,4 °C 3,3 °C 0,0 km/h (0 Bft)
08.11.2017 19:51 3,3 °C 3,3 °C 94 % 1018,9 hPa 0,0 mm 0,0 km/h (0 Bft) NW 304 ° 0 min 0,000 mm 0,0 UV-I 0 W/m² 2,4 °C 3,3 °C 0,0 km/h (0 Bft)
08.11.2017 19:52 3,3 °C 3,3 °C 94 % 1018,9 hPa 0,0 mm 0,0 km/h (0 Bft) NW 304 ° 0 min 0,000 mm 0,0 UV-I 0 W/m² 2,4 °C 3,3 °C 0,0 km/h (0 Bft)
08.11.2017 19:53 3,3 °C 3,3 °C 94 % 1018,8 hPa 0,0 mm 0,0 km/h (0 Bft) NW 304 ° 0 min 0,000 mm 0,0 UV-I 0 W/m² 2,4 °C 3,3 °C 0,0 km/h (0 Bft)
08.11.2017 19:54 3,3 °C 3,3 °C 94 % 1018,9 hPa 0,0 mm 0,0 km/h (0 Bft) NW 304 ° 0 min 0,000 mm 0,0 UV-I 0 W/m² 2,4 °C 3,3 °C 0,0 km/h (0 Bft)
08.11.2017 19:55 3,3 °C 3,3 °C 94 % 1018,9 hPa 0,0 mm 0,0 km/h (0 Bft) NW 304 ° 0 min 0,000 mm 0,0 UV-I 0 W/m² 2,4 °C 3,3 °C 0,0 km/h (0 Bft)
08.11.2017 19:56 3,2 °C 3,3 °C 94 % 1018,9 hPa 0,0 mm 0,0 km/h (0 Bft) NW 304 ° 0 min 0,000 mm 0,0 UV-I 0 W/m² 2,3 °C 3,2 °C 0,0 km/h (0 Bft)
08.11.2017 19:57 3,2 °C 3,3 °C 94 % 1018,9 hPa 0,0 mm 0,0 km/h (0 Bft) NW 304 ° 0 min 0,000 mm 0,0 UV-I 0 W/m² 2,3 °C 3,2 °C 0,0 km/h (0 Bft)
08.11.2017 19:58 3,3 °C 3,3 °C 94 % 1018,9 hPa 0,0 mm 0,0 km/h (0 Bft) NW 304 ° 0 min 0,000 mm 0,0 UV-I 0 W/m² 2,4 °C 3,3 °C 0,0 km/h (0 Bft)
08.11.2017 19:59 3,2 °C 3,3 °C 94 % 1018,9 hPa 0,0 mm 0,0 km/h (0 Bft) NW 304 ° 0 min 0,000 mm 0,0 UV-I 0 W/m² 2,3 °C 3,2 °C 0,0 km/h (0 Bft)
08.11.2017 20:00 3,3 °C 3,3 °C 94 % 1019,0 hPa 0,0 mm 0,0 km/h (0 Bft) NW 304 ° 0 min 0,000 mm 0,0 UV-I 0 W/m² 2,4 °C 3,3 °C 0,0 km/h (0 Bft)
08.11.2017 20:01 3,2 °C 3,3 °C 94 % 1019,0 hPa 0,0 mm 0,0 km/h (0 Bft) NW 304 ° 0 min 0,000 mm 0,0 UV-I 0 W/m² 2,3 °C 3,2 °C 0,0 km/h (0 Bft)
08.11.2017 20:02 3,3 °C 3,3 °C 94 % 1019,0 hPa 0,0 mm 0,0 km/h (0 Bft) NW 304 ° 0 min 0,000 mm 0,0 UV-I 0 W/m² 2,4 °C 3,3 °C 0,0 km/h (0 Bft)
08.11.2017 20:03 3,3 °C 3,3 °C 94 % 1019,0 hPa 0,0 mm 0,0 km/h (0 Bft) NW 304 ° 0 min 0,000 mm 0,0 UV-I 0 W/m² 2,4 °C 3,3 °C 0,0 km/h (0 Bft)
08.11.2017 20:04 3,2 °C 3,3 °C 94 % 1018,9 hPa 0,0 mm 0,0 km/h (0 Bft) NW 304 ° 0 min 0,000 mm 0,0 UV-I 0 W/m² 2,3 °C 3,2 °C 0,0 km/h (0 Bft)
08.11.2017 20:05 3,2 °C 3,3 °C 94 % 1018,9 hPa 0,0 mm 0,0 km/h (0 Bft) NW 304 ° 0 min 0,000 mm 0,0 UV-I 0 W/m² 2,3 °C 3,2 °C 0,0 km/h (0 Bft)
08.11.2017 20:06 3,2 °C 3,3 °C 94 % 1019,0 hPa 0,0 mm 0,0 km/h (0 Bft) NW 304 ° 0 min 0,000 mm 0,0 UV-I 0 W/m² 2,3 °C 3,2 °C 0,0 km/h (0 Bft)
08.11.2017 20:07 3,2 °C 3,2 °C 94 % 1018,9 hPa 0,0 mm 0,0 km/h (0 Bft) NW 304 ° 0 min 0,000 mm 0,0 UV-I 0 W/m² 2,3 °C 3,2 °C 0,0 km/h (0 Bft)
08.11.2017 20:08 3,2 °C 3,2 °C 94 % 1018,9 hPa 0,0 mm 0,0 km/h (0 Bft) NW 304 ° 0 min 0,000 mm 0,0 UV-I 0 W/m² 2,3 °C 3,2 °C 0,0 km/h (0 Bft)
08.11.2017 20:09 3,2 °C 3,2 °C 94 % 1018,9 hPa 0,0 mm 0,0 km/h (0 Bft) NW 304 ° 0 min 0,000 mm 0,0 UV-I 0 W/m² 2,3 °C 3,2 °C 0,0 km/h (0 Bft)
08.11.2017 20:10 3,2 °C 3,2 °C 94 % 1019,0 hPa 0,0 mm 0,0 km/h (0 Bft) NW 304 ° 0 min 0,000 mm 0,0 UV-I 0 W/m² 2,3 °C 3,2 °C 0,0 km/h (0 Bft)
08.11.2017 20:11 3,2 °C 3,2 °C 94 % 1019,0 hPa 0,0 mm 0,0 km/h (0 Bft) NW 304 ° 0 min 0,000 mm 0,0 UV-I 0 W/m² 2,3 °C 3,2 °C 0,0 km/h (0 Bft)
08.11.2017 20:12 3,2 °C 3,2 °C 94 % 1019,0 hPa 0,0 mm 0,0 km/h (0 Bft) NW 304 ° 0 min 0,000 mm 0,0 UV-I 0 W/m² 2,3 °C 3,2 °C 0,0 km/h (0 Bft)
08.11.2017 20:13 3,2 °C 3,2 °C 94 % 1019,0 hPa 0,0 mm 0,0 km/h (0 Bft) NW 304 ° 0 min 0,000 mm 0,0 UV-I 0 W/m² 2,3 °C 3,2 °C 0,0 km/h (0 Bft)
08.11.2017 20:14 3,2 °C 3,2 °C 94 % 1019,0 hPa 0,0 mm 0,0 km/h (0 Bft) NW 304 ° 0 min 0,000 mm 0,0 UV-I 0 W/m² 2,3 °C 3,2 °C 0,0 km/h (0 Bft)
08.11.2017 20:15 3,2 °C 3,2 °C 94 % 1019,0 hPa 0,0 mm 0,0 km/h (0 Bft) NW 304 ° 0 min 0,000 mm 0,0 UV-I 0 W/m² 2,3 °C 3,2 °C 0,0 km/h (0 Bft)
08.11.2017 20:16 3,2 °C 3,2 °C 94 % 1019,0 hPa 0,0 mm 0,0 km/h (0 Bft) NW 304 ° 0 min 0,000 mm 0,0 UV-I 0 W/m² 2,3 °C 3,2 °C 0,0 km/h (0 Bft)
08.11.2017 20:17 3,2 °C 3,2 °C 94 % 1019,0 hPa 0,0 mm 0,0 km/h (0 Bft) NW 304 ° 0 min 0,000 mm 0,0 UV-I 0 W/m² 2,3 °C 3,2 °C 0,0 km/h (0 Bft)
08.11.2017 20:18 3,2 °C 3,2 °C 94 % 1019,0 hPa 0,0 mm 0,0 km/h (0 Bft) NW 304 ° 0 min 0,000 mm 0,0 UV-I 0 W/m² 2,3 °C 3,2 °C 0,0 km/h (0 Bft)
08.11.2017 20:19 3,2 °C 3,2 °C 94 % 1019,0 hPa 0,0 mm 0,0 km/h (0 Bft) NW 304 ° 0 min 0,000 mm 0,0 UV-I 0 W/m² 2,3 °C 3,2 °C 0,0 km/h (0 Bft)
08.11.2017 20:20 3,2 °C 3,2 °C 94 % 1019,1 hPa 0,0 mm 0,0 km/h (0 Bft) NW 304 ° 0 min 0,000 mm 0,0 UV-I 0 W/m² 2,3 °C 3,2 °C 0,0 km/h (0 Bft)
08.11.2017 20:21 3,2 °C 3,2 °C 94 % 1019,1 hPa 0,0 mm 0,0 km/h (0 Bft) NW 304 ° 0 min 0,000 mm 0,0 UV-I 0 W/m² 2,3 °C 3,2 °C 0,0 km/h (0 Bft)
08.11.2017 20:22 3,2 °C 3,2 °C 94 % 1019,1 hPa 0,0 mm 0,0 km/h (0 Bft) NW 304 ° 0 min 0,000 mm 0,0 UV-I 0 W/m² 2,3 °C 3,2 °C 0,0 km/h (0 Bft)
08.11.2017 20:23 3,2 °C 3,2 °C 94 % 1019,1 hPa 0,0 mm 0,0 km/h (0 Bft) NW 304 ° 0 min 0,000 mm 0,0 UV-I 0 W/m² 2,3 °C 3,2 °C 0,0 km/h (0 Bft)
08.11.2017 20:24 3,2 °C 3,2 °C 94 % 1019,1 hPa 0,0 mm 0,0 km/h (0 Bft) NW 304 ° 0 min 0,000 mm 0,0 UV-I 0 W/m² 2,3 °C 3,2 °C 0,0 km/h (0 Bft)
08.11.2017 20:25 3,2 °C 3,2 °C 94 % 1019,1 hPa 0,0 mm 0,0 km/h (0 Bft) NW 304 ° 0 min 0,000 mm 0,0 UV-I 0 W/m² 2,3 °C 3,2 °C 0,0 km/h (0 Bft)
08.11.2017 20:26 3,2 °C 3,2 °C 94 % 1019,1 hPa 0,0 mm 0,0 km/h (0 Bft) NW 304 ° 0 min 0,000 mm 0,0 UV-I 0 W/m² 2,3 °C 3,2 °C 0,0 km/h (0 Bft)
08.11.2017 20:27 3,2 °C 3,2 °C 94 % 1019,1 hPa 0,0 mm 0,0 km/h (0 Bft) NW 304 ° 0 min 0,000 mm 0,0 UV-I 0 W/m² 2,3 °C 3,2 °C 0,0 km/h (0 Bft)
08.11.2017 20:28 3,2 °C 3,2 °C 94 % 1019,1 hPa 0,0 mm 0,0 km/h (0 Bft) NW 304 ° 0 min 0,000 mm 0,0 UV-I 0 W/m² 2,3 °C 3,2 °C 0,0 km/h (0 Bft)
08.11.2017 20:29 3,2 °C 3,2 °C 94 % 1019,2 hPa 0,0 mm 0,0 km/h (0 Bft) NW 304 ° 0 min 0,000 mm 0,0 UV-I 0 W/m² 2,3 °C 3,2 °C 0,0 km/h (0 Bft)
08.11.2017 20:30 3,2 °C 3,2 °C 94 % 1019,1 hPa 0,0 mm 0,0 km/h (0 Bft) NW 304 ° 0 min 0,000 mm 0,0 UV-I 0 W/m² 2,3 °C 3,2 °C 0,0 km/h (0 Bft)
08.11.2017 20:31 3,2 °C 3,2 °C 94 % 1019,1 hPa 0,0 mm 0,0 km/h (0 Bft) NW 304 ° 0 min 0,000 mm 0,0 UV-I 0 W/m² 2,3 °C 3,2 °C 0,0 km/h (0 Bft)
08.11.2017 20:32 3,2 °C 3,2 °C 94 % 1019,2 hPa 0,0 mm 0,0 km/h (0 Bft) NW 304 ° 0 min 0,000 mm 0,0 UV-I 0 W/m² 2,3 °C 3,2 °C 0,0 km/h (0 Bft)
08.11.2017 20:33 3,2 °C 3,2 °C 94 % 1019,1 hPa 0,0 mm 0,0 km/h (0 Bft) NW 304 ° 0 min 0,000 mm 0,0 UV-I 0 W/m² 2,3 °C 3,2 °C 0,0 km/h (0 Bft)
08.11.2017 20:34 3,2 °C 3,2 °C 94 % 1019,2 hPa 0,0 mm 0,0 km/h (0 Bft) NW 304 ° 0 min 0,000 mm 0,0 UV-I 0 W/m² 2,3 °C 3,2 °C 0,0 km/h (0 Bft)
08.11.2017 20:35 3,2 °C 3,2 °C 94 % 1019,2 hPa 0,0 mm 0,0 km/h (0 Bft) NW 304 ° 0 min 0,000 mm 0,0 UV-I 0 W/m² 2,3 °C 3,2 °C 0,0 km/h (0 Bft)
08.11.2017 20:36 3,2 °C 3,2 °C 94 % 1019,2 hPa 0,0 mm 0,0 km/h (0 Bft) NW 304 ° 0 min 0,000 mm 0,0 UV-I 0 W/m² 2,3 °C 3,2 °C 0,0 km/h (0 Bft)
08.11.2017 20:37 3,2 °C 3,2 °C 94 % 1019,2 hPa 0,0 mm 0,0 km/h (0 Bft) NW 304 ° 0 min 0,000 mm 0,0 UV-I 0 W/m² 2,3 °C 3,2 °C 0,0 km/h (0 Bft)
08.11.2017 20:38 3,2 °C 3,2 °C 94 % 1019,2 hPa 0,0 mm 0,0 km/h (0 Bft) NW 304 ° 0 min 0,000 mm 0,0 UV-I 0 W/m² 2,3 °C 3,2 °C 0,0 km/h (0 Bft)
08.11.2017 20:39 3,1 °C 3,2 °C 94 % 1019,2 hPa 0,0 mm 0,0 km/h (0 Bft) NW 304 ° 0 min 0,000 mm 0,0 UV-I 0 W/m² 2,2 °C 3,1 °C 0,0 km/h (0 Bft)
08.11.2017 20:40 3,1 °C 3,2 °C 94 % 1019,2 hPa 0,0 mm 0,0 km/h (0 Bft) NW 304 ° 0 min 0,000 mm 0,0 UV-I 0 W/m² 2,2 °C 3,1 °C 0,0 km/h (0 Bft)
08.11.2017 20:41 3,1 °C 3,2 °C 94 % 1019,2 hPa 0,0 mm 0,0 km/h (0 Bft) NW 304 ° 0 min 0,000 mm 0,0 UV-I 0 W/m² 2,2 °C 3,1 °C 0,0 km/h (0 Bft)
08.11.2017 20:42 3,1 °C 3,1 °C 94 % 1019,2 hPa 0,0 mm 0,0 km/h (0 Bft) NW 304 ° 0 min 0,000 mm 0,0 UV-I 0 W/m² 2,2 °C 3,1 °C 0,0 km/h (0 Bft)
08.11.2017 20:43 3,1 °C 3,1 °C 94 % 1019,2 hPa 0,0 mm 0,0 km/h (0 Bft) NW 304 ° 0 min 0,000 mm 0,0 UV-I 0 W/m² 2,2 °C 3,1 °C 0,0 km/h (0 Bft)
08.11.2017 20:44 3,1 °C 3,1 °C 94 % 1019,2 hPa 0,0 mm 0,0 km/h (0 Bft) NW 304 ° 0 min 0,000 mm 0,0 UV-I 0 W/m² 2,2 °C 3,1 °C 0,0 km/h (0 Bft)
08.11.2017 20:45 3,1 °C 3,1 °C 95 % 1019,2 hPa 0,0 mm 0,0 km/h (0 Bft) NW 304 ° 0 min 0,000 mm 0,0 UV-I 0 W/m² 2,4 °C 3,1 °C 0,0 km/h (0 Bft)
08.11.2017 20:46 3,1 °C 3,2 °C 95 % 1019,2 hPa 0,0 mm 0,0 km/h (0 Bft) NW 304 ° 0 min 0,000 mm 0,0 UV-I 0 W/m² 2,4 °C 3,1 °C 0,0 km/h (0 Bft)
08.11.2017 20:47 3,1 °C 3,2 °C 95 % 1019,2 hPa 0,0 mm 0,0 km/h (0 Bft) NW 304 ° 0 min 0,000 mm 0,0 UV-I 0 W/m² 2,4 °C 3,1 °C 0,0 km/h (0 Bft)
08.11.2017 20:48 3,1 °C 3,2 °C 95 % 1019,2 hPa 0,0 mm 0,0 km/h (0 Bft) NW 304 ° 0 min 0,000 mm 0,0 UV-I 0 W/m² 2,4 °C 3,1 °C 0,0 km/h (0 Bft)
08.11.2017 20:49 3,1 °C 3,2 °C 95 % 1019,2 hPa 0,0 mm 0,0 km/h (0 Bft) NW 304 ° 0 min 0,000 mm 0,0 UV-I 0 W/m² 2,4 °C 3,1 °C 0,0 km/h (0 Bft)
08.11.2017 20:50 3,1 °C 3,2 °C 95 % 1019,2 hPa 0,0 mm 0,0 km/h (0 Bft) NW 304 ° 0 min 0,000 mm 0,0 UV-I 0 W/m² 2,4 °C 3,1 °C 0,0 km/h (0 Bft)
08.11.2017 20:51 3,2 °C 3,2 °C 95 % 1019,2 hPa 0,0 mm 0,0 km/h (0 Bft) NW 304 ° 0 min 0,000 mm 0,0 UV-I 0 W/m² 2,5 °C 3,2 °C 0,0 km/h (0 Bft)
08.11.2017 20:52 3,1 °C 3,2 °C 94 % 1019,2 hPa 0,0 mm 0,0 km/h (0 Bft) NW 304 ° 0 min 0,000 mm 0,0 UV-I 0 W/m² 2,2 °C 3,1 °C 0,0 km/h (0 Bft)
08.11.2017 20:53 3,2 °C 3,2 °C 94 % 1019,2 hPa 0,0 mm 0,0 km/h (0 Bft) NW 304 ° 0 min 0,000 mm 0,0 UV-I 0 W/m² 2,3 °C 3,2 °C 0,0 km/h (0 Bft)
08.11.2017 20:54 3,1 °C 3,2 °C 94 % 1019,2 hPa 0,0 mm 0,0 km/h (0 Bft) NW 304 ° 0 min 0,000 mm 0,0 UV-I 0 W/m² 2,2 °C 3,1 °C 0,0 km/h (0 Bft)
08.11.2017 20:55 3,1 °C 3,2 °C 95 % 1019,2 hPa 0,0 mm 0,0 km/h (0 Bft) NW 304 ° 0 min 0,000 mm 0,0 UV-I 0 W/m² 2,4 °C 3,1 °C 0,0 km/h (0 Bft)
08.11.2017 20:56 3,2 °C 3,2 °C 95 % 1019,2 hPa 0,0 mm 0,0 km/h (0 Bft) NW 304 ° 0 min 0,000 mm 0,0 UV-I 0 W/m² 2,5 °C 3,2 °C 0,0 km/h (0 Bft)
08.11.2017 20:57 3,1 °C 3,2 °C 95 % 1019,2 hPa 0,0 mm 0,0 km/h (0 Bft) NW 304 ° 0 min 0,000 mm 0,0 UV-I 0 W/m² 2,4 °C 3,1 °C 0,0 km/h (0 Bft)
08.11.2017 20:58 3,2 °C 3,2 °C 95 % 1019,2 hPa 0,0 mm 0,0 km/h (0 Bft) NW 304 ° 0 min 0,000 mm 0,0 UV-I 0 W/m² 2,5 °C 3,2 °C 0,0 km/h (0 Bft)
08.11.2017 20:59 3,1 °C 3,2 °C 95 % 1019,2 hPa 0,0 mm 0,0 km/h (0 Bft) NW 304 ° 0 min 0,000 mm 0,0 UV-I 0 W/m² 2,4 °C 3,1 °C 0,0 km/h (0 Bft)
08.11.2017 21:00 3,1 °C 3,1 °C 94 % 1019,2 hPa 0,0 mm 0,0 km/h (0 Bft) NW 304 ° 0 min 0,000 mm 0,0 UV-I 0 W/m² 2,2 °C 3,1 °C 0,0 km/h (0 Bft)
08.11.2017 21:01 3,1 °C 3,1 °C 95 % 1019,2 hPa 0,0 mm 0,0 km/h (0 Bft) NW 304 ° 0 min 0,000 mm 0,0 UV-I 0 W/m² 2,4 °C 3,1 °C 0,0 km/h (0 Bft)
08.11.2017 21:02 3,1 °C 3,1 °C 94 % 1019,2 hPa 0,0 mm 0,0 km/h (0 Bft) NW 304 ° 0 min 0,000 mm 0,0 UV-I 0 W/m² 2,2 °C 3,1 °C 0,0 km/h (0 Bft)
08.11.2017 21:04 3,1 °C 3,1 °C 94 % 1019,2 hPa 0,0 mm 0,0 km/h (0 Bft) NW 304 ° 0 min 0,000 mm 0,0 UV-I 0 W/m² 2,2 °C 3,1 °C 0,0 km/h (0 Bft)
08.11.2017 21:05 3,1 °C 3,1 °C 95 % 1019,2 hPa 0,0 mm 0,0 km/h (0 Bft) NW 304 ° 0 min 0,000 mm 0,0 UV-I 0 W/m² 2,4 °C 3,1 °C 0,0 km/h (0 Bft)
08.11.2017 21:06 3,1 °C 3,1 °C 95 % 1019,3 hPa 0,0 mm 0,0 km/h (0 Bft) NW 304 ° 0 min 0,000 mm 0,0 UV-I 0 W/m² 2,4 °C 3,1 °C 0,0 km/h (0 Bft)
08.11.2017 21:07 3,1 °C 3,1 °C 95 % 1019,3 hPa 0,0 mm 0,0 km/h (0 Bft) NW 304 ° 0 min 0,000 mm 0,0 UV-I 0 W/m² 2,4 °C 3,1 °C 0,0 km/h (0 Bft)
08.11.2017 21:08 3,1 °C 3,1 °C 94 % 1019,3 hPa 0,0 mm 0,0 km/h (0 Bft) NW 304 ° 0 min 0,000 mm 0,0 UV-I 0 W/m² 2,2 °C 3,1 °C 0,0 km/h (0 Bft)
08.11.2017 21:09 3,1 °C 3,1 °C 95 % 1019,3 hPa 0,0 mm 0,0 km/h (0 Bft) NW 304 ° 0 min 0,000 mm 0,0 UV-I 0 W/m² 2,4 °C 3,1 °C 0,0 km/h (0 Bft)
08.11.2017 21:10 3,1 °C 3,1 °C 95 % 1019,3 hPa 0,0 mm 0,0 km/h (0 Bft) NW 304 ° 0 min 0,000 mm 0,0 UV-I 0 W/m² 2,4 °C 3,1 °C 0,0 km/h (0 Bft)
08.11.2017 21:11 3,1 °C 3,1 °C 95 % 1019,2 hPa 0,0 mm 0,0 km/h (0 Bft) NW 304 ° 0 min 0,000 mm 0,0 UV-I 0 W/m² 2,4 °C 3,1 °C 0,0 km/h (0 Bft)
08.11.2017 21:12 3,1 °C 3,1 °C 95 % 1019,3 hPa 0,0 mm 0,0 km/h (0 Bft) NW 304 ° 0 min 0,000 mm 0,0 UV-I 0 W/m² 2,4 °C 3,1 °C 0,0 km/h (0 Bft)
08.11.2017 21:13 3,1 °C 3,1 °C 95 % 1019,3 hPa 0,0 mm 0,0 km/h (0 Bft) NW 304 ° 0 min 0,000 mm 0,0 UV-I 0 W/m² 2,4 °C 3,1 °C 0,0 km/h (0 Bft)
08.11.2017 21:14 3,1 °C 3,1 °C 95 % 1019,3 hPa 0,0 mm 0,0 km/h (0 Bft) NW 304 ° 0 min 0,000 mm 0,0 UV-I 0 W/m² 2,4 °C 3,1 °C 0,0 km/h (0 Bft)
08.11.2017 21:15 3,1 °C 3,1 °C 95 % 1019,3 hPa 0,0 mm 0,0 km/h (0 Bft) NW 304 ° 0 min 0,000 mm 0,0 UV-I 0 W/m² 2,4 °C 3,1 °C 0,0 km/h (0 Bft)
08.11.2017 21:16 3,1 °C 3,1 °C 95 % 1019,3 hPa 0,0 mm 0,0 km/h (0 Bft) NW 304 ° 0 min 0,000 mm 0,0 UV-I 0 W/m² 2,4 °C 3,1 °C 0,0 km/h (0 Bft)
08.11.2017 21:17 3,1 °C 3,1 °C 95 % 1019,3 hPa 0,0 mm 0,0 km/h (0 Bft) NW 304 ° 0 min 0,000 mm 0,0 UV-I 0 W/m² 2,4 °C 3,1 °C 0,0 km/h (0 Bft)
08.11.2017 21:18 3,1 °C 3,1 °C 95 % 1019,3 hPa 0,0 mm 0,0 km/h (0 Bft) NW 304 ° 0 min 0,000 mm 0,0 UV-I 0 W/m² 2,4 °C 3,1 °C 0,0 km/h (0 Bft)
08.11.2017 21:19 3,1 °C 3,1 °C 95 % 1019,3 hPa 0,0 mm 0,0 km/h (0 Bft) NW 304 ° 0 min 0,000 mm 0,0 UV-I 0 W/m² 2,4 °C 3,1 °C 0,0 km/h (0 Bft)
08.11.2017 21:20 3,1 °C 3,1 °C 95 % 1019,3 hPa 0,0 mm 0,0 km/h (0 Bft) NW 304 ° 0 min 0,000 mm 0,0 UV-I 0 W/m² 2,4 °C 3,1 °C 0,0 km/h (0 Bft)
08.11.2017 21:21 3,1 °C 3,1 °C 95 % 1019,3 hPa 0,0 mm 0,0 km/h (0 Bft) NW 304 ° 0 min 0,000 mm 0,0 UV-I 0 W/m² 2,4 °C 3,1 °C 0,0 km/h (0 Bft)
08.11.2017 21:22 3,1 °C 3,1 °C 95 % 1019,3 hPa 0,0 mm 0,0 km/h (0 Bft) NW 304 ° 0 min 0,000 mm 0,0 UV-I 0 W/m² 2,4 °C 3,1 °C 0,0 km/h (0 Bft)
08.11.2017 21:23 3,1 °C 3,1 °C 95 % 1019,3 hPa 0,0 mm 0,0 km/h (0 Bft) NW 304 ° 0 min 0,000 mm 0,0 UV-I 0 W/m² 2,4 °C 3,1 °C 0,0 km/h (0 Bft)
08.11.2017 21:24 3,1 °C 3,1 °C 95 % 1019,3 hPa 0,0 mm 0,0 km/h (0 Bft) NW 304 ° 0 min 0,000 mm 0,0 UV-I 0 W/m² 2,4 °C 3,1 °C 0,0 km/h (0 Bft)
08.11.2017 21:25 3,1 °C 3,1 °C 95 % 1019,3 hPa 0,0 mm 0,0 km/h (0 Bft) NW 304 ° 0 min 0,000 mm 0,0 UV-I 0 W/m² 2,4 °C 3,1 °C 0,0 km/h (0 Bft)
08.11.2017 21:26 3,1 °C 3,1 °C 95 % 1019,3 hPa 0,0 mm 0,0 km/h (0 Bft) NW 304 ° 0 min 0,000 mm 0,0 UV-I 0 W/m² 2,4 °C 3,1 °C 0,0 km/h (0 Bft)
08.11.2017 21:27 3,1 °C 3,1 °C 95 % 1019,3 hPa 0,0 mm 0,0 km/h (0 Bft) NW 304 ° 0 min 0,000 mm 0,0 UV-I 0 W/m² 2,4 °C 3,1 °C 0,0 km/h (0 Bft)
08.11.2017 21:28 3,1 °C 3,1 °C 95 % 1019,3 hPa 0,0 mm 0,0 km/h (0 Bft) NW 304 ° 0 min 0,000 mm 0,0 UV-I 0 W/m² 2,4 °C 3,1 °C 0,0 km/h (0 Bft)
08.11.2017 21:29 3,0 °C 3,1 °C 95 % 1019,3 hPa 0,0 mm 0,0 km/h (0 Bft) NW 304 ° 0 min 0,000 mm 0,0 UV-I 0 W/m² 2,3 °C 3,0 °C 0,0 km/h (0 Bft)
08.11.2017 21:30 3,0 °C 3,1 °C 95 % 1019,3 hPa 0,0 mm 0,0 km/h (0 Bft) NW 304 ° 0 min 0,000 mm 0,0 UV-I 0 W/m² 2,3 °C 3,0 °C 0,0 km/h (0 Bft)
08.11.2017 21:31 3,0 °C 3,0 °C 95 % 1019,3 hPa 0,0 mm 0,0 km/h (0 Bft) NW 304 ° 0 min 0,000 mm 0,0 UV-I 0 W/m² 2,3 °C 3,0 °C 0,0 km/h (0 Bft)
08.11.2017 21:32 3,0 °C 3,0 °C 95 % 1019,3 hPa 0,0 mm 0,0 km/h (0 Bft) NW 304 ° 0 min 0,000 mm 0,0 UV-I 0 W/m² 2,3 °C 3,0 °C 0,0 km/h (0 Bft)
08.11.2017 21:33 3,0 °C 3,0 °C 95 % 1019,3 hPa 0,0 mm 0,0 km/h (0 Bft) NW 304 ° 0 min 0,000 mm 0,0 UV-I 0 W/m² 2,3 °C 3,0 °C 0,0 km/h (0 Bft)
08.11.2017 21:34 3,0 °C 3,0 °C 95 % 1019,3 hPa 0,0 mm 0,0 km/h (0 Bft) NW 304 ° 0 min 0,000 mm 0,0 UV-I 0 W/m² 2,3 °C 3,0 °C 0,0 km/h (0 Bft)
08.11.2017 21:35 3,0 °C 3,0 °C 95 % 1019,3 hPa 0,0 mm 0,0 km/h (0 Bft) NW 304 ° 0 min 0,000 mm 0,0 UV-I 0 W/m² 2,3 °C 3,0 °C 0,0 km/h (0 Bft)
08.11.2017 21:36 2,9 °C 3,0 °C 95 % 1019,3 hPa 0,0 mm 0,0 km/h (0 Bft) NW 304 ° 0 min 0,000 mm 0,0 UV-I 0 W/m² 2,2 °C 2,9 °C 0,0 km/h (0 Bft)
08.11.2017 21:37 2,9 °C 3,0 °C 95 % 1019,2 hPa 0,0 mm 0,0 km/h (0 Bft) NW 304 ° 0 min 0,000 mm 0,0 UV-I 0 W/m² 2,2 °C 2,9 °C 0,0 km/h (0 Bft)
08.11.2017 21:38 3,0 °C 3,0 °C 95 % 1019,3 hPa 0,0 mm 0,0 km/h (0 Bft) NW 304 ° 0 min 0,000 mm 0,0 UV-I 0 W/m² 2,3 °C 3,0 °C 0,0 km/h (0 Bft)
08.11.2017 21:39 2,9 °C 3,0 °C 95 % 1019,3 hPa 0,0 mm 0,0 km/h (0 Bft) NW 304 ° 0 min 0,000 mm 0,0 UV-I 0 W/m² 2,2 °C 2,9 °C 0,0 km/h (0 Bft)
08.11.2017 21:40 2,9 °C 3,0 °C 95 % 1019,3 hPa 0,0 mm 0,0 km/h (0 Bft) NW 304 ° 0 min 0,000 mm 0,0 UV-I 0 W/m² 2,2 °C 2,9 °C 0,0 km/h (0 Bft)
08.11.2017 21:41 2,9 °C 3,0 °C 95 % 1019,3 hPa 0,0 mm 0,0 km/h (0 Bft) NW 304 ° 0 min 0,000 mm 0,0 UV-I 0 W/m² 2,2 °C 2,9 °C 0,0 km/h (0 Bft)
08.11.2017 21:42 3,0 °C 3,0 °C 95 % 1019,3 hPa 0,0 mm 0,0 km/h (0 Bft) NW 304 ° 0 min 0,000 mm 0,0 UV-I 0 W/m² 2,3 °C 3,0 °C 0,0 km/h (0 Bft)
08.11.2017 21:43 2,9 °C 3,0 °C 95 % 1019,3 hPa 0,0 mm 0,0 km/h (0 Bft) NW 304 ° 0 min 0,000 mm 0,0 UV-I 0 W/m² 2,2 °C 2,9 °C 0,0 km/h (0 Bft)
08.11.2017 21:44 2,9 °C 3,0 °C 95 % 1019,3 hPa 0,0 mm 0,0 km/h (0 Bft) NW 304 ° 0 min 0,000 mm 0,0 UV-I 0 W/m² 2,2 °C 2,9 °C 0,0 km/h (0 Bft)
08.11.2017 21:45 2,9 °C 3,0 °C 95 % 1019,4 hPa 0,0 mm 0,0 km/h (0 Bft) NW 304 ° 0 min 0,000 mm 0,0 UV-I 0 W/m² 2,2 °C 2,9 °C 0,0 km/h (0 Bft)
08.11.2017 21:46 3,0 °C 3,0 °C 95 % 1019,3 hPa 0,0 mm 0,0 km/h (0 Bft) NW 304 ° 0 min 0,000 mm 0,0 UV-I 0 W/m² 2,3 °C 3,0 °C 0,0 km/h (0 Bft)
08.11.2017 21:47 3,0 °C 3,0 °C 95 % 1019,3 hPa 0,0 mm 0,0 km/h (0 Bft) NW 304 ° 0 min 0,000 mm 0,0 UV-I 0 W/m² 2,3 °C 3,0 °C 0,0 km/h (0 Bft)
08.11.2017 21:48 3,0 °C 3,0 °C 95 % 1019,3 hPa 0,0 mm 0,0 km/h (0 Bft) NW 304 ° 0 min 0,000 mm 0,0 UV-I 0 W/m² 2,3 °C 3,0 °C 0,0 km/h (0 Bft)
08.11.2017 21:49 2,9 °C 3,0 °C 95 % 1019,4 hPa 0,0 mm 0,0 km/h (0 Bft) NW 304 ° 0 min 0,000 mm 0,0 UV-I 0 W/m² 2,2 °C 2,9 °C 0,0 km/h (0 Bft)
08.11.2017 21:50 3,0 °C 3,0 °C 95 % 1019,4 hPa 0,0 mm 0,0 km/h (0 Bft) NW 304 ° 0 min 0,000 mm 0,0 UV-I 0 W/m² 2,3 °C 3,0 °C 0,0 km/h (0 Bft)
08.11.2017 21:51 2,9 °C 3,0 °C 95 % 1019,4 hPa 0,0 mm 0,0 km/h (0 Bft) NW 304 ° 0 min 0,000 mm 0,0 UV-I 0 W/m² 2,2 °C 2,9 °C 0,0 km/h (0 Bft)
08.11.2017 21:52 2,9 °C 2,9 °C 95 % 1019,3 hPa 0,0 mm 0,0 km/h (0 Bft) NW 304 ° 0 min 0,000 mm 0,0 UV-I 0 W/m² 2,2 °C 2,9 °C 0,0 km/h (0 Bft)
08.11.2017 21:53 2,9 °C 2,9 °C 95 % 1019,3 hPa 0,0 mm 0,0 km/h (0 Bft) NW 304 ° 0 min 0,000 mm 0,0 UV-I 0 W/m² 2,2 °C 2,9 °C 0,0 km/h (0 Bft)
08.11.2017 21:54 2,9 °C 2,9 °C 95 % 1019,3 hPa 0,0 mm 0,0 km/h (0 Bft) NW 304 ° 0 min 0,000 mm 0,0 UV-I 0 W/m² 2,2 °C 2,9 °C 0,0 km/h (0 Bft)
08.11.2017 21:55 2,9 °C 2,9 °C 95 % 1019,4 hPa 0,0 mm 0,0 km/h (0 Bft) NW 304 ° 0 min 0,000 mm 0,0 UV-I 0 W/m² 2,2 °C 2,9 °C 0,0 km/h (0 Bft)
08.11.2017 21:56 2,9 °C 2,9 °C 95 % 1019,3 hPa 0,0 mm 0,0 km/h (0 Bft) NW 304 ° 0 min 0,000 mm 0,0 UV-I 0 W/m² 2,2 °C 2,9 °C 0,0 km/h (0 Bft)
08.11.2017 21:57 2,9 °C 2,9 °C 95 % 1019,4 hPa 0,0 mm 0,0 km/h (0 Bft) NW 304 ° 0 min 0,000 mm 0,0 UV-I 0 W/m² 2,2 °C 2,9 °C 0,0 km/h (0 Bft)
08.11.2017 21:58 2,9 °C 2,9 °C 95 % 1019,4 hPa 0,0 mm 0,0 km/h (0 Bft) NW 304 ° 0 min 0,000 mm 0,0 UV-I 0 W/m² 2,2 °C 2,9 °C 0,0 km/h (0 Bft)
08.11.2017 21:59 2,9 °C 2,9 °C 95 % 1019,4 hPa 0,0 mm 0,0 km/h (0 Bft) NW 304 ° 0 min 0,000 mm 0,0 UV-I 0 W/m² 2,2 °C 2,9 °C 0,0 km/h (0 Bft)
08.11.2017 22:00 2,9 °C 2,9 °C 95 % 1019,4 hPa 0,0 mm 0,0 km/h (0 Bft) NW 304 ° 0 min 0,000 mm 0,0 UV-I 0 W/m² 2,2 °C 2,9 °C 0,0 km/h (0 Bft)
08.11.2017 22:01 2,9 °C 2,9 °C 95 % 1019,4 hPa 0,0 mm 0,0 km/h (0 Bft) NW 304 ° 0 min 0,000 mm 0,0 UV-I 0 W/m² 2,2 °C 2,9 °C 0,0 km/h (0 Bft)
08.11.2017 22:02 2,9 °C 2,9 °C 95 % 1019,4 hPa 0,0 mm 0,0 km/h (0 Bft) NW 304 ° 0 min 0,000 mm 0,0 UV-I 0 W/m² 2,2 °C 2,9 °C 0,0 km/h (0 Bft)
08.11.2017 22:03 2,9 °C 2,9 °C 95 % 1019,4 hPa 0,0 mm 0,0 km/h (0 Bft) NW 304 ° 0 min 0,000 mm 0,0 UV-I 0 W/m² 2,2 °C 2,9 °C 0,0 km/h (0 Bft)
08.11.2017 22:04 2,9 °C 2,9 °C 95 % 1019,3 hPa 0,0 mm 0,0 km/h (0 Bft) NW 304 ° 0 min 0,000 mm 0,0 UV-I 0 W/m² 2,2 °C 2,9 °C 0,0 km/h (0 Bft)
08.11.2017 22:05 2,9 °C 2,9 °C 95 % 1019,3 hPa 0,0 mm 0,0 km/h (0 Bft) NW 304 ° 0 min 0,000 mm 0,0 UV-I 0 W/m² 2,2 °C 2,9 °C 0,0 km/h (0 Bft)
08.11.2017 22:06 2,9 °C 2,9 °C 95 % 1019,4 hPa 0,0 mm 0,0 km/h (0 Bft) NW 304 ° 0 min 0,000 mm 0,0 UV-I 0 W/m² 2,2 °C 2,9 °C 0,0 km/h (0 Bft)
08.11.2017 22:07 2,9 °C 2,9 °C 95 % 1019,3 hPa 0,0 mm 0,0 km/h (0 Bft) NW 304 ° 0 min 0,000 mm 0,0 UV-I 0 W/m² 2,2 °C 2,9 °C 0,0 km/h (0 Bft)
08.11.2017 22:09 2,9 °C 2,9 °C 95 % 1019,4 hPa 0,0 mm 0,0 km/h (0 Bft) NW 304 ° 0 min 0,000 mm 0,0 UV-I 0 W/m² 2,2 °C 2,9 °C 0,0 km/h (0 Bft)
08.11.2017 22:10 2,9 °C 2,9 °C 95 % 1019,4 hPa 0,0 mm 0,0 km/h (0 Bft) NW 304 ° 0 min 0,000 mm 0,0 UV-I 0 W/m² 2,2 °C 2,9 °C 0,0 km/h (0 Bft)
08.11.2017 22:11 2,9 °C 2,9 °C 95 % 1019,4 hPa 0,0 mm 0,0 km/h (0 Bft) NW 304 ° 0 min 0,000 mm 0,0 UV-I 0 W/m² 2,2 °C 2,9 °C 0,0 km/h (0 Bft)
08.11.2017 22:12 2,9 °C 2,9 °C 95 % 1019,4 hPa 0,0 mm 0,0 km/h (0 Bft) NW 304 ° 0 min 0,000 mm 0,0 UV-I 0 W/m² 2,2 °C 2,9 °C 0,0 km/h (0 Bft)
08.11.2017 22:13 2,9 °C 2,9 °C 95 % 1019,4 hPa 0,0 mm 0,0 km/h (0 Bft) NW 304 ° 0 min 0,000 mm 0,0 UV-I 0 W/m² 2,2 °C 2,9 °C 0,0 km/h (0 Bft)
08.11.2017 22:14 2,9 °C 2,9 °C 95 % 1019,3 hPa 0,0 mm 0,0 km/h (0 Bft) NW 304 ° 0 min 0,000 mm 0,0 UV-I 0 W/m² 2,2 °C 2,9 °C 0,0 km/h (0 Bft)
08.11.2017 22:15 2,9 °C 2,9 °C 95 % 1019,4 hPa 0,0 mm 0,0 km/h (0 Bft) NW 304 ° 0 min 0,000 mm 0,0 UV-I 0 W/m² 2,2 °C 2,9 °C 0,0 km/h (0 Bft)
08.11.2017 22:16 2,9 °C 2,9 °C 95 % 1019,4 hPa 0,0 mm 0,0 km/h (0 Bft) NW 304 ° 0 min 0,000 mm 0,0 UV-I 0 W/m² 2,2 °C 2,9 °C 0,0 km/h (0 Bft)
08.11.2017 22:17 2,9 °C 2,9 °C 95 % 1019,4 hPa 0,0 mm 0,0 km/h (0 Bft) NW 304 ° 0 min 0,000 mm 0,0 UV-I 0 W/m² 2,2 °C 2,9 °C 0,0 km/h (0 Bft)
08.11.2017 22:18 2,9 °C 2,9 °C 95 % 1019,4 hPa 0,0 mm 0,0 km/h (0 Bft) NW 304 ° 0 min 0,000 mm 0,0 UV-I 0 W/m² 2,2 °C 2,9 °C 0,0 km/h (0 Bft)
08.11.2017 22:19 2,9 °C 2,9 °C 95 % 1019,4 hPa 0,0 mm 0,0 km/h (0 Bft) NW 304 ° 0 min 0,000 mm 0,0 UV-I 0 W/m² 2,2 °C 2,9 °C 0,0 km/h (0 Bft)
08.11.2017 22:20 2,9 °C 2,9 °C 95 % 1019,4 hPa 0,0 mm 0,0 km/h (0 Bft) NW 304 ° 0 min 0,000 mm 0,0 UV-I 0 W/m² 2,2 °C 2,9 °C 0,0 km/h (0 Bft)
08.11.2017 22:21 2,9 °C 2,9 °C 95 % 1019,4 hPa 0,0 mm 0,0 km/h (0 Bft) NW 304 ° 0 min 0,000 mm 0,0 UV-I 0 W/m² 2,2 °C 2,9 °C 0,0 km/h (0 Bft)
08.11.2017 22:22 2,9 °C 2,9 °C 95 % 1019,4 hPa 0,0 mm 0,0 km/h (0 Bft) NW 304 ° 0 min 0,000 mm 0,0 UV-I 0 W/m² 2,2 °C 2,9 °C 0,0 km/h (0 Bft)
08.11.2017 22:23 2,9 °C 2,9 °C 95 % 1019,3 hPa 0,0 mm 0,0 km/h (0 Bft) NW 304 ° 0 min 0,000 mm 0,0 UV-I 0 W/m² 2,2 °C 2,9 °C 0,0 km/h (0 Bft)
08.11.2017 22:24 2,9 °C 2,9 °C 95 % 1019,3 hPa 0,0 mm 0,0 km/h (0 Bft) NW 304 ° 0 min 0,000 mm 0,0 UV-I 0 W/m² 2,2 °C 2,9 °C 0,0 km/h (0 Bft)
08.11.2017 22:25 2,9 °C 2,9 °C 95 % 1019,4 hPa 0,0 mm 0,0 km/h (0 Bft) NW 304 ° 0 min 0,000 mm 0,0 UV-I 0 W/m² 2,2 °C 2,9 °C 0,0 km/h (0 Bft)
08.11.2017 22:26 2,9 °C 2,9 °C 95 % 1019,4 hPa 0,0 mm 0,0 km/h (0 Bft) NW 304 ° 0 min 0,000 mm 0,0 UV-I 0 W/m² 2,2 °C 2,9 °C 0,0 km/h (0 Bft)
08.11.2017 22:27 2,9 °C 2,9 °C 95 % 1019,4 hPa 0,0 mm 0,0 km/h (0 Bft) NW 304 ° 0 min 0,000 mm 0,0 UV-I 0 W/m² 2,2 °C 2,9 °C 0,0 km/h (0 Bft)
08.11.2017 22:28 2,9 °C 2,9 °C 95 % 1019,4 hPa 0,0 mm 0,0 km/h (0 Bft) NW 304 ° 0 min 0,000 mm 0,0 UV-I 0 W/m² 2,2 °C 2,9 °C 0,0 km/h (0 Bft)
08.11.2017 22:29 2,9 °C 2,9 °C 95 % 1019,4 hPa 0,0 mm 0,0 km/h (0 Bft) NW 304 ° 0 min 0,000 mm 0,0 UV-I 0 W/m² 2,2 °C 2,9 °C 0,0 km/h (0 Bft)
08.11.2017 22:30 2,9 °C 2,9 °C 95 % 1019,4 hPa 0,0 mm 0,0 km/h (0 Bft) NW 304 ° 0 min 0,000 mm 0,0 UV-I 0 W/m² 2,2 °C 2,9 °C 0,0 km/h (0 Bft)
08.11.2017 22:31 2,9 °C 2,9 °C 95 % 1019,4 hPa 0,0 mm 0,0 km/h (0 Bft) NW 304 ° 0 min 0,000 mm 0,0 UV-I 0 W/m² 2,2 °C 2,9 °C 0,0 km/h (0 Bft)
08.11.2017 22:32 2,9 °C 2,9 °C 95 % 1019,4 hPa 0,0 mm 0,0 km/h (0 Bft) NW 304 ° 0 min 0,000 mm 0,0 UV-I 0 W/m² 2,2 °C 2,9 °C 0,0 km/h (0 Bft)
08.11.2017 22:33 2,9 °C 2,9 °C 95 % 1019,4 hPa 0,0 mm 0,0 km/h (0 Bft) NW 304 ° 0 min 0,000 mm 0,0 UV-I 0 W/m² 2,2 °C 2,9 °C 0,0 km/h (0 Bft)
08.11.2017 22:34 2,9 °C 2,9 °C 95 % 1019,4 hPa 0,0 mm 0,0 km/h (0 Bft) NW 304 ° 0 min 0,000 mm 0,0 UV-I 0 W/m² 2,2 °C 2,9 °C 0,0 km/h (0 Bft)
08.11.2017 22:35 2,9 °C 2,9 °C 95 % 1019,4 hPa 0,0 mm 0,0 km/h (0 Bft) NW 304 ° 0 min 0,000 mm 0,0 UV-I 0 W/m² 2,2 °C 2,9 °C 0,0 km/h (0 Bft)
08.11.2017 22:36 2,9 °C 2,9 °C 95 % 1019,4 hPa 0,0 mm 0,0 km/h (0 Bft) NW 304 ° 0 min 0,000 mm 0,0 UV-I 0 W/m² 2,2 °C 2,9 °C 0,0 km/h (0 Bft)
08.11.2017 22:37 2,9 °C 2,9 °C 95 % 1019,4 hPa 0,0 mm 0,0 km/h (0 Bft) NW 304 ° 0 min 0,000 mm 0,0 UV-I 0 W/m² 2,2 °C 2,9 °C 0,0 km/h (0 Bft)
08.11.2017 22:38 2,9 °C 2,9 °C 95 % 1019,4 hPa 0,0 mm 0,0 km/h (0 Bft) NW 304 ° 0 min 0,000 mm 0,0 UV-I 0 W/m² 2,2 °C 2,9 °C 0,0 km/h (0 Bft)
08.11.2017 22:39 2,9 °C 2,9 °C 95 % 1019,4 hPa 0,0 mm 0,0 km/h (0 Bft) NW 304 ° 0 min 0,000 mm 0,0 UV-I 0 W/m² 2,2 °C 2,9 °C 0,0 km/h (0 Bft)
08.11.2017 22:40 2,9 °C 2,9 °C 95 % 1019,4 hPa 0,0 mm 0,0 km/h (0 Bft) NW 304 ° 0 min 0,000 mm 0,0 UV-I 0 W/m² 2,2 °C 2,9 °C 0,0 km/h (0 Bft)
08.11.2017 22:41 2,9 °C 2,9 °C 95 % 1019,5 hPa 0,0 mm 0,0 km/h (0 Bft) NW 304 ° 0 min 0,000 mm 0,0 UV-I 0 W/m² 2,2 °C 2,9 °C 0,0 km/h (0 Bft)
08.11.2017 22:42 2,9 °C 2,9 °C 95 % 1019,5 hPa 0,0 mm 0,0 km/h (0 Bft) NW 304 ° 0 min 0,000 mm 0,0 UV-I 0 W/m² 2,2 °C 2,9 °C 0,0 km/h (0 Bft)
08.11.2017 22:43 2,9 °C 2,9 °C 95 % 1019,4 hPa 0,0 mm 0,0 km/h (0 Bft) NW 304 ° 0 min 0,000 mm 0,0 UV-I 0 W/m² 2,2 °C 2,9 °C 0,0 km/h (0 Bft)
08.11.2017 22:44 2,9 °C 2,9 °C 95 % 1019,5 hPa 0,0 mm 0,0 km/h (0 Bft) NW 304 ° 0 min 0,000 mm 0,0 UV-I 0 W/m² 2,2 °C 2,9 °C 0,0 km/h (0 Bft)
08.11.2017 22:45 2,9 °C 2,9 °C 95 % 1019,5 hPa 0,0 mm 0,0 km/h (0 Bft) NW 304 ° 0 min 0,000 mm 0,0 UV-I 0 W/m² 2,2 °C 2,9 °C 0,0 km/h (0 Bft)
08.11.2017 22:46 2,9 °C 2,9 °C 95 % 1019,5 hPa 0,0 mm 0,0 km/h (0 Bft) NW 304 ° 0 min 0,000 mm 0,0 UV-I 0 W/m² 2,2 °C 2,9 °C 0,0 km/h (0 Bft)
08.11.2017 22:47 2,9 °C 2,9 °C 95 % 1019,5 hPa 0,0 mm 0,0 km/h (0 Bft) NW 304 ° 0 min 0,000 mm 0,0 UV-I 0 W/m² 2,2 °C 2,9 °C 0,0 km/h (0 Bft)
08.11.2017 22:48 2,9 °C 2,9 °C 95 % 1019,5 hPa 0,0 mm 0,0 km/h (0 Bft) NW 304 ° 0 min 0,000 mm 0,0 UV-I 0 W/m² 2,2 °C 2,9 °C 0,0 km/h (0 Bft)
08.11.2017 22:49 2,9 °C 2,9 °C 95 % 1019,5 hPa 0,0 mm 0,0 km/h (0 Bft) NW 304 ° 0 min 0,000 mm 0,0 UV-I 0 W/m² 2,2 °C 2,9 °C 0,0 km/h (0 Bft)
08.11.2017 22:50 2,9 °C 2,9 °C 95 % 1019,6 hPa 0,0 mm 0,0 km/h (0 Bft) NW 304 ° 0 min 0,000 mm 0,0 UV-I 0 W/m² 2,2 °C 2,9 °C 0,0 km/h (0 Bft)
08.11.2017 22:51 2,9 °C 2,9 °C 95 % 1019,5 hPa 0,0 mm 0,0 km/h (0 Bft) NW 304 ° 0 min 0,000 mm 0,0 UV-I 0 W/m² 2,2 °C 2,9 °C 0,0 km/h (0 Bft)
08.11.2017 22:52 2,9 °C 2,9 °C 95 % 1019,5 hPa 0,0 mm 0,0 km/h (0 Bft) NW 304 ° 0 min 0,000 mm 0,0 UV-I 0 W/m² 2,2 °C 2,9 °C 0,0 km/h (0 Bft)
08.11.2017 22:53 2,9 °C 2,9 °C 95 % 1019,5 hPa 0,0 mm 0,0 km/h (0 Bft) NW 304 ° 0 min 0,000 mm 0,0 UV-I 0 W/m² 2,2 °C 2,9 °C 0,0 km/h (0 Bft)
08.11.2017 22:54 2,9 °C 2,9 °C 95 % 1019,5 hPa 0,0 mm 0,0 km/h (0 Bft) NW 304 ° 0 min 0,000 mm 0,0 UV-I 0 W/m² 2,2 °C 2,9 °C 0,0 km/h (0 Bft)
08.11.2017 22:55 2,9 °C 2,9 °C 95 % 1019,5 hPa 0,0 mm 0,0 km/h (0 Bft) NW 304 ° 0 min 0,000 mm 0,0 UV-I 0 W/m² 2,2 °C 2,9 °C 0,0 km/h (0 Bft)
08.11.2017 22:56 2,9 °C 2,9 °C 95 % 1019,5 hPa 0,0 mm 0,0 km/h (0 Bft) NW 304 ° 0 min 0,000 mm 0,0 UV-I 0 W/m² 2,2 °C 2,9 °C 0,0 km/h (0 Bft)
08.11.2017 22:57 2,9 °C 2,9 °C 95 % 1019,6 hPa 0,0 mm 0,0 km/h (0 Bft) NW 304 ° 0 min 0,000 mm 0,0 UV-I 0 W/m² 2,2 °C 2,9 °C 0,0 km/h (0 Bft)
08.11.2017 22:58 2,9 °C 2,9 °C 95 % 1019,5 hPa 0,0 mm 0,0 km/h (0 Bft) NW 304 ° 0 min 0,000 mm 0,0 UV-I 0 W/m² 2,2 °C 2,9 °C 0,0 km/h (0 Bft)
08.11.2017 22:59 2,9 °C 2,9 °C 95 % 1019,5 hPa 0,0 mm 0,0 km/h (0 Bft) NW 304 ° 0 min 0,000 mm 0,0 UV-I 0 W/m² 2,2 °C 2,9 °C 0,0 km/h (0 Bft)
08.11.2017 23:00 2,9 °C 2,9 °C 95 % 1019,6 hPa 0,0 mm 0,0 km/h (0 Bft) NW 304 ° 0 min 0,000 mm 0,0 UV-I 0 W/m² 2,2 °C 2,9 °C 0,0 km/h (0 Bft)
08.11.2017 23:01 2,9 °C 2,9 °C 95 % 1019,6 hPa 0,0 mm 0,0 km/h (0 Bft) NW 304 ° 0 min 0,000 mm 0,0 UV-I 0 W/m² 2,2 °C 2,9 °C 0,0 km/h (0 Bft)
08.11.2017 23:02 2,9 °C 2,9 °C 95 % 1019,6 hPa 0,0 mm 0,0 km/h (0 Bft) NW 304 ° 0 min 0,000 mm 0,0 UV-I 0 W/m² 2,2 °C 2,9 °C 0,0 km/h (0 Bft)
08.11.2017 23:03 2,9 °C 2,9 °C 95 % 1019,6 hPa 0,0 mm 0,0 km/h (0 Bft) NW 304 ° 0 min 0,000 mm 0,0 UV-I 0 W/m² 2,2 °C 2,9 °C 0,0 km/h (0 Bft)
08.11.2017 23:04 2,9 °C 2,9 °C 95 % 1019,6 hPa 0,0 mm 0,0 km/h (0 Bft) NW 304 ° 0 min 0,000 mm 0,0 UV-I 0 W/m² 2,2 °C 2,9 °C 0,0 km/h (0 Bft)
08.11.2017 23:05 2,9 °C 2,9 °C 95 % 1019,6 hPa 0,0 mm 0,0 km/h (0 Bft) NW 304 ° 0 min 0,000 mm 0,0 UV-I 0 W/m² 2,2 °C 2,9 °C 0,0 km/h (0 Bft)
08.11.2017 23:06 2,8 °C 2,9 °C 95 % 1019,6 hPa 0,0 mm 0,0 km/h (0 Bft) NW 304 ° 0 min 0,000 mm 0,0 UV-I 0 W/m² 2,1 °C 2,8 °C 0,0 km/h (0 Bft)
08.11.2017 23:07 2,9 °C 2,9 °C 95 % 1019,6 hPa 0,0 mm 0,0 km/h (0 Bft) NW 304 ° 0 min 0,000 mm 0,0 UV-I 0 W/m² 2,2 °C 2,9 °C 0,0 km/h (0 Bft)
08.11.2017 23:08 2,8 °C 2,9 °C 95 % 1019,6 hPa 0,0 mm 0,0 km/h (0 Bft) NW 304 ° 0 min 0,000 mm 0,0 UV-I 0 W/m² 2,1 °C 2,8 °C 0,0 km/h (0 Bft)
08.11.2017 23:09 2,8 °C 2,8 °C 95 % 1019,6 hPa 0,0 mm 0,0 km/h (0 Bft) NW 304 ° 0 min 0,000 mm 0,0 UV-I 0 W/m² 2,1 °C 2,8 °C 0,0 km/h (0 Bft)
08.11.2017 23:10 2,8 °C 2,8 °C 95 % 1019,6 hPa 0,0 mm 0,0 km/h (0 Bft) NW 304 ° 0 min 0,000 mm 0,0 UV-I 0 W/m² 2,1 °C 2,8 °C 0,0 km/h (0 Bft)
08.11.2017 23:11 2,8 °C 2,8 °C 95 % 1019,6 hPa 0,0 mm 0,0 km/h (0 Bft) NW 304 ° 0 min 0,000 mm 0,0 UV-I 0 W/m² 2,1 °C 2,8 °C 0,0 km/h (0 Bft)
08.11.2017 23:12 2,8 °C 2,8 °C 95 % 1019,6 hPa 0,0 mm 0,0 km/h (0 Bft) NW 304 ° 0 min 0,000 mm 0,0 UV-I 0 W/m² 2,1 °C 2,8 °C 0,0 km/h (0 Bft)
08.11.2017 23:13 2,8 °C 2,8 °C 95 % 1019,6 hPa 0,0 mm 0,0 km/h (0 Bft) NW 304 ° 0 min 0,000 mm 0,0 UV-I 0 W/m² 2,1 °C 2,8 °C 0,0 km/h (0 Bft)
08.11.2017 23:14 2,8 °C 2,8 °C 95 % 1019,6 hPa 0,0 mm 0,0 km/h (0 Bft) NW 304 ° 0 min 0,000 mm 0,0 UV-I 0 W/m² 2,1 °C 2,8 °C 0,0 km/h (0 Bft)
08.11.2017 23:15 2,8 °C 2,8 °C 95 % 1019,6 hPa 0,0 mm 0,0 km/h (0 Bft) NW 304 ° 0 min 0,000 mm 0,0 UV-I 0 W/m² 2,1 °C 2,8 °C 0,0 km/h (0 Bft)
08.11.2017 23:16 2,8 °C 2,8 °C 95 % 1019,6 hPa 0,0 mm 0,0 km/h (0 Bft) NW 304 ° 0 min 0,000 mm 0,0 UV-I 0 W/m² 2,1 °C 2,8 °C 0,0 km/h (0 Bft)
08.11.2017 23:17 2,8 °C 2,8 °C 95 % 1019,6 hPa 0,0 mm 0,0 km/h (0 Bft) NW 304 ° 0 min 0,000 mm 0,0 UV-I 0 W/m² 2,1 °C 2,8 °C 0,0 km/h (0 Bft)
08.11.2017 23:18 2,8 °C 2,9 °C 95 % 1019,7 hPa 0,0 mm 0,0 km/h (0 Bft) NW 304 ° 0 min 0,000 mm 0,0 UV-I 0 W/m² 2,1 °C 2,8 °C 0,0 km/h (0 Bft)
08.11.2017 23:19 2,8 °C 2,8 °C 95 % 1019,7 hPa 0,0 mm 0,0 km/h (0 Bft) NW 304 ° 0 min 0,000 mm 0,0 UV-I 0 W/m² 2,1 °C 2,8 °C 0,0 km/h (0 Bft)
08.11.2017 23:20 2,8 °C 2,8 °C 95 % 1019,7 hPa 0,0 mm 0,0 km/h (0 Bft) NW 304 ° 0 min 0,000 mm 0,0 UV-I 0 W/m² 2,1 °C 2,8 °C 0,0 km/h (0 Bft)
08.11.2017 23:21 2,8 °C 2,8 °C 95 % 1019,8 hPa 0,0 mm 0,0 km/h (0 Bft) NW 304 ° 0 min 0,000 mm 0,0 UV-I 0 W/m² 2,1 °C 2,8 °C 0,0 km/h (0 Bft)
08.11.2017 23:22 2,8 °C 2,8 °C 95 % 1019,7 hPa 0,0 mm 0,0 km/h (0 Bft) NW 304 ° 0 min 0,000 mm 0,0 UV-I 0 W/m² 2,1 °C 2,8 °C 0,0 km/h (0 Bft)
08.11.2017 23:23 2,8 °C 2,8 °C 95 % 1019,7 hPa 0,0 mm 0,0 km/h (0 Bft) NW 304 ° 0 min 0,000 mm 0,0 UV-I 0 W/m² 2,1 °C 2,8 °C 0,0 km/h (0 Bft)
08.11.2017 23:24 2,8 °C 2,8 °C 95 % 1019,8 hPa 0,0 mm 0,0 km/h (0 Bft) NW 304 ° 0 min 0,000 mm 0,0 UV-I 0 W/m² 2,1 °C 2,8 °C 0,0 km/h (0 Bft)
08.11.2017 23:25 2,8 °C 2,8 °C 95 % 1019,8 hPa 0,0 mm 0,0 km/h (0 Bft) NW 304 ° 0 min 0,000 mm 0,0 UV-I 0 W/m² 2,1 °C 2,8 °C 0,0 km/h (0 Bft)
08.11.2017 23:26 2,8 °C 2,8 °C 95 % 1019,8 hPa 0,0 mm 0,0 km/h (0 Bft) NW 304 ° 0 min 0,000 mm 0,0 UV-I 0 W/m² 2,1 °C 2,8 °C 0,0 km/h (0 Bft)
08.11.2017 23:27 2,8 °C 2,8 °C 95 % 1019,8 hPa 0,0 mm 0,0 km/h (0 Bft) NW 304 ° 0 min 0,000 mm 0,0 UV-I 0 W/m² 2,1 °C 2,8 °C 0,0 km/h (0 Bft)
08.11.2017 23:28 2,8 °C 2,8 °C 95 % 1019,8 hPa 0,0 mm 0,0 km/h (0 Bft) NW 304 ° 0 min 0,000 mm 0,0 UV-I 0 W/m² 2,1 °C 2,8 °C 0,0 km/h (0 Bft)
08.11.2017 23:29 2,8 °C 2,8 °C 95 % 1019,8 hPa 0,0 mm 0,0 km/h (0 Bft) NW 304 ° 0 min 0,000 mm 0,0 UV-I 0 W/m² 2,1 °C 2,8 °C 0,0 km/h (0 Bft)
08.11.2017 23:30 2,8 °C 2,8 °C 95 % 1019,8 hPa 0,0 mm 0,0 km/h (0 Bft) NW 304 ° 0 min 0,000 mm 0,0 UV-I 0 W/m² 2,1 °C 2,8 °C 0,0 km/h (0 Bft)
08.11.2017 23:31 2,8 °C 2,8 °C 95 % 1019,8 hPa 0,0 mm 0,0 km/h (0 Bft) NW 304 ° 0 min 0,000 mm 0,0 UV-I 0 W/m² 2,1 °C 2,8 °C 0,0 km/h (0 Bft)
08.11.2017 23:32 2,8 °C 2,8 °C 95 % 1019,8 hPa 0,0 mm 0,0 km/h (0 Bft) NW 304 ° 0 min 0,000 mm 0,0 UV-I 0 W/m² 2,1 °C 2,8 °C 0,0 km/h (0 Bft)
08.11.2017 23:33 2,8 °C 2,8 °C 95 % 1019,8 hPa 0,0 mm 0,0 km/h (0 Bft) NW 304 ° 0 min 0,000 mm 0,0 UV-I 0 W/m² 2,1 °C 2,8 °C 0,0 km/h (0 Bft)
08.11.2017 23:34 2,8 °C 2,8 °C 95 % 1019,8 hPa 0,0 mm 0,0 km/h (0 Bft) NW 304 ° 0 min 0,000 mm 0,0 UV-I 0 W/m² 2,1 °C 2,8 °C 0,0 km/h (0 Bft)
08.11.2017 23:35 2,8 °C 2,9 °C 95 % 1019,8 hPa 0,0 mm 0,0 km/h (0 Bft) NW 304 ° 0 min 0,000 mm 0,0 UV-I 0 W/m² 2,1 °C 2,8 °C 0,0 km/h (0 Bft)
08.11.2017 23:36 2,8 °C 2,8 °C 95 % 1019,8 hPa 0,0 mm 0,0 km/h (0 Bft) NW 304 ° 0 min 0,000 mm 0,0 UV-I 0 W/m² 2,1 °C 2,8 °C 0,0 km/h (0 Bft)
08.11.2017 23:37 2,8 °C 2,8 °C 95 % 1019,8 hPa 0,0 mm 0,0 km/h (0 Bft) NW 304 ° 0 min 0,000 mm 0,0 UV-I 0 W/m² 2,1 °C 2,8 °C 0,0 km/h (0 Bft)
08.11.2017 23:38 2,8 °C 2,8 °C 95 % 1019,8 hPa 0,0 mm 0,0 km/h (0 Bft) NW 304 ° 0 min 0,000 mm 0,0 UV-I 0 W/m² 2,1 °C 2,8 °C 0,0 km/h (0 Bft)
08.11.2017 23:39 2,8 °C 2,8 °C 95 % 1019,8 hPa 0,0 mm 0,0 km/h (0 Bft) NW 304 ° 0 min 0,000 mm 0,0 UV-I 0 W/m² 2,1 °C 2,8 °C 0,0 km/h (0 Bft)
08.11.2017 23:40 2,8 °C 2,8 °C 95 % 1019,8 hPa 0,0 mm 0,0 km/h (0 Bft) NW 304 ° 0 min 0,000 mm 0,0 UV-I 0 W/m² 2,1 °C 2,8 °C 0,0 km/h (0 Bft)
08.11.2017 23:41 2,8 °C 2,8 °C 95 % 1019,8 hPa 0,0 mm 0,0 km/h (0 Bft) NW 304 ° 0 min 0,000 mm 0,0 UV-I 0 W/m² 2,1 °C 2,8 °C 0,0 km/h (0 Bft)
08.11.2017 23:42 2,8 °C 2,8 °C 95 % 1019,8 hPa 0,0 mm 0,0 km/h (0 Bft) NW 304 ° 0 min 0,000 mm 0,0 UV-I 0 W/m² 2,1 °C 2,8 °C 0,0 km/h (0 Bft)
08.11.2017 23:43 2,8 °C 2,8 °C 95 % 1019,8 hPa 0,0 mm 0,0 km/h (0 Bft) NW 304 ° 0 min 0,000 mm 0,0 UV-I 0 W/m² 2,1 °C 2,8 °C 0,0 km/h (0 Bft)
08.11.2017 23:44 2,8 °C 2,8 °C 95 % 1019,8 hPa 0,0 mm 0,0 km/h (0 Bft) NW 304 ° 0 min 0,000 mm 0,0 UV-I 0 W/m² 2,1 °C 2,8 °C 0,0 km/h (0 Bft)
08.11.2017 23:45 2,8 °C 2,8 °C 95 % 1019,8 hPa 0,0 mm 0,0 km/h (0 Bft) NW 304 ° 0 min 0,000 mm 0,0 UV-I 0 W/m² 2,1 °C 2,8 °C 0,0 km/h (0 Bft)
08.11.2017 23:46 2,8 °C 2,8 °C 95 % 1019,8 hPa 0,0 mm 0,0 km/h (0 Bft) NW 304 ° 0 min 0,000 mm 0,0 UV-I 0 W/m² 2,1 °C 2,8 °C 0,0 km/h (0 Bft)
08.11.2017 23:47 2,8 °C 2,8 °C 95 % 1019,8 hPa 0,0 mm 0,0 km/h (0 Bft) NW 304 ° 0 min 0,000 mm 0,0 UV-I 0 W/m² 2,1 °C 2,8 °C 0,0 km/h (0 Bft)
08.11.2017 23:48 2,8 °C 2,8 °C 95 % 1019,8 hPa 0,0 mm 0,0 km/h (0 Bft) NW 304 ° 0 min 0,000 mm 0,0 UV-I 0 W/m² 2,1 °C 2,8 °C 0,0 km/h (0 Bft)
08.11.2017 23:49 2,8 °C 2,8 °C 95 % 1019,8 hPa 0,0 mm 0,0 km/h (0 Bft) NW 304 ° 0 min 0,000 mm 0,0 UV-I 0 W/m² 2,1 °C 2,8 °C 0,0 km/h (0 Bft)
08.11.2017 23:50 2,8 °C 2,8 °C 95 % 1019,9 hPa 0,0 mm 0,0 km/h (0 Bft) NW 304 ° 0 min 0,000 mm 0,0 UV-I 0 W/m² 2,1 °C 2,8 °C 0,0 km/h (0 Bft)
08.11.2017 23:51 2,8 °C 2,8 °C 95 % 1019,8 hPa 0,0 mm 0,0 km/h (0 Bft) NW 304 ° 0 min 0,000 mm 0,0 UV-I 0 W/m² 2,1 °C 2,8 °C 0,0 km/h (0 Bft)
08.11.2017 23:52 2,8 °C 2,8 °C 95 % 1019,8 hPa 0,0 mm 0,0 km/h (0 Bft) NW 304 ° 0 min 0,000 mm 0,0 UV-I 0 W/m² 2,1 °C 2,8 °C 0,0 km/h (0 Bft)
08.11.2017 23:53 2,8 °C 2,8 °C 95 % 1019,8 hPa 0,0 mm 0,0 km/h (0 Bft) NW 304 ° 0 min 0,000 mm 0,0 UV-I 0 W/m² 2,1 °C 2,8 °C 0,0 km/h (0 Bft)
08.11.2017 23:54 2,8 °C 2,8 °C 95 % 1019,8 hPa 0,0 mm 0,0 km/h (0 Bft) NW 304 ° 0 min 0,000 mm 0,0 UV-I 0 W/m² 2,1 °C 2,8 °C 0,0 km/h (0 Bft)
08.11.2017 23:55 2,8 °C 2,8 °C 95 % 1019,8 hPa 0,0 mm 0,0 km/h (0 Bft) NW 304 ° 0 min 0,000 mm 0,0 UV-I 0 W/m² 2,1 °C 2,8 °C 0,0 km/h (0 Bft)
08.11.2017 23:56 2,8 °C 2,8 °C 95 % 1019,8 hPa 0,0 mm 0,0 km/h (0 Bft) NW 304 ° 0 min 0,000 mm 0,0 UV-I 0 W/m² 2,1 °C 2,8 °C 0,0 km/h (0 Bft)
08.11.2017 23:57 2,8 °C 2,8 °C 95 % 1019,8 hPa 0,0 mm 0,0 km/h (0 Bft) NW 304 ° 0 min 0,000 mm 0,0 UV-I 0 W/m² 2,1 °C 2,8 °C 0,0 km/h (0 Bft)
08.11.2017 23:58 2,8 °C 2,8 °C 95 % 1019,8 hPa 0,0 mm 0,0 km/h (0 Bft) NW 304 ° 0 min 0,000 mm 0,0 UV-I 0 W/m² 2,1 °C 2,8 °C 0,0 km/h (0 Bft)
08.11.2017 23:59 2,8 °C 2,8 °C 95 % 1019,8 hPa 0,0 mm 0,0 km/h (0 Bft) NW 304 ° 0 min 0,000 mm 0,0 UV-I 0 W/m² 2,1 °C 2,8 °C 0,0 km/h (0 Bft)
_ Min-Zeit 07:16 07:16 13:47 02:46 - 23:59 - - - - - - 07:16 07:31 23:59
Minimum _ 0,2 °C 0,2 °C 87 % 1014,2 hPa - 0,0 km/h (0 Bft) - - - - - - -0,5 °C -0,9 °C 0,0 km/h (0 Bft)
_ Max-Zeit 11:39 11:41 08:49 23:50 11:21 02:37 - - 23:59 11:00 10:59 10:09 11:56 11:46 02:36
Maximum _ 4,8 °C 4,8 °C 96 % 1019,9 hPa 0,2 mm 9,1 km/h
W-SW (2 Bft)
- - 0 min 0,051 mm 1,0 UV-I 174 W/m² 3,1 °C 4,7 °C 19,3 km/h
W-SW (3 Bft)
Durchschnitt _ 3,0 °C 3,0 °C 93 % 1016,8 hPa #1,6 mm 1,1 km/h (1 Bft) W-NW - #0 min. #0,254 mm 0,8 UV-I 27 W/m² 2,0 °C 2,9 °C 2,1 km/h (1 Bft)